<?xml version="1.0" encoding="utf-8"?>
<gpx xmlns:xsi="http://www.w3.org/2001/XMLSchema-instance" xmlns:xsd="http://www.w3.org/2001/XMLSchema" version="1.1" creator="Shapelink.com" xmlns="http://www.topografix.com/GPX/1/1" xmlns:gpxtpx="http://www.garmin.com/xmlschemas/TrackPointExtension/v1">
  <metadata>
    <name>Kører 34.59 km, 2011-07-03</name>
    <desc></desc>
    <author><name>Jojje Borssén</name></author> 
    <time>2011-07-03T11:26:01Z</time>
  </metadata>
  <trk>
    <name>Kører 34.59 km, 2011-07-03</name>
    <trkseg>
      <trkpt lat="62.099016" lon="12.313771">
        <ele>823.076</ele>
        <time>2011-07-03T11:26:01Z</time>
      </trkpt>
      <trkpt lat="62.099091" lon="12.313855">
        <ele>823.583</ele>
        <time>2011-07-03T11:26:12Z</time>
      </trkpt>
      <trkpt lat="62.099108" lon="12.313878">
        <ele>823.955</ele>
        <time>2011-07-03T11:26:15Z</time>
      </trkpt>
      <trkpt lat="62.099141" lon="12.313965">
        <ele>824.53</ele>
        <time>2011-07-03T11:26:23Z</time>
      </trkpt>
      <trkpt lat="62.099169" lon="12.314021">
        <ele>824.752</ele>
        <time>2011-07-03T11:26:30Z</time>
      </trkpt>
      <trkpt lat="62.0992" lon="12.314118">
        <ele>825.672</ele>
        <time>2011-07-03T11:26:38Z</time>
      </trkpt>
      <trkpt lat="62.099213" lon="12.314195">
        <ele>826.133</ele>
        <time>2011-07-03T11:26:42Z</time>
      </trkpt>
      <trkpt lat="62.099242" lon="12.314303">
        <ele>826.674</ele>
        <time>2011-07-03T11:26:49Z</time>
      </trkpt>
      <trkpt lat="62.099298" lon="12.314431">
        <ele>826.975</ele>
        <time>2011-07-03T11:26:56Z</time>
      </trkpt>
      <trkpt lat="62.099342" lon="12.314541">
        <ele>827.538</ele>
        <time>2011-07-03T11:27:01Z</time>
      </trkpt>
      <trkpt lat="62.099414" lon="12.314701">
        <ele>828.322</ele>
        <time>2011-07-03T11:27:09Z</time>
      </trkpt>
      <trkpt lat="62.099459" lon="12.314786">
        <ele>828.636</ele>
        <time>2011-07-03T11:27:14Z</time>
      </trkpt>
      <trkpt lat="62.099483" lon="12.31485">
        <ele>828.918</ele>
        <time>2011-07-03T11:27:17Z</time>
      </trkpt>
      <trkpt lat="62.099544" lon="12.314988">
        <ele>829.927</ele>
        <time>2011-07-03T11:27:24Z</time>
      </trkpt>
      <trkpt lat="62.099548" lon="12.315006">
        <ele>830.175</ele>
        <time>2011-07-03T11:27:25Z</time>
      </trkpt>
      <trkpt lat="62.099583" lon="12.315077">
        <ele>831.376</ele>
        <time>2011-07-03T11:27:30Z</time>
      </trkpt>
      <trkpt lat="62.099643" lon="12.315167">
        <ele>832.513</ele>
        <time>2011-07-03T11:27:37Z</time>
      </trkpt>
      <trkpt lat="62.099733" lon="12.315235">
        <ele>833.217</ele>
        <time>2011-07-03T11:27:43Z</time>
      </trkpt>
      <trkpt lat="62.099765" lon="12.315313">
        <ele>834.217</ele>
        <time>2011-07-03T11:27:49Z</time>
      </trkpt>
      <trkpt lat="62.099778" lon="12.315393">
        <ele>835.305</ele>
        <time>2011-07-03T11:27:55Z</time>
      </trkpt>
      <trkpt lat="62.099816" lon="12.315467">
        <ele>836.48</ele>
        <time>2011-07-03T11:28:01Z</time>
      </trkpt>
      <trkpt lat="62.099867" lon="12.315541">
        <ele>837.816</ele>
        <time>2011-07-03T11:28:06Z</time>
      </trkpt>
      <trkpt lat="62.099911" lon="12.315646">
        <ele>839.603</ele>
        <time>2011-07-03T11:28:13Z</time>
      </trkpt>
      <trkpt lat="62.09992" lon="12.315773">
        <ele>841.218</ele>
        <time>2011-07-03T11:28:19Z</time>
      </trkpt>
      <trkpt lat="62.099928" lon="12.315821">
        <ele>842.28</ele>
        <time>2011-07-03T11:28:22Z</time>
      </trkpt>
      <trkpt lat="62.099963" lon="12.315934">
        <ele>844.066</ele>
        <time>2011-07-03T11:28:30Z</time>
      </trkpt>
      <trkpt lat="62.100009" lon="12.315994">
        <ele>845.883</ele>
        <time>2011-07-03T11:28:37Z</time>
      </trkpt>
      <trkpt lat="62.100039" lon="12.316079">
        <ele>847.433</ele>
        <time>2011-07-03T11:28:43Z</time>
      </trkpt>
      <trkpt lat="62.100076" lon="12.316177">
        <ele>848.738</ele>
        <time>2011-07-03T11:28:49Z</time>
      </trkpt>
      <trkpt lat="62.100114" lon="12.316263">
        <ele>849.631</ele>
        <time>2011-07-03T11:28:55Z</time>
      </trkpt>
      <trkpt lat="62.100162" lon="12.316344">
        <ele>850.762</ele>
        <time>2011-07-03T11:29:01Z</time>
      </trkpt>
      <trkpt lat="62.100167" lon="12.316365">
        <ele>850.999</ele>
        <time>2011-07-03T11:29:02Z</time>
      </trkpt>
      <trkpt lat="62.100217" lon="12.316453">
        <ele>852.326</ele>
        <time>2011-07-03T11:29:08Z</time>
      </trkpt>
      <trkpt lat="62.10024" lon="12.316494">
        <ele>853.1</ele>
        <time>2011-07-03T11:29:11Z</time>
      </trkpt>
      <trkpt lat="62.100265" lon="12.316622">
        <ele>854.751</ele>
        <time>2011-07-03T11:29:19Z</time>
      </trkpt>
      <trkpt lat="62.100285" lon="12.316712">
        <ele>855.838</ele>
        <time>2011-07-03T11:29:25Z</time>
      </trkpt>
      <trkpt lat="62.100297" lon="12.316738">
        <ele>856.24</ele>
        <time>2011-07-03T11:29:27Z</time>
      </trkpt>
      <trkpt lat="62.100416" lon="12.316798">
        <ele>856.957</ele>
        <time>2011-07-03T11:29:35Z</time>
      </trkpt>
      <trkpt lat="62.100457" lon="12.316869">
        <ele>857.552</ele>
        <time>2011-07-03T11:29:40Z</time>
      </trkpt>
      <trkpt lat="62.100527" lon="12.316933">
        <ele>858.686</ele>
        <time>2011-07-03T11:29:46Z</time>
      </trkpt>
      <trkpt lat="62.100581" lon="12.317077">
        <ele>859.317</ele>
        <time>2011-07-03T11:29:53Z</time>
      </trkpt>
      <trkpt lat="62.100679" lon="12.317206">
        <ele>859.971</ele>
        <time>2011-07-03T11:30:02Z</time>
      </trkpt>
      <trkpt lat="62.100759" lon="12.317334">
        <ele>860.956</ele>
        <time>2011-07-03T11:30:11Z</time>
      </trkpt>
      <trkpt lat="62.100813" lon="12.317391">
        <ele>861.478</ele>
        <time>2011-07-03T11:30:15Z</time>
      </trkpt>
      <trkpt lat="62.100871" lon="12.317522">
        <ele>862.427</ele>
        <time>2011-07-03T11:30:22Z</time>
      </trkpt>
      <trkpt lat="62.100904" lon="12.317547">
        <ele>862.817</ele>
        <time>2011-07-03T11:30:25Z</time>
      </trkpt>
      <trkpt lat="62.100953" lon="12.317639">
        <ele>863.587</ele>
        <time>2011-07-03T11:30:31Z</time>
      </trkpt>
      <trkpt lat="62.10097" lon="12.317683">
        <ele>864.005</ele>
        <time>2011-07-03T11:30:34Z</time>
      </trkpt>
      <trkpt lat="62.101059" lon="12.31769">
        <ele>864.89</ele>
        <time>2011-07-03T11:30:40Z</time>
      </trkpt>
      <trkpt lat="62.101111" lon="12.317731">
        <ele>865.863</ele>
        <time>2011-07-03T11:30:45Z</time>
      </trkpt>
      <trkpt lat="62.101137" lon="12.317757">
        <ele>866.157</ele>
        <time>2011-07-03T11:30:49Z</time>
      </trkpt>
      <trkpt lat="62.101108" lon="12.317924">
        <ele>865.708</ele>
        <time>2011-07-03T11:30:58Z</time>
      </trkpt>
      <trkpt lat="62.101101" lon="12.317942">
        <ele>865.941</ele>
        <time>2011-07-03T11:30:59Z</time>
      </trkpt>
      <trkpt lat="62.101112" lon="12.318025">
        <ele>866.427</ele>
        <time>2011-07-03T11:31:03Z</time>
      </trkpt>
      <trkpt lat="62.101167" lon="12.31819">
        <ele>868.123</ele>
        <time>2011-07-03T11:31:12Z</time>
      </trkpt>
      <trkpt lat="62.101223" lon="12.318274">
        <ele>869.246</ele>
        <time>2011-07-03T11:31:19Z</time>
      </trkpt>
      <trkpt lat="62.101239" lon="12.318329">
        <ele>869.955</ele>
        <time>2011-07-03T11:31:22Z</time>
      </trkpt>
      <trkpt lat="62.101328" lon="12.318436">
        <ele>871.136</ele>
        <time>2011-07-03T11:31:32Z</time>
      </trkpt>
      <trkpt lat="62.101425" lon="12.318541">
        <ele>872.351</ele>
        <time>2011-07-03T11:31:41Z</time>
      </trkpt>
      <trkpt lat="62.101466" lon="12.318619">
        <ele>872.834</ele>
        <time>2011-07-03T11:31:45Z</time>
      </trkpt>
      <trkpt lat="62.101543" lon="12.318729">
        <ele>872.779</ele>
        <time>2011-07-03T11:31:52Z</time>
      </trkpt>
      <trkpt lat="62.101575" lon="12.318737">
        <ele>872.618</ele>
        <time>2011-07-03T11:31:55Z</time>
      </trkpt>
      <trkpt lat="62.101601" lon="12.318784">
        <ele>872.502</ele>
        <time>2011-07-03T11:31:59Z</time>
      </trkpt>
      <trkpt lat="62.101648" lon="12.318806">
        <ele>872.534</ele>
        <time>2011-07-03T11:32:03Z</time>
      </trkpt>
      <trkpt lat="62.101718" lon="12.318821">
        <ele>872.747</ele>
        <time>2011-07-03T11:32:09Z</time>
      </trkpt>
      <trkpt lat="62.101797" lon="12.318882">
        <ele>873.375</ele>
        <time>2011-07-03T11:32:16Z</time>
      </trkpt>
      <trkpt lat="62.101854" lon="12.318946">
        <ele>874.224</ele>
        <time>2011-07-03T11:32:22Z</time>
      </trkpt>
      <trkpt lat="62.101965" lon="12.318959">
        <ele>874.949</ele>
        <time>2011-07-03T11:32:31Z</time>
      </trkpt>
      <trkpt lat="62.10206" lon="12.318943">
        <ele>875.624</ele>
        <time>2011-07-03T11:32:39Z</time>
      </trkpt>
      <trkpt lat="62.102151" lon="12.318951">
        <ele>875.614</ele>
        <time>2011-07-03T11:32:46Z</time>
      </trkpt>
      <trkpt lat="62.102176" lon="12.318947">
        <ele>875.806</ele>
        <time>2011-07-03T11:32:48Z</time>
      </trkpt>
      <trkpt lat="62.102257" lon="12.318985">
        <ele>876.553</ele>
        <time>2011-07-03T11:32:56Z</time>
      </trkpt>
      <trkpt lat="62.102371" lon="12.318925">
        <ele>877.218</ele>
        <time>2011-07-03T11:33:05Z</time>
      </trkpt>
      <trkpt lat="62.102461" lon="12.31889">
        <ele>877.38</ele>
        <time>2011-07-03T11:33:12Z</time>
      </trkpt>
      <trkpt lat="62.102538" lon="12.318868">
        <ele>877.923</ele>
        <time>2011-07-03T11:33:19Z</time>
      </trkpt>
      <trkpt lat="62.102555" lon="12.318843">
        <ele>878.077</ele>
        <time>2011-07-03T11:33:21Z</time>
      </trkpt>
      <trkpt lat="62.102624" lon="12.318796">
        <ele>878.087</ele>
        <time>2011-07-03T11:33:28Z</time>
      </trkpt>
      <trkpt lat="62.102679" lon="12.318769">
        <ele>878.105</ele>
        <time>2011-07-03T11:33:33Z</time>
      </trkpt>
      <trkpt lat="62.10273" lon="12.318774">
        <ele>878.402</ele>
        <time>2011-07-03T11:33:38Z</time>
      </trkpt>
      <trkpt lat="62.102776" lon="12.318747">
        <ele>878.704</ele>
        <time>2011-07-03T11:33:42Z</time>
      </trkpt>
      <trkpt lat="62.102858" lon="12.318747">
        <ele>878.734</ele>
        <time>2011-07-03T11:33:49Z</time>
      </trkpt>
      <trkpt lat="62.102897" lon="12.318737">
        <ele>879.149</ele>
        <time>2011-07-03T11:33:54Z</time>
      </trkpt>
      <trkpt lat="62.102927" lon="12.318743">
        <ele>879.076</ele>
        <time>2011-07-03T11:33:59Z</time>
      </trkpt>
      <trkpt lat="62.103017" lon="12.318778">
        <ele>879.705</ele>
        <time>2011-07-03T11:34:06Z</time>
      </trkpt>
      <trkpt lat="62.103056" lon="12.318815">
        <ele>881.173</ele>
        <time>2011-07-03T11:34:12Z</time>
      </trkpt>
      <trkpt lat="62.103123" lon="12.318827">
        <ele>883.013</ele>
        <time>2011-07-03T11:34:20Z</time>
      </trkpt>
      <trkpt lat="62.103211" lon="12.318832">
        <ele>884.116</ele>
        <time>2011-07-03T11:34:28Z</time>
      </trkpt>
      <trkpt lat="62.103221" lon="12.318835">
        <ele>884.169</ele>
        <time>2011-07-03T11:34:29Z</time>
      </trkpt>
      <trkpt lat="62.103242" lon="12.31886">
        <ele>884.487</ele>
        <time>2011-07-03T11:34:32Z</time>
      </trkpt>
      <trkpt lat="62.103319" lon="12.318873">
        <ele>885.047</ele>
        <time>2011-07-03T11:34:39Z</time>
      </trkpt>
      <trkpt lat="62.10343" lon="12.318909">
        <ele>884.908</ele>
        <time>2011-07-03T11:34:47Z</time>
      </trkpt>
      <trkpt lat="62.103489" lon="12.318977">
        <ele>885.818</ele>
        <time>2011-07-03T11:34:53Z</time>
      </trkpt>
      <trkpt lat="62.103554" lon="12.319029">
        <ele>886.721</ele>
        <time>2011-07-03T11:35:00Z</time>
      </trkpt>
      <trkpt lat="62.103569" lon="12.319049">
        <ele>886.96</ele>
        <time>2011-07-03T11:35:03Z</time>
      </trkpt>
      <trkpt lat="62.103616" lon="12.31914">
        <ele>888.095</ele>
        <time>2011-07-03T11:35:10Z</time>
      </trkpt>
      <trkpt lat="62.103675" lon="12.319258">
        <ele>890.159</ele>
        <time>2011-07-03T11:35:18Z</time>
      </trkpt>
      <trkpt lat="62.10369" lon="12.319268">
        <ele>890.324</ele>
        <time>2011-07-03T11:35:20Z</time>
      </trkpt>
      <trkpt lat="62.10375" lon="12.319329">
        <ele>890.477</ele>
        <time>2011-07-03T11:35:27Z</time>
      </trkpt>
      <trkpt lat="62.1038" lon="12.319351">
        <ele>890.941</ele>
        <time>2011-07-03T11:35:31Z</time>
      </trkpt>
      <trkpt lat="62.103837" lon="12.319387">
        <ele>891.472</ele>
        <time>2011-07-03T11:35:34Z</time>
      </trkpt>
      <trkpt lat="62.103883" lon="12.319404">
        <ele>892.205</ele>
        <time>2011-07-03T11:35:38Z</time>
      </trkpt>
      <trkpt lat="62.104007" lon="12.319366">
        <ele>893.171</ele>
        <time>2011-07-03T11:35:46Z</time>
      </trkpt>
      <trkpt lat="62.104087" lon="12.3194">
        <ele>893.869</ele>
        <time>2011-07-03T11:35:53Z</time>
      </trkpt>
      <trkpt lat="62.10418" lon="12.319427">
        <ele>894.883</ele>
        <time>2011-07-03T11:36:01Z</time>
      </trkpt>
      <trkpt lat="62.104269" lon="12.319447">
        <ele>896.08</ele>
        <time>2011-07-03T11:36:09Z</time>
      </trkpt>
      <trkpt lat="62.104364" lon="12.319498">
        <ele>895.528</ele>
        <time>2011-07-03T11:36:17Z</time>
      </trkpt>
      <trkpt lat="62.104456" lon="12.319556">
        <ele>896.941</ele>
        <time>2011-07-03T11:36:25Z</time>
      </trkpt>
      <trkpt lat="62.104538" lon="12.319636">
        <ele>898.024</ele>
        <time>2011-07-03T11:36:32Z</time>
      </trkpt>
      <trkpt lat="62.104593" lon="12.319718">
        <ele>898.645</ele>
        <time>2011-07-03T11:36:38Z</time>
      </trkpt>
      <trkpt lat="62.104657" lon="12.319776">
        <ele>899.348</ele>
        <time>2011-07-03T11:36:44Z</time>
      </trkpt>
      <trkpt lat="62.104692" lon="12.319837">
        <ele>899.999</ele>
        <time>2011-07-03T11:36:49Z</time>
      </trkpt>
      <trkpt lat="62.104736" lon="12.319892">
        <ele>900.774</ele>
        <time>2011-07-03T11:36:54Z</time>
      </trkpt>
      <trkpt lat="62.104818" lon="12.319973">
        <ele>902.203</ele>
        <time>2011-07-03T11:37:02Z</time>
      </trkpt>
      <trkpt lat="62.104866" lon="12.319996">
        <ele>902.921</ele>
        <time>2011-07-03T11:37:06Z</time>
      </trkpt>
      <trkpt lat="62.104955" lon="12.320054">
        <ele>904.503</ele>
        <time>2011-07-03T11:37:15Z</time>
      </trkpt>
      <trkpt lat="62.10497" lon="12.320068">
        <ele>904.77</ele>
        <time>2011-07-03T11:37:17Z</time>
      </trkpt>
      <trkpt lat="62.10504" lon="12.320104">
        <ele>904.241</ele>
        <time>2011-07-03T11:37:23Z</time>
      </trkpt>
      <trkpt lat="62.105151" lon="12.320086">
        <ele>905.343</ele>
        <time>2011-07-03T11:37:32Z</time>
      </trkpt>
      <trkpt lat="62.105251" lon="12.320113">
        <ele>906.04</ele>
        <time>2011-07-03T11:37:40Z</time>
      </trkpt>
      <trkpt lat="62.105355" lon="12.320147">
        <ele>907.321</ele>
        <time>2011-07-03T11:37:49Z</time>
      </trkpt>
      <trkpt lat="62.105449" lon="12.320196">
        <ele>908.013</ele>
        <time>2011-07-03T11:37:57Z</time>
      </trkpt>
      <trkpt lat="62.105563" lon="12.320196">
        <ele>908.211</ele>
        <time>2011-07-03T11:38:05Z</time>
      </trkpt>
      <trkpt lat="62.105709" lon="12.320245">
        <ele>909.186</ele>
        <time>2011-07-03T11:38:16Z</time>
      </trkpt>
      <trkpt lat="62.105819" lon="12.320263">
        <ele>910.651</ele>
        <time>2011-07-03T11:38:25Z</time>
      </trkpt>
      <trkpt lat="62.105867" lon="12.320274">
        <ele>911.042</ele>
        <time>2011-07-03T11:38:29Z</time>
      </trkpt>
      <trkpt lat="62.105948" lon="12.320387">
        <ele>912.264</ele>
        <time>2011-07-03T11:38:38Z</time>
      </trkpt>
      <trkpt lat="62.106015" lon="12.320515">
        <ele>913.354</ele>
        <time>2011-07-03T11:38:46Z</time>
      </trkpt>
      <trkpt lat="62.106071" lon="12.320646">
        <ele>914.411</ele>
        <time>2011-07-03T11:38:54Z</time>
      </trkpt>
      <trkpt lat="62.106124" lon="12.320736">
        <ele>914.991</ele>
        <time>2011-07-03T11:39:01Z</time>
      </trkpt>
      <trkpt lat="62.106147" lon="12.320796">
        <ele>914.893</ele>
        <time>2011-07-03T11:39:05Z</time>
      </trkpt>
      <trkpt lat="62.106156" lon="12.320849">
        <ele>915.013</ele>
        <time>2011-07-03T11:39:08Z</time>
      </trkpt>
      <trkpt lat="62.106189" lon="12.320887">
        <ele>915.441</ele>
        <time>2011-07-03T11:39:11Z</time>
      </trkpt>
      <trkpt lat="62.106234" lon="12.320965">
        <ele>916.845</ele>
        <time>2011-07-03T11:39:18Z</time>
      </trkpt>
      <trkpt lat="62.106245" lon="12.320963">
        <ele>916.924</ele>
        <time>2011-07-03T11:39:19Z</time>
      </trkpt>
      <trkpt lat="62.106288" lon="12.320925">
        <ele>916.381</ele>
        <time>2011-07-03T11:39:23Z</time>
      </trkpt>
      <trkpt lat="62.106326" lon="12.320953">
        <ele>916.108</ele>
        <time>2011-07-03T11:39:28Z</time>
      </trkpt>
      <trkpt lat="62.106364" lon="12.320998">
        <ele>916.098</ele>
        <time>2011-07-03T11:39:34Z</time>
      </trkpt>
      <trkpt lat="62.106442" lon="12.321028">
        <ele>916.043</ele>
        <time>2011-07-03T11:39:42Z</time>
      </trkpt>
      <trkpt lat="62.106469" lon="12.321081">
        <ele>917.829</ele>
        <time>2011-07-03T11:39:48Z</time>
      </trkpt>
      <trkpt lat="62.10647" lon="12.321086">
        <ele>918.46</ele>
        <time>2011-07-03T11:39:50Z</time>
      </trkpt>
      <trkpt lat="62.106508" lon="12.321137">
        <ele>918.614</ele>
        <time>2011-07-03T11:40:11Z</time>
      </trkpt>
      <trkpt lat="62.106535" lon="12.321188">
        <ele>920.353</ele>
        <time>2011-07-03T11:40:15Z</time>
      </trkpt>
      <trkpt lat="62.106587" lon="12.321235">
        <ele>922.079</ele>
        <time>2011-07-03T11:40:22Z</time>
      </trkpt>
      <trkpt lat="62.106586" lon="12.321253">
        <ele>922.273</ele>
        <time>2011-07-03T11:40:23Z</time>
      </trkpt>
      <trkpt lat="62.106557" lon="12.321435">
        <ele>924.404</ele>
        <time>2011-07-03T11:40:33Z</time>
      </trkpt>
      <trkpt lat="62.106558" lon="12.321441">
        <ele>924.612</ele>
        <time>2011-07-03T11:40:35Z</time>
      </trkpt>
      <trkpt lat="62.106616" lon="12.321501">
        <ele>923.647</ele>
        <time>2011-07-03T11:40:49Z</time>
      </trkpt>
      <trkpt lat="62.106628" lon="12.321506">
        <ele>923.994</ele>
        <time>2011-07-03T11:40:51Z</time>
      </trkpt>
      <trkpt lat="62.106716" lon="12.321469">
        <ele>925.233</ele>
        <time>2011-07-03T11:40:59Z</time>
      </trkpt>
      <trkpt lat="62.106777" lon="12.321429">
        <ele>925.63</ele>
        <time>2011-07-03T11:41:04Z</time>
      </trkpt>
      <trkpt lat="62.106806" lon="12.321471">
        <ele>926.306</ele>
        <time>2011-07-03T11:41:08Z</time>
      </trkpt>
      <trkpt lat="62.106868" lon="12.321482">
        <ele>927.384</ele>
        <time>2011-07-03T11:41:14Z</time>
      </trkpt>
      <trkpt lat="62.106944" lon="12.321458">
        <ele>928.521</ele>
        <time>2011-07-03T11:41:21Z</time>
      </trkpt>
      <trkpt lat="62.107026" lon="12.321426">
        <ele>929.738</ele>
        <time>2011-07-03T11:41:29Z</time>
      </trkpt>
      <trkpt lat="62.107081" lon="12.321396">
        <ele>930.234</ele>
        <time>2011-07-03T11:41:34Z</time>
      </trkpt>
      <trkpt lat="62.107104" lon="12.321388">
        <ele>930.501</ele>
        <time>2011-07-03T11:41:36Z</time>
      </trkpt>
      <trkpt lat="62.107132" lon="12.321408">
        <ele>930.976</ele>
        <time>2011-07-03T11:41:39Z</time>
      </trkpt>
      <trkpt lat="62.107202" lon="12.321438">
        <ele>932.351</ele>
        <time>2011-07-03T11:41:46Z</time>
      </trkpt>
      <trkpt lat="62.107224" lon="12.32146">
        <ele>933.24</ele>
        <time>2011-07-03T11:41:49Z</time>
      </trkpt>
      <trkpt lat="62.107264" lon="12.32145">
        <ele>933.75</ele>
        <time>2011-07-03T11:41:53Z</time>
      </trkpt>
      <trkpt lat="62.107349" lon="12.321368">
        <ele>935.067</ele>
        <time>2011-07-03T11:42:01Z</time>
      </trkpt>
      <trkpt lat="62.107432" lon="12.321268">
        <ele>935.623</ele>
        <time>2011-07-03T11:42:09Z</time>
      </trkpt>
      <trkpt lat="62.10747" lon="12.321266">
        <ele>936.169</ele>
        <time>2011-07-03T11:42:13Z</time>
      </trkpt>
      <trkpt lat="62.107527" lon="12.321341">
        <ele>937.759</ele>
        <time>2011-07-03T11:42:21Z</time>
      </trkpt>
      <trkpt lat="62.107587" lon="12.32138">
        <ele>938.79</ele>
        <time>2011-07-03T11:42:27Z</time>
      </trkpt>
      <trkpt lat="62.107647" lon="12.321442">
        <ele>940.299</ele>
        <time>2011-07-03T11:42:34Z</time>
      </trkpt>
      <trkpt lat="62.107682" lon="12.321462">
        <ele>941.248</ele>
        <time>2011-07-03T11:42:38Z</time>
      </trkpt>
      <trkpt lat="62.10773" lon="12.321537">
        <ele>942.478</ele>
        <time>2011-07-03T11:42:44Z</time>
      </trkpt>
      <trkpt lat="62.10781" lon="12.321705">
        <ele>943.553</ele>
        <time>2011-07-03T11:42:54Z</time>
      </trkpt>
      <trkpt lat="62.107875" lon="12.321728">
        <ele>944.645</ele>
        <time>2011-07-03T11:43:00Z</time>
      </trkpt>
      <trkpt lat="62.107965" lon="12.321723">
        <ele>946.957</ele>
        <time>2011-07-03T11:43:10Z</time>
      </trkpt>
      <trkpt lat="62.10804" lon="12.321788">
        <ele>948.136</ele>
        <time>2011-07-03T11:43:18Z</time>
      </trkpt>
      <trkpt lat="62.108095" lon="12.321909">
        <ele>948.24</ele>
        <time>2011-07-03T11:43:25Z</time>
      </trkpt>
      <trkpt lat="62.108127" lon="12.321994">
        <ele>949.28</ele>
        <time>2011-07-03T11:43:30Z</time>
      </trkpt>
      <trkpt lat="62.108199" lon="12.322089">
        <ele>950.304</ele>
        <time>2011-07-03T11:43:38Z</time>
      </trkpt>
      <trkpt lat="62.108229" lon="12.322148">
        <ele>951.282</ele>
        <time>2011-07-03T11:43:42Z</time>
      </trkpt>
      <trkpt lat="62.108314" lon="12.322159">
        <ele>953.443</ele>
        <time>2011-07-03T11:43:50Z</time>
      </trkpt>
      <trkpt lat="62.108384" lon="12.322162">
        <ele>953.981</ele>
        <time>2011-07-03T11:43:56Z</time>
      </trkpt>
      <trkpt lat="62.108414" lon="12.322181">
        <ele>954.793</ele>
        <time>2011-07-03T11:43:59Z</time>
      </trkpt>
      <trkpt lat="62.108464" lon="12.322213">
        <ele>955.844</ele>
        <time>2011-07-03T11:44:04Z</time>
      </trkpt>
      <trkpt lat="62.108515" lon="12.322264">
        <ele>956.069</ele>
        <time>2011-07-03T11:44:09Z</time>
      </trkpt>
      <trkpt lat="62.108597" lon="12.322284">
        <ele>956.344</ele>
        <time>2011-07-03T11:44:16Z</time>
      </trkpt>
      <trkpt lat="62.108696" lon="12.322347">
        <ele>956.152</ele>
        <time>2011-07-03T11:44:24Z</time>
      </trkpt>
      <trkpt lat="62.108789" lon="12.322397">
        <ele>957.363</ele>
        <time>2011-07-03T11:44:33Z</time>
      </trkpt>
      <trkpt lat="62.10884" lon="12.322404">
        <ele>958.479</ele>
        <time>2011-07-03T11:44:39Z</time>
      </trkpt>
      <trkpt lat="62.108893" lon="12.322423">
        <ele>960.172</ele>
        <time>2011-07-03T11:44:46Z</time>
      </trkpt>
      <trkpt lat="62.108946" lon="12.322438">
        <ele>960.751</ele>
        <time>2011-07-03T11:44:51Z</time>
      </trkpt>
      <trkpt lat="62.109033" lon="12.322463">
        <ele>961.438</ele>
        <time>2011-07-03T11:44:59Z</time>
      </trkpt>
      <trkpt lat="62.109043" lon="12.322467">
        <ele>961.705</ele>
        <time>2011-07-03T11:45:00Z</time>
      </trkpt>
      <trkpt lat="62.109123" lon="12.322444">
        <ele>963.367</ele>
        <time>2011-07-03T11:45:08Z</time>
      </trkpt>
      <trkpt lat="62.109144" lon="12.322424">
        <ele>963.553</ele>
        <time>2011-07-03T11:45:10Z</time>
      </trkpt>
      <trkpt lat="62.109261" lon="12.322371">
        <ele>964.297</ele>
        <time>2011-07-03T11:45:20Z</time>
      </trkpt>
      <trkpt lat="62.109357" lon="12.32235">
        <ele>966.291</ele>
        <time>2011-07-03T11:45:29Z</time>
      </trkpt>
      <trkpt lat="62.109451" lon="12.322342">
        <ele>967.833</ele>
        <time>2011-07-03T11:45:37Z</time>
      </trkpt>
      <trkpt lat="62.109476" lon="12.322329">
        <ele>967.761</ele>
        <time>2011-07-03T11:45:39Z</time>
      </trkpt>
      <trkpt lat="62.109508" lon="12.322346">
        <ele>967.988</ele>
        <time>2011-07-03T11:45:42Z</time>
      </trkpt>
      <trkpt lat="62.109581" lon="12.322383">
        <ele>969.787</ele>
        <time>2011-07-03T11:45:50Z</time>
      </trkpt>
      <trkpt lat="62.10966" lon="12.322357">
        <ele>970.917</ele>
        <time>2011-07-03T11:45:57Z</time>
      </trkpt>
      <trkpt lat="62.109749" lon="12.322357">
        <ele>971.613</ele>
        <time>2011-07-03T11:46:05Z</time>
      </trkpt>
      <trkpt lat="62.109833" lon="12.322337">
        <ele>972.36</ele>
        <time>2011-07-03T11:46:13Z</time>
      </trkpt>
      <trkpt lat="62.109956" lon="12.322316">
        <ele>972.75</ele>
        <time>2011-07-03T11:46:23Z</time>
      </trkpt>
      <trkpt lat="62.10999" lon="12.322337">
        <ele>972.453</ele>
        <time>2011-07-03T11:46:26Z</time>
      </trkpt>
      <trkpt lat="62.110068" lon="12.322359">
        <ele>974.047</ele>
        <time>2011-07-03T11:46:34Z</time>
      </trkpt>
      <trkpt lat="62.110162" lon="12.322318">
        <ele>974.391</ele>
        <time>2011-07-03T11:46:42Z</time>
      </trkpt>
      <trkpt lat="62.110222" lon="12.322371">
        <ele>975.32</ele>
        <time>2011-07-03T11:46:49Z</time>
      </trkpt>
      <trkpt lat="62.110251" lon="12.322381">
        <ele>976.412</ele>
        <time>2011-07-03T11:46:53Z</time>
      </trkpt>
      <trkpt lat="62.11029" lon="12.322388">
        <ele>978.289</ele>
        <time>2011-07-03T11:46:58Z</time>
      </trkpt>
      <trkpt lat="62.110311" lon="12.322405">
        <ele>979.166</ele>
        <time>2011-07-03T11:47:01Z</time>
      </trkpt>
      <trkpt lat="62.110359" lon="12.322435">
        <ele>980.713</ele>
        <time>2011-07-03T11:47:07Z</time>
      </trkpt>
      <trkpt lat="62.110443" lon="12.32247">
        <ele>982.518</ele>
        <time>2011-07-03T11:47:16Z</time>
      </trkpt>
      <trkpt lat="62.110516" lon="12.32257">
        <ele>984.346</ele>
        <time>2011-07-03T11:47:25Z</time>
      </trkpt>
      <trkpt lat="62.110525" lon="12.322576">
        <ele>984.501</ele>
        <time>2011-07-03T11:47:26Z</time>
      </trkpt>
      <trkpt lat="62.11057" lon="12.32259">
        <ele>985.93</ele>
        <time>2011-07-03T11:47:31Z</time>
      </trkpt>
      <trkpt lat="62.110605" lon="12.32263">
        <ele>986.9</ele>
        <time>2011-07-03T11:47:36Z</time>
      </trkpt>
      <trkpt lat="62.110646" lon="12.322662">
        <ele>988.413</ele>
        <time>2011-07-03T11:47:41Z</time>
      </trkpt>
      <trkpt lat="62.110662" lon="12.322675">
        <ele>988.907</ele>
        <time>2011-07-03T11:47:43Z</time>
      </trkpt>
      <trkpt lat="62.110679" lon="12.322669">
        <ele>989.566</ele>
        <time>2011-07-03T11:47:45Z</time>
      </trkpt>
      <trkpt lat="62.110727" lon="12.32274">
        <ele>991.003</ele>
        <time>2011-07-03T11:47:52Z</time>
      </trkpt>
      <trkpt lat="62.110766" lon="12.322817">
        <ele>993.082</ele>
        <time>2011-07-03T11:47:59Z</time>
      </trkpt>
      <trkpt lat="62.110781" lon="12.322831">
        <ele>993.618</ele>
        <time>2011-07-03T11:48:01Z</time>
      </trkpt>
      <trkpt lat="62.110807" lon="12.322869">
        <ele>994.669</ele>
        <time>2011-07-03T11:48:05Z</time>
      </trkpt>
      <trkpt lat="62.11088" lon="12.322875">
        <ele>996.083</ele>
        <time>2011-07-03T11:48:13Z</time>
      </trkpt>
      <trkpt lat="62.110962" lon="12.32291">
        <ele>996.222</ele>
        <time>2011-07-03T11:48:21Z</time>
      </trkpt>
      <trkpt lat="62.110982" lon="12.322915">
        <ele>996.411</ele>
        <time>2011-07-03T11:48:23Z</time>
      </trkpt>
      <trkpt lat="62.111005" lon="12.322941">
        <ele>996.924</ele>
        <time>2011-07-03T11:48:26Z</time>
      </trkpt>
      <trkpt lat="62.111013" lon="12.322965">
        <ele>997.201</ele>
        <time>2011-07-03T11:48:29Z</time>
      </trkpt>
      <trkpt lat="62.111102" lon="12.323005">
        <ele>998.605</ele>
        <time>2011-07-03T11:48:47Z</time>
      </trkpt>
      <trkpt lat="62.111126" lon="12.323019">
        <ele>1000.19</ele>
        <time>2011-07-03T11:48:51Z</time>
      </trkpt>
      <trkpt lat="62.111129" lon="12.323056">
        <ele>1000.78</ele>
        <time>2011-07-03T11:48:53Z</time>
      </trkpt>
      <trkpt lat="62.111156" lon="12.323096">
        <ele>1001.7</ele>
        <time>2011-07-03T11:48:57Z</time>
      </trkpt>
      <trkpt lat="62.111232" lon="12.323102">
        <ele>1003.72</ele>
        <time>2011-07-03T11:49:05Z</time>
      </trkpt>
      <trkpt lat="62.11125" lon="12.323123">
        <ele>1004.6</ele>
        <time>2011-07-03T11:49:08Z</time>
      </trkpt>
      <trkpt lat="62.111304" lon="12.323138">
        <ele>1007.07</ele>
        <time>2011-07-03T11:49:16Z</time>
      </trkpt>
      <trkpt lat="62.111318" lon="12.32315">
        <ele>1007.74</ele>
        <time>2011-07-03T11:49:18Z</time>
      </trkpt>
      <trkpt lat="62.111389" lon="12.32321">
        <ele>1009.11</ele>
        <time>2011-07-03T11:49:26Z</time>
      </trkpt>
      <trkpt lat="62.111474" lon="12.323213">
        <ele>1009.02</ele>
        <time>2011-07-03T11:49:33Z</time>
      </trkpt>
      <trkpt lat="62.111562" lon="12.323264">
        <ele>1010.69</ele>
        <time>2011-07-03T11:49:41Z</time>
      </trkpt>
      <trkpt lat="62.111659" lon="12.323279">
        <ele>1012.34</ele>
        <time>2011-07-03T11:49:49Z</time>
      </trkpt>
      <trkpt lat="62.111696" lon="12.323299">
        <ele>1012.85</ele>
        <time>2011-07-03T11:49:52Z</time>
      </trkpt>
      <trkpt lat="62.111812" lon="12.323271">
        <ele>1014.04</ele>
        <time>2011-07-03T11:50:01Z</time>
      </trkpt>
      <trkpt lat="62.111893" lon="12.323338">
        <ele>1016.74</ele>
        <time>2011-07-03T11:50:10Z</time>
      </trkpt>
      <trkpt lat="62.111898" lon="12.323349">
        <ele>1017.06</ele>
        <time>2011-07-03T11:50:11Z</time>
      </trkpt>
      <trkpt lat="62.111912" lon="12.323385">
        <ele>1017.54</ele>
        <time>2011-07-03T11:50:14Z</time>
      </trkpt>
      <trkpt lat="62.11194" lon="12.323415">
        <ele>1017.59</ele>
        <time>2011-07-03T11:50:18Z</time>
      </trkpt>
      <trkpt lat="62.112021" lon="12.323507">
        <ele>1018.09</ele>
        <time>2011-07-03T11:50:27Z</time>
      </trkpt>
      <trkpt lat="62.112098" lon="12.323611">
        <ele>1019.08</ele>
        <time>2011-07-03T11:50:36Z</time>
      </trkpt>
      <trkpt lat="62.112178" lon="12.323652">
        <ele>1019.18</ele>
        <time>2011-07-03T11:50:44Z</time>
      </trkpt>
      <trkpt lat="62.112184" lon="12.323661">
        <ele>1019.02</ele>
        <time>2011-07-03T11:50:47Z</time>
      </trkpt>
      <trkpt lat="62.112261" lon="12.323903">
        <ele>1019.23</ele>
        <time>2011-07-03T11:51:04Z</time>
      </trkpt>
      <trkpt lat="62.112265" lon="12.323918">
        <ele>1019.07</ele>
        <time>2011-07-03T11:51:05Z</time>
      </trkpt>
      <trkpt lat="62.112298" lon="12.323989">
        <ele>1018.83</ele>
        <time>2011-07-03T11:51:11Z</time>
      </trkpt>
      <trkpt lat="62.112329" lon="12.324052">
        <ele>1018.8</ele>
        <time>2011-07-03T11:51:19Z</time>
      </trkpt>
      <trkpt lat="62.112396" lon="12.324244">
        <ele>1018.99</ele>
        <time>2011-07-03T11:51:27Z</time>
      </trkpt>
      <trkpt lat="62.1125" lon="12.324449">
        <ele>1018.66</ele>
        <time>2011-07-03T11:51:37Z</time>
      </trkpt>
      <trkpt lat="62.112557" lon="12.324615">
        <ele>1018.49</ele>
        <time>2011-07-03T11:51:44Z</time>
      </trkpt>
      <trkpt lat="62.112638" lon="12.3248">
        <ele>1019</ele>
        <time>2011-07-03T11:51:53Z</time>
      </trkpt>
      <trkpt lat="62.112684" lon="12.324925">
        <ele>1018.95</ele>
        <time>2011-07-03T11:51:58Z</time>
      </trkpt>
      <trkpt lat="62.112745" lon="12.325107">
        <ele>1019.47</ele>
        <time>2011-07-03T11:52:06Z</time>
      </trkpt>
      <trkpt lat="62.112814" lon="12.325262">
        <ele>1019.59</ele>
        <time>2011-07-03T11:52:14Z</time>
      </trkpt>
      <trkpt lat="62.112916" lon="12.325429">
        <ele>1019.48</ele>
        <time>2011-07-03T11:52:24Z</time>
      </trkpt>
      <trkpt lat="62.112956" lon="12.325502">
        <ele>1019.03</ele>
        <time>2011-07-03T11:52:30Z</time>
      </trkpt>
      <trkpt lat="62.113009" lon="12.325611">
        <ele>1019.31</ele>
        <time>2011-07-03T11:52:36Z</time>
      </trkpt>
      <trkpt lat="62.113076" lon="12.325732">
        <ele>1019.87</ele>
        <time>2011-07-03T11:52:44Z</time>
      </trkpt>
      <trkpt lat="62.113118" lon="12.32582">
        <ele>1019.8</ele>
        <time>2011-07-03T11:52:50Z</time>
      </trkpt>
      <trkpt lat="62.113169" lon="12.325847">
        <ele>1019.73</ele>
        <time>2011-07-03T11:52:57Z</time>
      </trkpt>
      <trkpt lat="62.113249" lon="12.326005">
        <ele>1019.81</ele>
        <time>2011-07-03T11:53:21Z</time>
      </trkpt>
      <trkpt lat="62.113294" lon="12.326101">
        <ele>1020.79</ele>
        <time>2011-07-03T11:53:27Z</time>
      </trkpt>
      <trkpt lat="62.113298" lon="12.326117">
        <ele>1021</ele>
        <time>2011-07-03T11:53:28Z</time>
      </trkpt>
      <trkpt lat="62.113335" lon="12.326172">
        <ele>1021.56</ele>
        <time>2011-07-03T11:53:32Z</time>
      </trkpt>
      <trkpt lat="62.113406" lon="12.326309">
        <ele>1021.36</ele>
        <time>2011-07-03T11:53:40Z</time>
      </trkpt>
      <trkpt lat="62.113475" lon="12.326395">
        <ele>1021.99</ele>
        <time>2011-07-03T11:53:47Z</time>
      </trkpt>
      <trkpt lat="62.113523" lon="12.326415">
        <ele>1022.11</ele>
        <time>2011-07-03T11:53:51Z</time>
      </trkpt>
      <trkpt lat="62.113617" lon="12.326563">
        <ele>1022.65</ele>
        <time>2011-07-03T11:54:01Z</time>
      </trkpt>
      <trkpt lat="62.113676" lon="12.326669">
        <ele>1022.92</ele>
        <time>2011-07-03T11:54:08Z</time>
      </trkpt>
      <trkpt lat="62.11368" lon="12.326685">
        <ele>1023.05</ele>
        <time>2011-07-03T11:54:09Z</time>
      </trkpt>
      <trkpt lat="62.113727" lon="12.326783">
        <ele>1023.04</ele>
        <time>2011-07-03T11:54:17Z</time>
      </trkpt>
      <trkpt lat="62.11377" lon="12.326861">
        <ele>1023.15</ele>
        <time>2011-07-03T11:54:23Z</time>
      </trkpt>
      <trkpt lat="62.113836" lon="12.327003">
        <ele>1023.75</ele>
        <time>2011-07-03T11:54:32Z</time>
      </trkpt>
      <trkpt lat="62.113902" lon="12.327104">
        <ele>1023.84</ele>
        <time>2011-07-03T11:54:40Z</time>
      </trkpt>
      <trkpt lat="62.113966" lon="12.327213">
        <ele>1024.21</ele>
        <time>2011-07-03T11:54:47Z</time>
      </trkpt>
      <trkpt lat="62.113995" lon="12.327268">
        <ele>1024.16</ele>
        <time>2011-07-03T11:54:51Z</time>
      </trkpt>
      <trkpt lat="62.114109" lon="12.327382">
        <ele>1024.33</ele>
        <time>2011-07-03T11:55:00Z</time>
      </trkpt>
      <trkpt lat="62.114186" lon="12.327543">
        <ele>1024.68</ele>
        <time>2011-07-03T11:55:09Z</time>
      </trkpt>
      <trkpt lat="62.114298" lon="12.327717">
        <ele>1024.8</ele>
        <time>2011-07-03T11:55:19Z</time>
      </trkpt>
      <trkpt lat="62.114356" lon="12.32783">
        <ele>1024.73</ele>
        <time>2011-07-03T11:55:26Z</time>
      </trkpt>
      <trkpt lat="62.114431" lon="12.328">
        <ele>1025.27</ele>
        <time>2011-07-03T11:55:35Z</time>
      </trkpt>
      <trkpt lat="62.114512" lon="12.328154">
        <ele>1025.74</ele>
        <time>2011-07-03T11:55:44Z</time>
      </trkpt>
      <trkpt lat="62.114584" lon="12.328245">
        <ele>1026.19</ele>
        <time>2011-07-03T11:55:51Z</time>
      </trkpt>
      <trkpt lat="62.114656" lon="12.328336">
        <ele>1026.42</ele>
        <time>2011-07-03T11:55:58Z</time>
      </trkpt>
      <trkpt lat="62.1147" lon="12.328409">
        <ele>1026.7</ele>
        <time>2011-07-03T11:56:02Z</time>
      </trkpt>
      <trkpt lat="62.114815" lon="12.328513">
        <ele>1027.43</ele>
        <time>2011-07-03T11:56:10Z</time>
      </trkpt>
      <trkpt lat="62.114924" lon="12.328641">
        <ele>1028.43</ele>
        <time>2011-07-03T11:56:19Z</time>
      </trkpt>
      <trkpt lat="62.114966" lon="12.328673">
        <ele>1028.98</ele>
        <time>2011-07-03T11:56:22Z</time>
      </trkpt>
      <trkpt lat="62.115029" lon="12.328758">
        <ele>1030.18</ele>
        <time>2011-07-03T11:56:29Z</time>
      </trkpt>
      <trkpt lat="62.115118" lon="12.32886">
        <ele>1032.53</ele>
        <time>2011-07-03T11:56:39Z</time>
      </trkpt>
      <trkpt lat="62.115128" lon="12.328867">
        <ele>1032.71</ele>
        <time>2011-07-03T11:56:40Z</time>
      </trkpt>
      <trkpt lat="62.115146" lon="12.328911">
        <ele>1033.33</ele>
        <time>2011-07-03T11:56:43Z</time>
      </trkpt>
      <trkpt lat="62.115163" lon="12.329">
        <ele>1034.69</ele>
        <time>2011-07-03T11:56:48Z</time>
      </trkpt>
      <trkpt lat="62.115242" lon="12.329127">
        <ele>1036.8</ele>
        <time>2011-07-03T11:56:58Z</time>
      </trkpt>
      <trkpt lat="62.115325" lon="12.329215">
        <ele>1038.03</ele>
        <time>2011-07-03T11:57:06Z</time>
      </trkpt>
      <trkpt lat="62.115414" lon="12.329273">
        <ele>1040.04</ele>
        <time>2011-07-03T11:57:15Z</time>
      </trkpt>
      <trkpt lat="62.115516" lon="12.329332">
        <ele>1041.31</ele>
        <time>2011-07-03T11:57:24Z</time>
      </trkpt>
      <trkpt lat="62.115567" lon="12.329363">
        <ele>1042.73</ele>
        <time>2011-07-03T11:57:30Z</time>
      </trkpt>
      <trkpt lat="62.115627" lon="12.329325">
        <ele>1043.51</ele>
        <time>2011-07-03T11:57:35Z</time>
      </trkpt>
      <trkpt lat="62.115692" lon="12.329341">
        <ele>1045.19</ele>
        <time>2011-07-03T11:57:41Z</time>
      </trkpt>
      <trkpt lat="62.115769" lon="12.329387">
        <ele>1047.25</ele>
        <time>2011-07-03T11:57:49Z</time>
      </trkpt>
      <trkpt lat="62.115829" lon="12.329428">
        <ele>1048.9</ele>
        <time>2011-07-03T11:57:56Z</time>
      </trkpt>
      <trkpt lat="62.115858" lon="12.329474">
        <ele>1049.96</ele>
        <time>2011-07-03T11:58:00Z</time>
      </trkpt>
      <trkpt lat="62.115939" lon="12.329494">
        <ele>1051.81</ele>
        <time>2011-07-03T11:58:09Z</time>
      </trkpt>
      <trkpt lat="62.115992" lon="12.329505">
        <ele>1053.08</ele>
        <time>2011-07-03T11:58:15Z</time>
      </trkpt>
      <trkpt lat="62.116084" lon="12.329544">
        <ele>1054.94</ele>
        <time>2011-07-03T11:58:24Z</time>
      </trkpt>
      <trkpt lat="62.11615" lon="12.329528">
        <ele>1056.34</ele>
        <time>2011-07-03T11:58:31Z</time>
      </trkpt>
      <trkpt lat="62.116226" lon="12.329575">
        <ele>1058.11</ele>
        <time>2011-07-03T11:58:38Z</time>
      </trkpt>
      <trkpt lat="62.116311" lon="12.329668">
        <ele>1060.17</ele>
        <time>2011-07-03T11:58:47Z</time>
      </trkpt>
      <trkpt lat="62.116384" lon="12.329703">
        <ele>1061.8</ele>
        <time>2011-07-03T11:58:55Z</time>
      </trkpt>
      <trkpt lat="62.116394" lon="12.329707">
        <ele>1062.04</ele>
        <time>2011-07-03T11:58:56Z</time>
      </trkpt>
      <trkpt lat="62.116448" lon="12.329767">
        <ele>1063.44</ele>
        <time>2011-07-03T11:59:04Z</time>
      </trkpt>
      <trkpt lat="62.116486" lon="12.329847">
        <ele>1064.86</ele>
        <time>2011-07-03T11:59:11Z</time>
      </trkpt>
      <trkpt lat="62.116543" lon="12.32986">
        <ele>1066.54</ele>
        <time>2011-07-03T11:59:18Z</time>
      </trkpt>
      <trkpt lat="62.116565" lon="12.329868">
        <ele>1067.31</ele>
        <time>2011-07-03T11:59:21Z</time>
      </trkpt>
      <trkpt lat="62.116607" lon="12.329881">
        <ele>1068.69</ele>
        <time>2011-07-03T11:59:26Z</time>
      </trkpt>
      <trkpt lat="62.116661" lon="12.330022">
        <ele>1070.64</ele>
        <time>2011-07-03T11:59:35Z</time>
      </trkpt>
      <trkpt lat="62.11667" lon="12.330047">
        <ele>1071.23</ele>
        <time>2011-07-03T11:59:37Z</time>
      </trkpt>
      <trkpt lat="62.116723" lon="12.330118">
        <ele>1072.31</ele>
        <time>2011-07-03T11:59:43Z</time>
      </trkpt>
      <trkpt lat="62.116797" lon="12.330159">
        <ele>1074.53</ele>
        <time>2011-07-03T11:59:51Z</time>
      </trkpt>
      <trkpt lat="62.116839" lon="12.330248">
        <ele>1076.06</ele>
        <time>2011-07-03T11:59:58Z</time>
      </trkpt>
      <trkpt lat="62.116885" lon="12.330345">
        <ele>1077.37</ele>
        <time>2011-07-03T12:00:06Z</time>
      </trkpt>
      <trkpt lat="62.116918" lon="12.330446">
        <ele>1078.87</ele>
        <time>2011-07-03T12:00:13Z</time>
      </trkpt>
      <trkpt lat="62.116999" lon="12.330503">
        <ele>1080.85</ele>
        <time>2011-07-03T12:00:21Z</time>
      </trkpt>
      <trkpt lat="62.117077" lon="12.330598">
        <ele>1082.23</ele>
        <time>2011-07-03T12:00:30Z</time>
      </trkpt>
      <trkpt lat="62.117096" lon="12.330597">
        <ele>1082.46</ele>
        <time>2011-07-03T12:00:32Z</time>
      </trkpt>
      <trkpt lat="62.117183" lon="12.330633">
        <ele>1084.39</ele>
        <time>2011-07-03T12:00:41Z</time>
      </trkpt>
      <trkpt lat="62.117243" lon="12.330707">
        <ele>1085.27</ele>
        <time>2011-07-03T12:00:48Z</time>
      </trkpt>
      <trkpt lat="62.117296" lon="12.330787">
        <ele>1086.5</ele>
        <time>2011-07-03T12:00:55Z</time>
      </trkpt>
      <trkpt lat="62.117355" lon="12.330879">
        <ele>1088.55</ele>
        <time>2011-07-03T12:01:03Z</time>
      </trkpt>
      <trkpt lat="62.117378" lon="12.331022">
        <ele>1088.66</ele>
        <time>2011-07-03T12:01:10Z</time>
      </trkpt>
      <trkpt lat="62.11738" lon="12.331046">
        <ele>1088.93</ele>
        <time>2011-07-03T12:01:11Z</time>
      </trkpt>
      <trkpt lat="62.117405" lon="12.331076">
        <ele>1090.07</ele>
        <time>2011-07-03T12:01:15Z</time>
      </trkpt>
      <trkpt lat="62.117425" lon="12.33108">
        <ele>1090.41</ele>
        <time>2011-07-03T12:01:17Z</time>
      </trkpt>
      <trkpt lat="62.117486" lon="12.331156">
        <ele>1091.76</ele>
        <time>2011-07-03T12:01:25Z</time>
      </trkpt>
      <trkpt lat="62.117551" lon="12.33121">
        <ele>1093</ele>
        <time>2011-07-03T12:01:32Z</time>
      </trkpt>
      <trkpt lat="62.11756" lon="12.331218">
        <ele>1093.16</ele>
        <time>2011-07-03T12:01:33Z</time>
      </trkpt>
      <trkpt lat="62.117603" lon="12.331342">
        <ele>1093.88</ele>
        <time>2011-07-03T12:01:40Z</time>
      </trkpt>
      <trkpt lat="62.117636" lon="12.331478">
        <ele>1094.56</ele>
        <time>2011-07-03T12:01:47Z</time>
      </trkpt>
      <trkpt lat="62.117639" lon="12.331498">
        <ele>1094.67</ele>
        <time>2011-07-03T12:01:48Z</time>
      </trkpt>
      <trkpt lat="62.117648" lon="12.331569">
        <ele>1095.05</ele>
        <time>2011-07-03T12:01:52Z</time>
      </trkpt>
      <trkpt lat="62.117681" lon="12.3317">
        <ele>1095.52</ele>
        <time>2011-07-03T12:01:59Z</time>
      </trkpt>
      <trkpt lat="62.117756" lon="12.331761">
        <ele>1096.07</ele>
        <time>2011-07-03T12:02:07Z</time>
      </trkpt>
      <trkpt lat="62.117843" lon="12.331851">
        <ele>1097.15</ele>
        <time>2011-07-03T12:02:16Z</time>
      </trkpt>
      <trkpt lat="62.117892" lon="12.331923">
        <ele>1097.38</ele>
        <time>2011-07-03T12:02:23Z</time>
      </trkpt>
      <trkpt lat="62.117917" lon="12.331956">
        <ele>1097.87</ele>
        <time>2011-07-03T12:02:26Z</time>
      </trkpt>
      <trkpt lat="62.117955" lon="12.332117">
        <ele>1099.07</ele>
        <time>2011-07-03T12:02:34Z</time>
      </trkpt>
      <trkpt lat="62.117967" lon="12.332243">
        <ele>1099.09</ele>
        <time>2011-07-03T12:02:41Z</time>
      </trkpt>
      <trkpt lat="62.11797" lon="12.332247">
        <ele>1099.04</ele>
        <time>2011-07-03T12:02:42Z</time>
      </trkpt>
      <trkpt lat="62.117957" lon="12.332479">
        <ele>1098.19</ele>
        <time>2011-07-03T12:02:57Z</time>
      </trkpt>
      <trkpt lat="62.117995" lon="12.332664">
        <ele>1100.12</ele>
        <time>2011-07-03T12:03:05Z</time>
      </trkpt>
      <trkpt lat="62.118058" lon="12.332853">
        <ele>1100.73</ele>
        <time>2011-07-03T12:03:14Z</time>
      </trkpt>
      <trkpt lat="62.118121" lon="12.332981">
        <ele>1100.89</ele>
        <time>2011-07-03T12:03:21Z</time>
      </trkpt>
      <trkpt lat="62.118195" lon="12.333051">
        <ele>1101.35</ele>
        <time>2011-07-03T12:03:27Z</time>
      </trkpt>
      <trkpt lat="62.118302" lon="12.333108">
        <ele>1101.34</ele>
        <time>2011-07-03T12:03:36Z</time>
      </trkpt>
      <trkpt lat="62.118395" lon="12.333101">
        <ele>1100.46</ele>
        <time>2011-07-03T12:03:43Z</time>
      </trkpt>
      <trkpt lat="62.118491" lon="12.333055">
        <ele>1099.53</ele>
        <time>2011-07-03T12:03:52Z</time>
      </trkpt>
      <trkpt lat="62.118588" lon="12.333057">
        <ele>1099.41</ele>
        <time>2011-07-03T12:04:00Z</time>
      </trkpt>
      <trkpt lat="62.1187" lon="12.333063">
        <ele>1099.28</ele>
        <time>2011-07-03T12:04:10Z</time>
      </trkpt>
      <trkpt lat="62.118785" lon="12.333109">
        <ele>1098.97</ele>
        <time>2011-07-03T12:04:18Z</time>
      </trkpt>
      <trkpt lat="62.118869" lon="12.333183">
        <ele>1097.93</ele>
        <time>2011-07-03T12:04:25Z</time>
      </trkpt>
      <trkpt lat="62.118939" lon="12.33324">
        <ele>1096.47</ele>
        <time>2011-07-03T12:04:31Z</time>
      </trkpt>
      <trkpt lat="62.118982" lon="12.333291">
        <ele>1095.77</ele>
        <time>2011-07-03T12:04:35Z</time>
      </trkpt>
      <trkpt lat="62.119094" lon="12.333325">
        <ele>1094.22</ele>
        <time>2011-07-03T12:04:44Z</time>
      </trkpt>
      <trkpt lat="62.119185" lon="12.333317">
        <ele>1093.16</ele>
        <time>2011-07-03T12:04:52Z</time>
      </trkpt>
      <trkpt lat="62.119207" lon="12.333335">
        <ele>1092.91</ele>
        <time>2011-07-03T12:04:54Z</time>
      </trkpt>
      <trkpt lat="62.119331" lon="12.333314">
        <ele>1091.1</ele>
        <time>2011-07-03T12:05:05Z</time>
      </trkpt>
      <trkpt lat="62.119362" lon="12.333314">
        <ele>1090.62</ele>
        <time>2011-07-03T12:05:10Z</time>
      </trkpt>
      <trkpt lat="62.119378" lon="12.333319">
        <ele>1090.39</ele>
        <time>2011-07-03T12:05:15Z</time>
      </trkpt>
      <trkpt lat="62.119379" lon="12.333318">
        <ele>1090.44</ele>
        <time>2011-07-03T12:05:16Z</time>
      </trkpt>
      <trkpt lat="62.119424" lon="12.333392">
        <ele>1089.89</ele>
        <time>2011-07-03T12:05:25Z</time>
      </trkpt>
      <trkpt lat="62.119512" lon="12.333505">
        <ele>1088.9</ele>
        <time>2011-07-03T12:05:34Z</time>
      </trkpt>
      <trkpt lat="62.119574" lon="12.333585">
        <ele>1087.6</ele>
        <time>2011-07-03T12:05:41Z</time>
      </trkpt>
      <trkpt lat="62.119609" lon="12.333642">
        <ele>1086.27</ele>
        <time>2011-07-03T12:05:47Z</time>
      </trkpt>
      <trkpt lat="62.119674" lon="12.333694">
        <ele>1085.34</ele>
        <time>2011-07-03T12:05:52Z</time>
      </trkpt>
      <trkpt lat="62.119753" lon="12.33379">
        <ele>1083.24</ele>
        <time>2011-07-03T12:06:00Z</time>
      </trkpt>
      <trkpt lat="62.119775" lon="12.333815">
        <ele>1082.67</ele>
        <time>2011-07-03T12:06:03Z</time>
      </trkpt>
      <trkpt lat="62.119847" lon="12.333927">
        <ele>1081.46</ele>
        <time>2011-07-03T12:06:11Z</time>
      </trkpt>
      <trkpt lat="62.119855" lon="12.33394">
        <ele>1081.35</ele>
        <time>2011-07-03T12:06:12Z</time>
      </trkpt>
      <trkpt lat="62.119872" lon="12.333956">
        <ele>1080.27</ele>
        <time>2011-07-03T12:06:16Z</time>
      </trkpt>
      <trkpt lat="62.119908" lon="12.333985">
        <ele>1080.41</ele>
        <time>2011-07-03T12:06:43Z</time>
      </trkpt>
      <trkpt lat="62.119937" lon="12.334043">
        <ele>1079.2</ele>
        <time>2011-07-03T12:06:47Z</time>
      </trkpt>
      <trkpt lat="62.11994" lon="12.33409">
        <ele>1078.13</ele>
        <time>2011-07-03T12:06:51Z</time>
      </trkpt>
      <trkpt lat="62.119973" lon="12.334108">
        <ele>1078.16</ele>
        <time>2011-07-03T12:06:56Z</time>
      </trkpt>
      <trkpt lat="62.11999" lon="12.334161">
        <ele>1077.07</ele>
        <time>2011-07-03T12:07:02Z</time>
      </trkpt>
      <trkpt lat="62.12009" lon="12.334163">
        <ele>1076.47</ele>
        <time>2011-07-03T12:07:16Z</time>
      </trkpt>
      <trkpt lat="62.120131" lon="12.334194">
        <ele>1075.72</ele>
        <time>2011-07-03T12:07:20Z</time>
      </trkpt>
      <trkpt lat="62.120207" lon="12.334282">
        <ele>1075.19</ele>
        <time>2011-07-03T12:07:28Z</time>
      </trkpt>
      <trkpt lat="62.120271" lon="12.334388">
        <ele>1073.25</ele>
        <time>2011-07-03T12:07:35Z</time>
      </trkpt>
      <trkpt lat="62.120311" lon="12.334435">
        <ele>1072.24</ele>
        <time>2011-07-03T12:07:39Z</time>
      </trkpt>
      <trkpt lat="62.120351" lon="12.334473">
        <ele>1070.77</ele>
        <time>2011-07-03T12:07:43Z</time>
      </trkpt>
      <trkpt lat="62.120405" lon="12.334538">
        <ele>1070.07</ele>
        <time>2011-07-03T12:07:49Z</time>
      </trkpt>
      <trkpt lat="62.120474" lon="12.334605">
        <ele>1068.86</ele>
        <time>2011-07-03T12:07:58Z</time>
      </trkpt>
      <trkpt lat="62.120502" lon="12.334627">
        <ele>1068.6</ele>
        <time>2011-07-03T12:08:01Z</time>
      </trkpt>
      <trkpt lat="62.120603" lon="12.334746">
        <ele>1067.11</ele>
        <time>2011-07-03T12:08:10Z</time>
      </trkpt>
      <trkpt lat="62.120645" lon="12.334797">
        <ele>1066.79</ele>
        <time>2011-07-03T12:08:14Z</time>
      </trkpt>
      <trkpt lat="62.120697" lon="12.334893">
        <ele>1064.46</ele>
        <time>2011-07-03T12:08:22Z</time>
      </trkpt>
      <trkpt lat="62.120732" lon="12.334906">
        <ele>1063.76</ele>
        <time>2011-07-03T12:08:27Z</time>
      </trkpt>
      <trkpt lat="62.120771" lon="12.334901">
        <ele>1063.34</ele>
        <time>2011-07-03T12:08:33Z</time>
      </trkpt>
      <trkpt lat="62.120856" lon="12.334905">
        <ele>1062.62</ele>
        <time>2011-07-03T12:08:40Z</time>
      </trkpt>
      <trkpt lat="62.120935" lon="12.334906">
        <ele>1061.73</ele>
        <time>2011-07-03T12:08:48Z</time>
      </trkpt>
      <trkpt lat="62.121005" lon="12.335026">
        <ele>1059.7</ele>
        <time>2011-07-03T12:08:56Z</time>
      </trkpt>
      <trkpt lat="62.121054" lon="12.335078">
        <ele>1057.85</ele>
        <time>2011-07-03T12:09:01Z</time>
      </trkpt>
      <trkpt lat="62.121068" lon="12.335148">
        <ele>1057.05</ele>
        <time>2011-07-03T12:09:04Z</time>
      </trkpt>
      <trkpt lat="62.121089" lon="12.33523">
        <ele>1056.87</ele>
        <time>2011-07-03T12:09:08Z</time>
      </trkpt>
      <trkpt lat="62.121163" lon="12.335314">
        <ele>1055.94</ele>
        <time>2011-07-03T12:09:16Z</time>
      </trkpt>
      <trkpt lat="62.121172" lon="12.335311">
        <ele>1055.83</ele>
        <time>2011-07-03T12:09:18Z</time>
      </trkpt>
      <trkpt lat="62.121216" lon="12.335356">
        <ele>1055.31</ele>
        <time>2011-07-03T12:09:29Z</time>
      </trkpt>
      <trkpt lat="62.121258" lon="12.335381">
        <ele>1054.43</ele>
        <time>2011-07-03T12:09:34Z</time>
      </trkpt>
      <trkpt lat="62.12131" lon="12.335435">
        <ele>1053.85</ele>
        <time>2011-07-03T12:09:41Z</time>
      </trkpt>
      <trkpt lat="62.121316" lon="12.335448">
        <ele>1053.39</ele>
        <time>2011-07-03T12:09:44Z</time>
      </trkpt>
      <trkpt lat="62.121343" lon="12.335574">
        <ele>1052.64</ele>
        <time>2011-07-03T12:09:56Z</time>
      </trkpt>
      <trkpt lat="62.121373" lon="12.335659">
        <ele>1051.87</ele>
        <time>2011-07-03T12:10:02Z</time>
      </trkpt>
      <trkpt lat="62.121374" lon="12.335669">
        <ele>1051.97</ele>
        <time>2011-07-03T12:10:03Z</time>
      </trkpt>
      <trkpt lat="62.121366" lon="12.33578">
        <ele>1050.56</ele>
        <time>2011-07-03T12:10:08Z</time>
      </trkpt>
      <trkpt lat="62.121414" lon="12.335923">
        <ele>1049.6</ele>
        <time>2011-07-03T12:10:15Z</time>
      </trkpt>
      <trkpt lat="62.12143" lon="12.335966">
        <ele>1049.07</ele>
        <time>2011-07-03T12:10:18Z</time>
      </trkpt>
      <trkpt lat="62.121444" lon="12.335976">
        <ele>1048.7</ele>
        <time>2011-07-03T12:10:20Z</time>
      </trkpt>
      <trkpt lat="62.12149" lon="12.336192">
        <ele>1047.01</ele>
        <time>2011-07-03T12:10:29Z</time>
      </trkpt>
      <trkpt lat="62.121534" lon="12.336317">
        <ele>1046.06</ele>
        <time>2011-07-03T12:10:35Z</time>
      </trkpt>
      <trkpt lat="62.121545" lon="12.336344">
        <ele>1045.58</ele>
        <time>2011-07-03T12:10:37Z</time>
      </trkpt>
      <trkpt lat="62.121592" lon="12.336437">
        <ele>1043.95</ele>
        <time>2011-07-03T12:10:44Z</time>
      </trkpt>
      <trkpt lat="62.121632" lon="12.336482">
        <ele>1043.13</ele>
        <time>2011-07-03T12:10:49Z</time>
      </trkpt>
      <trkpt lat="62.121701" lon="12.33665">
        <ele>1041.36</ele>
        <time>2011-07-03T12:10:57Z</time>
      </trkpt>
      <trkpt lat="62.121738" lon="12.336806">
        <ele>1039.49</ele>
        <time>2011-07-03T12:11:05Z</time>
      </trkpt>
      <trkpt lat="62.121763" lon="12.336876">
        <ele>1038.99</ele>
        <time>2011-07-03T12:11:09Z</time>
      </trkpt>
      <trkpt lat="62.121791" lon="12.336925">
        <ele>1039.03</ele>
        <time>2011-07-03T12:11:12Z</time>
      </trkpt>
      <trkpt lat="62.121828" lon="12.337018">
        <ele>1037.86</ele>
        <time>2011-07-03T12:11:17Z</time>
      </trkpt>
      <trkpt lat="62.121884" lon="12.337174">
        <ele>1036.66</ele>
        <time>2011-07-03T12:11:27Z</time>
      </trkpt>
      <trkpt lat="62.121959" lon="12.337314">
        <ele>1035.25</ele>
        <time>2011-07-03T12:11:35Z</time>
      </trkpt>
      <trkpt lat="62.122006" lon="12.337475">
        <ele>1034.04</ele>
        <time>2011-07-03T12:11:43Z</time>
      </trkpt>
      <trkpt lat="62.122064" lon="12.337507">
        <ele>1032.34</ele>
        <time>2011-07-03T12:11:50Z</time>
      </trkpt>
      <trkpt lat="62.122072" lon="12.337523">
        <ele>1031.94</ele>
        <time>2011-07-03T12:11:51Z</time>
      </trkpt>
      <trkpt lat="62.122105" lon="12.337622">
        <ele>1030.26</ele>
        <time>2011-07-03T12:11:55Z</time>
      </trkpt>
      <trkpt lat="62.122149" lon="12.337715">
        <ele>1028.69</ele>
        <time>2011-07-03T12:12:01Z</time>
      </trkpt>
      <trkpt lat="62.122163" lon="12.337789">
        <ele>1027.11</ele>
        <time>2011-07-03T12:12:05Z</time>
      </trkpt>
      <trkpt lat="62.122205" lon="12.337865">
        <ele>1026.24</ele>
        <time>2011-07-03T12:12:10Z</time>
      </trkpt>
      <trkpt lat="62.122237" lon="12.338017">
        <ele>1024.25</ele>
        <time>2011-07-03T12:12:17Z</time>
      </trkpt>
      <trkpt lat="62.122284" lon="12.338161">
        <ele>1023.6</ele>
        <time>2011-07-03T12:12:24Z</time>
      </trkpt>
      <trkpt lat="62.12231" lon="12.338248">
        <ele>1023.02</ele>
        <time>2011-07-03T12:12:30Z</time>
      </trkpt>
      <trkpt lat="62.122324" lon="12.338313">
        <ele>1022.49</ele>
        <time>2011-07-03T12:12:35Z</time>
      </trkpt>
      <trkpt lat="62.122326" lon="12.338383">
        <ele>1022.03</ele>
        <time>2011-07-03T12:12:39Z</time>
      </trkpt>
      <trkpt lat="62.122379" lon="12.338552">
        <ele>1020.58</ele>
        <time>2011-07-03T12:12:47Z</time>
      </trkpt>
      <trkpt lat="62.122403" lon="12.338659">
        <ele>1019.01</ele>
        <time>2011-07-03T12:12:53Z</time>
      </trkpt>
      <trkpt lat="62.122412" lon="12.338731">
        <ele>1018.26</ele>
        <time>2011-07-03T12:12:57Z</time>
      </trkpt>
      <trkpt lat="62.122442" lon="12.338822">
        <ele>1016.9</ele>
        <time>2011-07-03T12:13:02Z</time>
      </trkpt>
      <trkpt lat="62.122494" lon="12.338918">
        <ele>1015.83</ele>
        <time>2011-07-03T12:13:10Z</time>
      </trkpt>
      <trkpt lat="62.122562" lon="12.338987">
        <ele>1014.68</ele>
        <time>2011-07-03T12:13:19Z</time>
      </trkpt>
      <trkpt lat="62.122638" lon="12.339002">
        <ele>1013.31</ele>
        <time>2011-07-03T12:13:26Z</time>
      </trkpt>
      <trkpt lat="62.122649" lon="12.339008">
        <ele>1013.02</ele>
        <time>2011-07-03T12:13:27Z</time>
      </trkpt>
      <trkpt lat="62.122679" lon="12.339165">
        <ele>1010.86</ele>
        <time>2011-07-03T12:13:34Z</time>
      </trkpt>
      <trkpt lat="62.122709" lon="12.339256">
        <ele>1010.29</ele>
        <time>2011-07-03T12:13:39Z</time>
      </trkpt>
      <trkpt lat="62.122769" lon="12.339314">
        <ele>1009.73</ele>
        <time>2011-07-03T12:13:46Z</time>
      </trkpt>
      <trkpt lat="62.122843" lon="12.339339">
        <ele>1008.9</ele>
        <time>2011-07-03T12:13:53Z</time>
      </trkpt>
      <trkpt lat="62.122896" lon="12.339361">
        <ele>1008.45</ele>
        <time>2011-07-03T12:13:59Z</time>
      </trkpt>
      <trkpt lat="62.122972" lon="12.339436">
        <ele>1007.86</ele>
        <time>2011-07-03T12:14:07Z</time>
      </trkpt>
      <trkpt lat="62.123014" lon="12.339472">
        <ele>1006.67</ele>
        <time>2011-07-03T12:14:13Z</time>
      </trkpt>
      <trkpt lat="62.123022" lon="12.339475">
        <ele>1006.6</ele>
        <time>2011-07-03T12:14:14Z</time>
      </trkpt>
      <trkpt lat="62.123096" lon="12.339603">
        <ele>1005.2</ele>
        <time>2011-07-03T12:14:22Z</time>
      </trkpt>
      <trkpt lat="62.123195" lon="12.339699">
        <ele>1004.03</ele>
        <time>2011-07-03T12:14:31Z</time>
      </trkpt>
      <trkpt lat="62.123263" lon="12.339788">
        <ele>1003.04</ele>
        <time>2011-07-03T12:14:38Z</time>
      </trkpt>
      <trkpt lat="62.123279" lon="12.339798">
        <ele>1002.89</ele>
        <time>2011-07-03T12:14:40Z</time>
      </trkpt>
      <trkpt lat="62.123345" lon="12.339943">
        <ele>1001.63</ele>
        <time>2011-07-03T12:14:48Z</time>
      </trkpt>
      <trkpt lat="62.123428" lon="12.34">
        <ele>1001.01</ele>
        <time>2011-07-03T12:14:55Z</time>
      </trkpt>
      <trkpt lat="62.123504" lon="12.340093">
        <ele>999.881</ele>
        <time>2011-07-03T12:15:02Z</time>
      </trkpt>
      <trkpt lat="62.123603" lon="12.340202">
        <ele>998.598</ele>
        <time>2011-07-03T12:15:11Z</time>
      </trkpt>
      <trkpt lat="62.123682" lon="12.340293">
        <ele>997.609</ele>
        <time>2011-07-03T12:15:18Z</time>
      </trkpt>
      <trkpt lat="62.123774" lon="12.340355">
        <ele>997.145</ele>
        <time>2011-07-03T12:15:26Z</time>
      </trkpt>
      <trkpt lat="62.123848" lon="12.340474">
        <ele>995.811</ele>
        <time>2011-07-03T12:15:34Z</time>
      </trkpt>
      <trkpt lat="62.123897" lon="12.340545">
        <ele>994.67</ele>
        <time>2011-07-03T12:15:40Z</time>
      </trkpt>
      <trkpt lat="62.123913" lon="12.340621">
        <ele>994.659</ele>
        <time>2011-07-03T12:15:44Z</time>
      </trkpt>
      <trkpt lat="62.123966" lon="12.340696">
        <ele>994.475</ele>
        <time>2011-07-03T12:15:50Z</time>
      </trkpt>
      <trkpt lat="62.12398" lon="12.340748">
        <ele>993.915</ele>
        <time>2011-07-03T12:15:52Z</time>
      </trkpt>
      <trkpt lat="62.124082" lon="12.340739">
        <ele>994.686</ele>
        <time>2011-07-03T12:16:00Z</time>
      </trkpt>
      <trkpt lat="62.124101" lon="12.340715">
        <ele>994.416</ele>
        <time>2011-07-03T12:16:04Z</time>
      </trkpt>
      <trkpt lat="62.124107" lon="12.340669">
        <ele>994.435</ele>
        <time>2011-07-03T12:16:09Z</time>
      </trkpt>
      <trkpt lat="62.124176" lon="12.340632">
        <ele>994.561</ele>
        <time>2011-07-03T12:16:15Z</time>
      </trkpt>
      <trkpt lat="62.124234" lon="12.340512">
        <ele>994.297</ele>
        <time>2011-07-03T12:16:21Z</time>
      </trkpt>
      <trkpt lat="62.12431" lon="12.340395">
        <ele>994.611</ele>
        <time>2011-07-03T12:16:29Z</time>
      </trkpt>
      <trkpt lat="62.124395" lon="12.340292">
        <ele>994.567</ele>
        <time>2011-07-03T12:16:38Z</time>
      </trkpt>
      <trkpt lat="62.124484" lon="12.340229">
        <ele>994.69</ele>
        <time>2011-07-03T12:16:43Z</time>
      </trkpt>
      <trkpt lat="62.124651" lon="12.340171">
        <ele>995.212</ele>
        <time>2011-07-03T12:16:51Z</time>
      </trkpt>
      <trkpt lat="62.124803" lon="12.34005">
        <ele>995.611</ele>
        <time>2011-07-03T12:16:59Z</time>
      </trkpt>
      <trkpt lat="62.124877" lon="12.339971">
        <ele>995.409</ele>
        <time>2011-07-03T12:17:03Z</time>
      </trkpt>
      <trkpt lat="62.124996" lon="12.339956">
        <ele>995.248</ele>
        <time>2011-07-03T12:17:10Z</time>
      </trkpt>
      <trkpt lat="62.125008" lon="12.33996">
        <ele>995.219</ele>
        <time>2011-07-03T12:17:13Z</time>
      </trkpt>
      <trkpt lat="62.125052" lon="12.339949">
        <ele>995.16</ele>
        <time>2011-07-03T12:17:20Z</time>
      </trkpt>
      <trkpt lat="62.125195" lon="12.339881">
        <ele>994.791</ele>
        <time>2011-07-03T12:17:26Z</time>
      </trkpt>
      <trkpt lat="62.125386" lon="12.339737">
        <ele>994.611</ele>
        <time>2011-07-03T12:17:35Z</time>
      </trkpt>
      <trkpt lat="62.125537" lon="12.339639">
        <ele>994.091</ele>
        <time>2011-07-03T12:17:42Z</time>
      </trkpt>
      <trkpt lat="62.125699" lon="12.339574">
        <ele>994.233</ele>
        <time>2011-07-03T12:17:49Z</time>
      </trkpt>
      <trkpt lat="62.125825" lon="12.339511">
        <ele>994.445</ele>
        <time>2011-07-03T12:17:55Z</time>
      </trkpt>
      <trkpt lat="62.125969" lon="12.33943">
        <ele>994.384</ele>
        <time>2011-07-03T12:18:02Z</time>
      </trkpt>
      <trkpt lat="62.126125" lon="12.339285">
        <ele>994.556</ele>
        <time>2011-07-03T12:18:10Z</time>
      </trkpt>
      <trkpt lat="62.126294" lon="12.339212">
        <ele>995.151</ele>
        <time>2011-07-03T12:18:18Z</time>
      </trkpt>
      <trkpt lat="62.126419" lon="12.339145">
        <ele>995.49</ele>
        <time>2011-07-03T12:18:24Z</time>
      </trkpt>
      <trkpt lat="62.126567" lon="12.339062">
        <ele>995.793</ele>
        <time>2011-07-03T12:18:31Z</time>
      </trkpt>
      <trkpt lat="62.126723" lon="12.338928">
        <ele>995.694</ele>
        <time>2011-07-03T12:18:39Z</time>
      </trkpt>
      <trkpt lat="62.126894" lon="12.338809">
        <ele>995.925</ele>
        <time>2011-07-03T12:18:47Z</time>
      </trkpt>
      <trkpt lat="62.127087" lon="12.338678">
        <ele>995.438</ele>
        <time>2011-07-03T12:18:56Z</time>
      </trkpt>
      <trkpt lat="62.127238" lon="12.338614">
        <ele>995.107</ele>
        <time>2011-07-03T12:19:03Z</time>
      </trkpt>
      <trkpt lat="62.127332" lon="12.338471">
        <ele>994.799</ele>
        <time>2011-07-03T12:19:08Z</time>
      </trkpt>
      <trkpt lat="62.127465" lon="12.338301">
        <ele>995.388</ele>
        <time>2011-07-03T12:19:15Z</time>
      </trkpt>
      <trkpt lat="62.127605" lon="12.33813">
        <ele>995.416</ele>
        <time>2011-07-03T12:19:22Z</time>
      </trkpt>
      <trkpt lat="62.127792" lon="12.337965">
        <ele>995.948</ele>
        <time>2011-07-03T12:19:31Z</time>
      </trkpt>
      <trkpt lat="62.127915" lon="12.337859">
        <ele>995.962</ele>
        <time>2011-07-03T12:19:37Z</time>
      </trkpt>
      <trkpt lat="62.128066" lon="12.337764">
        <ele>996.024</ele>
        <time>2011-07-03T12:19:44Z</time>
      </trkpt>
      <trkpt lat="62.128189" lon="12.337691">
        <ele>996.045</ele>
        <time>2011-07-03T12:19:50Z</time>
      </trkpt>
      <trkpt lat="62.128341" lon="12.337608">
        <ele>995.991</ele>
        <time>2011-07-03T12:19:57Z</time>
      </trkpt>
      <trkpt lat="62.128474" lon="12.337574">
        <ele>995.999</ele>
        <time>2011-07-03T12:20:03Z</time>
      </trkpt>
      <trkpt lat="62.128609" lon="12.337568">
        <ele>996.047</ele>
        <time>2011-07-03T12:20:09Z</time>
      </trkpt>
      <trkpt lat="62.128778" lon="12.337583">
        <ele>995.69</ele>
        <time>2011-07-03T12:20:17Z</time>
      </trkpt>
      <trkpt lat="62.128871" lon="12.337588">
        <ele>995.131</ele>
        <time>2011-07-03T12:20:23Z</time>
      </trkpt>
      <trkpt lat="62.128902" lon="12.337589">
        <ele>994.761</ele>
        <time>2011-07-03T12:20:27Z</time>
      </trkpt>
      <trkpt lat="62.128941" lon="12.337646">
        <ele>994.798</ele>
        <time>2011-07-03T12:20:32Z</time>
      </trkpt>
      <trkpt lat="62.129055" lon="12.337667">
        <ele>995.46</ele>
        <time>2011-07-03T12:20:39Z</time>
      </trkpt>
      <trkpt lat="62.12921" lon="12.337718">
        <ele>995.492</ele>
        <time>2011-07-03T12:20:46Z</time>
      </trkpt>
      <trkpt lat="62.129336" lon="12.337802">
        <ele>995.684</ele>
        <time>2011-07-03T12:20:52Z</time>
      </trkpt>
      <trkpt lat="62.129392" lon="12.337837">
        <ele>995.393</ele>
        <time>2011-07-03T12:20:55Z</time>
      </trkpt>
      <trkpt lat="62.129484" lon="12.337878">
        <ele>994.959</ele>
        <time>2011-07-03T12:21:00Z</time>
      </trkpt>
      <trkpt lat="62.129638" lon="12.337885">
        <ele>995.277</ele>
        <time>2011-07-03T12:21:08Z</time>
      </trkpt>
      <trkpt lat="62.129649" lon="12.337886">
        <ele>995.07</ele>
        <time>2011-07-03T12:21:09Z</time>
      </trkpt>
      <trkpt lat="62.129704" lon="12.337956">
        <ele>994.49</ele>
        <time>2011-07-03T12:21:15Z</time>
      </trkpt>
      <trkpt lat="62.129714" lon="12.337965">
        <ele>994.555</ele>
        <time>2011-07-03T12:21:16Z</time>
      </trkpt>
      <trkpt lat="62.12978" lon="12.338032">
        <ele>995.082</ele>
        <time>2011-07-03T12:21:23Z</time>
      </trkpt>
      <trkpt lat="62.129855" lon="12.338117">
        <ele>996.044</ele>
        <time>2011-07-03T12:21:31Z</time>
      </trkpt>
      <trkpt lat="62.12989" lon="12.338132">
        <ele>995.938</ele>
        <time>2011-07-03T12:21:38Z</time>
      </trkpt>
      <trkpt lat="62.12993" lon="12.338115">
        <ele>995.949</ele>
        <time>2011-07-03T12:21:48Z</time>
      </trkpt>
      <trkpt lat="62.130033" lon="12.338205">
        <ele>996.737</ele>
        <time>2011-07-03T12:21:53Z</time>
      </trkpt>
      <trkpt lat="62.130155" lon="12.338286">
        <ele>996.785</ele>
        <time>2011-07-03T12:21:59Z</time>
      </trkpt>
      <trkpt lat="62.130297" lon="12.338432">
        <ele>997.266</ele>
        <time>2011-07-03T12:22:06Z</time>
      </trkpt>
      <trkpt lat="62.130428" lon="12.338549">
        <ele>997.243</ele>
        <time>2011-07-03T12:22:12Z</time>
      </trkpt>
      <trkpt lat="62.130539" lon="12.338646">
        <ele>997.641</ele>
        <time>2011-07-03T12:22:18Z</time>
      </trkpt>
      <trkpt lat="62.130654" lon="12.338749">
        <ele>997.225</ele>
        <time>2011-07-03T12:22:24Z</time>
      </trkpt>
      <trkpt lat="62.130755" lon="12.338821">
        <ele>997.43</ele>
        <time>2011-07-03T12:22:29Z</time>
      </trkpt>
      <trkpt lat="62.130879" lon="12.338919">
        <ele>997.173</ele>
        <time>2011-07-03T12:22:35Z</time>
      </trkpt>
      <trkpt lat="62.131031" lon="12.338989">
        <ele>997.401</ele>
        <time>2011-07-03T12:22:42Z</time>
      </trkpt>
      <trkpt lat="62.131164" lon="12.339025">
        <ele>997.044</ele>
        <time>2011-07-03T12:22:48Z</time>
      </trkpt>
      <trkpt lat="62.131324" lon="12.339104">
        <ele>996.726</ele>
        <time>2011-07-03T12:22:55Z</time>
      </trkpt>
      <trkpt lat="62.131468" lon="12.339165">
        <ele>995.643</ele>
        <time>2011-07-03T12:23:01Z</time>
      </trkpt>
      <trkpt lat="62.131551" lon="12.339236">
        <ele>995.758</ele>
        <time>2011-07-03T12:23:05Z</time>
      </trkpt>
      <trkpt lat="62.131657" lon="12.339378">
        <ele>996.646</ele>
        <time>2011-07-03T12:23:11Z</time>
      </trkpt>
      <trkpt lat="62.131771" lon="12.339489">
        <ele>996.506</ele>
        <time>2011-07-03T12:23:17Z</time>
      </trkpt>
      <trkpt lat="62.131913" lon="12.339632">
        <ele>995.975</ele>
        <time>2011-07-03T12:23:24Z</time>
      </trkpt>
      <trkpt lat="62.132063" lon="12.339718">
        <ele>995.388</ele>
        <time>2011-07-03T12:23:31Z</time>
      </trkpt>
      <trkpt lat="62.132227" lon="12.339734">
        <ele>994.359</ele>
        <time>2011-07-03T12:23:38Z</time>
      </trkpt>
      <trkpt lat="62.132357" lon="12.339787">
        <ele>993.756</ele>
        <time>2011-07-03T12:23:44Z</time>
      </trkpt>
      <trkpt lat="62.132406" lon="12.339772">
        <ele>993.448</ele>
        <time>2011-07-03T12:23:48Z</time>
      </trkpt>
      <trkpt lat="62.132445" lon="12.339737">
        <ele>993.134</ele>
        <time>2011-07-03T12:23:52Z</time>
      </trkpt>
      <trkpt lat="62.132482" lon="12.339791">
        <ele>992.778</ele>
        <time>2011-07-03T12:23:57Z</time>
      </trkpt>
      <trkpt lat="62.132515" lon="12.339815">
        <ele>992.792</ele>
        <time>2011-07-03T12:24:02Z</time>
      </trkpt>
      <trkpt lat="62.132578" lon="12.339819">
        <ele>992.979</ele>
        <time>2011-07-03T12:24:08Z</time>
      </trkpt>
      <trkpt lat="62.132661" lon="12.339908">
        <ele>993.406</ele>
        <time>2011-07-03T12:24:16Z</time>
      </trkpt>
      <trkpt lat="62.132796" lon="12.339962">
        <ele>993.585</ele>
        <time>2011-07-03T12:24:22Z</time>
      </trkpt>
      <trkpt lat="62.132987" lon="12.340081">
        <ele>993.867</ele>
        <time>2011-07-03T12:24:31Z</time>
      </trkpt>
      <trkpt lat="62.133141" lon="12.34016">
        <ele>993.754</ele>
        <time>2011-07-03T12:24:38Z</time>
      </trkpt>
      <trkpt lat="62.133283" lon="12.34031">
        <ele>993.604</ele>
        <time>2011-07-03T12:24:45Z</time>
      </trkpt>
      <trkpt lat="62.13341" lon="12.340454">
        <ele>993.968</ele>
        <time>2011-07-03T12:24:52Z</time>
      </trkpt>
      <trkpt lat="62.133496" lon="12.340613">
        <ele>992.465</ele>
        <time>2011-07-03T12:24:57Z</time>
      </trkpt>
      <trkpt lat="62.133587" lon="12.340788">
        <ele>992.875</ele>
        <time>2011-07-03T12:25:03Z</time>
      </trkpt>
      <trkpt lat="62.133685" lon="12.340938">
        <ele>993.512</ele>
        <time>2011-07-03T12:25:09Z</time>
      </trkpt>
      <trkpt lat="62.133812" lon="12.341083">
        <ele>993.784</ele>
        <time>2011-07-03T12:25:16Z</time>
      </trkpt>
      <trkpt lat="62.133963" lon="12.341251">
        <ele>993.456</ele>
        <time>2011-07-03T12:25:24Z</time>
      </trkpt>
      <trkpt lat="62.134134" lon="12.341529">
        <ele>992.909</ele>
        <time>2011-07-03T12:25:34Z</time>
      </trkpt>
      <trkpt lat="62.134281" lon="12.341741">
        <ele>992.752</ele>
        <time>2011-07-03T12:25:43Z</time>
      </trkpt>
      <trkpt lat="62.134391" lon="12.341874">
        <ele>992.059</ele>
        <time>2011-07-03T12:25:49Z</time>
      </trkpt>
      <trkpt lat="62.134553" lon="12.342123">
        <ele>992.068</ele>
        <time>2011-07-03T12:25:58Z</time>
      </trkpt>
      <trkpt lat="62.134653" lon="12.342244">
        <ele>991.489</ele>
        <time>2011-07-03T12:26:03Z</time>
      </trkpt>
      <trkpt lat="62.134767" lon="12.342367">
        <ele>991.245</ele>
        <time>2011-07-03T12:26:09Z</time>
      </trkpt>
      <trkpt lat="62.134859" lon="12.342588">
        <ele>991.866</ele>
        <time>2011-07-03T12:26:16Z</time>
      </trkpt>
      <trkpt lat="62.134924" lon="12.342819">
        <ele>991.412</ele>
        <time>2011-07-03T12:26:22Z</time>
      </trkpt>
      <trkpt lat="62.135044" lon="12.342985">
        <ele>991.882</ele>
        <time>2011-07-03T12:26:29Z</time>
      </trkpt>
      <trkpt lat="62.135136" lon="12.343146">
        <ele>991.517</ele>
        <time>2011-07-03T12:26:34Z</time>
      </trkpt>
      <trkpt lat="62.13529" lon="12.34336">
        <ele>991.555</ele>
        <time>2011-07-03T12:26:42Z</time>
      </trkpt>
      <trkpt lat="62.135424" lon="12.343444">
        <ele>991.465</ele>
        <time>2011-07-03T12:26:48Z</time>
      </trkpt>
      <trkpt lat="62.135532" lon="12.343622">
        <ele>991.055</ele>
        <time>2011-07-03T12:26:54Z</time>
      </trkpt>
      <trkpt lat="62.135622" lon="12.343761">
        <ele>991.351</ele>
        <time>2011-07-03T12:27:00Z</time>
      </trkpt>
      <trkpt lat="62.135715" lon="12.343897">
        <ele>991.146</ele>
        <time>2011-07-03T12:27:05Z</time>
      </trkpt>
      <trkpt lat="62.135853" lon="12.344053">
        <ele>990.012</ele>
        <time>2011-07-03T12:27:12Z</time>
      </trkpt>
      <trkpt lat="62.135992" lon="12.344234">
        <ele>989.5</ele>
        <time>2011-07-03T12:27:19Z</time>
      </trkpt>
      <trkpt lat="62.136067" lon="12.34442">
        <ele>989.503</ele>
        <time>2011-07-03T12:27:25Z</time>
      </trkpt>
      <trkpt lat="62.136172" lon="12.344655">
        <ele>988.853</ele>
        <time>2011-07-03T12:27:32Z</time>
      </trkpt>
      <trkpt lat="62.13626" lon="12.344827">
        <ele>989.59</ele>
        <time>2011-07-03T12:27:38Z</time>
      </trkpt>
      <trkpt lat="62.136397" lon="12.345025">
        <ele>990.636</ele>
        <time>2011-07-03T12:27:46Z</time>
      </trkpt>
      <trkpt lat="62.136553" lon="12.345147">
        <ele>990.862</ele>
        <time>2011-07-03T12:27:53Z</time>
      </trkpt>
      <trkpt lat="62.136679" lon="12.34528">
        <ele>990.283</ele>
        <time>2011-07-03T12:27:59Z</time>
      </trkpt>
      <trkpt lat="62.136821" lon="12.345517">
        <ele>991.083</ele>
        <time>2011-07-03T12:28:07Z</time>
      </trkpt>
      <trkpt lat="62.136958" lon="12.34569">
        <ele>991.248</ele>
        <time>2011-07-03T12:28:14Z</time>
      </trkpt>
      <trkpt lat="62.1371" lon="12.345819">
        <ele>989.942</ele>
        <time>2011-07-03T12:28:21Z</time>
      </trkpt>
      <trkpt lat="62.137246" lon="12.345994">
        <ele>989.864</ele>
        <time>2011-07-03T12:28:28Z</time>
      </trkpt>
      <trkpt lat="62.137359" lon="12.346179">
        <ele>988.779</ele>
        <time>2011-07-03T12:28:34Z</time>
      </trkpt>
      <trkpt lat="62.137475" lon="12.346338">
        <ele>988.56</ele>
        <time>2011-07-03T12:28:40Z</time>
      </trkpt>
      <trkpt lat="62.137606" lon="12.346477">
        <ele>989.838</ele>
        <time>2011-07-03T12:28:47Z</time>
      </trkpt>
      <trkpt lat="62.137736" lon="12.346697">
        <ele>990.053</ele>
        <time>2011-07-03T12:28:55Z</time>
      </trkpt>
      <trkpt lat="62.137841" lon="12.346865">
        <ele>990.634</ele>
        <time>2011-07-03T12:29:01Z</time>
      </trkpt>
      <trkpt lat="62.137897" lon="12.346989">
        <ele>990.56</ele>
        <time>2011-07-03T12:29:05Z</time>
      </trkpt>
      <trkpt lat="62.137997" lon="12.347134">
        <ele>990.819</ele>
        <time>2011-07-03T12:29:14Z</time>
      </trkpt>
      <trkpt lat="62.13806" lon="12.347316">
        <ele>990.159</ele>
        <time>2011-07-03T12:29:22Z</time>
      </trkpt>
      <trkpt lat="62.138133" lon="12.34744">
        <ele>990.008</ele>
        <time>2011-07-03T12:29:30Z</time>
      </trkpt>
      <trkpt lat="62.138178" lon="12.347486">
        <ele>990.107</ele>
        <time>2011-07-03T12:29:34Z</time>
      </trkpt>
      <trkpt lat="62.138221" lon="12.347627">
        <ele>989.596</ele>
        <time>2011-07-03T12:29:41Z</time>
      </trkpt>
      <trkpt lat="62.138241" lon="12.347655">
        <ele>989.668</ele>
        <time>2011-07-03T12:29:43Z</time>
      </trkpt>
      <trkpt lat="62.138357" lon="12.347772">
        <ele>990.074</ele>
        <time>2011-07-03T12:29:53Z</time>
      </trkpt>
      <trkpt lat="62.138474" lon="12.347895">
        <ele>989.926</ele>
        <time>2011-07-03T12:30:01Z</time>
      </trkpt>
      <trkpt lat="62.13858" lon="12.347974">
        <ele>990.767</ele>
        <time>2011-07-03T12:30:07Z</time>
      </trkpt>
      <trkpt lat="62.138715" lon="12.348">
        <ele>991.25</ele>
        <time>2011-07-03T12:30:13Z</time>
      </trkpt>
      <trkpt lat="62.138798" lon="12.3481">
        <ele>991.807</ele>
        <time>2011-07-03T12:30:18Z</time>
      </trkpt>
      <trkpt lat="62.138928" lon="12.348334">
        <ele>992.094</ele>
        <time>2011-07-03T12:30:27Z</time>
      </trkpt>
      <trkpt lat="62.139007" lon="12.348471">
        <ele>992.081</ele>
        <time>2011-07-03T12:30:35Z</time>
      </trkpt>
      <trkpt lat="62.139085" lon="12.34861">
        <ele>992.088</ele>
        <time>2011-07-03T12:30:43Z</time>
      </trkpt>
      <trkpt lat="62.139147" lon="12.348732">
        <ele>991.638</ele>
        <time>2011-07-03T12:30:49Z</time>
      </trkpt>
      <trkpt lat="62.13922" lon="12.348895">
        <ele>991.733</ele>
        <time>2011-07-03T12:30:57Z</time>
      </trkpt>
      <trkpt lat="62.139281" lon="12.349059">
        <ele>991.903</ele>
        <time>2011-07-03T12:31:04Z</time>
      </trkpt>
      <trkpt lat="62.139325" lon="12.349209">
        <ele>991.423</ele>
        <time>2011-07-03T12:31:11Z</time>
      </trkpt>
      <trkpt lat="62.139375" lon="12.349407">
        <ele>991.701</ele>
        <time>2011-07-03T12:31:19Z</time>
      </trkpt>
      <trkpt lat="62.139428" lon="12.349604">
        <ele>991.963</ele>
        <time>2011-07-03T12:31:27Z</time>
      </trkpt>
      <trkpt lat="62.139533" lon="12.349815">
        <ele>992.45</ele>
        <time>2011-07-03T12:31:37Z</time>
      </trkpt>
      <trkpt lat="62.139606" lon="12.34992">
        <ele>992.84</ele>
        <time>2011-07-03T12:31:44Z</time>
      </trkpt>
      <trkpt lat="62.13969" lon="12.350002">
        <ele>992.558</ele>
        <time>2011-07-03T12:31:51Z</time>
      </trkpt>
      <trkpt lat="62.139764" lon="12.350099">
        <ele>992.197</ele>
        <time>2011-07-03T12:31:58Z</time>
      </trkpt>
      <trkpt lat="62.139833" lon="12.350193">
        <ele>992.243</ele>
        <time>2011-07-03T12:32:05Z</time>
      </trkpt>
      <trkpt lat="62.139887" lon="12.350298">
        <ele>991.844</ele>
        <time>2011-07-03T12:32:11Z</time>
      </trkpt>
      <trkpt lat="62.139957" lon="12.350396">
        <ele>992.166</ele>
        <time>2011-07-03T12:32:18Z</time>
      </trkpt>
      <trkpt lat="62.140034" lon="12.350534">
        <ele>991.466</ele>
        <time>2011-07-03T12:32:26Z</time>
      </trkpt>
      <trkpt lat="62.140133" lon="12.350659">
        <ele>991.418</ele>
        <time>2011-07-03T12:32:35Z</time>
      </trkpt>
      <trkpt lat="62.140194" lon="12.350733">
        <ele>991.676</ele>
        <time>2011-07-03T12:32:41Z</time>
      </trkpt>
      <trkpt lat="62.140254" lon="12.350849">
        <ele>990.871</ele>
        <time>2011-07-03T12:32:48Z</time>
      </trkpt>
      <trkpt lat="62.140329" lon="12.350925">
        <ele>991.094</ele>
        <time>2011-07-03T12:32:55Z</time>
      </trkpt>
      <trkpt lat="62.140398" lon="12.351007">
        <ele>990.553</ele>
        <time>2011-07-03T12:33:02Z</time>
      </trkpt>
      <trkpt lat="62.1405" lon="12.351081">
        <ele>990.085</ele>
        <time>2011-07-03T12:33:10Z</time>
      </trkpt>
      <trkpt lat="62.140623" lon="12.351183">
        <ele>990.383</ele>
        <time>2011-07-03T12:33:20Z</time>
      </trkpt>
      <trkpt lat="62.140726" lon="12.351268">
        <ele>990.423</ele>
        <time>2011-07-03T12:33:29Z</time>
      </trkpt>
      <trkpt lat="62.140816" lon="12.351338">
        <ele>990.289</ele>
        <time>2011-07-03T12:33:36Z</time>
      </trkpt>
      <trkpt lat="62.140934" lon="12.351407">
        <ele>989.902</ele>
        <time>2011-07-03T12:33:45Z</time>
      </trkpt>
      <trkpt lat="62.141052" lon="12.351532">
        <ele>988.306</ele>
        <time>2011-07-03T12:33:54Z</time>
      </trkpt>
      <trkpt lat="62.141158" lon="12.351648">
        <ele>987.617</ele>
        <time>2011-07-03T12:34:03Z</time>
      </trkpt>
      <trkpt lat="62.141268" lon="12.3517">
        <ele>987.417</ele>
        <time>2011-07-03T12:34:11Z</time>
      </trkpt>
      <trkpt lat="62.141359" lon="12.351793">
        <ele>987.662</ele>
        <time>2011-07-03T12:34:18Z</time>
      </trkpt>
      <trkpt lat="62.141416" lon="12.351893">
        <ele>987.801</ele>
        <time>2011-07-03T12:34:23Z</time>
      </trkpt>
      <trkpt lat="62.141505" lon="12.351994">
        <ele>988.132</ele>
        <time>2011-07-03T12:34:30Z</time>
      </trkpt>
      <trkpt lat="62.14161" lon="12.352118">
        <ele>988.644</ele>
        <time>2011-07-03T12:34:39Z</time>
      </trkpt>
      <trkpt lat="62.141711" lon="12.352185">
        <ele>988.709</ele>
        <time>2011-07-03T12:34:46Z</time>
      </trkpt>
      <trkpt lat="62.141831" lon="12.352303">
        <ele>989.063</ele>
        <time>2011-07-03T12:34:55Z</time>
      </trkpt>
      <trkpt lat="62.141973" lon="12.35243">
        <ele>989.573</ele>
        <time>2011-07-03T12:35:05Z</time>
      </trkpt>
      <trkpt lat="62.142085" lon="12.352492">
        <ele>990.082</ele>
        <time>2011-07-03T12:35:11Z</time>
      </trkpt>
      <trkpt lat="62.142239" lon="12.352602">
        <ele>990.381</ele>
        <time>2011-07-03T12:35:18Z</time>
      </trkpt>
      <trkpt lat="62.142393" lon="12.352738">
        <ele>990.027</ele>
        <time>2011-07-03T12:35:25Z</time>
      </trkpt>
      <trkpt lat="62.142561" lon="12.352848">
        <ele>990.062</ele>
        <time>2011-07-03T12:35:32Z</time>
      </trkpt>
      <trkpt lat="62.14266" lon="12.352995">
        <ele>990.199</ele>
        <time>2011-07-03T12:35:37Z</time>
      </trkpt>
      <trkpt lat="62.142791" lon="12.353084">
        <ele>989.927</ele>
        <time>2011-07-03T12:35:43Z</time>
      </trkpt>
      <trkpt lat="62.142949" lon="12.353203">
        <ele>990.335</ele>
        <time>2011-07-03T12:35:51Z</time>
      </trkpt>
      <trkpt lat="62.143077" lon="12.35335">
        <ele>991.112</ele>
        <time>2011-07-03T12:35:58Z</time>
      </trkpt>
      <trkpt lat="62.143223" lon="12.353568">
        <ele>990.98</ele>
        <time>2011-07-03T12:36:06Z</time>
      </trkpt>
      <trkpt lat="62.143345" lon="12.353757">
        <ele>990.932</ele>
        <time>2011-07-03T12:36:13Z</time>
      </trkpt>
      <trkpt lat="62.143514" lon="12.35399">
        <ele>991.302</ele>
        <time>2011-07-03T12:36:22Z</time>
      </trkpt>
      <trkpt lat="62.143658" lon="12.35421">
        <ele>991.275</ele>
        <time>2011-07-03T12:36:30Z</time>
      </trkpt>
      <trkpt lat="62.143805" lon="12.354426">
        <ele>991.773</ele>
        <time>2011-07-03T12:36:38Z</time>
      </trkpt>
      <trkpt lat="62.143927" lon="12.354626">
        <ele>991.59</ele>
        <time>2011-07-03T12:36:45Z</time>
      </trkpt>
      <trkpt lat="62.144037" lon="12.354816">
        <ele>990.91</ele>
        <time>2011-07-03T12:36:52Z</time>
      </trkpt>
      <trkpt lat="62.144133" lon="12.355026">
        <ele>990.614</ele>
        <time>2011-07-03T12:36:59Z</time>
      </trkpt>
      <trkpt lat="62.144233" lon="12.355169">
        <ele>991.482</ele>
        <time>2011-07-03T12:37:06Z</time>
      </trkpt>
      <trkpt lat="62.144342" lon="12.355383">
        <ele>991.495</ele>
        <time>2011-07-03T12:37:13Z</time>
      </trkpt>
      <trkpt lat="62.144442" lon="12.355602">
        <ele>991.45</ele>
        <time>2011-07-03T12:37:20Z</time>
      </trkpt>
      <trkpt lat="62.144545" lon="12.355816">
        <ele>990.568</ele>
        <time>2011-07-03T12:37:27Z</time>
      </trkpt>
      <trkpt lat="62.144699" lon="12.356069">
        <ele>990.618</ele>
        <time>2011-07-03T12:37:36Z</time>
      </trkpt>
      <trkpt lat="62.144848" lon="12.356276">
        <ele>989.693</ele>
        <time>2011-07-03T12:37:44Z</time>
      </trkpt>
      <trkpt lat="62.14499" lon="12.356485">
        <ele>988.432</ele>
        <time>2011-07-03T12:37:52Z</time>
      </trkpt>
      <trkpt lat="62.145149" lon="12.356768">
        <ele>988.209</ele>
        <time>2011-07-03T12:38:00Z</time>
      </trkpt>
      <trkpt lat="62.145328" lon="12.357097">
        <ele>988.547</ele>
        <time>2011-07-03T12:38:09Z</time>
      </trkpt>
      <trkpt lat="62.145471" lon="12.357307">
        <ele>988.045</ele>
        <time>2011-07-03T12:38:16Z</time>
      </trkpt>
      <trkpt lat="62.145623" lon="12.357561">
        <ele>988.067</ele>
        <time>2011-07-03T12:38:24Z</time>
      </trkpt>
      <trkpt lat="62.145748" lon="12.357778">
        <ele>988.043</ele>
        <time>2011-07-03T12:38:31Z</time>
      </trkpt>
      <trkpt lat="62.14586" lon="12.357945">
        <ele>987.711</ele>
        <time>2011-07-03T12:38:37Z</time>
      </trkpt>
      <trkpt lat="62.145993" lon="12.358181">
        <ele>987.07</ele>
        <time>2011-07-03T12:38:45Z</time>
      </trkpt>
      <trkpt lat="62.146109" lon="12.35831">
        <ele>985.787</ele>
        <time>2011-07-03T12:38:51Z</time>
      </trkpt>
      <trkpt lat="62.146231" lon="12.358501">
        <ele>983.91</ele>
        <time>2011-07-03T12:38:57Z</time>
      </trkpt>
      <trkpt lat="62.146294" lon="12.358736">
        <ele>983.167</ele>
        <time>2011-07-03T12:39:02Z</time>
      </trkpt>
      <trkpt lat="62.146427" lon="12.358965">
        <ele>983.524</ele>
        <time>2011-07-03T12:39:09Z</time>
      </trkpt>
      <trkpt lat="62.14659" lon="12.359185">
        <ele>983.993</ele>
        <time>2011-07-03T12:39:16Z</time>
      </trkpt>
      <trkpt lat="62.146709" lon="12.359475">
        <ele>984.173</ele>
        <time>2011-07-03T12:39:23Z</time>
      </trkpt>
      <trkpt lat="62.146805" lon="12.359727">
        <ele>983.445</ele>
        <time>2011-07-03T12:39:30Z</time>
      </trkpt>
      <trkpt lat="62.146911" lon="12.359926">
        <ele>983.266</ele>
        <time>2011-07-03T12:39:38Z</time>
      </trkpt>
      <trkpt lat="62.14695" lon="12.359945">
        <ele>983.118</ele>
        <time>2011-07-03T12:39:44Z</time>
      </trkpt>
      <trkpt lat="62.146994" lon="12.360091">
        <ele>983.311</ele>
        <time>2011-07-03T12:40:09Z</time>
      </trkpt>
      <trkpt lat="62.14705" lon="12.360233">
        <ele>982.146</ele>
        <time>2011-07-03T12:40:16Z</time>
      </trkpt>
      <trkpt lat="62.147101" lon="12.360355">
        <ele>981.74</ele>
        <time>2011-07-03T12:40:22Z</time>
      </trkpt>
      <trkpt lat="62.147171" lon="12.360501">
        <ele>981.814</ele>
        <time>2011-07-03T12:40:30Z</time>
      </trkpt>
      <trkpt lat="62.147261" lon="12.360587">
        <ele>981.148</ele>
        <time>2011-07-03T12:40:37Z</time>
      </trkpt>
      <trkpt lat="62.147348" lon="12.360643">
        <ele>981.005</ele>
        <time>2011-07-03T12:40:44Z</time>
      </trkpt>
      <trkpt lat="62.147493" lon="12.360771">
        <ele>980.878</ele>
        <time>2011-07-03T12:40:54Z</time>
      </trkpt>
      <trkpt lat="62.147593" lon="12.3609">
        <ele>979.927</ele>
        <time>2011-07-03T12:41:02Z</time>
      </trkpt>
      <trkpt lat="62.147696" lon="12.360996">
        <ele>979.23</ele>
        <time>2011-07-03T12:41:10Z</time>
      </trkpt>
      <trkpt lat="62.147812" lon="12.361068">
        <ele>978.729</ele>
        <time>2011-07-03T12:41:19Z</time>
      </trkpt>
      <trkpt lat="62.147934" lon="12.361183">
        <ele>978.4</ele>
        <time>2011-07-03T12:41:28Z</time>
      </trkpt>
      <trkpt lat="62.148072" lon="12.361272">
        <ele>978.137</ele>
        <time>2011-07-03T12:41:35Z</time>
      </trkpt>
      <trkpt lat="62.148184" lon="12.361373">
        <ele>977.054</ele>
        <time>2011-07-03T12:41:41Z</time>
      </trkpt>
      <trkpt lat="62.148294" lon="12.361435">
        <ele>976.458</ele>
        <time>2011-07-03T12:41:47Z</time>
      </trkpt>
      <trkpt lat="62.148413" lon="12.361444">
        <ele>977.396</ele>
        <time>2011-07-03T12:41:54Z</time>
      </trkpt>
      <trkpt lat="62.1485" lon="12.361441">
        <ele>977.944</ele>
        <time>2011-07-03T12:42:01Z</time>
      </trkpt>
      <trkpt lat="62.148595" lon="12.361478">
        <ele>978.145</ele>
        <time>2011-07-03T12:42:08Z</time>
      </trkpt>
      <trkpt lat="62.148699" lon="12.361487">
        <ele>978.155</ele>
        <time>2011-07-03T12:42:16Z</time>
      </trkpt>
      <trkpt lat="62.148698" lon="12.361476">
        <ele>978.29</ele>
        <time>2011-07-03T12:42:18Z</time>
      </trkpt>
      <trkpt lat="62.148721" lon="12.361429">
        <ele>978.012</ele>
        <time>2011-07-03T12:42:51Z</time>
      </trkpt>
      <trkpt lat="62.148815" lon="12.361416">
        <ele>977.978</ele>
        <time>2011-07-03T12:42:58Z</time>
      </trkpt>
      <trkpt lat="62.148958" lon="12.361407">
        <ele>977.736</ele>
        <time>2011-07-03T12:43:08Z</time>
      </trkpt>
      <trkpt lat="62.14907" lon="12.361405">
        <ele>977.432</ele>
        <time>2011-07-03T12:43:16Z</time>
      </trkpt>
      <trkpt lat="62.149206" lon="12.361359">
        <ele>977.104</ele>
        <time>2011-07-03T12:43:26Z</time>
      </trkpt>
      <trkpt lat="62.149259" lon="12.361325">
        <ele>976.613</ele>
        <time>2011-07-03T12:43:30Z</time>
      </trkpt>
      <trkpt lat="62.149371" lon="12.361307">
        <ele>976.44</ele>
        <time>2011-07-03T12:43:38Z</time>
      </trkpt>
      <trkpt lat="62.149516" lon="12.361291">
        <ele>976.103</ele>
        <time>2011-07-03T12:43:46Z</time>
      </trkpt>
      <trkpt lat="62.14959" lon="12.361345">
        <ele>975.432</ele>
        <time>2011-07-03T12:43:51Z</time>
      </trkpt>
      <trkpt lat="62.149668" lon="12.361343">
        <ele>974.782</ele>
        <time>2011-07-03T12:43:58Z</time>
      </trkpt>
      <trkpt lat="62.149781" lon="12.361331">
        <ele>973.427</ele>
        <time>2011-07-03T12:44:06Z</time>
      </trkpt>
      <trkpt lat="62.149908" lon="12.361327">
        <ele>972.024</ele>
        <time>2011-07-03T12:44:15Z</time>
      </trkpt>
      <trkpt lat="62.149992" lon="12.361346">
        <ele>970.888</ele>
        <time>2011-07-03T12:44:21Z</time>
      </trkpt>
      <trkpt lat="62.150093" lon="12.361352">
        <ele>969.474</ele>
        <time>2011-07-03T12:44:29Z</time>
      </trkpt>
      <trkpt lat="62.150176" lon="12.361372">
        <ele>968.961</ele>
        <time>2011-07-03T12:44:35Z</time>
      </trkpt>
      <trkpt lat="62.150286" lon="12.361355">
        <ele>969.885</ele>
        <time>2011-07-03T12:44:43Z</time>
      </trkpt>
      <trkpt lat="62.150369" lon="12.36142">
        <ele>970.324</ele>
        <time>2011-07-03T12:44:50Z</time>
      </trkpt>
      <trkpt lat="62.150465" lon="12.361455">
        <ele>970.26</ele>
        <time>2011-07-03T12:44:54Z</time>
      </trkpt>
      <trkpt lat="62.150612" lon="12.361471">
        <ele>970.228</ele>
        <time>2011-07-03T12:45:00Z</time>
      </trkpt>
      <trkpt lat="62.150759" lon="12.361531">
        <ele>969.507</ele>
        <time>2011-07-03T12:45:06Z</time>
      </trkpt>
      <trkpt lat="62.150906" lon="12.361547">
        <ele>968.529</ele>
        <time>2011-07-03T12:45:12Z</time>
      </trkpt>
      <trkpt lat="62.151065" lon="12.361614">
        <ele>968.299</ele>
        <time>2011-07-03T12:45:18Z</time>
      </trkpt>
      <trkpt lat="62.151246" lon="12.361657">
        <ele>968.139</ele>
        <time>2011-07-03T12:45:25Z</time>
      </trkpt>
      <trkpt lat="62.151406" lon="12.361779">
        <ele>967.098</ele>
        <time>2011-07-03T12:45:31Z</time>
      </trkpt>
      <trkpt lat="62.151616" lon="12.36199">
        <ele>967.302</ele>
        <time>2011-07-03T12:45:39Z</time>
      </trkpt>
      <trkpt lat="62.151798" lon="12.362188">
        <ele>966.14</ele>
        <time>2011-07-03T12:45:46Z</time>
      </trkpt>
      <trkpt lat="62.151966" lon="12.362364">
        <ele>965.755</ele>
        <time>2011-07-03T12:45:53Z</time>
      </trkpt>
      <trkpt lat="62.152163" lon="12.362554">
        <ele>965.789</ele>
        <time>2011-07-03T12:46:01Z</time>
      </trkpt>
      <trkpt lat="62.152309" lon="12.362647">
        <ele>964.993</ele>
        <time>2011-07-03T12:46:07Z</time>
      </trkpt>
      <trkpt lat="62.15246" lon="12.362829">
        <ele>964.21</ele>
        <time>2011-07-03T12:46:14Z</time>
      </trkpt>
      <trkpt lat="62.152579" lon="12.362909">
        <ele>963.794</ele>
        <time>2011-07-03T12:46:19Z</time>
      </trkpt>
      <trkpt lat="62.152709" lon="12.363077">
        <ele>963.2</ele>
        <time>2011-07-03T12:46:26Z</time>
      </trkpt>
      <trkpt lat="62.152902" lon="12.363388">
        <ele>962.262</ele>
        <time>2011-07-03T12:46:36Z</time>
      </trkpt>
      <trkpt lat="62.153014" lon="12.36362">
        <ele>961.204</ele>
        <time>2011-07-03T12:46:43Z</time>
      </trkpt>
      <trkpt lat="62.15316" lon="12.363861">
        <ele>961.304</ele>
        <time>2011-07-03T12:46:52Z</time>
      </trkpt>
      <trkpt lat="62.153281" lon="12.364072">
        <ele>961.428</ele>
        <time>2011-07-03T12:47:00Z</time>
      </trkpt>
      <trkpt lat="62.153372" lon="12.364186">
        <ele>961.293</ele>
        <time>2011-07-03T12:47:05Z</time>
      </trkpt>
      <trkpt lat="62.15352" lon="12.364366">
        <ele>961.119</ele>
        <time>2011-07-03T12:47:13Z</time>
      </trkpt>
      <trkpt lat="62.15369" lon="12.364609">
        <ele>960.386</ele>
        <time>2011-07-03T12:47:22Z</time>
      </trkpt>
      <trkpt lat="62.153791" lon="12.364826">
        <ele>959.658</ele>
        <time>2011-07-03T12:47:29Z</time>
      </trkpt>
      <trkpt lat="62.153927" lon="12.36501">
        <ele>958.727</ele>
        <time>2011-07-03T12:47:37Z</time>
      </trkpt>
      <trkpt lat="62.154032" lon="12.365164">
        <ele>958.014</ele>
        <time>2011-07-03T12:47:43Z</time>
      </trkpt>
      <trkpt lat="62.154127" lon="12.365307">
        <ele>957.068</ele>
        <time>2011-07-03T12:47:48Z</time>
      </trkpt>
      <trkpt lat="62.154213" lon="12.365481">
        <ele>956.198</ele>
        <time>2011-07-03T12:47:54Z</time>
      </trkpt>
      <trkpt lat="62.154342" lon="12.365636">
        <ele>956.04</ele>
        <time>2011-07-03T12:48:00Z</time>
      </trkpt>
      <trkpt lat="62.154491" lon="12.365835">
        <ele>955.346</ele>
        <time>2011-07-03T12:48:07Z</time>
      </trkpt>
      <trkpt lat="62.154556" lon="12.365907">
        <ele>955.301</ele>
        <time>2011-07-03T12:48:11Z</time>
      </trkpt>
      <trkpt lat="62.154664" lon="12.366019">
        <ele>954.996</ele>
        <time>2011-07-03T12:48:20Z</time>
      </trkpt>
      <trkpt lat="62.154726" lon="12.366112">
        <ele>955.121</ele>
        <time>2011-07-03T12:48:26Z</time>
      </trkpt>
      <trkpt lat="62.154803" lon="12.366215">
        <ele>955.268</ele>
        <time>2011-07-03T12:48:33Z</time>
      </trkpt>
      <trkpt lat="62.154886" lon="12.366313">
        <ele>955.107</ele>
        <time>2011-07-03T12:48:40Z</time>
      </trkpt>
      <trkpt lat="62.154984" lon="12.366441">
        <ele>955.202</ele>
        <time>2011-07-03T12:48:48Z</time>
      </trkpt>
      <trkpt lat="62.155054" lon="12.366559">
        <ele>954.782</ele>
        <time>2011-07-03T12:48:54Z</time>
      </trkpt>
      <trkpt lat="62.155163" lon="12.36664">
        <ele>954.62</ele>
        <time>2011-07-03T12:49:03Z</time>
      </trkpt>
      <trkpt lat="62.155214" lon="12.366694">
        <ele>954.315</ele>
        <time>2011-07-03T12:49:08Z</time>
      </trkpt>
      <trkpt lat="62.155319" lon="12.36681">
        <ele>953.775</ele>
        <time>2011-07-03T12:49:17Z</time>
      </trkpt>
      <trkpt lat="62.155334" lon="12.366819">
        <ele>953.693</ele>
        <time>2011-07-03T12:49:18Z</time>
      </trkpt>
      <trkpt lat="62.155477" lon="12.366941">
        <ele>953.446</ele>
        <time>2011-07-03T12:49:29Z</time>
      </trkpt>
      <trkpt lat="62.155565" lon="12.367028">
        <ele>952.746</ele>
        <time>2011-07-03T12:49:36Z</time>
      </trkpt>
      <trkpt lat="62.155641" lon="12.367073">
        <ele>952.001</ele>
        <time>2011-07-03T12:49:42Z</time>
      </trkpt>
      <trkpt lat="62.15572" lon="12.367134">
        <ele>951.282</ele>
        <time>2011-07-03T12:49:49Z</time>
      </trkpt>
      <trkpt lat="62.155821" lon="12.367235">
        <ele>951.167</ele>
        <time>2011-07-03T12:49:57Z</time>
      </trkpt>
      <trkpt lat="62.155895" lon="12.367348">
        <ele>951.041</ele>
        <time>2011-07-03T12:50:04Z</time>
      </trkpt>
      <trkpt lat="62.155946" lon="12.3675">
        <ele>951.496</ele>
        <time>2011-07-03T12:50:11Z</time>
      </trkpt>
      <trkpt lat="62.156043" lon="12.367674">
        <ele>950.638</ele>
        <time>2011-07-03T12:50:21Z</time>
      </trkpt>
      <trkpt lat="62.156142" lon="12.367793">
        <ele>950.282</ele>
        <time>2011-07-03T12:50:29Z</time>
      </trkpt>
      <trkpt lat="62.156255" lon="12.367892">
        <ele>950.207</ele>
        <time>2011-07-03T12:50:36Z</time>
      </trkpt>
      <trkpt lat="62.156364" lon="12.367996">
        <ele>949.424</ele>
        <time>2011-07-03T12:50:44Z</time>
      </trkpt>
      <trkpt lat="62.156379" lon="12.368021">
        <ele>949.277</ele>
        <time>2011-07-03T12:50:46Z</time>
      </trkpt>
      <trkpt lat="62.156498" lon="12.368123">
        <ele>948.123</ele>
        <time>2011-07-03T12:50:55Z</time>
      </trkpt>
      <trkpt lat="62.156636" lon="12.368239">
        <ele>947.981</ele>
        <time>2011-07-03T12:51:01Z</time>
      </trkpt>
      <trkpt lat="62.156822" lon="12.368418">
        <ele>947.583</ele>
        <time>2011-07-03T12:51:09Z</time>
      </trkpt>
      <trkpt lat="62.156993" lon="12.368543">
        <ele>947.311</ele>
        <time>2011-07-03T12:51:16Z</time>
      </trkpt>
      <trkpt lat="62.15719" lon="12.368725">
        <ele>947.115</ele>
        <time>2011-07-03T12:51:24Z</time>
      </trkpt>
      <trkpt lat="62.157313" lon="12.368817">
        <ele>946.843</ele>
        <time>2011-07-03T12:51:30Z</time>
      </trkpt>
      <trkpt lat="62.157457" lon="12.368883">
        <ele>946.339</ele>
        <time>2011-07-03T12:51:37Z</time>
      </trkpt>
      <trkpt lat="62.15762" lon="12.368938">
        <ele>946.081</ele>
        <time>2011-07-03T12:51:44Z</time>
      </trkpt>
      <trkpt lat="62.157755" lon="12.368958">
        <ele>945.981</ele>
        <time>2011-07-03T12:51:50Z</time>
      </trkpt>
      <trkpt lat="62.157995" lon="12.369017">
        <ele>945.797</ele>
        <time>2011-07-03T12:51:59Z</time>
      </trkpt>
      <trkpt lat="62.158107" lon="12.369095">
        <ele>945.447</ele>
        <time>2011-07-03T12:52:05Z</time>
      </trkpt>
      <trkpt lat="62.158134" lon="12.369137">
        <ele>945.323</ele>
        <time>2011-07-03T12:52:10Z</time>
      </trkpt>
      <trkpt lat="62.158099" lon="12.3691">
        <ele>943.683</ele>
        <time>2011-07-03T13:14:39Z</time>
      </trkpt>
      <trkpt lat="62.158145" lon="12.369163">
        <ele>943.635</ele>
        <time>2011-07-03T13:14:53Z</time>
      </trkpt>
      <trkpt lat="62.158201" lon="12.369257">
        <ele>943.75</ele>
        <time>2011-07-03T13:15:00Z</time>
      </trkpt>
      <trkpt lat="62.158287" lon="12.369452">
        <ele>944.176</ele>
        <time>2011-07-03T13:15:12Z</time>
      </trkpt>
      <trkpt lat="62.158357" lon="12.369598">
        <ele>944.153</ele>
        <time>2011-07-03T13:15:21Z</time>
      </trkpt>
      <trkpt lat="62.158465" lon="12.36982">
        <ele>944.096</ele>
        <time>2011-07-03T13:15:33Z</time>
      </trkpt>
      <trkpt lat="62.158548" lon="12.36995">
        <ele>943.768</ele>
        <time>2011-07-03T13:15:41Z</time>
      </trkpt>
      <trkpt lat="62.158574" lon="12.37001">
        <ele>943.879</ele>
        <time>2011-07-03T13:15:44Z</time>
      </trkpt>
      <trkpt lat="62.158627" lon="12.37004">
        <ele>944.148</ele>
        <time>2011-07-03T13:15:48Z</time>
      </trkpt>
      <trkpt lat="62.158752" lon="12.370141">
        <ele>944.776</ele>
        <time>2011-07-03T13:15:58Z</time>
      </trkpt>
      <trkpt lat="62.158845" lon="12.370232">
        <ele>945.011</ele>
        <time>2011-07-03T13:16:06Z</time>
      </trkpt>
      <trkpt lat="62.158912" lon="12.370307">
        <ele>945.161</ele>
        <time>2011-07-03T13:16:12Z</time>
      </trkpt>
      <trkpt lat="62.159" lon="12.370416">
        <ele>945.851</ele>
        <time>2011-07-03T13:16:21Z</time>
      </trkpt>
      <trkpt lat="62.159078" lon="12.370472">
        <ele>946.27</ele>
        <time>2011-07-03T13:16:28Z</time>
      </trkpt>
      <trkpt lat="62.159184" lon="12.370562">
        <ele>946.813</ele>
        <time>2011-07-03T13:16:37Z</time>
      </trkpt>
      <trkpt lat="62.159292" lon="12.370665">
        <ele>946.756</ele>
        <time>2011-07-03T13:16:45Z</time>
      </trkpt>
      <trkpt lat="62.1594" lon="12.370694">
        <ele>946.527</ele>
        <time>2011-07-03T13:16:52Z</time>
      </trkpt>
      <trkpt lat="62.159493" lon="12.370748">
        <ele>946.547</ele>
        <time>2011-07-03T13:16:58Z</time>
      </trkpt>
      <trkpt lat="62.159596" lon="12.3708">
        <ele>946.01</ele>
        <time>2011-07-03T13:17:05Z</time>
      </trkpt>
      <trkpt lat="62.159735" lon="12.370892">
        <ele>945.229</ele>
        <time>2011-07-03T13:17:12Z</time>
      </trkpt>
      <trkpt lat="62.159866" lon="12.370926">
        <ele>945.164</ele>
        <time>2011-07-03T13:17:18Z</time>
      </trkpt>
      <trkpt lat="62.160046" lon="12.370982">
        <ele>944.64</ele>
        <time>2011-07-03T13:17:26Z</time>
      </trkpt>
      <trkpt lat="62.160157" lon="12.371034">
        <ele>944.307</ele>
        <time>2011-07-03T13:17:32Z</time>
      </trkpt>
      <trkpt lat="62.160281" lon="12.37106">
        <ele>943.956</ele>
        <time>2011-07-03T13:17:38Z</time>
      </trkpt>
      <trkpt lat="62.160442" lon="12.371196">
        <ele>943.448</ele>
        <time>2011-07-03T13:17:46Z</time>
      </trkpt>
      <trkpt lat="62.160566" lon="12.371273">
        <ele>943.199</ele>
        <time>2011-07-03T13:17:52Z</time>
      </trkpt>
      <trkpt lat="62.160663" lon="12.371322">
        <ele>943.14</ele>
        <time>2011-07-03T13:17:58Z</time>
      </trkpt>
      <trkpt lat="62.160782" lon="12.371384">
        <ele>943.632</ele>
        <time>2011-07-03T13:18:04Z</time>
      </trkpt>
      <trkpt lat="62.160944" lon="12.371462">
        <ele>943.862</ele>
        <time>2011-07-03T13:18:12Z</time>
      </trkpt>
      <trkpt lat="62.1611" lon="12.371466">
        <ele>943.498</ele>
        <time>2011-07-03T13:18:19Z</time>
      </trkpt>
      <trkpt lat="62.161251" lon="12.371514">
        <ele>943.165</ele>
        <time>2011-07-03T13:18:26Z</time>
      </trkpt>
      <trkpt lat="62.161404" lon="12.371592">
        <ele>942.334</ele>
        <time>2011-07-03T13:18:33Z</time>
      </trkpt>
      <trkpt lat="62.16154" lon="12.371616">
        <ele>941.27</ele>
        <time>2011-07-03T13:18:39Z</time>
      </trkpt>
      <trkpt lat="62.161699" lon="12.371602">
        <ele>940.401</ele>
        <time>2011-07-03T13:18:46Z</time>
      </trkpt>
      <trkpt lat="62.161834" lon="12.371643">
        <ele>940.249</ele>
        <time>2011-07-03T13:18:52Z</time>
      </trkpt>
      <trkpt lat="62.162021" lon="12.371777">
        <ele>939.886</ele>
        <time>2011-07-03T13:19:00Z</time>
      </trkpt>
      <trkpt lat="62.162205" lon="12.372028">
        <ele>939.084</ele>
        <time>2011-07-03T13:19:09Z</time>
      </trkpt>
      <trkpt lat="62.162379" lon="12.372229">
        <ele>937.35</ele>
        <time>2011-07-03T13:19:17Z</time>
      </trkpt>
      <trkpt lat="62.162579" lon="12.372366">
        <ele>937.475</ele>
        <time>2011-07-03T13:19:27Z</time>
      </trkpt>
      <trkpt lat="62.162613" lon="12.372395">
        <ele>938.324</ele>
        <time>2011-07-03T13:19:30Z</time>
      </trkpt>
      <trkpt lat="62.162699" lon="12.372379">
        <ele>939.647</ele>
        <time>2011-07-03T13:19:37Z</time>
      </trkpt>
      <trkpt lat="62.162809" lon="12.372347">
        <ele>940.011</ele>
        <time>2011-07-03T13:19:46Z</time>
      </trkpt>
      <trkpt lat="62.162866" lon="12.372356">
        <ele>939.504</ele>
        <time>2011-07-03T13:19:51Z</time>
      </trkpt>
      <trkpt lat="62.163005" lon="12.37241">
        <ele>939.032</ele>
        <time>2011-07-03T13:20:00Z</time>
      </trkpt>
      <trkpt lat="62.163094" lon="12.372515">
        <ele>939.864</ele>
        <time>2011-07-03T13:20:08Z</time>
      </trkpt>
      <trkpt lat="62.163213" lon="12.372544">
        <ele>938.693</ele>
        <time>2011-07-03T13:20:15Z</time>
      </trkpt>
      <trkpt lat="62.16335" lon="12.372538">
        <ele>938.115</ele>
        <time>2011-07-03T13:20:21Z</time>
      </trkpt>
      <trkpt lat="62.163469" lon="12.372579">
        <ele>937.415</ele>
        <time>2011-07-03T13:20:26Z</time>
      </trkpt>
      <trkpt lat="62.163605" lon="12.372584">
        <ele>936.578</ele>
        <time>2011-07-03T13:20:32Z</time>
      </trkpt>
      <trkpt lat="62.163774" lon="12.372586">
        <ele>935.057</ele>
        <time>2011-07-03T13:20:39Z</time>
      </trkpt>
      <trkpt lat="62.16387" lon="12.372533">
        <ele>935.02</ele>
        <time>2011-07-03T13:20:44Z</time>
      </trkpt>
      <trkpt lat="62.163993" lon="12.372456">
        <ele>934.872</ele>
        <time>2011-07-03T13:20:50Z</time>
      </trkpt>
      <trkpt lat="62.164163" lon="12.372413">
        <ele>934.663</ele>
        <time>2011-07-03T13:20:58Z</time>
      </trkpt>
      <trkpt lat="62.164291" lon="12.372354">
        <ele>933.413</ele>
        <time>2011-07-03T13:21:04Z</time>
      </trkpt>
      <trkpt lat="62.164413" lon="12.372309">
        <ele>931.915</ele>
        <time>2011-07-03T13:21:10Z</time>
      </trkpt>
      <trkpt lat="62.164502" lon="12.372264">
        <ele>931.842</ele>
        <time>2011-07-03T13:21:15Z</time>
      </trkpt>
      <trkpt lat="62.164523" lon="12.372253">
        <ele>932.367</ele>
        <time>2011-07-03T13:21:17Z</time>
      </trkpt>
      <trkpt lat="62.164597" lon="12.372174">
        <ele>931.186</ele>
        <time>2011-07-03T13:21:24Z</time>
      </trkpt>
      <trkpt lat="62.164643" lon="12.372162">
        <ele>930.898</ele>
        <time>2011-07-03T13:21:27Z</time>
      </trkpt>
      <trkpt lat="62.164791" lon="12.372151">
        <ele>930.662</ele>
        <time>2011-07-03T13:21:34Z</time>
      </trkpt>
      <trkpt lat="62.164924" lon="12.372181">
        <ele>930.033</ele>
        <time>2011-07-03T13:21:40Z</time>
      </trkpt>
      <trkpt lat="62.165067" lon="12.372134">
        <ele>929.727</ele>
        <time>2011-07-03T13:21:47Z</time>
      </trkpt>
      <trkpt lat="62.165198" lon="12.372108">
        <ele>929.076</ele>
        <time>2011-07-03T13:21:53Z</time>
      </trkpt>
      <trkpt lat="62.165312" lon="12.372081">
        <ele>928.31</ele>
        <time>2011-07-03T13:21:58Z</time>
      </trkpt>
      <trkpt lat="62.165441" lon="12.372017">
        <ele>928.258</ele>
        <time>2011-07-03T13:22:04Z</time>
      </trkpt>
      <trkpt lat="62.165555" lon="12.372041">
        <ele>927.503</ele>
        <time>2011-07-03T13:22:09Z</time>
      </trkpt>
      <trkpt lat="62.165703" lon="12.372009">
        <ele>927.208</ele>
        <time>2011-07-03T13:22:16Z</time>
      </trkpt>
      <trkpt lat="62.165812" lon="12.37205">
        <ele>926.691</ele>
        <time>2011-07-03T13:22:21Z</time>
      </trkpt>
      <trkpt lat="62.165992" lon="12.372062">
        <ele>925.339</ele>
        <time>2011-07-03T13:22:29Z</time>
      </trkpt>
      <trkpt lat="62.166142" lon="12.372069">
        <ele>924.049</ele>
        <time>2011-07-03T13:22:36Z</time>
      </trkpt>
      <trkpt lat="62.16627" lon="12.372142">
        <ele>922.845</ele>
        <time>2011-07-03T13:22:42Z</time>
      </trkpt>
      <trkpt lat="62.16629" lon="12.37215">
        <ele>922.491</ele>
        <time>2011-07-03T13:22:43Z</time>
      </trkpt>
      <trkpt lat="62.166384" lon="12.372282">
        <ele>921.132</ele>
        <time>2011-07-03T13:22:49Z</time>
      </trkpt>
      <trkpt lat="62.166494" lon="12.372341">
        <ele>920.965</ele>
        <time>2011-07-03T13:22:55Z</time>
      </trkpt>
      <trkpt lat="62.166625" lon="12.372345">
        <ele>920.332</ele>
        <time>2011-07-03T13:23:02Z</time>
      </trkpt>
      <trkpt lat="62.166737" lon="12.372369">
        <ele>919.686</ele>
        <time>2011-07-03T13:23:08Z</time>
      </trkpt>
      <trkpt lat="62.166854" lon="12.372333">
        <ele>918.63</ele>
        <time>2011-07-03T13:23:14Z</time>
      </trkpt>
      <trkpt lat="62.166951" lon="12.372319">
        <ele>918.043</ele>
        <time>2011-07-03T13:23:19Z</time>
      </trkpt>
      <trkpt lat="62.167065" lon="12.372367">
        <ele>917.266</ele>
        <time>2011-07-03T13:23:25Z</time>
      </trkpt>
      <trkpt lat="62.167139" lon="12.372391">
        <ele>916.682</ele>
        <time>2011-07-03T13:23:29Z</time>
      </trkpt>
      <trkpt lat="62.167265" lon="12.372545">
        <ele>914.555</ele>
        <time>2011-07-03T13:23:37Z</time>
      </trkpt>
      <trkpt lat="62.167361" lon="12.37266">
        <ele>912.946</ele>
        <time>2011-07-03T13:23:43Z</time>
      </trkpt>
      <trkpt lat="62.167457" lon="12.37277">
        <ele>911.581</ele>
        <time>2011-07-03T13:23:49Z</time>
      </trkpt>
      <trkpt lat="62.167555" lon="12.372859">
        <ele>910.458</ele>
        <time>2011-07-03T13:23:55Z</time>
      </trkpt>
      <trkpt lat="62.167642" lon="12.372855">
        <ele>909.729</ele>
        <time>2011-07-03T13:24:00Z</time>
      </trkpt>
      <trkpt lat="62.167731" lon="12.372909">
        <ele>909.115</ele>
        <time>2011-07-03T13:24:06Z</time>
      </trkpt>
      <trkpt lat="62.167815" lon="12.372918">
        <ele>907.738</ele>
        <time>2011-07-03T13:24:12Z</time>
      </trkpt>
      <trkpt lat="62.167906" lon="12.37295">
        <ele>906.18</ele>
        <time>2011-07-03T13:24:19Z</time>
      </trkpt>
      <trkpt lat="62.167917" lon="12.372952">
        <ele>905.938</ele>
        <time>2011-07-03T13:24:20Z</time>
      </trkpt>
      <trkpt lat="62.167951" lon="12.372935">
        <ele>905.952</ele>
        <time>2011-07-03T13:24:26Z</time>
      </trkpt>
      <trkpt lat="62.168063" lon="12.373082">
        <ele>904.121</ele>
        <time>2011-07-03T13:24:46Z</time>
      </trkpt>
      <trkpt lat="62.168143" lon="12.373155">
        <ele>902.701</ele>
        <time>2011-07-03T13:24:50Z</time>
      </trkpt>
      <trkpt lat="62.168201" lon="12.373187">
        <ele>901.841</ele>
        <time>2011-07-03T13:24:53Z</time>
      </trkpt>
      <trkpt lat="62.168379" lon="12.373215">
        <ele>899.941</ele>
        <time>2011-07-03T13:25:01Z</time>
      </trkpt>
      <trkpt lat="62.168506" lon="12.373196">
        <ele>898.585</ele>
        <time>2011-07-03T13:25:08Z</time>
      </trkpt>
      <trkpt lat="62.168521" lon="12.373199">
        <ele>898.076</ele>
        <time>2011-07-03T13:25:10Z</time>
      </trkpt>
      <trkpt lat="62.168585" lon="12.373185">
        <ele>897.559</ele>
        <time>2011-07-03T13:25:16Z</time>
      </trkpt>
      <trkpt lat="62.168635" lon="12.373191">
        <ele>897.39</ele>
        <time>2011-07-03T13:25:21Z</time>
      </trkpt>
      <trkpt lat="62.168735" lon="12.373256">
        <ele>897.36</ele>
        <time>2011-07-03T13:25:29Z</time>
      </trkpt>
      <trkpt lat="62.168882" lon="12.373345">
        <ele>896.339</ele>
        <time>2011-07-03T13:25:38Z</time>
      </trkpt>
      <trkpt lat="62.16905" lon="12.373416">
        <ele>895.804</ele>
        <time>2011-07-03T13:25:47Z</time>
      </trkpt>
      <trkpt lat="62.169209" lon="12.373542">
        <ele>895.728</ele>
        <time>2011-07-03T13:25:55Z</time>
      </trkpt>
      <trkpt lat="62.169348" lon="12.373705">
        <ele>894.589</ele>
        <time>2011-07-03T13:26:02Z</time>
      </trkpt>
      <trkpt lat="62.169494" lon="12.373914">
        <ele>893.458</ele>
        <time>2011-07-03T13:26:09Z</time>
      </trkpt>
      <trkpt lat="62.169663" lon="12.374169">
        <ele>892.634</ele>
        <time>2011-07-03T13:26:18Z</time>
      </trkpt>
      <trkpt lat="62.169809" lon="12.374317">
        <ele>892.271</ele>
        <time>2011-07-03T13:26:25Z</time>
      </trkpt>
      <trkpt lat="62.169891" lon="12.374332">
        <ele>891.856</ele>
        <time>2011-07-03T13:26:29Z</time>
      </trkpt>
      <trkpt lat="62.170023" lon="12.374385">
        <ele>891.237</ele>
        <time>2011-07-03T13:26:35Z</time>
      </trkpt>
      <trkpt lat="62.170131" lon="12.374473">
        <ele>891.17</ele>
        <time>2011-07-03T13:26:41Z</time>
      </trkpt>
      <trkpt lat="62.170231" lon="12.37462">
        <ele>889.284</ele>
        <time>2011-07-03T13:26:47Z</time>
      </trkpt>
      <trkpt lat="62.170367" lon="12.374762">
        <ele>890.016</ele>
        <time>2011-07-03T13:26:54Z</time>
      </trkpt>
      <trkpt lat="62.170488" lon="12.374857">
        <ele>889.673</ele>
        <time>2011-07-03T13:27:00Z</time>
      </trkpt>
      <trkpt lat="62.170618" lon="12.375017">
        <ele>889.087</ele>
        <time>2011-07-03T13:27:07Z</time>
      </trkpt>
      <trkpt lat="62.170714" lon="12.375124">
        <ele>888.362</ele>
        <time>2011-07-03T13:27:12Z</time>
      </trkpt>
      <trkpt lat="62.170808" lon="12.375215">
        <ele>887.461</ele>
        <time>2011-07-03T13:27:18Z</time>
      </trkpt>
      <trkpt lat="62.170924" lon="12.375325">
        <ele>886.171</ele>
        <time>2011-07-03T13:27:24Z</time>
      </trkpt>
      <trkpt lat="62.171069" lon="12.375394">
        <ele>885.628</ele>
        <time>2011-07-03T13:27:31Z</time>
      </trkpt>
      <trkpt lat="62.1713" lon="12.375543">
        <ele>885.286</ele>
        <time>2011-07-03T13:27:42Z</time>
      </trkpt>
      <trkpt lat="62.171511" lon="12.375705">
        <ele>884.257</ele>
        <time>2011-07-03T13:27:52Z</time>
      </trkpt>
      <trkpt lat="62.171723" lon="12.375864">
        <ele>883.713</ele>
        <time>2011-07-03T13:28:02Z</time>
      </trkpt>
      <trkpt lat="62.171912" lon="12.376009">
        <ele>882.624</ele>
        <time>2011-07-03T13:28:11Z</time>
      </trkpt>
      <trkpt lat="62.172131" lon="12.376197">
        <ele>881.652</ele>
        <time>2011-07-03T13:28:22Z</time>
      </trkpt>
      <trkpt lat="62.172327" lon="12.376394">
        <ele>881.422</ele>
        <time>2011-07-03T13:28:32Z</time>
      </trkpt>
      <trkpt lat="62.172554" lon="12.376583">
        <ele>880.44</ele>
        <time>2011-07-03T13:28:43Z</time>
      </trkpt>
      <trkpt lat="62.172646" lon="12.376617">
        <ele>879.968</ele>
        <time>2011-07-03T13:28:48Z</time>
      </trkpt>
      <trkpt lat="62.172755" lon="12.376779">
        <ele>879.31</ele>
        <time>2011-07-03T13:28:54Z</time>
      </trkpt>
      <trkpt lat="62.172848" lon="12.37698">
        <ele>877.671</ele>
        <time>2011-07-03T13:29:00Z</time>
      </trkpt>
      <trkpt lat="62.17292" lon="12.377158">
        <ele>876.681</ele>
        <time>2011-07-03T13:29:05Z</time>
      </trkpt>
      <trkpt lat="62.173012" lon="12.377293">
        <ele>875.923</ele>
        <time>2011-07-03T13:29:12Z</time>
      </trkpt>
      <trkpt lat="62.173021" lon="12.377313">
        <ele>875.757</ele>
        <time>2011-07-03T13:29:13Z</time>
      </trkpt>
      <trkpt lat="62.173064" lon="12.377449">
        <ele>874.54</ele>
        <time>2011-07-03T13:29:19Z</time>
      </trkpt>
      <trkpt lat="62.173165" lon="12.377554">
        <ele>872.303</ele>
        <time>2011-07-03T13:29:27Z</time>
      </trkpt>
      <trkpt lat="62.173207" lon="12.377634">
        <ele>871.76</ele>
        <time>2011-07-03T13:29:33Z</time>
      </trkpt>
      <trkpt lat="62.173352" lon="12.377758">
        <ele>871.546</ele>
        <time>2011-07-03T13:29:57Z</time>
      </trkpt>
      <trkpt lat="62.17345" lon="12.377827">
        <ele>870.322</ele>
        <time>2011-07-03T13:30:03Z</time>
      </trkpt>
      <trkpt lat="62.173497" lon="12.37786">
        <ele>869.521</ele>
        <time>2011-07-03T13:30:08Z</time>
      </trkpt>
      <trkpt lat="62.173548" lon="12.377929">
        <ele>868.546</ele>
        <time>2011-07-03T13:30:14Z</time>
      </trkpt>
      <trkpt lat="62.17357" lon="12.377958">
        <ele>868.189</ele>
        <time>2011-07-03T13:30:16Z</time>
      </trkpt>
      <trkpt lat="62.173623" lon="12.378029">
        <ele>867.88</ele>
        <time>2011-07-03T13:30:21Z</time>
      </trkpt>
      <trkpt lat="62.173705" lon="12.37813">
        <ele>867.852</ele>
        <time>2011-07-03T13:30:29Z</time>
      </trkpt>
      <trkpt lat="62.173722" lon="12.378163">
        <ele>867.784</ele>
        <time>2011-07-03T13:30:31Z</time>
      </trkpt>
      <trkpt lat="62.173798" lon="12.378267">
        <ele>867.496</ele>
        <time>2011-07-03T13:30:38Z</time>
      </trkpt>
      <trkpt lat="62.173899" lon="12.378259">
        <ele>866.794</ele>
        <time>2011-07-03T13:30:45Z</time>
      </trkpt>
      <trkpt lat="62.174016" lon="12.37832">
        <ele>866.004</ele>
        <time>2011-07-03T13:30:52Z</time>
      </trkpt>
      <trkpt lat="62.174107" lon="12.378396">
        <ele>865.369</ele>
        <time>2011-07-03T13:30:59Z</time>
      </trkpt>
      <trkpt lat="62.174209" lon="12.378459">
        <ele>865.461</ele>
        <time>2011-07-03T13:31:06Z</time>
      </trkpt>
      <trkpt lat="62.174336" lon="12.378514">
        <ele>864.492</ele>
        <time>2011-07-03T13:31:15Z</time>
      </trkpt>
      <trkpt lat="62.174431" lon="12.378485">
        <ele>863.64</ele>
        <time>2011-07-03T13:31:22Z</time>
      </trkpt>
      <trkpt lat="62.174495" lon="12.378449">
        <ele>862.95</ele>
        <time>2011-07-03T13:31:27Z</time>
      </trkpt>
      <trkpt lat="62.174583" lon="12.37864">
        <ele>863.293</ele>
        <time>2011-07-03T13:31:36Z</time>
      </trkpt>
      <trkpt lat="62.174664" lon="12.37879">
        <ele>862.565</ele>
        <time>2011-07-03T13:31:44Z</time>
      </trkpt>
      <trkpt lat="62.174755" lon="12.378868">
        <ele>861.416</ele>
        <time>2011-07-03T13:31:51Z</time>
      </trkpt>
      <trkpt lat="62.174838" lon="12.379025">
        <ele>860.38</ele>
        <time>2011-07-03T13:31:59Z</time>
      </trkpt>
      <trkpt lat="62.174912" lon="12.37911">
        <ele>859.661</ele>
        <time>2011-07-03T13:32:05Z</time>
      </trkpt>
      <trkpt lat="62.174987" lon="12.37927">
        <ele>858.497</ele>
        <time>2011-07-03T13:32:12Z</time>
      </trkpt>
      <trkpt lat="62.175065" lon="12.379414">
        <ele>858.221</ele>
        <time>2011-07-03T13:32:19Z</time>
      </trkpt>
      <trkpt lat="62.175173" lon="12.379566">
        <ele>857.595</ele>
        <time>2011-07-03T13:32:28Z</time>
      </trkpt>
      <trkpt lat="62.175274" lon="12.379733">
        <ele>855.821</ele>
        <time>2011-07-03T13:32:37Z</time>
      </trkpt>
      <trkpt lat="62.175339" lon="12.379885">
        <ele>854.353</ele>
        <time>2011-07-03T13:32:44Z</time>
      </trkpt>
      <trkpt lat="62.175448" lon="12.380035">
        <ele>854.569</ele>
        <time>2011-07-03T13:32:53Z</time>
      </trkpt>
      <trkpt lat="62.175548" lon="12.380119">
        <ele>854.025</ele>
        <time>2011-07-03T13:33:01Z</time>
      </trkpt>
      <trkpt lat="62.175618" lon="12.380302">
        <ele>853.664</ele>
        <time>2011-07-03T13:33:09Z</time>
      </trkpt>
      <trkpt lat="62.175711" lon="12.380449">
        <ele>852.473</ele>
        <time>2011-07-03T13:33:17Z</time>
      </trkpt>
      <trkpt lat="62.175808" lon="12.380655">
        <ele>851.002</ele>
        <time>2011-07-03T13:33:26Z</time>
      </trkpt>
      <trkpt lat="62.175909" lon="12.380813">
        <ele>849.871</ele>
        <time>2011-07-03T13:33:35Z</time>
      </trkpt>
      <trkpt lat="62.176013" lon="12.380927">
        <ele>849.013</ele>
        <time>2011-07-03T13:33:43Z</time>
      </trkpt>
      <trkpt lat="62.176107" lon="12.381076">
        <ele>847.914</ele>
        <time>2011-07-03T13:33:51Z</time>
      </trkpt>
      <trkpt lat="62.176222" lon="12.381173">
        <ele>845.855</ele>
        <time>2011-07-03T13:34:00Z</time>
      </trkpt>
      <trkpt lat="62.17631" lon="12.381333">
        <ele>844.864</ele>
        <time>2011-07-03T13:34:08Z</time>
      </trkpt>
      <trkpt lat="62.176414" lon="12.381499">
        <ele>843.765</ele>
        <time>2011-07-03T13:34:17Z</time>
      </trkpt>
      <trkpt lat="62.176512" lon="12.381655">
        <ele>843.145</ele>
        <time>2011-07-03T13:34:26Z</time>
      </trkpt>
      <trkpt lat="62.176597" lon="12.381769">
        <ele>841.762</ele>
        <time>2011-07-03T13:34:34Z</time>
      </trkpt>
      <trkpt lat="62.176684" lon="12.381903">
        <ele>841.429</ele>
        <time>2011-07-03T13:34:42Z</time>
      </trkpt>
      <trkpt lat="62.176748" lon="12.382038">
        <ele>840.412</ele>
        <time>2011-07-03T13:34:48Z</time>
      </trkpt>
      <trkpt lat="62.17677" lon="12.382078">
        <ele>840.169</ele>
        <time>2011-07-03T13:34:50Z</time>
      </trkpt>
      <trkpt lat="62.1769" lon="12.382231">
        <ele>839.144</ele>
        <time>2011-07-03T13:35:00Z</time>
      </trkpt>
      <trkpt lat="62.176928" lon="12.382291">
        <ele>838.853</ele>
        <time>2011-07-03T13:35:03Z</time>
      </trkpt>
      <trkpt lat="62.176969" lon="12.382455">
        <ele>837.859</ele>
        <time>2011-07-03T13:35:09Z</time>
      </trkpt>
      <trkpt lat="62.177059" lon="12.382626">
        <ele>838.153</ele>
        <time>2011-07-03T13:35:18Z</time>
      </trkpt>
      <trkpt lat="62.177187" lon="12.382787">
        <ele>838.001</ele>
        <time>2011-07-03T13:35:28Z</time>
      </trkpt>
      <trkpt lat="62.177287" lon="12.382927">
        <ele>836.984</ele>
        <time>2011-07-03T13:35:36Z</time>
      </trkpt>
      <trkpt lat="62.177385" lon="12.383056">
        <ele>836.044</ele>
        <time>2011-07-03T13:35:44Z</time>
      </trkpt>
      <trkpt lat="62.177483" lon="12.383209">
        <ele>834.338</ele>
        <time>2011-07-03T13:35:53Z</time>
      </trkpt>
      <trkpt lat="62.17754" lon="12.383349">
        <ele>832.58</ele>
        <time>2011-07-03T13:36:00Z</time>
      </trkpt>
      <trkpt lat="62.177612" lon="12.383551">
        <ele>832.074</ele>
        <time>2011-07-03T13:36:06Z</time>
      </trkpt>
      <trkpt lat="62.177683" lon="12.383613">
        <ele>832.475</ele>
        <time>2011-07-03T13:36:11Z</time>
      </trkpt>
      <trkpt lat="62.177737" lon="12.383722">
        <ele>832.047</ele>
        <time>2011-07-03T13:36:16Z</time>
      </trkpt>
      <trkpt lat="62.177801" lon="12.383788">
        <ele>832.002</ele>
        <time>2011-07-03T13:36:22Z</time>
      </trkpt>
      <trkpt lat="62.177883" lon="12.383889">
        <ele>831.1</ele>
        <time>2011-07-03T13:36:29Z</time>
      </trkpt>
      <trkpt lat="62.177938" lon="12.383978">
        <ele>830.15</ele>
        <time>2011-07-03T13:36:33Z</time>
      </trkpt>
      <trkpt lat="62.17802" lon="12.384037">
        <ele>829.37</ele>
        <time>2011-07-03T13:36:39Z</time>
      </trkpt>
      <trkpt lat="62.178089" lon="12.384116">
        <ele>829.263</ele>
        <time>2011-07-03T13:36:45Z</time>
      </trkpt>
      <trkpt lat="62.178193" lon="12.384303">
        <ele>829.125</ele>
        <time>2011-07-03T13:36:55Z</time>
      </trkpt>
      <trkpt lat="62.178286" lon="12.384491">
        <ele>828.177</ele>
        <time>2011-07-03T13:37:04Z</time>
      </trkpt>
      <trkpt lat="62.178372" lon="12.384605">
        <ele>826.943</ele>
        <time>2011-07-03T13:37:11Z</time>
      </trkpt>
      <trkpt lat="62.178453" lon="12.384715">
        <ele>826.135</ele>
        <time>2011-07-03T13:37:18Z</time>
      </trkpt>
      <trkpt lat="62.178498" lon="12.384864">
        <ele>825.046</ele>
        <time>2011-07-03T13:37:24Z</time>
      </trkpt>
      <trkpt lat="62.178547" lon="12.384974">
        <ele>823.986</ele>
        <time>2011-07-03T13:37:30Z</time>
      </trkpt>
      <trkpt lat="62.178604" lon="12.385099">
        <ele>823.232</ele>
        <time>2011-07-03T13:37:37Z</time>
      </trkpt>
      <trkpt lat="62.178649" lon="12.385176">
        <ele>822.947</ele>
        <time>2011-07-03T13:37:42Z</time>
      </trkpt>
      <trkpt lat="62.178727" lon="12.385302">
        <ele>822.074</ele>
        <time>2011-07-03T13:37:51Z</time>
      </trkpt>
      <trkpt lat="62.178826" lon="12.385447">
        <ele>820.245</ele>
        <time>2011-07-03T13:37:57Z</time>
      </trkpt>
      <trkpt lat="62.178854" lon="12.385501">
        <ele>819.923</ele>
        <time>2011-07-03T13:37:59Z</time>
      </trkpt>
      <trkpt lat="62.178904" lon="12.385644">
        <ele>819.28</ele>
        <time>2011-07-03T13:38:04Z</time>
      </trkpt>
      <trkpt lat="62.178935" lon="12.385701">
        <ele>818.675</ele>
        <time>2011-07-03T13:38:07Z</time>
      </trkpt>
      <trkpt lat="62.178997" lon="12.385849">
        <ele>817.79</ele>
        <time>2011-07-03T13:38:15Z</time>
      </trkpt>
      <trkpt lat="62.179041" lon="12.385894">
        <ele>817.068</ele>
        <time>2011-07-03T13:38:19Z</time>
      </trkpt>
      <trkpt lat="62.179126" lon="12.386084">
        <ele>815.801</ele>
        <time>2011-07-03T13:38:29Z</time>
      </trkpt>
      <trkpt lat="62.179176" lon="12.386241">
        <ele>815.03</ele>
        <time>2011-07-03T13:38:36Z</time>
      </trkpt>
      <trkpt lat="62.179221" lon="12.386341">
        <ele>814.201</ele>
        <time>2011-07-03T13:38:41Z</time>
      </trkpt>
      <trkpt lat="62.179273" lon="12.386563">
        <ele>812.507</ele>
        <time>2011-07-03T13:38:49Z</time>
      </trkpt>
      <trkpt lat="62.179278" lon="12.386589">
        <ele>812.44</ele>
        <time>2011-07-03T13:38:50Z</time>
      </trkpt>
      <trkpt lat="62.179307" lon="12.386813">
        <ele>811.552</ele>
        <time>2011-07-03T13:38:58Z</time>
      </trkpt>
      <trkpt lat="62.179343" lon="12.387017">
        <ele>810.347</ele>
        <time>2011-07-03T13:39:05Z</time>
      </trkpt>
      <trkpt lat="62.179344" lon="12.387042">
        <ele>810.103</ele>
        <time>2011-07-03T13:39:06Z</time>
      </trkpt>
      <trkpt lat="62.179363" lon="12.387185">
        <ele>809.785</ele>
        <time>2011-07-03T13:39:11Z</time>
      </trkpt>
      <trkpt lat="62.179377" lon="12.387235">
        <ele>809.679</ele>
        <time>2011-07-03T13:39:13Z</time>
      </trkpt>
      <trkpt lat="62.179412" lon="12.387425">
        <ele>808.919</ele>
        <time>2011-07-03T13:39:21Z</time>
      </trkpt>
      <trkpt lat="62.179416" lon="12.387446">
        <ele>808.907</ele>
        <time>2011-07-03T13:39:22Z</time>
      </trkpt>
      <trkpt lat="62.17947" lon="12.387478">
        <ele>808.65</ele>
        <time>2011-07-03T13:39:25Z</time>
      </trkpt>
      <trkpt lat="62.179514" lon="12.387653">
        <ele>808.252</ele>
        <time>2011-07-03T13:39:34Z</time>
      </trkpt>
      <trkpt lat="62.179521" lon="12.387682">
        <ele>808.206</ele>
        <time>2011-07-03T13:39:36Z</time>
      </trkpt>
      <trkpt lat="62.179598" lon="12.387748">
        <ele>808.242</ele>
        <time>2011-07-03T13:39:44Z</time>
      </trkpt>
      <trkpt lat="62.179605" lon="12.387756">
        <ele>808.222</ele>
        <time>2011-07-03T13:39:45Z</time>
      </trkpt>
      <trkpt lat="62.179697" lon="12.387923">
        <ele>808.327</ele>
        <time>2011-07-03T13:39:55Z</time>
      </trkpt>
      <trkpt lat="62.179722" lon="12.387959">
        <ele>808.377</ele>
        <time>2011-07-03T13:39:58Z</time>
      </trkpt>
      <trkpt lat="62.179806" lon="12.388083">
        <ele>807.979</ele>
        <time>2011-07-03T13:40:08Z</time>
      </trkpt>
      <trkpt lat="62.179818" lon="12.388209">
        <ele>807.8</ele>
        <time>2011-07-03T13:40:13Z</time>
      </trkpt>
      <trkpt lat="62.179781" lon="12.388305">
        <ele>806.705</ele>
        <time>2011-07-03T13:40:18Z</time>
      </trkpt>
      <trkpt lat="62.179798" lon="12.388463">
        <ele>805.849</ele>
        <time>2011-07-03T13:40:25Z</time>
      </trkpt>
      <trkpt lat="62.179818" lon="12.388585">
        <ele>805.38</ele>
        <time>2011-07-03T13:40:31Z</time>
      </trkpt>
      <trkpt lat="62.179831" lon="12.388671">
        <ele>806.013</ele>
        <time>2011-07-03T13:40:35Z</time>
      </trkpt>
      <trkpt lat="62.17983" lon="12.388845">
        <ele>807.124</ele>
        <time>2011-07-03T13:40:42Z</time>
      </trkpt>
      <trkpt lat="62.179823" lon="12.388988">
        <ele>807.252</ele>
        <time>2011-07-03T13:40:48Z</time>
      </trkpt>
      <trkpt lat="62.179838" lon="12.389033">
        <ele>807.262</ele>
        <time>2011-07-03T13:40:51Z</time>
      </trkpt>
      <trkpt lat="62.179892" lon="12.389231">
        <ele>807.86</ele>
        <time>2011-07-03T13:41:03Z</time>
      </trkpt>
      <trkpt lat="62.179928" lon="12.389398">
        <ele>808.667</ele>
        <time>2011-07-03T13:41:09Z</time>
      </trkpt>
      <trkpt lat="62.17993" lon="12.389585">
        <ele>808.731</ele>
        <time>2011-07-03T13:41:17Z</time>
      </trkpt>
      <trkpt lat="62.179926" lon="12.389667">
        <ele>808.964</ele>
        <time>2011-07-03T13:41:20Z</time>
      </trkpt>
      <trkpt lat="62.17996" lon="12.389922">
        <ele>809.035</ele>
        <time>2011-07-03T13:41:29Z</time>
      </trkpt>
      <trkpt lat="62.180006" lon="12.390177">
        <ele>809.502</ele>
        <time>2011-07-03T13:41:38Z</time>
      </trkpt>
      <trkpt lat="62.18003" lon="12.390286">
        <ele>809.562</ele>
        <time>2011-07-03T13:41:43Z</time>
      </trkpt>
      <trkpt lat="62.180071" lon="12.390436">
        <ele>808.907</ele>
        <time>2011-07-03T13:41:50Z</time>
      </trkpt>
      <trkpt lat="62.180065" lon="12.390474">
        <ele>808.959</ele>
        <time>2011-07-03T13:41:52Z</time>
      </trkpt>
      <trkpt lat="62.180082" lon="12.390519">
        <ele>809.243</ele>
        <time>2011-07-03T13:41:54Z</time>
      </trkpt>
      <trkpt lat="62.180158" lon="12.390726">
        <ele>808.602</ele>
        <time>2011-07-03T13:42:03Z</time>
      </trkpt>
      <trkpt lat="62.180178" lon="12.390808">
        <ele>808.414</ele>
        <time>2011-07-03T13:42:07Z</time>
      </trkpt>
      <trkpt lat="62.180234" lon="12.390966">
        <ele>808.146</ele>
        <time>2011-07-03T13:42:15Z</time>
      </trkpt>
      <trkpt lat="62.180235" lon="12.390991">
        <ele>808.065</ele>
        <time>2011-07-03T13:42:16Z</time>
      </trkpt>
      <trkpt lat="62.180259" lon="12.39124">
        <ele>807.626</ele>
        <time>2011-07-03T13:42:25Z</time>
      </trkpt>
      <trkpt lat="62.180265" lon="12.391354">
        <ele>807.707</ele>
        <time>2011-07-03T13:42:29Z</time>
      </trkpt>
      <trkpt lat="62.180261" lon="12.391533">
        <ele>808.151</ele>
        <time>2011-07-03T13:42:36Z</time>
      </trkpt>
      <trkpt lat="62.18024" lon="12.391691">
        <ele>808.363</ele>
        <time>2011-07-03T13:42:42Z</time>
      </trkpt>
      <trkpt lat="62.18027" lon="12.391878">
        <ele>808.903</ele>
        <time>2011-07-03T13:42:50Z</time>
      </trkpt>
      <trkpt lat="62.180278" lon="12.392025">
        <ele>809.818</ele>
        <time>2011-07-03T13:42:56Z</time>
      </trkpt>
      <trkpt lat="62.18029" lon="12.392156">
        <ele>810.251</ele>
        <time>2011-07-03T13:43:01Z</time>
      </trkpt>
      <trkpt lat="62.18028" lon="12.392292">
        <ele>810.469</ele>
        <time>2011-07-03T13:43:07Z</time>
      </trkpt>
      <trkpt lat="62.180298" lon="12.39252">
        <ele>811.982</ele>
        <time>2011-07-03T13:43:17Z</time>
      </trkpt>
      <trkpt lat="62.180312" lon="12.392735">
        <ele>811.716</ele>
        <time>2011-07-03T13:43:25Z</time>
      </trkpt>
      <trkpt lat="62.180328" lon="12.392938">
        <ele>811.441</ele>
        <time>2011-07-03T13:43:33Z</time>
      </trkpt>
      <trkpt lat="62.18035" lon="12.393127">
        <ele>811.296</ele>
        <time>2011-07-03T13:43:40Z</time>
      </trkpt>
      <trkpt lat="62.180358" lon="12.393283">
        <ele>810.813</ele>
        <time>2011-07-03T13:43:48Z</time>
      </trkpt>
      <trkpt lat="62.180373" lon="12.393457">
        <ele>809.75</ele>
        <time>2011-07-03T13:43:54Z</time>
      </trkpt>
      <trkpt lat="62.180402" lon="12.393646">
        <ele>809.278</ele>
        <time>2011-07-03T13:44:02Z</time>
      </trkpt>
      <trkpt lat="62.180412" lon="12.393817">
        <ele>809.66</ele>
        <time>2011-07-03T13:44:09Z</time>
      </trkpt>
      <trkpt lat="62.18042" lon="12.394041">
        <ele>809.513</ele>
        <time>2011-07-03T13:44:18Z</time>
      </trkpt>
      <trkpt lat="62.180423" lon="12.39416">
        <ele>809.206</ele>
        <time>2011-07-03T13:44:25Z</time>
      </trkpt>
      <trkpt lat="62.180432" lon="12.394218">
        <ele>808.806</ele>
        <time>2011-07-03T13:44:28Z</time>
      </trkpt>
      <trkpt lat="62.180427" lon="12.394307">
        <ele>808.3</ele>
        <time>2011-07-03T13:44:32Z</time>
      </trkpt>
      <trkpt lat="62.180409" lon="12.394347">
        <ele>808.042</ele>
        <time>2011-07-03T13:44:36Z</time>
      </trkpt>
      <trkpt lat="62.180394" lon="12.394505">
        <ele>807.367</ele>
        <time>2011-07-03T13:44:43Z</time>
      </trkpt>
      <trkpt lat="62.180389" lon="12.394637">
        <ele>806.588</ele>
        <time>2011-07-03T13:44:50Z</time>
      </trkpt>
      <trkpt lat="62.180387" lon="12.394711">
        <ele>806.372</ele>
        <time>2011-07-03T13:44:54Z</time>
      </trkpt>
      <trkpt lat="62.180381" lon="12.394763">
        <ele>806.012</ele>
        <time>2011-07-03T13:44:57Z</time>
      </trkpt>
      <trkpt lat="62.180372" lon="12.394789">
        <ele>805.68</ele>
        <time>2011-07-03T13:44:59Z</time>
      </trkpt>
      <trkpt lat="62.180341" lon="12.394953">
        <ele>804.441</ele>
        <time>2011-07-03T13:45:07Z</time>
      </trkpt>
      <trkpt lat="62.180313" lon="12.395071">
        <ele>803.54</ele>
        <time>2011-07-03T13:45:14Z</time>
      </trkpt>
      <trkpt lat="62.180297" lon="12.395186">
        <ele>802.493</ele>
        <time>2011-07-03T13:45:20Z</time>
      </trkpt>
      <trkpt lat="62.180285" lon="12.395291">
        <ele>801.46</ele>
        <time>2011-07-03T13:45:26Z</time>
      </trkpt>
      <trkpt lat="62.180288" lon="12.395366">
        <ele>800.599</ele>
        <time>2011-07-03T13:45:30Z</time>
      </trkpt>
      <trkpt lat="62.180285" lon="12.395459">
        <ele>799.737</ele>
        <time>2011-07-03T13:45:35Z</time>
      </trkpt>
      <trkpt lat="62.180297" lon="12.395574">
        <ele>798.527</ele>
        <time>2011-07-03T13:45:42Z</time>
      </trkpt>
      <trkpt lat="62.180301" lon="12.395703">
        <ele>796.539</ele>
        <time>2011-07-03T13:45:50Z</time>
      </trkpt>
      <trkpt lat="62.1803" lon="12.39573">
        <ele>795.689</ele>
        <time>2011-07-03T13:45:52Z</time>
      </trkpt>
      <trkpt lat="62.180308" lon="12.395812">
        <ele>794.307</ele>
        <time>2011-07-03T13:45:59Z</time>
      </trkpt>
      <trkpt lat="62.180309" lon="12.395824">
        <ele>793.877</ele>
        <time>2011-07-03T13:46:00Z</time>
      </trkpt>
      <trkpt lat="62.180305" lon="12.396003">
        <ele>793.498</ele>
        <time>2011-07-03T13:46:09Z</time>
      </trkpt>
      <trkpt lat="62.180302" lon="12.396129">
        <ele>793.597</ele>
        <time>2011-07-03T13:46:15Z</time>
      </trkpt>
      <trkpt lat="62.18031" lon="12.396257">
        <ele>792.875</ele>
        <time>2011-07-03T13:46:21Z</time>
      </trkpt>
      <trkpt lat="62.180307" lon="12.396344">
        <ele>792.173</ele>
        <time>2011-07-03T13:46:25Z</time>
      </trkpt>
      <trkpt lat="62.180316" lon="12.396415">
        <ele>791.898</ele>
        <time>2011-07-03T13:46:28Z</time>
      </trkpt>
      <trkpt lat="62.180304" lon="12.396582">
        <ele>791.189</ele>
        <time>2011-07-03T13:46:35Z</time>
      </trkpt>
      <trkpt lat="62.180305" lon="12.396617">
        <ele>791.325</ele>
        <time>2011-07-03T13:46:37Z</time>
      </trkpt>
      <trkpt lat="62.180301" lon="12.396724">
        <ele>791.247</ele>
        <time>2011-07-03T13:46:42Z</time>
      </trkpt>
      <trkpt lat="62.180291" lon="12.396784">
        <ele>791.101</ele>
        <time>2011-07-03T13:46:45Z</time>
      </trkpt>
      <trkpt lat="62.180274" lon="12.396877">
        <ele>791.512</ele>
        <time>2011-07-03T13:46:52Z</time>
      </trkpt>
      <trkpt lat="62.180254" lon="12.396968">
        <ele>791.763</ele>
        <time>2011-07-03T13:46:57Z</time>
      </trkpt>
      <trkpt lat="62.180232" lon="12.397021">
        <ele>791.962</ele>
        <time>2011-07-03T13:47:00Z</time>
      </trkpt>
      <trkpt lat="62.180194" lon="12.397177">
        <ele>791.758</ele>
        <time>2011-07-03T13:47:08Z</time>
      </trkpt>
      <trkpt lat="62.180179" lon="12.397204">
        <ele>791.711</ele>
        <time>2011-07-03T13:47:10Z</time>
      </trkpt>
      <trkpt lat="62.180147" lon="12.397336">
        <ele>791.18</ele>
        <time>2011-07-03T13:47:16Z</time>
      </trkpt>
      <trkpt lat="62.180114" lon="12.397504">
        <ele>789.965</ele>
        <time>2011-07-03T13:47:24Z</time>
      </trkpt>
      <trkpt lat="62.180076" lon="12.397599">
        <ele>789.927</ele>
        <time>2011-07-03T13:47:30Z</time>
      </trkpt>
      <trkpt lat="62.180055" lon="12.397652">
        <ele>790.303</ele>
        <time>2011-07-03T13:47:34Z</time>
      </trkpt>
      <trkpt lat="62.180052" lon="12.397698">
        <ele>790.682</ele>
        <time>2011-07-03T13:47:41Z</time>
      </trkpt>
      <trkpt lat="62.180044" lon="12.397769">
        <ele>789.997</ele>
        <time>2011-07-03T13:47:46Z</time>
      </trkpt>
      <trkpt lat="62.180022" lon="12.397862">
        <ele>790.042</ele>
        <time>2011-07-03T13:47:53Z</time>
      </trkpt>
      <trkpt lat="62.180005" lon="12.397953">
        <ele>790.356</ele>
        <time>2011-07-03T13:47:58Z</time>
      </trkpt>
      <trkpt lat="62.179996" lon="12.398122">
        <ele>790.161</ele>
        <time>2011-07-03T13:48:07Z</time>
      </trkpt>
      <trkpt lat="62.179991" lon="12.398179">
        <ele>790.072</ele>
        <time>2011-07-03T13:48:10Z</time>
      </trkpt>
      <trkpt lat="62.179974" lon="12.398299">
        <ele>789.376</ele>
        <time>2011-07-03T13:48:18Z</time>
      </trkpt>
      <trkpt lat="62.179967" lon="12.398371">
        <ele>789.518</ele>
        <time>2011-07-03T13:48:22Z</time>
      </trkpt>
      <trkpt lat="62.179918" lon="12.398468">
        <ele>788.913</ele>
        <time>2011-07-03T13:48:28Z</time>
      </trkpt>
      <trkpt lat="62.179866" lon="12.398584">
        <ele>788.753</ele>
        <time>2011-07-03T13:48:36Z</time>
      </trkpt>
      <trkpt lat="62.179862" lon="12.398605">
        <ele>788.686</ele>
        <time>2011-07-03T13:48:37Z</time>
      </trkpt>
      <trkpt lat="62.179833" lon="12.398769">
        <ele>788.132</ele>
        <time>2011-07-03T13:48:45Z</time>
      </trkpt>
      <trkpt lat="62.179815" lon="12.398848">
        <ele>787.909</ele>
        <time>2011-07-03T13:48:49Z</time>
      </trkpt>
      <trkpt lat="62.179796" lon="12.399042">
        <ele>786.127</ele>
        <time>2011-07-03T13:48:58Z</time>
      </trkpt>
      <trkpt lat="62.179774" lon="12.399112">
        <ele>786.072</ele>
        <time>2011-07-03T13:49:04Z</time>
      </trkpt>
      <trkpt lat="62.179772" lon="12.39915">
        <ele>786.207</ele>
        <time>2011-07-03T13:49:06Z</time>
      </trkpt>
      <trkpt lat="62.179765" lon="12.399248">
        <ele>786.017</ele>
        <time>2011-07-03T13:49:11Z</time>
      </trkpt>
      <trkpt lat="62.179754" lon="12.399367">
        <ele>785.642</ele>
        <time>2011-07-03T13:49:17Z</time>
      </trkpt>
      <trkpt lat="62.179748" lon="12.399428">
        <ele>785.533</ele>
        <time>2011-07-03T13:49:20Z</time>
      </trkpt>
      <trkpt lat="62.179725" lon="12.399542">
        <ele>785.091</ele>
        <time>2011-07-03T13:49:27Z</time>
      </trkpt>
      <trkpt lat="62.179723" lon="12.39956">
        <ele>785.011</ele>
        <time>2011-07-03T13:49:28Z</time>
      </trkpt>
      <trkpt lat="62.179727" lon="12.399609">
        <ele>784.884</ele>
        <time>2011-07-03T13:49:30Z</time>
      </trkpt>
      <trkpt lat="62.179745" lon="12.399689">
        <ele>785.032</ele>
        <time>2011-07-03T13:49:34Z</time>
      </trkpt>
      <trkpt lat="62.179783" lon="12.399822">
        <ele>784.836</ele>
        <time>2011-07-03T13:49:41Z</time>
      </trkpt>
      <trkpt lat="62.179783" lon="12.399868">
        <ele>784.765</ele>
        <time>2011-07-03T13:49:43Z</time>
      </trkpt>
      <trkpt lat="62.179773" lon="12.399917">
        <ele>784.635</ele>
        <time>2011-07-03T13:49:46Z</time>
      </trkpt>
      <trkpt lat="62.179754" lon="12.400118">
        <ele>784.536</ele>
        <time>2011-07-03T13:49:55Z</time>
      </trkpt>
      <trkpt lat="62.17975" lon="12.40022">
        <ele>784.492</ele>
        <time>2011-07-03T13:50:00Z</time>
      </trkpt>
      <trkpt lat="62.179745" lon="12.40024">
        <ele>784.457</ele>
        <time>2011-07-03T13:50:01Z</time>
      </trkpt>
      <trkpt lat="62.179714" lon="12.400321">
        <ele>784.247</ele>
        <time>2011-07-03T13:50:06Z</time>
      </trkpt>
      <trkpt lat="62.179646" lon="12.400541">
        <ele>784.345</ele>
        <time>2011-07-03T13:50:14Z</time>
      </trkpt>
      <trkpt lat="62.179574" lon="12.400815">
        <ele>784.525</ele>
        <time>2011-07-03T13:50:21Z</time>
      </trkpt>
      <trkpt lat="62.179512" lon="12.401155">
        <ele>784.29</ele>
        <time>2011-07-03T13:50:29Z</time>
      </trkpt>
      <trkpt lat="62.179453" lon="12.401492">
        <ele>784.196</ele>
        <time>2011-07-03T13:50:37Z</time>
      </trkpt>
      <trkpt lat="62.179403" lon="12.40163">
        <ele>784.827</ele>
        <time>2011-07-03T13:50:42Z</time>
      </trkpt>
      <trkpt lat="62.179391" lon="12.401764">
        <ele>785.484</ele>
        <time>2011-07-03T13:50:46Z</time>
      </trkpt>
      <trkpt lat="62.179381" lon="12.401832">
        <ele>785.9</ele>
        <time>2011-07-03T13:50:48Z</time>
      </trkpt>
      <trkpt lat="62.179364" lon="12.402026">
        <ele>787.259</ele>
        <time>2011-07-03T13:50:56Z</time>
      </trkpt>
      <trkpt lat="62.179359" lon="12.402064">
        <ele>787.893</ele>
        <time>2011-07-03T13:50:58Z</time>
      </trkpt>
      <trkpt lat="62.179306" lon="12.402205">
        <ele>789.027</ele>
        <time>2011-07-03T13:51:06Z</time>
      </trkpt>
      <trkpt lat="62.179246" lon="12.402311">
        <ele>788.897</ele>
        <time>2011-07-03T13:51:13Z</time>
      </trkpt>
      <trkpt lat="62.179233" lon="12.402319">
        <ele>788.781</ele>
        <time>2011-07-03T13:51:14Z</time>
      </trkpt>
      <trkpt lat="62.179149" lon="12.402383">
        <ele>788.972</ele>
        <time>2011-07-03T13:51:21Z</time>
      </trkpt>
      <trkpt lat="62.179142" lon="12.4026">
        <ele>788.151</ele>
        <time>2011-07-03T13:51:29Z</time>
      </trkpt>
      <trkpt lat="62.17913" lon="12.402725">
        <ele>787.552</ele>
        <time>2011-07-03T13:51:35Z</time>
      </trkpt>
      <trkpt lat="62.179118" lon="12.402898">
        <ele>786.968</ele>
        <time>2011-07-03T13:51:41Z</time>
      </trkpt>
      <trkpt lat="62.17911" lon="12.402922">
        <ele>786.946</ele>
        <time>2011-07-03T13:51:42Z</time>
      </trkpt>
      <trkpt lat="62.179077" lon="12.403058">
        <ele>788.198</ele>
        <time>2011-07-03T13:51:49Z</time>
      </trkpt>
      <trkpt lat="62.179067" lon="12.403131">
        <ele>787.746</ele>
        <time>2011-07-03T13:51:53Z</time>
      </trkpt>
      <trkpt lat="62.179073" lon="12.403169">
        <ele>786.9</ele>
        <time>2011-07-03T13:51:56Z</time>
      </trkpt>
      <trkpt lat="62.179072" lon="12.403259">
        <ele>785.486</ele>
        <time>2011-07-03T13:52:00Z</time>
      </trkpt>
      <trkpt lat="62.179059" lon="12.40335">
        <ele>784.948</ele>
        <time>2011-07-03T13:52:04Z</time>
      </trkpt>
      <trkpt lat="62.179067" lon="12.403487">
        <ele>784.331</ele>
        <time>2011-07-03T13:52:11Z</time>
      </trkpt>
      <trkpt lat="62.179071" lon="12.403583">
        <ele>784.824</ele>
        <time>2011-07-03T13:52:16Z</time>
      </trkpt>
      <trkpt lat="62.179102" lon="12.403691">
        <ele>784.67</ele>
        <time>2011-07-03T13:52:24Z</time>
      </trkpt>
      <trkpt lat="62.179102" lon="12.403707">
        <ele>784.483</ele>
        <time>2011-07-03T13:52:26Z</time>
      </trkpt>
      <trkpt lat="62.179102" lon="12.4038">
        <ele>785.205</ele>
        <time>2011-07-03T13:52:33Z</time>
      </trkpt>
      <trkpt lat="62.179119" lon="12.403881">
        <ele>786.451</ele>
        <time>2011-07-03T13:52:38Z</time>
      </trkpt>
      <trkpt lat="62.179146" lon="12.404039">
        <ele>787.167</ele>
        <time>2011-07-03T13:52:45Z</time>
      </trkpt>
      <trkpt lat="62.179177" lon="12.404166">
        <ele>787.233</ele>
        <time>2011-07-03T13:52:51Z</time>
      </trkpt>
      <trkpt lat="62.179186" lon="12.404276">
        <ele>786.939</ele>
        <time>2011-07-03T13:52:56Z</time>
      </trkpt>
      <trkpt lat="62.179212" lon="12.404379">
        <ele>787.89</ele>
        <time>2011-07-03T13:53:01Z</time>
      </trkpt>
      <trkpt lat="62.179303" lon="12.404531">
        <ele>788.186</ele>
        <time>2011-07-03T13:53:08Z</time>
      </trkpt>
      <trkpt lat="62.179395" lon="12.404666">
        <ele>787.581</ele>
        <time>2011-07-03T13:53:15Z</time>
      </trkpt>
      <trkpt lat="62.179452" lon="12.404745">
        <ele>787.85</ele>
        <time>2011-07-03T13:53:19Z</time>
      </trkpt>
      <trkpt lat="62.179523" lon="12.404946">
        <ele>788.733</ele>
        <time>2011-07-03T13:53:27Z</time>
      </trkpt>
      <trkpt lat="62.179581" lon="12.405115">
        <ele>789.066</ele>
        <time>2011-07-03T13:53:34Z</time>
      </trkpt>
      <trkpt lat="62.179623" lon="12.405289">
        <ele>788.893</ele>
        <time>2011-07-03T13:53:40Z</time>
      </trkpt>
      <trkpt lat="62.179672" lon="12.405391">
        <ele>788.882</ele>
        <time>2011-07-03T13:53:45Z</time>
      </trkpt>
      <trkpt lat="62.179718" lon="12.405527">
        <ele>788.322</ele>
        <time>2011-07-03T13:53:54Z</time>
      </trkpt>
      <trkpt lat="62.179802" lon="12.405674">
        <ele>788.654</ele>
        <time>2011-07-03T13:54:03Z</time>
      </trkpt>
      <trkpt lat="62.179868" lon="12.405808">
        <ele>788.551</ele>
        <time>2011-07-03T13:54:11Z</time>
      </trkpt>
      <trkpt lat="62.179876" lon="12.405823">
        <ele>788.524</ele>
        <time>2011-07-03T13:54:12Z</time>
      </trkpt>
      <trkpt lat="62.17993" lon="12.406013">
        <ele>789.367</ele>
        <time>2011-07-03T13:54:20Z</time>
      </trkpt>
      <trkpt lat="62.179926" lon="12.406141">
        <ele>789.562</ele>
        <time>2011-07-03T13:54:25Z</time>
      </trkpt>
      <trkpt lat="62.179945" lon="12.406225">
        <ele>789.692</ele>
        <time>2011-07-03T13:54:28Z</time>
      </trkpt>
      <trkpt lat="62.179954" lon="12.406374">
        <ele>789.736</ele>
        <time>2011-07-03T13:54:34Z</time>
      </trkpt>
      <trkpt lat="62.179971" lon="12.406434">
        <ele>789.617</ele>
        <time>2011-07-03T13:54:38Z</time>
      </trkpt>
      <trkpt lat="62.180015" lon="12.406489">
        <ele>790.051</ele>
        <time>2011-07-03T13:54:43Z</time>
      </trkpt>
      <trkpt lat="62.180069" lon="12.406596">
        <ele>789.73</ele>
        <time>2011-07-03T13:54:51Z</time>
      </trkpt>
      <trkpt lat="62.180098" lon="12.406662">
        <ele>789.104</ele>
        <time>2011-07-03T13:54:57Z</time>
      </trkpt>
      <trkpt lat="62.180133" lon="12.406744">
        <ele>788.693</ele>
        <time>2011-07-03T13:55:02Z</time>
      </trkpt>
      <trkpt lat="62.18019" lon="12.406935">
        <ele>788.203</ele>
        <time>2011-07-03T13:55:11Z</time>
      </trkpt>
      <trkpt lat="62.180212" lon="12.407123">
        <ele>787.986</ele>
        <time>2011-07-03T13:55:18Z</time>
      </trkpt>
      <trkpt lat="62.180246" lon="12.407349">
        <ele>787.429</ele>
        <time>2011-07-03T13:55:26Z</time>
      </trkpt>
      <trkpt lat="62.180272" lon="12.40753">
        <ele>787.072</ele>
        <time>2011-07-03T13:55:32Z</time>
      </trkpt>
      <trkpt lat="62.180283" lon="12.407635">
        <ele>787.652</ele>
        <time>2011-07-03T13:55:36Z</time>
      </trkpt>
      <trkpt lat="62.180314" lon="12.407792">
        <ele>788.35</ele>
        <time>2011-07-03T13:55:42Z</time>
      </trkpt>
      <trkpt lat="62.180324" lon="12.407994">
        <ele>789.492</ele>
        <time>2011-07-03T13:55:50Z</time>
      </trkpt>
      <trkpt lat="62.180325" lon="12.408017">
        <ele>789.607</ele>
        <time>2011-07-03T13:55:51Z</time>
      </trkpt>
      <trkpt lat="62.180348" lon="12.408255">
        <ele>789.143</ele>
        <time>2011-07-03T13:55:59Z</time>
      </trkpt>
      <trkpt lat="62.180382" lon="12.408405">
        <ele>788.909</ele>
        <time>2011-07-03T13:56:05Z</time>
      </trkpt>
      <trkpt lat="62.180422" lon="12.408584">
        <ele>788.633</ele>
        <time>2011-07-03T13:56:12Z</time>
      </trkpt>
      <trkpt lat="62.180424" lon="12.408612">
        <ele>788.458</ele>
        <time>2011-07-03T13:56:13Z</time>
      </trkpt>
      <trkpt lat="62.180437" lon="12.408806">
        <ele>785.142</ele>
        <time>2011-07-03T13:56:21Z</time>
      </trkpt>
      <trkpt lat="62.180459" lon="12.408877">
        <ele>784.602</ele>
        <time>2011-07-03T13:56:25Z</time>
      </trkpt>
      <trkpt lat="62.180475" lon="12.409032">
        <ele>783.036</ele>
        <time>2011-07-03T13:56:31Z</time>
      </trkpt>
      <trkpt lat="62.180462" lon="12.40911">
        <ele>782.598</ele>
        <time>2011-07-03T13:56:35Z</time>
      </trkpt>
      <trkpt lat="62.180477" lon="12.40922">
        <ele>782.429</ele>
        <time>2011-07-03T13:56:41Z</time>
      </trkpt>
      <trkpt lat="62.180523" lon="12.409425">
        <ele>782.654</ele>
        <time>2011-07-03T13:56:51Z</time>
      </trkpt>
      <trkpt lat="62.180536" lon="12.409561">
        <ele>782.808</ele>
        <time>2011-07-03T13:57:00Z</time>
      </trkpt>
      <trkpt lat="62.180536" lon="12.409563">
        <ele>782.72</ele>
        <time>2011-07-03T13:57:01Z</time>
      </trkpt>
      <trkpt lat="62.180587" lon="12.409673">
        <ele>781.28</ele>
        <time>2011-07-03T13:57:23Z</time>
      </trkpt>
      <trkpt lat="62.180638" lon="12.409724">
        <ele>781.881</ele>
        <time>2011-07-03T13:58:13Z</time>
      </trkpt>
      <trkpt lat="62.180647" lon="12.409737">
        <ele>782.032</ele>
        <time>2011-07-03T13:58:14Z</time>
      </trkpt>
      <trkpt lat="62.180733" lon="12.409793">
        <ele>783.402</ele>
        <time>2011-07-03T13:58:21Z</time>
      </trkpt>
      <trkpt lat="62.180788" lon="12.409768">
        <ele>784.401</ele>
        <time>2011-07-03T13:58:25Z</time>
      </trkpt>
      <trkpt lat="62.180877" lon="12.409696">
        <ele>785.057</ele>
        <time>2011-07-03T13:58:33Z</time>
      </trkpt>
      <trkpt lat="62.180952" lon="12.409718">
        <ele>785.448</ele>
        <time>2011-07-03T13:58:39Z</time>
      </trkpt>
      <trkpt lat="62.181009" lon="12.409883">
        <ele>785.081</ele>
        <time>2011-07-03T13:58:47Z</time>
      </trkpt>
      <trkpt lat="62.181019" lon="12.409965">
        <ele>785.242</ele>
        <time>2011-07-03T13:58:51Z</time>
      </trkpt>
      <trkpt lat="62.181049" lon="12.410107">
        <ele>784.559</ele>
        <time>2011-07-03T13:58:56Z</time>
      </trkpt>
      <trkpt lat="62.18104" lon="12.41021">
        <ele>784.411</ele>
        <time>2011-07-03T13:59:00Z</time>
      </trkpt>
      <trkpt lat="62.181043" lon="12.410251">
        <ele>784.436</ele>
        <time>2011-07-03T13:59:02Z</time>
      </trkpt>
      <trkpt lat="62.181092" lon="12.41038">
        <ele>783.174</ele>
        <time>2011-07-03T13:59:08Z</time>
      </trkpt>
      <trkpt lat="62.181091" lon="12.410457">
        <ele>782.944</ele>
        <time>2011-07-03T13:59:11Z</time>
      </trkpt>
      <trkpt lat="62.181123" lon="12.410618">
        <ele>782.736</ele>
        <time>2011-07-03T13:59:19Z</time>
      </trkpt>
      <trkpt lat="62.181205" lon="12.410643">
        <ele>782.528</ele>
        <time>2011-07-03T13:59:23Z</time>
      </trkpt>
      <trkpt lat="62.181251" lon="12.410668">
        <ele>782.384</ele>
        <time>2011-07-03T13:59:25Z</time>
      </trkpt>
      <trkpt lat="62.181387" lon="12.410632">
        <ele>782.131</ele>
        <time>2011-07-03T13:59:33Z</time>
      </trkpt>
      <trkpt lat="62.181424" lon="12.41061">
        <ele>782.01</ele>
        <time>2011-07-03T13:59:36Z</time>
      </trkpt>
      <trkpt lat="62.181483" lon="12.410604">
        <ele>781.95</ele>
        <time>2011-07-03T13:59:40Z</time>
      </trkpt>
      <trkpt lat="62.181562" lon="12.410691">
        <ele>782.798</ele>
        <time>2011-07-03T13:59:48Z</time>
      </trkpt>
      <trkpt lat="62.181631" lon="12.410736">
        <ele>782.641</ele>
        <time>2011-07-03T13:59:54Z</time>
      </trkpt>
      <trkpt lat="62.181657" lon="12.41079">
        <ele>782.637</ele>
        <time>2011-07-03T13:59:57Z</time>
      </trkpt>
      <trkpt lat="62.181733" lon="12.410827">
        <ele>782.115</ele>
        <time>2011-07-03T14:00:02Z</time>
      </trkpt>
      <trkpt lat="62.181874" lon="12.410783">
        <ele>782.211</ele>
        <time>2011-07-03T14:00:11Z</time>
      </trkpt>
      <trkpt lat="62.181952" lon="12.410733">
        <ele>781.819</ele>
        <time>2011-07-03T14:00:18Z</time>
      </trkpt>
      <trkpt lat="62.182064" lon="12.410681">
        <ele>781.752</ele>
        <time>2011-07-03T14:00:26Z</time>
      </trkpt>
      <trkpt lat="62.182082" lon="12.410668">
        <ele>781.76</ele>
        <time>2011-07-03T14:00:27Z</time>
      </trkpt>
      <trkpt lat="62.182204" lon="12.410711">
        <ele>781.977</ele>
        <time>2011-07-03T14:00:35Z</time>
      </trkpt>
      <trkpt lat="62.18233" lon="12.410743">
        <ele>783.179</ele>
        <time>2011-07-03T14:00:43Z</time>
      </trkpt>
      <trkpt lat="62.182371" lon="12.410783">
        <ele>783.463</ele>
        <time>2011-07-03T14:00:47Z</time>
      </trkpt>
      <trkpt lat="62.182462" lon="12.410815">
        <ele>783.312</ele>
        <time>2011-07-03T14:00:52Z</time>
      </trkpt>
      <trkpt lat="62.18249" lon="12.410817">
        <ele>783.346</ele>
        <time>2011-07-03T14:00:54Z</time>
      </trkpt>
      <trkpt lat="62.182594" lon="12.410902">
        <ele>783.001</ele>
        <time>2011-07-03T14:01:01Z</time>
      </trkpt>
      <trkpt lat="62.182609" lon="12.410922">
        <ele>782.871</ele>
        <time>2011-07-03T14:01:02Z</time>
      </trkpt>
      <trkpt lat="62.182639" lon="12.410967">
        <ele>782.689</ele>
        <time>2011-07-03T14:01:04Z</time>
      </trkpt>
      <trkpt lat="62.182764" lon="12.410986">
        <ele>783.478</ele>
        <time>2011-07-03T14:01:11Z</time>
      </trkpt>
      <trkpt lat="62.182796" lon="12.41099">
        <ele>783.719</ele>
        <time>2011-07-03T14:01:13Z</time>
      </trkpt>
      <trkpt lat="62.182866" lon="12.41095">
        <ele>784.363</ele>
        <time>2011-07-03T14:01:17Z</time>
      </trkpt>
      <trkpt lat="62.182893" lon="12.410949">
        <ele>784.612</ele>
        <time>2011-07-03T14:01:19Z</time>
      </trkpt>
      <trkpt lat="62.182938" lon="12.410995">
        <ele>785.638</ele>
        <time>2011-07-03T14:01:23Z</time>
      </trkpt>
      <trkpt lat="62.183003" lon="12.410986">
        <ele>786.25</ele>
        <time>2011-07-03T14:01:28Z</time>
      </trkpt>
      <trkpt lat="62.183053" lon="12.410978">
        <ele>786.53</ele>
        <time>2011-07-03T14:01:33Z</time>
      </trkpt>
      <trkpt lat="62.183139" lon="12.410878">
        <ele>786.543</ele>
        <time>2011-07-03T14:01:39Z</time>
      </trkpt>
      <trkpt lat="62.183212" lon="12.410794">
        <ele>786.386</ele>
        <time>2011-07-03T14:01:45Z</time>
      </trkpt>
      <trkpt lat="62.183269" lon="12.410745">
        <ele>786.353</ele>
        <time>2011-07-03T14:01:51Z</time>
      </trkpt>
      <trkpt lat="62.183289" lon="12.410817">
        <ele>786.225</ele>
        <time>2011-07-03T14:01:56Z</time>
      </trkpt>
      <trkpt lat="62.183299" lon="12.410826">
        <ele>786.112</ele>
        <time>2011-07-03T14:01:57Z</time>
      </trkpt>
      <trkpt lat="62.183359" lon="12.410939">
        <ele>785.149</ele>
        <time>2011-07-03T14:02:03Z</time>
      </trkpt>
      <trkpt lat="62.183407" lon="12.411082">
        <ele>783.476</ele>
        <time>2011-07-03T14:02:09Z</time>
      </trkpt>
      <trkpt lat="62.183429" lon="12.411107">
        <ele>783.312</ele>
        <time>2011-07-03T14:02:11Z</time>
      </trkpt>
      <trkpt lat="62.183466" lon="12.411112">
        <ele>782.995</ele>
        <time>2011-07-03T14:02:13Z</time>
      </trkpt>
      <trkpt lat="62.183502" lon="12.411102">
        <ele>782.873</ele>
        <time>2011-07-03T14:02:15Z</time>
      </trkpt>
      <trkpt lat="62.183616" lon="12.411114">
        <ele>784.241</ele>
        <time>2011-07-03T14:02:22Z</time>
      </trkpt>
      <trkpt lat="62.183636" lon="12.411124">
        <ele>784.675</ele>
        <time>2011-07-03T14:02:23Z</time>
      </trkpt>
      <trkpt lat="62.183754" lon="12.411053">
        <ele>786.265</ele>
        <time>2011-07-03T14:02:31Z</time>
      </trkpt>
      <trkpt lat="62.183822" lon="12.410974">
        <ele>786.326</ele>
        <time>2011-07-03T14:02:36Z</time>
      </trkpt>
      <trkpt lat="62.183847" lon="12.410931">
        <ele>786.473</ele>
        <time>2011-07-03T14:02:38Z</time>
      </trkpt>
      <trkpt lat="62.18392" lon="12.410922">
        <ele>786.979</ele>
        <time>2011-07-03T14:02:44Z</time>
      </trkpt>
      <trkpt lat="62.183947" lon="12.410946">
        <ele>787.341</ele>
        <time>2011-07-03T14:02:46Z</time>
      </trkpt>
      <trkpt lat="62.18406" lon="12.410961">
        <ele>786.773</ele>
        <time>2011-07-03T14:02:53Z</time>
      </trkpt>
      <trkpt lat="62.184172" lon="12.410966">
        <ele>788.21</ele>
        <time>2011-07-03T14:02:59Z</time>
      </trkpt>
      <trkpt lat="62.184219" lon="12.41094">
        <ele>789.434</ele>
        <time>2011-07-03T14:03:03Z</time>
      </trkpt>
      <trkpt lat="62.184279" lon="12.410882">
        <ele>789.651</ele>
        <time>2011-07-03T14:03:08Z</time>
      </trkpt>
      <trkpt lat="62.184343" lon="12.410906">
        <ele>790.516</ele>
        <time>2011-07-03T14:03:14Z</time>
      </trkpt>
      <trkpt lat="62.184349" lon="12.410893">
        <ele>790.724</ele>
        <time>2011-07-03T14:03:15Z</time>
      </trkpt>
      <trkpt lat="62.184465" lon="12.410947">
        <ele>791.049</ele>
        <time>2011-07-03T14:03:24Z</time>
      </trkpt>
      <trkpt lat="62.184573" lon="12.410992">
        <ele>791.443</ele>
        <time>2011-07-03T14:03:31Z</time>
      </trkpt>
      <trkpt lat="62.18464" lon="12.411062">
        <ele>791.496</ele>
        <time>2011-07-03T14:03:37Z</time>
      </trkpt>
      <trkpt lat="62.184738" lon="12.411181">
        <ele>792.797</ele>
        <time>2011-07-03T14:03:44Z</time>
      </trkpt>
      <trkpt lat="62.184835" lon="12.411346">
        <ele>794.15</ele>
        <time>2011-07-03T14:03:52Z</time>
      </trkpt>
      <trkpt lat="62.184941" lon="12.411439">
        <ele>796.155</ele>
        <time>2011-07-03T14:03:59Z</time>
      </trkpt>
      <trkpt lat="62.185039" lon="12.411559">
        <ele>798.33</ele>
        <time>2011-07-03T14:04:07Z</time>
      </trkpt>
      <trkpt lat="62.185043" lon="12.41158">
        <ele>798.57</ele>
        <time>2011-07-03T14:04:08Z</time>
      </trkpt>
      <trkpt lat="62.185149" lon="12.411698">
        <ele>799.153</ele>
        <time>2011-07-03T14:04:16Z</time>
      </trkpt>
      <trkpt lat="62.185234" lon="12.411751">
        <ele>799.586</ele>
        <time>2011-07-03T14:04:22Z</time>
      </trkpt>
      <trkpt lat="62.185291" lon="12.411896">
        <ele>800.186</ele>
        <time>2011-07-03T14:04:29Z</time>
      </trkpt>
      <trkpt lat="62.185352" lon="12.41202">
        <ele>801.308</ele>
        <time>2011-07-03T14:04:37Z</time>
      </trkpt>
      <trkpt lat="62.185357" lon="12.412032">
        <ele>801.503</ele>
        <time>2011-07-03T14:04:38Z</time>
      </trkpt>
      <trkpt lat="62.185388" lon="12.412154">
        <ele>802.157</ele>
        <time>2011-07-03T14:04:45Z</time>
      </trkpt>
      <trkpt lat="62.185437" lon="12.412282">
        <ele>803.1</ele>
        <time>2011-07-03T14:04:52Z</time>
      </trkpt>
      <trkpt lat="62.185487" lon="12.412311">
        <ele>803.37</ele>
        <time>2011-07-03T14:04:57Z</time>
      </trkpt>
      <trkpt lat="62.185525" lon="12.412325">
        <ele>803.411</ele>
        <time>2011-07-03T14:05:00Z</time>
      </trkpt>
      <trkpt lat="62.185643" lon="12.412396">
        <ele>804.153</ele>
        <time>2011-07-03T14:05:07Z</time>
      </trkpt>
      <trkpt lat="62.185701" lon="12.412495">
        <ele>804.949</ele>
        <time>2011-07-03T14:05:12Z</time>
      </trkpt>
      <trkpt lat="62.185771" lon="12.412713">
        <ele>807.001</ele>
        <time>2011-07-03T14:05:20Z</time>
      </trkpt>
      <trkpt lat="62.185857" lon="12.412876">
        <ele>807.666</ele>
        <time>2011-07-03T14:05:26Z</time>
      </trkpt>
      <trkpt lat="62.185892" lon="12.412977">
        <ele>809.835</ele>
        <time>2011-07-03T14:05:31Z</time>
      </trkpt>
      <trkpt lat="62.185988" lon="12.413156">
        <ele>810.675</ele>
        <time>2011-07-03T14:05:39Z</time>
      </trkpt>
      <trkpt lat="62.186053" lon="12.413214">
        <ele>811.476</ele>
        <time>2011-07-03T14:05:44Z</time>
      </trkpt>
      <trkpt lat="62.186136" lon="12.413379">
        <ele>812.342</ele>
        <time>2011-07-03T14:05:51Z</time>
      </trkpt>
      <trkpt lat="62.186194" lon="12.413492">
        <ele>812.708</ele>
        <time>2011-07-03T14:05:56Z</time>
      </trkpt>
      <trkpt lat="62.186283" lon="12.413618">
        <ele>814.353</ele>
        <time>2011-07-03T14:06:05Z</time>
      </trkpt>
      <trkpt lat="62.18635" lon="12.413728">
        <ele>815.997</ele>
        <time>2011-07-03T14:06:12Z</time>
      </trkpt>
      <trkpt lat="62.186405" lon="12.41382">
        <ele>817.73</ele>
        <time>2011-07-03T14:06:18Z</time>
      </trkpt>
      <trkpt lat="62.186446" lon="12.414045">
        <ele>817.244</ele>
        <time>2011-07-03T14:06:24Z</time>
      </trkpt>
      <trkpt lat="62.186461" lon="12.414222">
        <ele>817.07</ele>
        <time>2011-07-03T14:06:28Z</time>
      </trkpt>
      <trkpt lat="62.186469" lon="12.414259">
        <ele>817.294</ele>
        <time>2011-07-03T14:06:29Z</time>
      </trkpt>
      <trkpt lat="62.186536" lon="12.414464">
        <ele>818.895</ele>
        <time>2011-07-03T14:06:36Z</time>
      </trkpt>
      <trkpt lat="62.186554" lon="12.414546">
        <ele>819.749</ele>
        <time>2011-07-03T14:06:39Z</time>
      </trkpt>
      <trkpt lat="62.186556" lon="12.414769">
        <ele>821.707</ele>
        <time>2011-07-03T14:06:48Z</time>
      </trkpt>
      <trkpt lat="62.186563" lon="12.414957">
        <ele>822.249</ele>
        <time>2011-07-03T14:06:54Z</time>
      </trkpt>
      <trkpt lat="62.186559" lon="12.415138">
        <ele>822.62</ele>
        <time>2011-07-03T14:07:01Z</time>
      </trkpt>
      <trkpt lat="62.186592" lon="12.415253">
        <ele>823.227</ele>
        <time>2011-07-03T14:07:05Z</time>
      </trkpt>
      <trkpt lat="62.186568" lon="12.41543">
        <ele>824.068</ele>
        <time>2011-07-03T14:07:12Z</time>
      </trkpt>
      <trkpt lat="62.18654" lon="12.415539">
        <ele>824.425</ele>
        <time>2011-07-03T14:07:16Z</time>
      </trkpt>
      <trkpt lat="62.186505" lon="12.415714">
        <ele>824.875</ele>
        <time>2011-07-03T14:07:22Z</time>
      </trkpt>
      <trkpt lat="62.18648" lon="12.415836">
        <ele>825.437</ele>
        <time>2011-07-03T14:07:28Z</time>
      </trkpt>
      <trkpt lat="62.186452" lon="12.416115">
        <ele>826.226</ele>
        <time>2011-07-03T14:07:37Z</time>
      </trkpt>
      <trkpt lat="62.186455" lon="12.416136">
        <ele>826.274</ele>
        <time>2011-07-03T14:07:38Z</time>
      </trkpt>
      <trkpt lat="62.186448" lon="12.416324">
        <ele>827.296</ele>
        <time>2011-07-03T14:07:46Z</time>
      </trkpt>
      <trkpt lat="62.186448" lon="12.416444">
        <ele>827.996</ele>
        <time>2011-07-03T14:07:51Z</time>
      </trkpt>
      <trkpt lat="62.186472" lon="12.416542">
        <ele>828.113</ele>
        <time>2011-07-03T14:07:55Z</time>
      </trkpt>
      <trkpt lat="62.186464" lon="12.416653">
        <ele>828.142</ele>
        <time>2011-07-03T14:07:59Z</time>
      </trkpt>
      <trkpt lat="62.186466" lon="12.416886">
        <ele>829.195</ele>
        <time>2011-07-03T14:08:09Z</time>
      </trkpt>
      <trkpt lat="62.186476" lon="12.417099">
        <ele>830.194</ele>
        <time>2011-07-03T14:08:17Z</time>
      </trkpt>
      <trkpt lat="62.186476" lon="12.41713">
        <ele>830.261</ele>
        <time>2011-07-03T14:08:18Z</time>
      </trkpt>
      <trkpt lat="62.186443" lon="12.417396">
        <ele>831.295</ele>
        <time>2011-07-03T14:08:27Z</time>
      </trkpt>
      <trkpt lat="62.186451" lon="12.417604">
        <ele>831.405</ele>
        <time>2011-07-03T14:08:35Z</time>
      </trkpt>
      <trkpt lat="62.186462" lon="12.417718">
        <ele>831.652</ele>
        <time>2011-07-03T14:08:39Z</time>
      </trkpt>
      <trkpt lat="62.186481" lon="12.417943">
        <ele>831.674</ele>
        <time>2011-07-03T14:08:47Z</time>
      </trkpt>
      <trkpt lat="62.186468" lon="12.418025">
        <ele>831.895</ele>
        <time>2011-07-03T14:08:50Z</time>
      </trkpt>
      <trkpt lat="62.186423" lon="12.418323">
        <ele>832.838</ele>
        <time>2011-07-03T14:09:00Z</time>
      </trkpt>
      <trkpt lat="62.186425" lon="12.418524">
        <ele>832.862</ele>
        <time>2011-07-03T14:09:07Z</time>
      </trkpt>
      <trkpt lat="62.186436" lon="12.418743">
        <ele>833.301</ele>
        <time>2011-07-03T14:09:15Z</time>
      </trkpt>
      <trkpt lat="62.186429" lon="12.418844">
        <ele>833.632</ele>
        <time>2011-07-03T14:09:19Z</time>
      </trkpt>
      <trkpt lat="62.186399" lon="12.418981">
        <ele>833.977</ele>
        <time>2011-07-03T14:09:24Z</time>
      </trkpt>
      <trkpt lat="62.186379" lon="12.419307">
        <ele>834.174</ele>
        <time>2011-07-03T14:09:34Z</time>
      </trkpt>
      <trkpt lat="62.18638" lon="12.419529">
        <ele>834.556</ele>
        <time>2011-07-03T14:09:41Z</time>
      </trkpt>
      <trkpt lat="62.186404" lon="12.419752">
        <ele>834.772</ele>
        <time>2011-07-03T14:09:49Z</time>
      </trkpt>
      <trkpt lat="62.186437" lon="12.419896">
        <ele>835.289</ele>
        <time>2011-07-03T14:09:56Z</time>
      </trkpt>
      <trkpt lat="62.186471" lon="12.42005">
        <ele>836.447</ele>
        <time>2011-07-03T14:10:03Z</time>
      </trkpt>
      <trkpt lat="62.186497" lon="12.42014">
        <ele>837.031</ele>
        <time>2011-07-03T14:10:07Z</time>
      </trkpt>
      <trkpt lat="62.186531" lon="12.420237">
        <ele>837.741</ele>
        <time>2011-07-03T14:10:12Z</time>
      </trkpt>
      <trkpt lat="62.186558" lon="12.42041">
        <ele>837.841</ele>
        <time>2011-07-03T14:10:19Z</time>
      </trkpt>
      <trkpt lat="62.186582" lon="12.420562">
        <ele>838.551</ele>
        <time>2011-07-03T14:10:25Z</time>
      </trkpt>
      <trkpt lat="62.186589" lon="12.420575">
        <ele>838.691</ele>
        <time>2011-07-03T14:10:26Z</time>
      </trkpt>
      <trkpt lat="62.186633" lon="12.420698">
        <ele>838.789</ele>
        <time>2011-07-03T14:10:33Z</time>
      </trkpt>
      <trkpt lat="62.186649" lon="12.420819">
        <ele>839.345</ele>
        <time>2011-07-03T14:10:38Z</time>
      </trkpt>
      <trkpt lat="62.186663" lon="12.420983">
        <ele>841.212</ele>
        <time>2011-07-03T14:10:46Z</time>
      </trkpt>
      <trkpt lat="62.186702" lon="12.421091">
        <ele>842.197</ele>
        <time>2011-07-03T14:10:53Z</time>
      </trkpt>
      <trkpt lat="62.186724" lon="12.421253">
        <ele>842.272</ele>
        <time>2011-07-03T14:11:00Z</time>
      </trkpt>
      <trkpt lat="62.186772" lon="12.421361">
        <ele>842.477</ele>
        <time>2011-07-03T14:11:07Z</time>
      </trkpt>
      <trkpt lat="62.18683" lon="12.421464">
        <ele>843.693</ele>
        <time>2011-07-03T14:11:15Z</time>
      </trkpt>
      <trkpt lat="62.18685" lon="12.421509">
        <ele>843.982</ele>
        <time>2011-07-03T14:11:18Z</time>
      </trkpt>
      <trkpt lat="62.186861" lon="12.421556">
        <ele>844.155</ele>
        <time>2011-07-03T14:11:20Z</time>
      </trkpt>
      <trkpt lat="62.18691" lon="12.421734">
        <ele>844.875</ele>
        <time>2011-07-03T14:11:28Z</time>
      </trkpt>
      <trkpt lat="62.186917" lon="12.421757">
        <ele>844.848</ele>
        <time>2011-07-03T14:11:29Z</time>
      </trkpt>
      <trkpt lat="62.186971" lon="12.421895">
        <ele>845.325</ele>
        <time>2011-07-03T14:11:35Z</time>
      </trkpt>
      <trkpt lat="62.186985" lon="12.42195">
        <ele>845.67</ele>
        <time>2011-07-03T14:11:38Z</time>
      </trkpt>
      <trkpt lat="62.187011" lon="12.421993">
        <ele>846.009</ele>
        <time>2011-07-03T14:11:41Z</time>
      </trkpt>
      <trkpt lat="62.187054" lon="12.422158">
        <ele>846.508</ele>
        <time>2011-07-03T14:11:49Z</time>
      </trkpt>
      <trkpt lat="62.187072" lon="12.422168">
        <ele>846.746</ele>
        <time>2011-07-03T14:11:51Z</time>
      </trkpt>
      <trkpt lat="62.187155" lon="12.422235">
        <ele>846.907</ele>
        <time>2011-07-03T14:11:58Z</time>
      </trkpt>
      <trkpt lat="62.187217" lon="12.422387">
        <ele>847.629</ele>
        <time>2011-07-03T14:12:05Z</time>
      </trkpt>
      <trkpt lat="62.187261" lon="12.422557">
        <ele>848.024</ele>
        <time>2011-07-03T14:12:14Z</time>
      </trkpt>
      <trkpt lat="62.187298" lon="12.422752">
        <ele>848.19</ele>
        <time>2011-07-03T14:12:21Z</time>
      </trkpt>
      <trkpt lat="62.187309" lon="12.422794">
        <ele>848.37</ele>
        <time>2011-07-03T14:12:23Z</time>
      </trkpt>
      <trkpt lat="62.18733" lon="12.422948">
        <ele>848.96</ele>
        <time>2011-07-03T14:12:30Z</time>
      </trkpt>
      <trkpt lat="62.187365" lon="12.42313">
        <ele>849.339</ele>
        <time>2011-07-03T14:12:36Z</time>
      </trkpt>
      <trkpt lat="62.187434" lon="12.423339">
        <ele>849.632</ele>
        <time>2011-07-03T14:12:44Z</time>
      </trkpt>
      <trkpt lat="62.187443" lon="12.423457">
        <ele>850.635</ele>
        <time>2011-07-03T14:12:49Z</time>
      </trkpt>
      <trkpt lat="62.187469" lon="12.42366">
        <ele>850.99</ele>
        <time>2011-07-03T14:12:57Z</time>
      </trkpt>
      <trkpt lat="62.187481" lon="12.423794">
        <ele>851.324</ele>
        <time>2011-07-03T14:13:03Z</time>
      </trkpt>
      <trkpt lat="62.187477" lon="12.423827">
        <ele>851.375</ele>
        <time>2011-07-03T14:13:04Z</time>
      </trkpt>
      <trkpt lat="62.187478" lon="12.424092">
        <ele>852.428</ele>
        <time>2011-07-03T14:13:13Z</time>
      </trkpt>
      <trkpt lat="62.187487" lon="12.424296">
        <ele>853.901</ele>
        <time>2011-07-03T14:13:21Z</time>
      </trkpt>
      <trkpt lat="62.187499" lon="12.424355">
        <ele>854.612</ele>
        <time>2011-07-03T14:13:24Z</time>
      </trkpt>
      <trkpt lat="62.187502" lon="12.424566">
        <ele>855.205</ele>
        <time>2011-07-03T14:13:32Z</time>
      </trkpt>
      <trkpt lat="62.18751" lon="12.424667">
        <ele>855.734</ele>
        <time>2011-07-03T14:13:36Z</time>
      </trkpt>
      <trkpt lat="62.187503" lon="12.424807">
        <ele>856.297</ele>
        <time>2011-07-03T14:13:42Z</time>
      </trkpt>
      <trkpt lat="62.187513" lon="12.425005">
        <ele>857.109</ele>
        <time>2011-07-03T14:13:49Z</time>
      </trkpt>
      <trkpt lat="62.187516" lon="12.425026">
        <ele>857.117</ele>
        <time>2011-07-03T14:13:50Z</time>
      </trkpt>
      <trkpt lat="62.187525" lon="12.425224">
        <ele>857.594</ele>
        <time>2011-07-03T14:13:58Z</time>
      </trkpt>
      <trkpt lat="62.18752" lon="12.425384">
        <ele>858.957</ele>
        <time>2011-07-03T14:14:04Z</time>
      </trkpt>
      <trkpt lat="62.187532" lon="12.425497">
        <ele>860.487</ele>
        <time>2011-07-03T14:14:10Z</time>
      </trkpt>
      <trkpt lat="62.187556" lon="12.425657">
        <ele>862.239</ele>
        <time>2011-07-03T14:14:18Z</time>
      </trkpt>
      <trkpt lat="62.187565" lon="12.425749">
        <ele>862.487</ele>
        <time>2011-07-03T14:14:21Z</time>
      </trkpt>
      <trkpt lat="62.187554" lon="12.425917">
        <ele>862.518</ele>
        <time>2011-07-03T14:14:28Z</time>
      </trkpt>
      <trkpt lat="62.187549" lon="12.425994">
        <ele>863.151</ele>
        <time>2011-07-03T14:14:31Z</time>
      </trkpt>
      <trkpt lat="62.187553" lon="12.426041">
        <ele>863.403</ele>
        <time>2011-07-03T14:14:33Z</time>
      </trkpt>
      <trkpt lat="62.187557" lon="12.426255">
        <ele>863.984</ele>
        <time>2011-07-03T14:14:42Z</time>
      </trkpt>
      <trkpt lat="62.187556" lon="12.426396">
        <ele>862.611</ele>
        <time>2011-07-03T14:14:47Z</time>
      </trkpt>
      <trkpt lat="62.187569" lon="12.426625">
        <ele>861.399</ele>
        <time>2011-07-03T14:14:54Z</time>
      </trkpt>
      <trkpt lat="62.1876" lon="12.426764">
        <ele>860.203</ele>
        <time>2011-07-03T14:15:02Z</time>
      </trkpt>
      <trkpt lat="62.187716" lon="12.426931">
        <ele>860.064</ele>
        <time>2011-07-03T14:15:15Z</time>
      </trkpt>
      <trkpt lat="62.187752" lon="12.427006">
        <ele>860.255</ele>
        <time>2011-07-03T14:15:22Z</time>
      </trkpt>
      <trkpt lat="62.187761" lon="12.427024">
        <ele>860.274</ele>
        <time>2011-07-03T14:15:23Z</time>
      </trkpt>
      <trkpt lat="62.187801" lon="12.427251">
        <ele>860.373</ele>
        <time>2011-07-03T14:15:32Z</time>
      </trkpt>
      <trkpt lat="62.187826" lon="12.427374">
        <ele>860.231</ele>
        <time>2011-07-03T14:15:38Z</time>
      </trkpt>
      <trkpt lat="62.187838" lon="12.42753">
        <ele>860.39</ele>
        <time>2011-07-03T14:15:45Z</time>
      </trkpt>
      <trkpt lat="62.187841" lon="12.427771">
        <ele>860.688</ele>
        <time>2011-07-03T14:15:54Z</time>
      </trkpt>
      <trkpt lat="62.187846" lon="12.427958">
        <ele>860.47</ele>
        <time>2011-07-03T14:16:02Z</time>
      </trkpt>
      <trkpt lat="62.187832" lon="12.428176">
        <ele>860.917</ele>
        <time>2011-07-03T14:16:11Z</time>
      </trkpt>
      <trkpt lat="62.18782" lon="12.428292">
        <ele>861.257</ele>
        <time>2011-07-03T14:16:15Z</time>
      </trkpt>
      <trkpt lat="62.187796" lon="12.428444">
        <ele>861.649</ele>
        <time>2011-07-03T14:16:21Z</time>
      </trkpt>
      <trkpt lat="62.187791" lon="12.428579">
        <ele>861.685</ele>
        <time>2011-07-03T14:16:27Z</time>
      </trkpt>
      <trkpt lat="62.187793" lon="12.428769">
        <ele>861.088</ele>
        <time>2011-07-03T14:16:33Z</time>
      </trkpt>
      <trkpt lat="62.187784" lon="12.428893">
        <ele>862.341</ele>
        <time>2011-07-03T14:16:38Z</time>
      </trkpt>
      <trkpt lat="62.187801" lon="12.429133">
        <ele>864.533</ele>
        <time>2011-07-03T14:16:48Z</time>
      </trkpt>
      <trkpt lat="62.187801" lon="12.429373">
        <ele>864.718</ele>
        <time>2011-07-03T14:16:58Z</time>
      </trkpt>
      <trkpt lat="62.187815" lon="12.429511">
        <ele>865.681</ele>
        <time>2011-07-03T14:17:05Z</time>
      </trkpt>
      <trkpt lat="62.187811" lon="12.429623">
        <ele>866.238</ele>
        <time>2011-07-03T14:17:10Z</time>
      </trkpt>
      <trkpt lat="62.18783" lon="12.429808">
        <ele>866.017</ele>
        <time>2011-07-03T14:17:15Z</time>
      </trkpt>
      <trkpt lat="62.187875" lon="12.430049">
        <ele>865.573</ele>
        <time>2011-07-03T14:17:23Z</time>
      </trkpt>
      <trkpt lat="62.187908" lon="12.430202">
        <ele>866.469</ele>
        <time>2011-07-03T14:17:30Z</time>
      </trkpt>
      <trkpt lat="62.187928" lon="12.430386">
        <ele>866.641</ele>
        <time>2011-07-03T14:17:37Z</time>
      </trkpt>
      <trkpt lat="62.188023" lon="12.430658">
        <ele>866.599</ele>
        <time>2011-07-03T14:17:45Z</time>
      </trkpt>
      <trkpt lat="62.188077" lon="12.430775">
        <ele>866.544</ele>
        <time>2011-07-03T14:17:51Z</time>
      </trkpt>
      <trkpt lat="62.188088" lon="12.430809">
        <ele>866.527</ele>
        <time>2011-07-03T14:17:53Z</time>
      </trkpt>
      <trkpt lat="62.188109" lon="12.430851">
        <ele>866.42</ele>
        <time>2011-07-03T14:17:55Z</time>
      </trkpt>
      <trkpt lat="62.188119" lon="12.4309">
        <ele>866.244</ele>
        <time>2011-07-03T14:17:57Z</time>
      </trkpt>
      <trkpt lat="62.188112" lon="12.431002">
        <ele>865.84</ele>
        <time>2011-07-03T14:18:03Z</time>
      </trkpt>
      <trkpt lat="62.188104" lon="12.43111">
        <ele>866.05</ele>
        <time>2011-07-03T14:18:10Z</time>
      </trkpt>
      <trkpt lat="62.188107" lon="12.431126">
        <ele>866.059</ele>
        <time>2011-07-03T14:18:11Z</time>
      </trkpt>
      <trkpt lat="62.188133" lon="12.431316">
        <ele>865.22</ele>
        <time>2011-07-03T14:18:19Z</time>
      </trkpt>
      <trkpt lat="62.188175" lon="12.431535">
        <ele>864.218</ele>
        <time>2011-07-03T14:18:26Z</time>
      </trkpt>
      <trkpt lat="62.188249" lon="12.43169">
        <ele>864.38</ele>
        <time>2011-07-03T14:18:30Z</time>
      </trkpt>
      <trkpt lat="62.188345" lon="12.431773">
        <ele>865.223</ele>
        <time>2011-07-03T14:18:34Z</time>
      </trkpt>
      <trkpt lat="62.188426" lon="12.432026">
        <ele>866.143</ele>
        <time>2011-07-03T14:18:40Z</time>
      </trkpt>
      <trkpt lat="62.188421" lon="12.432341">
        <ele>865.704</ele>
        <time>2011-07-03T14:18:47Z</time>
      </trkpt>
      <trkpt lat="62.188425" lon="12.432566">
        <ele>865.665</ele>
        <time>2011-07-03T14:18:53Z</time>
      </trkpt>
      <trkpt lat="62.188433" lon="12.432647">
        <ele>865.713</ele>
        <time>2011-07-03T14:18:57Z</time>
      </trkpt>
      <trkpt lat="62.188477" lon="12.432714">
        <ele>865.819</ele>
        <time>2011-07-03T14:19:01Z</time>
      </trkpt>
      <trkpt lat="62.188533" lon="12.432881">
        <ele>866.158</ele>
        <time>2011-07-03T14:19:16Z</time>
      </trkpt>
      <trkpt lat="62.18857" lon="12.432961">
        <ele>866.147</ele>
        <time>2011-07-03T14:19:21Z</time>
      </trkpt>
      <trkpt lat="62.188576" lon="12.433">
        <ele>865.847</ele>
        <time>2011-07-03T14:19:23Z</time>
      </trkpt>
      <trkpt lat="62.188615" lon="12.433132">
        <ele>865.529</ele>
        <time>2011-07-03T14:19:31Z</time>
      </trkpt>
      <trkpt lat="62.188642" lon="12.43329">
        <ele>864.71</ele>
        <time>2011-07-03T14:19:38Z</time>
      </trkpt>
      <trkpt lat="62.188667" lon="12.433421">
        <ele>864.806</ele>
        <time>2011-07-03T14:19:46Z</time>
      </trkpt>
      <trkpt lat="62.188673" lon="12.433465">
        <ele>864.809</ele>
        <time>2011-07-03T14:19:48Z</time>
      </trkpt>
      <trkpt lat="62.188693" lon="12.433537">
        <ele>864.821</ele>
        <time>2011-07-03T14:19:53Z</time>
      </trkpt>
      <trkpt lat="62.188702" lon="12.433671">
        <ele>864.754</ele>
        <time>2011-07-03T14:19:59Z</time>
      </trkpt>
      <trkpt lat="62.188771" lon="12.433801">
        <ele>864.67</ele>
        <time>2011-07-03T14:20:06Z</time>
      </trkpt>
      <trkpt lat="62.188826" lon="12.433909">
        <ele>864.275</ele>
        <time>2011-07-03T14:20:12Z</time>
      </trkpt>
      <trkpt lat="62.18887" lon="12.433962">
        <ele>864.066</ele>
        <time>2011-07-03T14:20:16Z</time>
      </trkpt>
      <trkpt lat="62.188957" lon="12.434105">
        <ele>863.466</ele>
        <time>2011-07-03T14:20:25Z</time>
      </trkpt>
      <trkpt lat="62.188983" lon="12.434139">
        <ele>863.079</ele>
        <time>2011-07-03T14:20:27Z</time>
      </trkpt>
      <trkpt lat="62.189026" lon="12.434253">
        <ele>862.825</ele>
        <time>2011-07-03T14:20:33Z</time>
      </trkpt>
      <trkpt lat="62.189075" lon="12.434378">
        <ele>863.093</ele>
        <time>2011-07-03T14:20:40Z</time>
      </trkpt>
      <trkpt lat="62.189111" lon="12.434522">
        <ele>863.19</ele>
        <time>2011-07-03T14:20:46Z</time>
      </trkpt>
      <trkpt lat="62.189126" lon="12.434568">
        <ele>863.199</ele>
        <time>2011-07-03T14:20:48Z</time>
      </trkpt>
      <trkpt lat="62.189134" lon="12.434687">
        <ele>863.216</ele>
        <time>2011-07-03T14:20:54Z</time>
      </trkpt>
      <trkpt lat="62.189141" lon="12.434756">
        <ele>863.072</ele>
        <time>2011-07-03T14:20:58Z</time>
      </trkpt>
      <trkpt lat="62.189172" lon="12.434862">
        <ele>863.132</ele>
        <time>2011-07-03T14:21:04Z</time>
      </trkpt>
      <trkpt lat="62.189232" lon="12.434918">
        <ele>863.558</ele>
        <time>2011-07-03T14:21:08Z</time>
      </trkpt>
      <trkpt lat="62.189284" lon="12.435044">
        <ele>863.634</ele>
        <time>2011-07-03T14:21:15Z</time>
      </trkpt>
      <trkpt lat="62.189305" lon="12.435106">
        <ele>862.933</ele>
        <time>2011-07-03T14:21:18Z</time>
      </trkpt>
      <trkpt lat="62.18931" lon="12.435209">
        <ele>862.052</ele>
        <time>2011-07-03T14:21:22Z</time>
      </trkpt>
      <trkpt lat="62.189306" lon="12.435298">
        <ele>861.656</ele>
        <time>2011-07-03T14:21:26Z</time>
      </trkpt>
      <trkpt lat="62.189317" lon="12.435487">
        <ele>860.215</ele>
        <time>2011-07-03T14:21:34Z</time>
      </trkpt>
      <trkpt lat="62.189319" lon="12.435593">
        <ele>859.433</ele>
        <time>2011-07-03T14:21:38Z</time>
      </trkpt>
      <trkpt lat="62.189358" lon="12.435744">
        <ele>859.448</ele>
        <time>2011-07-03T14:21:45Z</time>
      </trkpt>
      <trkpt lat="62.189392" lon="12.435878">
        <ele>860.4</ele>
        <time>2011-07-03T14:21:51Z</time>
      </trkpt>
      <trkpt lat="62.189406" lon="12.436055">
        <ele>859.078</ele>
        <time>2011-07-03T14:21:59Z</time>
      </trkpt>
      <trkpt lat="62.189416" lon="12.436123">
        <ele>858.983</ele>
        <time>2011-07-03T14:22:04Z</time>
      </trkpt>
      <trkpt lat="62.189421" lon="12.436136">
        <ele>859.035</ele>
        <time>2011-07-03T14:22:05Z</time>
      </trkpt>
      <trkpt lat="62.189437" lon="12.436192">
        <ele>859.177</ele>
        <time>2011-07-03T14:22:08Z</time>
      </trkpt>
      <trkpt lat="62.189461" lon="12.43632">
        <ele>859.705</ele>
        <time>2011-07-03T14:22:14Z</time>
      </trkpt>
      <trkpt lat="62.189505" lon="12.436413">
        <ele>859.32</ele>
        <time>2011-07-03T14:22:18Z</time>
      </trkpt>
      <trkpt lat="62.189517" lon="12.436464">
        <ele>859.376</ele>
        <time>2011-07-03T14:22:21Z</time>
      </trkpt>
      <trkpt lat="62.189616" lon="12.436585">
        <ele>859.986</ele>
        <time>2011-07-03T14:22:29Z</time>
      </trkpt>
      <trkpt lat="62.189643" lon="12.436709">
        <ele>859.624</ele>
        <time>2011-07-03T14:22:35Z</time>
      </trkpt>
      <trkpt lat="62.189647" lon="12.436787">
        <ele>859.595</ele>
        <time>2011-07-03T14:22:39Z</time>
      </trkpt>
      <trkpt lat="62.189717" lon="12.436954">
        <ele>858.99</ele>
        <time>2011-07-03T14:22:48Z</time>
      </trkpt>
      <trkpt lat="62.189724" lon="12.437009">
        <ele>858.739</ele>
        <time>2011-07-03T14:22:51Z</time>
      </trkpt>
      <trkpt lat="62.189735" lon="12.437083">
        <ele>858.552</ele>
        <time>2011-07-03T14:22:56Z</time>
      </trkpt>
      <trkpt lat="62.189746" lon="12.437143">
        <ele>858.135</ele>
        <time>2011-07-03T14:23:01Z</time>
      </trkpt>
      <trkpt lat="62.189775" lon="12.437185">
        <ele>857.696</ele>
        <time>2011-07-03T14:23:06Z</time>
      </trkpt>
      <trkpt lat="62.189823" lon="12.437351">
        <ele>857.352</ele>
        <time>2011-07-03T14:23:14Z</time>
      </trkpt>
      <trkpt lat="62.189839" lon="12.437429">
        <ele>857.363</ele>
        <time>2011-07-03T14:23:18Z</time>
      </trkpt>
      <trkpt lat="62.18985" lon="12.437459">
        <ele>857.396</ele>
        <time>2011-07-03T14:23:20Z</time>
      </trkpt>
      <trkpt lat="62.189868" lon="12.437648">
        <ele>856.66</ele>
        <time>2011-07-03T14:23:30Z</time>
      </trkpt>
      <trkpt lat="62.189874" lon="12.437761">
        <ele>856.684</ele>
        <time>2011-07-03T14:23:36Z</time>
      </trkpt>
      <trkpt lat="62.189897" lon="12.437862">
        <ele>856.216</ele>
        <time>2011-07-03T14:23:41Z</time>
      </trkpt>
      <trkpt lat="62.18993" lon="12.438017">
        <ele>854.712</ele>
        <time>2011-07-03T14:23:48Z</time>
      </trkpt>
      <trkpt lat="62.189936" lon="12.438107">
        <ele>854.074</ele>
        <time>2011-07-03T14:23:52Z</time>
      </trkpt>
      <trkpt lat="62.189923" lon="12.438178">
        <ele>853.868</ele>
        <time>2011-07-03T14:23:56Z</time>
      </trkpt>
      <trkpt lat="62.189915" lon="12.43829">
        <ele>853.699</ele>
        <time>2011-07-03T14:24:02Z</time>
      </trkpt>
      <trkpt lat="62.189938" lon="12.438355">
        <ele>853.458</ele>
        <time>2011-07-03T14:24:05Z</time>
      </trkpt>
      <trkpt lat="62.189941" lon="12.438392">
        <ele>853.07</ele>
        <time>2011-07-03T14:24:07Z</time>
      </trkpt>
      <trkpt lat="62.18992" lon="12.438515">
        <ele>850.964</ele>
        <time>2011-07-03T14:24:15Z</time>
      </trkpt>
      <trkpt lat="62.189908" lon="12.438552">
        <ele>850.254</ele>
        <time>2011-07-03T14:24:18Z</time>
      </trkpt>
      <trkpt lat="62.189906" lon="12.438643">
        <ele>849.155</ele>
        <time>2011-07-03T14:24:24Z</time>
      </trkpt>
      <trkpt lat="62.189925" lon="12.438678">
        <ele>848.39</ele>
        <time>2011-07-03T14:24:27Z</time>
      </trkpt>
      <trkpt lat="62.189924" lon="12.438717">
        <ele>847.815</ele>
        <time>2011-07-03T14:24:30Z</time>
      </trkpt>
      <trkpt lat="62.189944" lon="12.438787">
        <ele>847.881</ele>
        <time>2011-07-03T14:24:34Z</time>
      </trkpt>
      <trkpt lat="62.190114" lon="12.438811">
        <ele>848.078</ele>
        <time>2011-07-03T14:24:37Z</time>
      </trkpt>
      <trkpt lat="62.190168" lon="12.43895">
        <ele>848.367</ele>
        <time>2011-07-03T14:24:48Z</time>
      </trkpt>
      <trkpt lat="62.190197" lon="12.439034">
        <ele>847.457</ele>
        <time>2011-07-03T14:24:53Z</time>
      </trkpt>
      <trkpt lat="62.190194" lon="12.439105">
        <ele>846.803</ele>
        <time>2011-07-03T14:24:57Z</time>
      </trkpt>
      <trkpt lat="62.19021" lon="12.439173">
        <ele>846.94</ele>
        <time>2011-07-03T14:25:01Z</time>
      </trkpt>
      <trkpt lat="62.190231" lon="12.439298">
        <ele>847.108</ele>
        <time>2011-07-03T14:25:08Z</time>
      </trkpt>
      <trkpt lat="62.190219" lon="12.439449">
        <ele>847.674</ele>
        <time>2011-07-03T14:25:16Z</time>
      </trkpt>
      <trkpt lat="62.190216" lon="12.43952">
        <ele>847.599</ele>
        <time>2011-07-03T14:25:20Z</time>
      </trkpt>
      <trkpt lat="62.190234" lon="12.439577">
        <ele>847.936</ele>
        <time>2011-07-03T14:25:23Z</time>
      </trkpt>
      <trkpt lat="62.190274" lon="12.439638">
        <ele>848.175</ele>
        <time>2011-07-03T14:25:27Z</time>
      </trkpt>
      <trkpt lat="62.190311" lon="12.439796">
        <ele>847.149</ele>
        <time>2011-07-03T14:25:35Z</time>
      </trkpt>
      <trkpt lat="62.19033" lon="12.439872">
        <ele>846.474</ele>
        <time>2011-07-03T14:25:39Z</time>
      </trkpt>
      <trkpt lat="62.19042" lon="12.440098">
        <ele>845.186</ele>
        <time>2011-07-03T14:25:49Z</time>
      </trkpt>
      <trkpt lat="62.190435" lon="12.440128">
        <ele>845.013</ele>
        <time>2011-07-03T14:25:51Z</time>
      </trkpt>
      <trkpt lat="62.190477" lon="12.440175">
        <ele>844.566</ele>
        <time>2011-07-03T14:25:56Z</time>
      </trkpt>
      <trkpt lat="62.190511" lon="12.440287">
        <ele>843.632</ele>
        <time>2011-07-03T14:26:29Z</time>
      </trkpt>
      <trkpt lat="62.190562" lon="12.440341">
        <ele>843.195</ele>
        <time>2011-07-03T14:26:35Z</time>
      </trkpt>
      <trkpt lat="62.190581" lon="12.440416">
        <ele>842.52</ele>
        <time>2011-07-03T14:26:39Z</time>
      </trkpt>
      <trkpt lat="62.190597" lon="12.440471">
        <ele>841.873</ele>
        <time>2011-07-03T14:26:43Z</time>
      </trkpt>
      <trkpt lat="62.190633" lon="12.440545">
        <ele>841.383</ele>
        <time>2011-07-03T14:26:49Z</time>
      </trkpt>
      <trkpt lat="62.19064" lon="12.44066">
        <ele>841.13</ele>
        <time>2011-07-03T14:26:55Z</time>
      </trkpt>
      <trkpt lat="62.190655" lon="12.440787">
        <ele>841.227</ele>
        <time>2011-07-03T14:27:02Z</time>
      </trkpt>
      <trkpt lat="62.190679" lon="12.440877">
        <ele>840.872</ele>
        <time>2011-07-03T14:27:08Z</time>
      </trkpt>
      <trkpt lat="62.190741" lon="12.441033">
        <ele>839.638</ele>
        <time>2011-07-03T14:27:26Z</time>
      </trkpt>
      <trkpt lat="62.190765" lon="12.441118">
        <ele>838.546</ele>
        <time>2011-07-03T14:27:30Z</time>
      </trkpt>
      <trkpt lat="62.190786" lon="12.441162">
        <ele>838.057</ele>
        <time>2011-07-03T14:27:32Z</time>
      </trkpt>
      <trkpt lat="62.190798" lon="12.441228">
        <ele>837.875</ele>
        <time>2011-07-03T14:27:35Z</time>
      </trkpt>
      <trkpt lat="62.190901" lon="12.441337">
        <ele>837.602</ele>
        <time>2011-07-03T14:27:44Z</time>
      </trkpt>
      <trkpt lat="62.190949" lon="12.441503">
        <ele>837.305</ele>
        <time>2011-07-03T14:27:53Z</time>
      </trkpt>
      <trkpt lat="62.190961" lon="12.441545">
        <ele>837.062</ele>
        <time>2011-07-03T14:27:55Z</time>
      </trkpt>
      <trkpt lat="62.191046" lon="12.441675">
        <ele>836.567</ele>
        <time>2011-07-03T14:28:04Z</time>
      </trkpt>
      <trkpt lat="62.191112" lon="12.441777">
        <ele>836.032</ele>
        <time>2011-07-03T14:28:11Z</time>
      </trkpt>
      <trkpt lat="62.191122" lon="12.441789">
        <ele>835.881</ele>
        <time>2011-07-03T14:28:12Z</time>
      </trkpt>
      <trkpt lat="62.191196" lon="12.44192">
        <ele>835.372</ele>
        <time>2011-07-03T14:28:20Z</time>
      </trkpt>
      <trkpt lat="62.191278" lon="12.441965">
        <ele>834.544</ele>
        <time>2011-07-03T14:28:27Z</time>
      </trkpt>
      <trkpt lat="62.191298" lon="12.441975">
        <ele>834.443</ele>
        <time>2011-07-03T14:28:28Z</time>
      </trkpt>
      <trkpt lat="62.191383" lon="12.442077">
        <ele>833.691</ele>
        <time>2011-07-03T14:28:33Z</time>
      </trkpt>
      <trkpt lat="62.191451" lon="12.442238">
        <ele>832.605</ele>
        <time>2011-07-03T14:28:41Z</time>
      </trkpt>
      <trkpt lat="62.191485" lon="12.442295">
        <ele>831.165</ele>
        <time>2011-07-03T14:28:46Z</time>
      </trkpt>
      <trkpt lat="62.191503" lon="12.4423">
        <ele>830.685</ele>
        <time>2011-07-03T14:28:48Z</time>
      </trkpt>
      <trkpt lat="62.191558" lon="12.44241">
        <ele>830.507</ele>
        <time>2011-07-03T14:28:56Z</time>
      </trkpt>
      <trkpt lat="62.191625" lon="12.442564">
        <ele>830.105</ele>
        <time>2011-07-03T14:29:06Z</time>
      </trkpt>
      <trkpt lat="62.191657" lon="12.442672">
        <ele>829.368</ele>
        <time>2011-07-03T14:29:12Z</time>
      </trkpt>
      <trkpt lat="62.191687" lon="12.442761">
        <ele>827.842</ele>
        <time>2011-07-03T14:29:18Z</time>
      </trkpt>
      <trkpt lat="62.19169" lon="12.442813">
        <ele>827.559</ele>
        <time>2011-07-03T14:29:22Z</time>
      </trkpt>
      <trkpt lat="62.191671" lon="12.442924">
        <ele>826.89</ele>
        <time>2011-07-03T14:29:28Z</time>
      </trkpt>
      <trkpt lat="62.191646" lon="12.443065">
        <ele>826.483</ele>
        <time>2011-07-03T14:29:37Z</time>
      </trkpt>
      <trkpt lat="62.191646" lon="12.443101">
        <ele>826.268</ele>
        <time>2011-07-03T14:29:39Z</time>
      </trkpt>
      <trkpt lat="62.191632" lon="12.443229">
        <ele>824.811</ele>
        <time>2011-07-03T14:29:46Z</time>
      </trkpt>
      <trkpt lat="62.191654" lon="12.443278">
        <ele>824.421</ele>
        <time>2011-07-03T14:29:49Z</time>
      </trkpt>
      <trkpt lat="62.19168" lon="12.443376">
        <ele>824.236</ele>
        <time>2011-07-03T14:29:55Z</time>
      </trkpt>
      <trkpt lat="62.191707" lon="12.443428">
        <ele>824.463</ele>
        <time>2011-07-03T14:29:58Z</time>
      </trkpt>
      <trkpt lat="62.191759" lon="12.443578">
        <ele>824.962</ele>
        <time>2011-07-03T14:30:06Z</time>
      </trkpt>
      <trkpt lat="62.191784" lon="12.443732">
        <ele>823.937</ele>
        <time>2011-07-03T14:30:14Z</time>
      </trkpt>
      <trkpt lat="62.191796" lon="12.443793">
        <ele>823.771</ele>
        <time>2011-07-03T14:30:17Z</time>
      </trkpt>
      <trkpt lat="62.191843" lon="12.443899">
        <ele>823.849</ele>
        <time>2011-07-03T14:30:24Z</time>
      </trkpt>
      <trkpt lat="62.191854" lon="12.443927">
        <ele>823.929</ele>
        <time>2011-07-03T14:30:26Z</time>
      </trkpt>
      <trkpt lat="62.19187" lon="12.444044">
        <ele>823.259</ele>
        <time>2011-07-03T14:30:32Z</time>
      </trkpt>
      <trkpt lat="62.191875" lon="12.444081">
        <ele>822.818</ele>
        <time>2011-07-03T14:30:34Z</time>
      </trkpt>
      <trkpt lat="62.19194" lon="12.444162">
        <ele>821.557</ele>
        <time>2011-07-03T14:30:41Z</time>
      </trkpt>
      <trkpt lat="62.19204" lon="12.444211">
        <ele>820.745</ele>
        <time>2011-07-03T14:30:48Z</time>
      </trkpt>
      <trkpt lat="62.192122" lon="12.444261">
        <ele>820.537</ele>
        <time>2011-07-03T14:30:55Z</time>
      </trkpt>
      <trkpt lat="62.192207" lon="12.444275">
        <ele>820.503</ele>
        <time>2011-07-03T14:31:01Z</time>
      </trkpt>
      <trkpt lat="62.192257" lon="12.444357">
        <ele>819.456</ele>
        <time>2011-07-03T14:31:09Z</time>
      </trkpt>
      <trkpt lat="62.192282" lon="12.444397">
        <ele>818.831</ele>
        <time>2011-07-03T14:31:12Z</time>
      </trkpt>
      <trkpt lat="62.192345" lon="12.444459">
        <ele>817.931</ele>
        <time>2011-07-03T14:31:18Z</time>
      </trkpt>
      <trkpt lat="62.192419" lon="12.444551">
        <ele>816.51</ele>
        <time>2011-07-03T14:31:26Z</time>
      </trkpt>
      <trkpt lat="62.19247" lon="12.444613">
        <ele>816.715</ele>
        <time>2011-07-03T14:31:33Z</time>
      </trkpt>
      <trkpt lat="62.192486" lon="12.444691">
        <ele>817.59</ele>
        <time>2011-07-03T14:31:39Z</time>
      </trkpt>
      <trkpt lat="62.192504" lon="12.444787">
        <ele>817.141</ele>
        <time>2011-07-03T14:31:46Z</time>
      </trkpt>
      <trkpt lat="62.192515" lon="12.444818">
        <ele>816.578</ele>
        <time>2011-07-03T14:31:49Z</time>
      </trkpt>
      <trkpt lat="62.192607" lon="12.444939">
        <ele>815.598</ele>
        <time>2011-07-03T14:31:57Z</time>
      </trkpt>
      <trkpt lat="62.19266" lon="12.445037">
        <ele>816.258</ele>
        <time>2011-07-03T14:32:05Z</time>
      </trkpt>
      <trkpt lat="62.192718" lon="12.445142">
        <ele>815.745</ele>
        <time>2011-07-03T14:32:13Z</time>
      </trkpt>
      <trkpt lat="62.192732" lon="12.445175">
        <ele>815.311</ele>
        <time>2011-07-03T14:32:15Z</time>
      </trkpt>
      <trkpt lat="62.192778" lon="12.445208">
        <ele>814.628</ele>
        <time>2011-07-03T14:32:19Z</time>
      </trkpt>
      <trkpt lat="62.192838" lon="12.445282">
        <ele>814.309</ele>
        <time>2011-07-03T14:32:26Z</time>
      </trkpt>
      <trkpt lat="62.192832" lon="12.445363">
        <ele>813.755</ele>
        <time>2011-07-03T14:32:35Z</time>
      </trkpt>
      <trkpt lat="62.19286" lon="12.445438">
        <ele>813.355</ele>
        <time>2011-07-03T14:32:41Z</time>
      </trkpt>
      <trkpt lat="62.192899" lon="12.445509">
        <ele>812.632</ele>
        <time>2011-07-03T14:32:45Z</time>
      </trkpt>
      <trkpt lat="62.192915" lon="12.44567">
        <ele>811.702</ele>
        <time>2011-07-03T14:32:53Z</time>
      </trkpt>
      <trkpt lat="62.192932" lon="12.445734">
        <ele>810.308</ele>
        <time>2011-07-03T14:32:57Z</time>
      </trkpt>
      <trkpt lat="62.192988" lon="12.44581">
        <ele>808.455</ele>
        <time>2011-07-03T14:33:04Z</time>
      </trkpt>
      <trkpt lat="62.193031" lon="12.445836">
        <ele>808.309</ele>
        <time>2011-07-03T14:33:08Z</time>
      </trkpt>
      <trkpt lat="62.193122" lon="12.445936">
        <ele>807.759</ele>
        <time>2011-07-03T14:33:16Z</time>
      </trkpt>
      <trkpt lat="62.19322" lon="12.446033">
        <ele>808.026</ele>
        <time>2011-07-03T14:33:24Z</time>
      </trkpt>
      <trkpt lat="62.193249" lon="12.446055">
        <ele>807.858</ele>
        <time>2011-07-03T14:33:26Z</time>
      </trkpt>
      <trkpt lat="62.193282" lon="12.446031">
        <ele>808.246</ele>
        <time>2011-07-03T14:33:30Z</time>
      </trkpt>
      <trkpt lat="62.193313" lon="12.446046">
        <ele>808.573</ele>
        <time>2011-07-03T14:33:33Z</time>
      </trkpt>
      <trkpt lat="62.193373" lon="12.446099">
        <ele>807.773</ele>
        <time>2011-07-03T14:33:40Z</time>
      </trkpt>
      <trkpt lat="62.193402" lon="12.446119">
        <ele>807.604</ele>
        <time>2011-07-03T14:33:43Z</time>
      </trkpt>
      <trkpt lat="62.19346" lon="12.446128">
        <ele>806.636</ele>
        <time>2011-07-03T14:33:51Z</time>
      </trkpt>
      <trkpt lat="62.193481" lon="12.446141">
        <ele>806.282</ele>
        <time>2011-07-03T14:33:55Z</time>
      </trkpt>
      <trkpt lat="62.193514" lon="12.446143">
        <ele>806.091</ele>
        <time>2011-07-03T14:33:59Z</time>
      </trkpt>
      <trkpt lat="62.193562" lon="12.446195">
        <ele>805.811</ele>
        <time>2011-07-03T14:34:04Z</time>
      </trkpt>
      <trkpt lat="62.193645" lon="12.446275">
        <ele>805.508</ele>
        <time>2011-07-03T14:34:12Z</time>
      </trkpt>
      <trkpt lat="62.193695" lon="12.44632">
        <ele>805.481</ele>
        <time>2011-07-03T14:34:18Z</time>
      </trkpt>
      <trkpt lat="62.193734" lon="12.446352">
        <ele>806.113</ele>
        <time>2011-07-03T14:34:22Z</time>
      </trkpt>
      <trkpt lat="62.193797" lon="12.446407">
        <ele>806.184</ele>
        <time>2011-07-03T14:34:28Z</time>
      </trkpt>
      <trkpt lat="62.193824" lon="12.446427">
        <ele>805.936</ele>
        <time>2011-07-03T14:34:30Z</time>
      </trkpt>
      <trkpt lat="62.193907" lon="12.446502">
        <ele>805.542</ele>
        <time>2011-07-03T14:34:38Z</time>
      </trkpt>
      <trkpt lat="62.193916" lon="12.44651">
        <ele>805.388</ele>
        <time>2011-07-03T14:34:39Z</time>
      </trkpt>
      <trkpt lat="62.19393" lon="12.446508">
        <ele>805.015</ele>
        <time>2011-07-03T14:34:42Z</time>
      </trkpt>
      <trkpt lat="62.193974" lon="12.446616">
        <ele>804.702</ele>
        <time>2011-07-03T14:34:50Z</time>
      </trkpt>
      <trkpt lat="62.194031" lon="12.446639">
        <ele>804.534</ele>
        <time>2011-07-03T14:34:55Z</time>
      </trkpt>
      <trkpt lat="62.194062" lon="12.446657">
        <ele>804.328</ele>
        <time>2011-07-03T14:35:01Z</time>
      </trkpt>
      <trkpt lat="62.194081" lon="12.44674">
        <ele>804.315</ele>
        <time>2011-07-03T14:35:06Z</time>
      </trkpt>
      <trkpt lat="62.194094" lon="12.446812">
        <ele>804.05</ele>
        <time>2011-07-03T14:35:11Z</time>
      </trkpt>
      <trkpt lat="62.194106" lon="12.446836">
        <ele>803.946</ele>
        <time>2011-07-03T14:35:13Z</time>
      </trkpt>
      <trkpt lat="62.194177" lon="12.446929">
        <ele>803.155</ele>
        <time>2011-07-03T14:35:21Z</time>
      </trkpt>
      <trkpt lat="62.19421" lon="12.446997">
        <ele>802.297</ele>
        <time>2011-07-03T14:35:26Z</time>
      </trkpt>
      <trkpt lat="62.19432" lon="12.447246">
        <ele>803.154</ele>
        <time>2011-07-03T14:35:59Z</time>
      </trkpt>
      <trkpt lat="62.194333" lon="12.447315">
        <ele>803.364</ele>
        <time>2011-07-03T14:36:07Z</time>
      </trkpt>
      <trkpt lat="62.194356" lon="12.447354">
        <ele>803.661</ele>
        <time>2011-07-03T14:36:11Z</time>
      </trkpt>
      <trkpt lat="62.194382" lon="12.44738">
        <ele>804.257</ele>
        <time>2011-07-03T14:36:16Z</time>
      </trkpt>
      <trkpt lat="62.194396" lon="12.447424">
        <ele>804.883</ele>
        <time>2011-07-03T14:36:20Z</time>
      </trkpt>
      <trkpt lat="62.19441" lon="12.447505">
        <ele>804.788</ele>
        <time>2011-07-03T14:36:25Z</time>
      </trkpt>
      <trkpt lat="62.194426" lon="12.447551">
        <ele>804.639</ele>
        <time>2011-07-03T14:36:29Z</time>
      </trkpt>
      <trkpt lat="62.194445" lon="12.44758">
        <ele>804.461</ele>
        <time>2011-07-03T14:36:32Z</time>
      </trkpt>
      <trkpt lat="62.194491" lon="12.447641">
        <ele>804.325</ele>
        <time>2011-07-03T14:36:37Z</time>
      </trkpt>
      <trkpt lat="62.194526" lon="12.447702">
        <ele>804.023</ele>
        <time>2011-07-03T14:36:41Z</time>
      </trkpt>
      <trkpt lat="62.194693" lon="12.447905">
        <ele>803.832</ele>
        <time>2011-07-03T14:36:52Z</time>
      </trkpt>
      <trkpt lat="62.19484" lon="12.448053">
        <ele>804.043</ele>
        <time>2011-07-03T14:37:01Z</time>
      </trkpt>
      <trkpt lat="62.194888" lon="12.44818">
        <ele>804.148</ele>
        <time>2011-07-03T14:37:07Z</time>
      </trkpt>
      <trkpt lat="62.19492" lon="12.448216">
        <ele>804.239</ele>
        <time>2011-07-03T14:37:09Z</time>
      </trkpt>
      <trkpt lat="62.194967" lon="12.448222">
        <ele>804.389</ele>
        <time>2011-07-03T14:37:13Z</time>
      </trkpt>
      <trkpt lat="62.195028" lon="12.448232">
        <ele>804.643</ele>
        <time>2011-07-03T14:37:19Z</time>
      </trkpt>
      <trkpt lat="62.195076" lon="12.448217">
        <ele>804.855</ele>
        <time>2011-07-03T14:37:24Z</time>
      </trkpt>
      <trkpt lat="62.19515" lon="12.448199">
        <ele>805.368</ele>
        <time>2011-07-03T14:37:30Z</time>
      </trkpt>
      <trkpt lat="62.195219" lon="12.448232">
        <ele>806.161</ele>
        <time>2011-07-03T14:37:35Z</time>
      </trkpt>
      <trkpt lat="62.195304" lon="12.448265">
        <ele>806.744</ele>
        <time>2011-07-03T14:37:40Z</time>
      </trkpt>
      <trkpt lat="62.195458" lon="12.448354">
        <ele>808.245</ele>
        <time>2011-07-03T14:37:51Z</time>
      </trkpt>
      <trkpt lat="62.195587" lon="12.448435">
        <ele>809.784</ele>
        <time>2011-07-03T14:38:00Z</time>
      </trkpt>
      <trkpt lat="62.195723" lon="12.448551">
        <ele>810.798</ele>
        <time>2011-07-03T14:38:07Z</time>
      </trkpt>
      <trkpt lat="62.195869" lon="12.448575">
        <ele>811.729</ele>
        <time>2011-07-03T14:38:14Z</time>
      </trkpt>
      <trkpt lat="62.196029" lon="12.448602">
        <ele>813.034</ele>
        <time>2011-07-03T14:38:21Z</time>
      </trkpt>
      <trkpt lat="62.196081" lon="12.448582">
        <ele>813.474</ele>
        <time>2011-07-03T14:38:24Z</time>
      </trkpt>
      <trkpt lat="62.196191" lon="12.448523">
        <ele>814.196</ele>
        <time>2011-07-03T14:38:31Z</time>
      </trkpt>
      <trkpt lat="62.196304" lon="12.448468">
        <ele>814.709</ele>
        <time>2011-07-03T14:38:39Z</time>
      </trkpt>
      <trkpt lat="62.196386" lon="12.448439">
        <ele>815.095</ele>
        <time>2011-07-03T14:38:46Z</time>
      </trkpt>
      <trkpt lat="62.196472" lon="12.448462">
        <ele>815.838</ele>
        <time>2011-07-03T14:38:54Z</time>
      </trkpt>
      <trkpt lat="62.196485" lon="12.448459">
        <ele>816.043</ele>
        <time>2011-07-03T14:38:55Z</time>
      </trkpt>
      <trkpt lat="62.196541" lon="12.448578">
        <ele>816.255</ele>
        <time>2011-07-03T14:39:02Z</time>
      </trkpt>
      <trkpt lat="62.196627" lon="12.44859">
        <ele>816.087</ele>
        <time>2011-07-03T14:39:08Z</time>
      </trkpt>
      <trkpt lat="62.196691" lon="12.44875">
        <ele>816.452</ele>
        <time>2011-07-03T14:39:16Z</time>
      </trkpt>
      <trkpt lat="62.196733" lon="12.448773">
        <ele>816.681</ele>
        <time>2011-07-03T14:39:19Z</time>
      </trkpt>
      <trkpt lat="62.19682" lon="12.448864">
        <ele>817.752</ele>
        <time>2011-07-03T14:39:27Z</time>
      </trkpt>
      <trkpt lat="62.196882" lon="12.448914">
        <ele>818.472</ele>
        <time>2011-07-03T14:39:33Z</time>
      </trkpt>
      <trkpt lat="62.196968" lon="12.44897">
        <ele>818.727</ele>
        <time>2011-07-03T14:39:41Z</time>
      </trkpt>
      <trkpt lat="62.197038" lon="12.449039">
        <ele>818.344</ele>
        <time>2011-07-03T14:39:47Z</time>
      </trkpt>
      <trkpt lat="62.197062" lon="12.449046">
        <ele>818.716</ele>
        <time>2011-07-03T14:39:49Z</time>
      </trkpt>
      <trkpt lat="62.197171" lon="12.449098">
        <ele>818.945</ele>
        <time>2011-07-03T14:39:58Z</time>
      </trkpt>
      <trkpt lat="62.197236" lon="12.449092">
        <ele>819.075</ele>
        <time>2011-07-03T14:40:04Z</time>
      </trkpt>
      <trkpt lat="62.197273" lon="12.4491">
        <ele>818.899</ele>
        <time>2011-07-03T14:40:09Z</time>
      </trkpt>
      <trkpt lat="62.197293" lon="12.449099">
        <ele>819.047</ele>
        <time>2011-07-03T14:40:12Z</time>
      </trkpt>
      <trkpt lat="62.197354" lon="12.449169">
        <ele>818.746</ele>
        <time>2011-07-03T14:40:20Z</time>
      </trkpt>
      <trkpt lat="62.197383" lon="12.449221">
        <ele>818.51</ele>
        <time>2011-07-03T14:40:25Z</time>
      </trkpt>
      <trkpt lat="62.197426" lon="12.449307">
        <ele>818.136</ele>
        <time>2011-07-03T14:40:29Z</time>
      </trkpt>
      <trkpt lat="62.1975" lon="12.449425">
        <ele>818.909</ele>
        <time>2011-07-03T14:40:38Z</time>
      </trkpt>
      <trkpt lat="62.197585" lon="12.449457">
        <ele>819.706</ele>
        <time>2011-07-03T14:40:46Z</time>
      </trkpt>
      <trkpt lat="62.197629" lon="12.449493">
        <ele>819.97</ele>
        <time>2011-07-03T14:40:52Z</time>
      </trkpt>
      <trkpt lat="62.197641" lon="12.449503">
        <ele>819.965</ele>
        <time>2011-07-03T14:40:53Z</time>
      </trkpt>
      <trkpt lat="62.197671" lon="12.449603">
        <ele>819.8</ele>
        <time>2011-07-03T14:40:59Z</time>
      </trkpt>
      <trkpt lat="62.197699" lon="12.449659">
        <ele>819.953</ele>
        <time>2011-07-03T14:41:05Z</time>
      </trkpt>
      <trkpt lat="62.197743" lon="12.449739">
        <ele>820.308</ele>
        <time>2011-07-03T14:41:13Z</time>
      </trkpt>
      <trkpt lat="62.197746" lon="12.449775">
        <ele>820.158</ele>
        <time>2011-07-03T14:41:16Z</time>
      </trkpt>
      <trkpt lat="62.197745" lon="12.449807">
        <ele>819.979</ele>
        <time>2011-07-03T14:41:18Z</time>
      </trkpt>
      <trkpt lat="62.197761" lon="12.449858">
        <ele>819.479</ele>
        <time>2011-07-03T14:41:23Z</time>
      </trkpt>
      <trkpt lat="62.197774" lon="12.449917">
        <ele>819.466</ele>
        <time>2011-07-03T14:41:27Z</time>
      </trkpt>
      <trkpt lat="62.197788" lon="12.449925">
        <ele>819.531</ele>
        <time>2011-07-03T14:41:29Z</time>
      </trkpt>
      <trkpt lat="62.197907" lon="12.449926">
        <ele>819.776</ele>
        <time>2011-07-03T14:41:37Z</time>
      </trkpt>
      <trkpt lat="62.197956" lon="12.449942">
        <ele>820.969</ele>
        <time>2011-07-03T14:41:42Z</time>
      </trkpt>
      <trkpt lat="62.197989" lon="12.449933">
        <ele>821.182</ele>
        <time>2011-07-03T14:41:45Z</time>
      </trkpt>
      <trkpt lat="62.198019" lon="12.449918">
        <ele>821.601</ele>
        <time>2011-07-03T14:41:48Z</time>
      </trkpt>
      <trkpt lat="62.19809" lon="12.449829">
        <ele>822.854</ele>
        <time>2011-07-03T14:41:57Z</time>
      </trkpt>
      <trkpt lat="62.198134" lon="12.449819">
        <ele>823.731</ele>
        <time>2011-07-03T14:42:03Z</time>
      </trkpt>
      <trkpt lat="62.198162" lon="12.449787">
        <ele>824.152</ele>
        <time>2011-07-03T14:42:06Z</time>
      </trkpt>
      <trkpt lat="62.19824" lon="12.449712">
        <ele>824.945</ele>
        <time>2011-07-03T14:42:14Z</time>
      </trkpt>
      <trkpt lat="62.198313" lon="12.449618">
        <ele>826.057</ele>
        <time>2011-07-03T14:42:20Z</time>
      </trkpt>
      <trkpt lat="62.198388" lon="12.449618">
        <ele>826.753</ele>
        <time>2011-07-03T14:42:27Z</time>
      </trkpt>
      <trkpt lat="62.198412" lon="12.449601">
        <ele>826.967</ele>
        <time>2011-07-03T14:42:29Z</time>
      </trkpt>
      <trkpt lat="62.198467" lon="12.449606">
        <ele>827.818</ele>
        <time>2011-07-03T14:42:34Z</time>
      </trkpt>
      <trkpt lat="62.198597" lon="12.449604">
        <ele>829.372</ele>
        <time>2011-07-03T14:42:44Z</time>
      </trkpt>
      <trkpt lat="62.198707" lon="12.449576">
        <ele>830.559</ele>
        <time>2011-07-03T14:42:53Z</time>
      </trkpt>
      <trkpt lat="62.198806" lon="12.449556">
        <ele>831.338</ele>
        <time>2011-07-03T14:43:00Z</time>
      </trkpt>
      <trkpt lat="62.198956" lon="12.44953">
        <ele>832.166</ele>
        <time>2011-07-03T14:43:08Z</time>
      </trkpt>
      <trkpt lat="62.199085" lon="12.449546">
        <ele>833.685</ele>
        <time>2011-07-03T14:43:15Z</time>
      </trkpt>
      <trkpt lat="62.1991" lon="12.449539">
        <ele>833.86</ele>
        <time>2011-07-03T14:43:16Z</time>
      </trkpt>
      <trkpt lat="62.199168" lon="12.449568">
        <ele>835.214</ele>
        <time>2011-07-03T14:43:20Z</time>
      </trkpt>
      <trkpt lat="62.199242" lon="12.449554">
        <ele>835.818</ele>
        <time>2011-07-03T14:43:24Z</time>
      </trkpt>
      <trkpt lat="62.19936" lon="12.449562">
        <ele>836.204</ele>
        <time>2011-07-03T14:43:30Z</time>
      </trkpt>
      <trkpt lat="62.199398" lon="12.449542">
        <ele>836.412</ele>
        <time>2011-07-03T14:43:32Z</time>
      </trkpt>
      <trkpt lat="62.199507" lon="12.449513">
        <ele>836.516</ele>
        <time>2011-07-03T14:43:38Z</time>
      </trkpt>
      <trkpt lat="62.19959" lon="12.449414">
        <ele>837.401</ele>
        <time>2011-07-03T14:43:44Z</time>
      </trkpt>
      <trkpt lat="62.199699" lon="12.449372">
        <ele>838.682</ele>
        <time>2011-07-03T14:43:51Z</time>
      </trkpt>
      <trkpt lat="62.199713" lon="12.44936">
        <ele>838.884</ele>
        <time>2011-07-03T14:43:52Z</time>
      </trkpt>
      <trkpt lat="62.199811" lon="12.449291">
        <ele>839.949</ele>
        <time>2011-07-03T14:44:00Z</time>
      </trkpt>
      <trkpt lat="62.199904" lon="12.449282">
        <ele>840.851</ele>
        <time>2011-07-03T14:44:08Z</time>
      </trkpt>
      <trkpt lat="62.199954" lon="12.449299">
        <ele>840.759</ele>
        <time>2011-07-03T14:44:12Z</time>
      </trkpt>
      <trkpt lat="62.200025" lon="12.449234">
        <ele>841.138</ele>
        <time>2011-07-03T14:44:19Z</time>
      </trkpt>
      <trkpt lat="62.200088" lon="12.449182">
        <ele>842.063</ele>
        <time>2011-07-03T14:44:25Z</time>
      </trkpt>
      <trkpt lat="62.20018" lon="12.449138">
        <ele>842.288</ele>
        <time>2011-07-03T14:44:33Z</time>
      </trkpt>
      <trkpt lat="62.200201" lon="12.449144">
        <ele>842.415</ele>
        <time>2011-07-03T14:44:35Z</time>
      </trkpt>
      <trkpt lat="62.200268" lon="12.449101">
        <ele>842.3</ele>
        <time>2011-07-03T14:44:42Z</time>
      </trkpt>
      <trkpt lat="62.20028" lon="12.449091">
        <ele>842.412</ele>
        <time>2011-07-03T14:44:44Z</time>
      </trkpt>
      <trkpt lat="62.200341" lon="12.449088">
        <ele>842.588</ele>
        <time>2011-07-03T14:44:53Z</time>
      </trkpt>
      <trkpt lat="62.200414" lon="12.449053">
        <ele>842.95</ele>
        <time>2011-07-03T14:44:59Z</time>
      </trkpt>
      <trkpt lat="62.200474" lon="12.44906">
        <ele>843.672</ele>
        <time>2011-07-03T14:45:04Z</time>
      </trkpt>
      <trkpt lat="62.200563" lon="12.449006">
        <ele>845.025</ele>
        <time>2011-07-03T14:45:12Z</time>
      </trkpt>
      <trkpt lat="62.200648" lon="12.448956">
        <ele>846.086</ele>
        <time>2011-07-03T14:45:19Z</time>
      </trkpt>
      <trkpt lat="62.200735" lon="12.448911">
        <ele>846.554</ele>
        <time>2011-07-03T14:45:26Z</time>
      </trkpt>
      <trkpt lat="62.200817" lon="12.448865">
        <ele>847.719</ele>
        <time>2011-07-03T14:45:33Z</time>
      </trkpt>
      <trkpt lat="62.200927" lon="12.448806">
        <ele>848.969</ele>
        <time>2011-07-03T14:45:42Z</time>
      </trkpt>
      <trkpt lat="62.200966" lon="12.448781">
        <ele>849.494</ele>
        <time>2011-07-03T14:45:46Z</time>
      </trkpt>
      <trkpt lat="62.201006" lon="12.448774">
        <ele>850.179</ele>
        <time>2011-07-03T14:45:50Z</time>
      </trkpt>
      <trkpt lat="62.201075" lon="12.448738">
        <ele>851.197</ele>
        <time>2011-07-03T14:45:57Z</time>
      </trkpt>
      <trkpt lat="62.20118" lon="12.448684">
        <ele>852.477</ele>
        <time>2011-07-03T14:46:06Z</time>
      </trkpt>
      <trkpt lat="62.20126" lon="12.448652">
        <ele>852.884</ele>
        <time>2011-07-03T14:46:14Z</time>
      </trkpt>
      <trkpt lat="62.201262" lon="12.44865">
        <ele>853.031</ele>
        <time>2011-07-03T14:46:16Z</time>
      </trkpt>
      <trkpt lat="62.201361" lon="12.448624">
        <ele>853.241</ele>
        <time>2011-07-03T14:46:26Z</time>
      </trkpt>
      <trkpt lat="62.201482" lon="12.448628">
        <ele>853.439</ele>
        <time>2011-07-03T14:46:36Z</time>
      </trkpt>
      <trkpt lat="62.201568" lon="12.448577">
        <ele>853.919</ele>
        <time>2011-07-03T14:46:45Z</time>
      </trkpt>
      <trkpt lat="62.201656" lon="12.448507">
        <ele>854.205</ele>
        <time>2011-07-03T14:46:50Z</time>
      </trkpt>
      <trkpt lat="62.201733" lon="12.448425">
        <ele>855.071</ele>
        <time>2011-07-03T14:46:56Z</time>
      </trkpt>
      <trkpt lat="62.201732" lon="12.448426">
        <ele>855.211</ele>
        <time>2011-07-03T14:46:57Z</time>
      </trkpt>
      <trkpt lat="62.201818" lon="12.448381">
        <ele>855.166</ele>
        <time>2011-07-03T14:47:13Z</time>
      </trkpt>
      <trkpt lat="62.201905" lon="12.448328">
        <ele>854.898</ele>
        <time>2011-07-03T14:47:21Z</time>
      </trkpt>
      <trkpt lat="62.201926" lon="12.448315">
        <ele>855.054</ele>
        <time>2011-07-03T14:47:23Z</time>
      </trkpt>
      <trkpt lat="62.202044" lon="12.448306">
        <ele>855.367</ele>
        <time>2011-07-03T14:47:33Z</time>
      </trkpt>
      <trkpt lat="62.202164" lon="12.448299">
        <ele>854.86</ele>
        <time>2011-07-03T14:47:42Z</time>
      </trkpt>
      <trkpt lat="62.202255" lon="12.448423">
        <ele>854.158</ele>
        <time>2011-07-03T14:47:50Z</time>
      </trkpt>
      <trkpt lat="62.202329" lon="12.448457">
        <ele>853.152</ele>
        <time>2011-07-03T14:47:57Z</time>
      </trkpt>
      <trkpt lat="62.202459" lon="12.448385">
        <ele>853.12</ele>
        <time>2011-07-03T14:48:07Z</time>
      </trkpt>
      <trkpt lat="62.202589" lon="12.44831">
        <ele>854.052</ele>
        <time>2011-07-03T14:48:14Z</time>
      </trkpt>
      <trkpt lat="62.202763" lon="12.448215">
        <ele>855.273</ele>
        <time>2011-07-03T14:48:22Z</time>
      </trkpt>
      <trkpt lat="62.202982" lon="12.44811">
        <ele>856.228</ele>
        <time>2011-07-03T14:48:32Z</time>
      </trkpt>
      <trkpt lat="62.203187" lon="12.448024">
        <ele>857.113</ele>
        <time>2011-07-03T14:48:42Z</time>
      </trkpt>
      <trkpt lat="62.203399" lon="12.447922">
        <ele>858.164</ele>
        <time>2011-07-03T14:48:52Z</time>
      </trkpt>
      <trkpt lat="62.203615" lon="12.447808">
        <ele>860.013</ele>
        <time>2011-07-03T14:49:03Z</time>
      </trkpt>
      <trkpt lat="62.203778" lon="12.447722">
        <ele>860.948</ele>
        <time>2011-07-03T14:49:11Z</time>
      </trkpt>
      <trkpt lat="62.20393" lon="12.447654">
        <ele>862.439</ele>
        <time>2011-07-03T14:49:19Z</time>
      </trkpt>
      <trkpt lat="62.204128" lon="12.447568">
        <ele>864.408</ele>
        <time>2011-07-03T14:49:29Z</time>
      </trkpt>
      <trkpt lat="62.204332" lon="12.447481">
        <ele>865.743</ele>
        <time>2011-07-03T14:49:39Z</time>
      </trkpt>
      <trkpt lat="62.204534" lon="12.447385">
        <ele>866.618</ele>
        <time>2011-07-03T14:49:49Z</time>
      </trkpt>
      <trkpt lat="62.20473" lon="12.447279">
        <ele>867.997</ele>
        <time>2011-07-03T14:49:59Z</time>
      </trkpt>
      <trkpt lat="62.204934" lon="12.447181">
        <ele>870.331</ele>
        <time>2011-07-03T14:50:10Z</time>
      </trkpt>
      <trkpt lat="62.205089" lon="12.447095">
        <ele>872.109</ele>
        <time>2011-07-03T14:50:21Z</time>
      </trkpt>
      <trkpt lat="62.205255" lon="12.447036">
        <ele>873.456</ele>
        <time>2011-07-03T14:50:32Z</time>
      </trkpt>
      <trkpt lat="62.205465" lon="12.446957">
        <ele>874.509</ele>
        <time>2011-07-03T14:50:42Z</time>
      </trkpt>
      <trkpt lat="62.205636" lon="12.446888">
        <ele>875.418</ele>
        <time>2011-07-03T14:50:50Z</time>
      </trkpt>
      <trkpt lat="62.205858" lon="12.446759">
        <ele>876.474</ele>
        <time>2011-07-03T14:51:00Z</time>
      </trkpt>
      <trkpt lat="62.206048" lon="12.446665">
        <ele>877.89</ele>
        <time>2011-07-03T14:51:09Z</time>
      </trkpt>
      <trkpt lat="62.206233" lon="12.446556">
        <ele>879.385</ele>
        <time>2011-07-03T14:51:18Z</time>
      </trkpt>
      <trkpt lat="62.206461" lon="12.446465">
        <ele>880.475</ele>
        <time>2011-07-03T14:51:29Z</time>
      </trkpt>
      <trkpt lat="62.206597" lon="12.446396">
        <ele>881.571</ele>
        <time>2011-07-03T14:51:37Z</time>
      </trkpt>
      <trkpt lat="62.206742" lon="12.446357">
        <ele>883.088</ele>
        <time>2011-07-03T14:51:47Z</time>
      </trkpt>
      <trkpt lat="62.20688" lon="12.446316">
        <ele>884.724</ele>
        <time>2011-07-03T14:51:57Z</time>
      </trkpt>
      <trkpt lat="62.207015" lon="12.446239">
        <ele>886.84</ele>
        <time>2011-07-03T14:52:07Z</time>
      </trkpt>
      <trkpt lat="62.207107" lon="12.44613">
        <ele>887.807</ele>
        <time>2011-07-03T14:52:14Z</time>
      </trkpt>
      <trkpt lat="62.207223" lon="12.446025">
        <ele>889.295</ele>
        <time>2011-07-03T14:52:22Z</time>
      </trkpt>
      <trkpt lat="62.207323" lon="12.44591">
        <ele>890.357</ele>
        <time>2011-07-03T14:52:30Z</time>
      </trkpt>
      <trkpt lat="62.207358" lon="12.445871">
        <ele>890.307</ele>
        <time>2011-07-03T14:52:33Z</time>
      </trkpt>
      <trkpt lat="62.207425" lon="12.445835">
        <ele>890.297</ele>
        <time>2011-07-03T14:52:38Z</time>
      </trkpt>
      <trkpt lat="62.2075" lon="12.445799">
        <ele>891.242</ele>
        <time>2011-07-03T14:52:45Z</time>
      </trkpt>
      <trkpt lat="62.207558" lon="12.445844">
        <ele>891.614</ele>
        <time>2011-07-03T14:52:51Z</time>
      </trkpt>
      <trkpt lat="62.207607" lon="12.445826">
        <ele>891.75</ele>
        <time>2011-07-03T14:52:54Z</time>
      </trkpt>
      <trkpt lat="62.207654" lon="12.44575">
        <ele>892.168</ele>
        <time>2011-07-03T14:52:57Z</time>
      </trkpt>
      <trkpt lat="62.20779" lon="12.44562">
        <ele>893.519</ele>
        <time>2011-07-03T14:53:04Z</time>
      </trkpt>
      <trkpt lat="62.207896" lon="12.445559">
        <ele>894.483</ele>
        <time>2011-07-03T14:53:09Z</time>
      </trkpt>
      <trkpt lat="62.207949" lon="12.445557">
        <ele>894.978</ele>
        <time>2011-07-03T14:53:12Z</time>
      </trkpt>
      <trkpt lat="62.208049" lon="12.445458">
        <ele>895.457</ele>
        <time>2011-07-03T14:53:20Z</time>
      </trkpt>
      <trkpt lat="62.208113" lon="12.445414">
        <ele>895.826</ele>
        <time>2011-07-03T14:53:26Z</time>
      </trkpt>
      <trkpt lat="62.208196" lon="12.445389">
        <ele>896.221</ele>
        <time>2011-07-03T14:53:33Z</time>
      </trkpt>
      <trkpt lat="62.208277" lon="12.445386">
        <ele>896.619</ele>
        <time>2011-07-03T14:53:40Z</time>
      </trkpt>
      <trkpt lat="62.208321" lon="12.445305">
        <ele>896.893</ele>
        <time>2011-07-03T14:53:44Z</time>
      </trkpt>
      <trkpt lat="62.208366" lon="12.445264">
        <ele>897.188</ele>
        <time>2011-07-03T14:53:48Z</time>
      </trkpt>
      <trkpt lat="62.208444" lon="12.445139">
        <ele>898.618</ele>
        <time>2011-07-03T14:53:56Z</time>
      </trkpt>
      <trkpt lat="62.208491" lon="12.445125">
        <ele>899.025</ele>
        <time>2011-07-03T14:54:00Z</time>
      </trkpt>
      <trkpt lat="62.208586" lon="12.445034">
        <ele>899.773</ele>
        <time>2011-07-03T14:54:09Z</time>
      </trkpt>
      <trkpt lat="62.20867" lon="12.444976">
        <ele>900.158</ele>
        <time>2011-07-03T14:54:16Z</time>
      </trkpt>
      <trkpt lat="62.208751" lon="12.444958">
        <ele>900.686</ele>
        <time>2011-07-03T14:54:22Z</time>
      </trkpt>
      <trkpt lat="62.208769" lon="12.444964">
        <ele>900.814</ele>
        <time>2011-07-03T14:54:23Z</time>
      </trkpt>
      <trkpt lat="62.208895" lon="12.444913">
        <ele>901.122</ele>
        <time>2011-07-03T14:54:29Z</time>
      </trkpt>
      <trkpt lat="62.209081" lon="12.445041">
        <ele>901.331</ele>
        <time>2011-07-03T14:54:37Z</time>
      </trkpt>
      <trkpt lat="62.209122" lon="12.445107">
        <ele>901.434</ele>
        <time>2011-07-03T14:54:39Z</time>
      </trkpt>
      <trkpt lat="62.209297" lon="12.445107">
        <ele>902.036</ele>
        <time>2011-07-03T14:54:47Z</time>
      </trkpt>
      <trkpt lat="62.209408" lon="12.445139">
        <ele>902.996</ele>
        <time>2011-07-03T14:54:52Z</time>
      </trkpt>
      <trkpt lat="62.209506" lon="12.445114">
        <ele>903.545</ele>
        <time>2011-07-03T14:54:57Z</time>
      </trkpt>
      <trkpt lat="62.209657" lon="12.445036">
        <ele>904.391</ele>
        <time>2011-07-03T14:55:04Z</time>
      </trkpt>
      <trkpt lat="62.209771" lon="12.445017">
        <ele>904.901</ele>
        <time>2011-07-03T14:55:09Z</time>
      </trkpt>
      <trkpt lat="62.209812" lon="12.444979">
        <ele>905.409</ele>
        <time>2011-07-03T14:55:11Z</time>
      </trkpt>
      <trkpt lat="62.209927" lon="12.444988">
        <ele>905.297</ele>
        <time>2011-07-03T14:55:17Z</time>
      </trkpt>
      <trkpt lat="62.210023" lon="12.444961">
        <ele>905.895</ele>
        <time>2011-07-03T14:55:22Z</time>
      </trkpt>
      <trkpt lat="62.210122" lon="12.444945">
        <ele>906.163</ele>
        <time>2011-07-03T14:55:27Z</time>
      </trkpt>
      <trkpt lat="62.210303" lon="12.445014">
        <ele>906.119</ele>
        <time>2011-07-03T14:55:35Z</time>
      </trkpt>
      <trkpt lat="62.21044" lon="12.444994">
        <ele>905.903</ele>
        <time>2011-07-03T14:55:41Z</time>
      </trkpt>
      <trkpt lat="62.210534" lon="12.444962">
        <ele>905.76</ele>
        <time>2011-07-03T14:55:47Z</time>
      </trkpt>
      <trkpt lat="62.210571" lon="12.444941">
        <ele>906.063</ele>
        <time>2011-07-03T14:55:50Z</time>
      </trkpt>
      <trkpt lat="62.210689" lon="12.44491">
        <ele>906.545</ele>
        <time>2011-07-03T14:55:59Z</time>
      </trkpt>
      <trkpt lat="62.210765" lon="12.444892">
        <ele>906.768</ele>
        <time>2011-07-03T14:56:06Z</time>
      </trkpt>
      <trkpt lat="62.210839" lon="12.444927">
        <ele>906.564</ele>
        <time>2011-07-03T14:56:11Z</time>
      </trkpt>
      <trkpt lat="62.210994" lon="12.444982">
        <ele>906.671</ele>
        <time>2011-07-03T14:56:18Z</time>
      </trkpt>
      <trkpt lat="62.211137" lon="12.44498">
        <ele>907.094</ele>
        <time>2011-07-03T14:56:24Z</time>
      </trkpt>
      <trkpt lat="62.211272" lon="12.445026">
        <ele>907.532</ele>
        <time>2011-07-03T14:56:30Z</time>
      </trkpt>
      <trkpt lat="62.211409" lon="12.445126">
        <ele>907.688</ele>
        <time>2011-07-03T14:56:36Z</time>
      </trkpt>
      <trkpt lat="62.211513" lon="12.445201">
        <ele>907.397</ele>
        <time>2011-07-03T14:56:41Z</time>
      </trkpt>
      <trkpt lat="62.211635" lon="12.445313">
        <ele>907.969</ele>
        <time>2011-07-03T14:56:47Z</time>
      </trkpt>
      <trkpt lat="62.211725" lon="12.445434">
        <ele>907.835</ele>
        <time>2011-07-03T14:56:52Z</time>
      </trkpt>
      <trkpt lat="62.211853" lon="12.445615">
        <ele>908.025</ele>
        <time>2011-07-03T14:56:59Z</time>
      </trkpt>
      <trkpt lat="62.211933" lon="12.445752">
        <ele>908.544</ele>
        <time>2011-07-03T14:57:04Z</time>
      </trkpt>
      <trkpt lat="62.211986" lon="12.44587">
        <ele>909.123</ele>
        <time>2011-07-03T14:57:10Z</time>
      </trkpt>
      <trkpt lat="62.212054" lon="12.446">
        <ele>909.327</ele>
        <time>2011-07-03T14:57:18Z</time>
      </trkpt>
      <trkpt lat="62.212103" lon="12.446165">
        <ele>909.657</ele>
        <time>2011-07-03T14:57:26Z</time>
      </trkpt>
      <trkpt lat="62.212139" lon="12.446211">
        <ele>910.268</ele>
        <time>2011-07-03T14:57:30Z</time>
      </trkpt>
      <trkpt lat="62.212165" lon="12.446273">
        <ele>910.332</ele>
        <time>2011-07-03T14:57:34Z</time>
      </trkpt>
      <trkpt lat="62.212203" lon="12.446309">
        <ele>910.845</ele>
        <time>2011-07-03T14:57:38Z</time>
      </trkpt>
      <trkpt lat="62.212331" lon="12.446501">
        <ele>924.308</ele>
        <time>2011-07-03T15:21:21Z</time>
      </trkpt>
      <trkpt lat="62.212336" lon="12.446506">
        <ele>924.296</ele>
        <time>2011-07-03T15:21:22Z</time>
      </trkpt>
      <trkpt lat="62.212345" lon="12.446522">
        <ele>924.376</ele>
        <time>2011-07-03T15:21:25Z</time>
      </trkpt>
      <trkpt lat="62.212366" lon="12.446632">
        <ele>924.135</ele>
        <time>2011-07-03T15:21:37Z</time>
      </trkpt>
      <trkpt lat="62.212377" lon="12.446717">
        <ele>923.391</ele>
        <time>2011-07-03T15:21:41Z</time>
      </trkpt>
      <trkpt lat="62.212374" lon="12.446917">
        <ele>921.957</ele>
        <time>2011-07-03T15:21:48Z</time>
      </trkpt>
      <trkpt lat="62.212398" lon="12.447136">
        <ele>922.108</ele>
        <time>2011-07-03T15:21:57Z</time>
      </trkpt>
      <trkpt lat="62.212412" lon="12.447271">
        <ele>922.616</ele>
        <time>2011-07-03T15:22:03Z</time>
      </trkpt>
      <trkpt lat="62.21242" lon="12.447371">
        <ele>922.899</ele>
        <time>2011-07-03T15:22:07Z</time>
      </trkpt>
      <trkpt lat="62.212468" lon="12.447511">
        <ele>923.609</ele>
        <time>2011-07-03T15:22:14Z</time>
      </trkpt>
      <trkpt lat="62.212491" lon="12.447664">
        <ele>924.18</ele>
        <time>2011-07-03T15:22:20Z</time>
      </trkpt>
      <trkpt lat="62.212527" lon="12.447876">
        <ele>925.01</ele>
        <time>2011-07-03T15:22:29Z</time>
      </trkpt>
      <trkpt lat="62.212571" lon="12.448054">
        <ele>926.392</ele>
        <time>2011-07-03T15:22:37Z</time>
      </trkpt>
      <trkpt lat="62.21262" lon="12.44823">
        <ele>927.136</ele>
        <time>2011-07-03T15:22:44Z</time>
      </trkpt>
      <trkpt lat="62.212652" lon="12.448475">
        <ele>928.694</ele>
        <time>2011-07-03T15:22:54Z</time>
      </trkpt>
      <trkpt lat="62.212712" lon="12.448678">
        <ele>929.768</ele>
        <time>2011-07-03T15:23:03Z</time>
      </trkpt>
      <trkpt lat="62.212797" lon="12.448905">
        <ele>929.692</ele>
        <time>2011-07-03T15:23:13Z</time>
      </trkpt>
      <trkpt lat="62.212846" lon="12.449086">
        <ele>929.49</ele>
        <time>2011-07-03T15:23:20Z</time>
      </trkpt>
      <trkpt lat="62.212885" lon="12.449247">
        <ele>930.454</ele>
        <time>2011-07-03T15:23:27Z</time>
      </trkpt>
      <trkpt lat="62.212925" lon="12.44941">
        <ele>931.118</ele>
        <time>2011-07-03T15:23:34Z</time>
      </trkpt>
      <trkpt lat="62.212949" lon="12.449541">
        <ele>931.84</ele>
        <time>2011-07-03T15:23:40Z</time>
      </trkpt>
      <trkpt lat="62.21299" lon="12.449759">
        <ele>932.446</ele>
        <time>2011-07-03T15:23:49Z</time>
      </trkpt>
      <trkpt lat="62.213069" lon="12.449954">
        <ele>932.215</ele>
        <time>2011-07-03T15:23:59Z</time>
      </trkpt>
      <trkpt lat="62.213152" lon="12.450252">
        <ele>931.383</ele>
        <time>2011-07-03T15:24:11Z</time>
      </trkpt>
      <trkpt lat="62.213209" lon="12.450426">
        <ele>930.952</ele>
        <time>2011-07-03T15:24:19Z</time>
      </trkpt>
      <trkpt lat="62.213223" lon="12.450468">
        <ele>930.29</ele>
        <time>2011-07-03T15:24:23Z</time>
      </trkpt>
      <trkpt lat="62.213233" lon="12.450565">
        <ele>930.63</ele>
        <time>2011-07-03T15:24:53Z</time>
      </trkpt>
      <trkpt lat="62.213269" lon="12.45079">
        <ele>930.54</ele>
        <time>2011-07-03T15:25:01Z</time>
      </trkpt>
      <trkpt lat="62.213325" lon="12.45099">
        <ele>931.142</ele>
        <time>2011-07-03T15:25:09Z</time>
      </trkpt>
      <trkpt lat="62.213392" lon="12.451177">
        <ele>931.109</ele>
        <time>2011-07-03T15:25:17Z</time>
      </trkpt>
      <trkpt lat="62.213469" lon="12.451392">
        <ele>930.981</ele>
        <time>2011-07-03T15:25:26Z</time>
      </trkpt>
      <trkpt lat="62.21352" lon="12.451663">
        <ele>930.913</ele>
        <time>2011-07-03T15:25:33Z</time>
      </trkpt>
      <trkpt lat="62.213525" lon="12.451777">
        <ele>930.258</ele>
        <time>2011-07-03T15:25:35Z</time>
      </trkpt>
      <trkpt lat="62.213593" lon="12.452099">
        <ele>929.861</ele>
        <time>2011-07-03T15:25:42Z</time>
      </trkpt>
      <trkpt lat="62.213652" lon="12.45231">
        <ele>929.823</ele>
        <time>2011-07-03T15:25:49Z</time>
      </trkpt>
      <trkpt lat="62.213716" lon="12.452493">
        <ele>929.087</ele>
        <time>2011-07-03T15:25:57Z</time>
      </trkpt>
      <trkpt lat="62.213741" lon="12.452546">
        <ele>928.798</ele>
        <time>2011-07-03T15:26:00Z</time>
      </trkpt>
      <trkpt lat="62.213758" lon="12.452677">
        <ele>928.1</ele>
        <time>2011-07-03T15:26:05Z</time>
      </trkpt>
      <trkpt lat="62.213773" lon="12.452921">
        <ele>928.521</ele>
        <time>2011-07-03T15:26:13Z</time>
      </trkpt>
      <trkpt lat="62.213811" lon="12.453152">
        <ele>928.676</ele>
        <time>2011-07-03T15:26:21Z</time>
      </trkpt>
      <trkpt lat="62.213837" lon="12.453275">
        <ele>928.626</ele>
        <time>2011-07-03T15:26:26Z</time>
      </trkpt>
      <trkpt lat="62.213869" lon="12.4535">
        <ele>929.048</ele>
        <time>2011-07-03T15:26:35Z</time>
      </trkpt>
      <trkpt lat="62.213897" lon="12.453722">
        <ele>929.145</ele>
        <time>2011-07-03T15:26:43Z</time>
      </trkpt>
      <trkpt lat="62.213933" lon="12.453913">
        <ele>928.502</ele>
        <time>2011-07-03T15:26:50Z</time>
      </trkpt>
      <trkpt lat="62.213964" lon="12.454084">
        <ele>928.08</ele>
        <time>2011-07-03T15:26:56Z</time>
      </trkpt>
      <trkpt lat="62.214012" lon="12.454291">
        <ele>927.826</ele>
        <time>2011-07-03T15:27:04Z</time>
      </trkpt>
      <trkpt lat="62.214026" lon="12.454503">
        <ele>927.326</ele>
        <time>2011-07-03T15:27:11Z</time>
      </trkpt>
      <trkpt lat="62.214047" lon="12.454694">
        <ele>927.157</ele>
        <time>2011-07-03T15:27:18Z</time>
      </trkpt>
      <trkpt lat="62.214075" lon="12.454903">
        <ele>927.624</ele>
        <time>2011-07-03T15:27:25Z</time>
      </trkpt>
      <trkpt lat="62.214094" lon="12.455091">
        <ele>928.503</ele>
        <time>2011-07-03T15:27:32Z</time>
      </trkpt>
      <trkpt lat="62.2141" lon="12.455308">
        <ele>929.721</ele>
        <time>2011-07-03T15:27:40Z</time>
      </trkpt>
      <trkpt lat="62.214112" lon="12.455354">
        <ele>930.017</ele>
        <time>2011-07-03T15:27:42Z</time>
      </trkpt>
      <trkpt lat="62.21411" lon="12.45558">
        <ele>929.879</ele>
        <time>2011-07-03T15:27:50Z</time>
      </trkpt>
      <trkpt lat="62.214122" lon="12.455725">
        <ele>930.223</ele>
        <time>2011-07-03T15:27:55Z</time>
      </trkpt>
      <trkpt lat="62.214129" lon="12.45588">
        <ele>929.514</ele>
        <time>2011-07-03T15:28:00Z</time>
      </trkpt>
      <trkpt lat="62.214169" lon="12.45605">
        <ele>929.954</ele>
        <time>2011-07-03T15:28:07Z</time>
      </trkpt>
      <trkpt lat="62.214184" lon="12.45628">
        <ele>929.046</ele>
        <time>2011-07-03T15:28:15Z</time>
      </trkpt>
      <trkpt lat="62.214194" lon="12.456368">
        <ele>927.558</ele>
        <time>2011-07-03T15:28:18Z</time>
      </trkpt>
      <trkpt lat="62.214211" lon="12.456448">
        <ele>928.8</ele>
        <time>2011-07-03T15:28:21Z</time>
      </trkpt>
      <trkpt lat="62.214252" lon="12.456695">
        <ele>928.622</ele>
        <time>2011-07-03T15:28:30Z</time>
      </trkpt>
      <trkpt lat="62.214258" lon="12.456836">
        <ele>928.343</ele>
        <time>2011-07-03T15:28:36Z</time>
      </trkpt>
      <trkpt lat="62.214258" lon="12.457025">
        <ele>927.877</ele>
        <time>2011-07-03T15:28:44Z</time>
      </trkpt>
      <trkpt lat="62.214278" lon="12.457218">
        <ele>927.821</ele>
        <time>2011-07-03T15:28:52Z</time>
      </trkpt>
      <trkpt lat="62.214289" lon="12.457381">
        <ele>927.98</ele>
        <time>2011-07-03T15:28:59Z</time>
      </trkpt>
      <trkpt lat="62.214304" lon="12.457536">
        <ele>928.2</ele>
        <time>2011-07-03T15:29:05Z</time>
      </trkpt>
      <trkpt lat="62.214317" lon="12.457762">
        <ele>928.966</ele>
        <time>2011-07-03T15:29:13Z</time>
      </trkpt>
      <trkpt lat="62.214356" lon="12.458019">
        <ele>929.237</ele>
        <time>2011-07-03T15:29:22Z</time>
      </trkpt>
      <trkpt lat="62.214399" lon="12.458195">
        <ele>929.4</ele>
        <time>2011-07-03T15:29:29Z</time>
      </trkpt>
      <trkpt lat="62.21442" lon="12.458391">
        <ele>929.869</ele>
        <time>2011-07-03T15:29:36Z</time>
      </trkpt>
      <trkpt lat="62.214455" lon="12.458598">
        <ele>929.495</ele>
        <time>2011-07-03T15:29:43Z</time>
      </trkpt>
      <trkpt lat="62.214478" lon="12.458805">
        <ele>929.941</ele>
        <time>2011-07-03T15:29:51Z</time>
      </trkpt>
      <trkpt lat="62.214501" lon="12.459006">
        <ele>930.402</ele>
        <time>2011-07-03T15:29:58Z</time>
      </trkpt>
      <trkpt lat="62.214508" lon="12.45913">
        <ele>930.622</ele>
        <time>2011-07-03T15:30:02Z</time>
      </trkpt>
      <trkpt lat="62.214538" lon="12.459365">
        <ele>930.671</ele>
        <time>2011-07-03T15:30:11Z</time>
      </trkpt>
      <trkpt lat="62.214553" lon="12.459632">
        <ele>929.964</ele>
        <time>2011-07-03T15:30:20Z</time>
      </trkpt>
      <trkpt lat="62.214579" lon="12.459809">
        <ele>929.499</ele>
        <time>2011-07-03T15:30:27Z</time>
      </trkpt>
      <trkpt lat="62.214586" lon="12.460017">
        <ele>929.59</ele>
        <time>2011-07-03T15:30:34Z</time>
      </trkpt>
      <trkpt lat="62.21461" lon="12.460215">
        <ele>929.769</ele>
        <time>2011-07-03T15:30:41Z</time>
      </trkpt>
      <trkpt lat="62.214643" lon="12.460431">
        <ele>930.307</ele>
        <time>2011-07-03T15:30:49Z</time>
      </trkpt>
      <trkpt lat="62.214647" lon="12.460486">
        <ele>930.428</ele>
        <time>2011-07-03T15:30:51Z</time>
      </trkpt>
      <trkpt lat="62.214686" lon="12.46067">
        <ele>930.484</ele>
        <time>2011-07-03T15:30:58Z</time>
      </trkpt>
      <trkpt lat="62.214713" lon="12.460853">
        <ele>930.873</ele>
        <time>2011-07-03T15:31:05Z</time>
      </trkpt>
      <trkpt lat="62.214737" lon="12.461022">
        <ele>931.118</ele>
        <time>2011-07-03T15:31:12Z</time>
      </trkpt>
      <trkpt lat="62.214739" lon="12.461072">
        <ele>931.035</ele>
        <time>2011-07-03T15:31:14Z</time>
      </trkpt>
      <trkpt lat="62.214779" lon="12.461281">
        <ele>930.982</ele>
        <time>2011-07-03T15:31:22Z</time>
      </trkpt>
      <trkpt lat="62.214794" lon="12.461329">
        <ele>930.771</ele>
        <time>2011-07-03T15:31:24Z</time>
      </trkpt>
      <trkpt lat="62.214803" lon="12.461431">
        <ele>930.343</ele>
        <time>2011-07-03T15:31:28Z</time>
      </trkpt>
      <trkpt lat="62.214848" lon="12.461632">
        <ele>930.179</ele>
        <time>2011-07-03T15:31:36Z</time>
      </trkpt>
      <trkpt lat="62.214888" lon="12.461761">
        <ele>929.898</ele>
        <time>2011-07-03T15:31:42Z</time>
      </trkpt>
      <trkpt lat="62.214902" lon="12.461833">
        <ele>929.552</ele>
        <time>2011-07-03T15:31:45Z</time>
      </trkpt>
      <trkpt lat="62.214934" lon="12.462045">
        <ele>928.695</ele>
        <time>2011-07-03T15:31:53Z</time>
      </trkpt>
      <trkpt lat="62.214931" lon="12.462103">
        <ele>928.298</ele>
        <time>2011-07-03T15:31:55Z</time>
      </trkpt>
      <trkpt lat="62.214952" lon="12.462206">
        <ele>928.071</ele>
        <time>2011-07-03T15:31:59Z</time>
      </trkpt>
      <trkpt lat="62.214974" lon="12.462424">
        <ele>927.694</ele>
        <time>2011-07-03T15:32:07Z</time>
      </trkpt>
      <trkpt lat="62.214985" lon="12.462476">
        <ele>927.801</ele>
        <time>2011-07-03T15:32:09Z</time>
      </trkpt>
      <trkpt lat="62.215049" lon="12.462631">
        <ele>927.407</ele>
        <time>2011-07-03T15:32:17Z</time>
      </trkpt>
      <trkpt lat="62.215066" lon="12.462673">
        <ele>927.335</ele>
        <time>2011-07-03T15:32:19Z</time>
      </trkpt>
      <trkpt lat="62.215068" lon="12.462782">
        <ele>927.45</ele>
        <time>2011-07-03T15:32:23Z</time>
      </trkpt>
      <trkpt lat="62.215065" lon="12.462837">
        <ele>927.551</ele>
        <time>2011-07-03T15:32:25Z</time>
      </trkpt>
      <trkpt lat="62.215104" lon="12.462996">
        <ele>927.528</ele>
        <time>2011-07-03T15:32:32Z</time>
      </trkpt>
      <trkpt lat="62.21511" lon="12.463019">
        <ele>927.618</ele>
        <time>2011-07-03T15:32:33Z</time>
      </trkpt>
      <trkpt lat="62.215134" lon="12.46324">
        <ele>927.501</ele>
        <time>2011-07-03T15:32:42Z</time>
      </trkpt>
      <trkpt lat="62.215154" lon="12.463433">
        <ele>927.613</ele>
        <time>2011-07-03T15:32:50Z</time>
      </trkpt>
      <trkpt lat="62.215187" lon="12.463549">
        <ele>927.536</ele>
        <time>2011-07-03T15:32:57Z</time>
      </trkpt>
      <trkpt lat="62.215225" lon="12.463676">
        <ele>927.486</ele>
        <time>2011-07-03T15:33:04Z</time>
      </trkpt>
      <trkpt lat="62.215247" lon="12.463821">
        <ele>927.345</ele>
        <time>2011-07-03T15:33:10Z</time>
      </trkpt>
      <trkpt lat="62.215286" lon="12.463961">
        <ele>927.208</ele>
        <time>2011-07-03T15:33:16Z</time>
      </trkpt>
      <trkpt lat="62.215307" lon="12.464217">
        <ele>927.287</ele>
        <time>2011-07-03T15:33:26Z</time>
      </trkpt>
      <trkpt lat="62.215309" lon="12.46437">
        <ele>927.689</ele>
        <time>2011-07-03T15:33:32Z</time>
      </trkpt>
      <trkpt lat="62.215323" lon="12.464463">
        <ele>928.029</ele>
        <time>2011-07-03T15:33:36Z</time>
      </trkpt>
      <trkpt lat="62.215346" lon="12.464704">
        <ele>927.954</ele>
        <time>2011-07-03T15:33:45Z</time>
      </trkpt>
      <trkpt lat="62.215422" lon="12.464908">
        <ele>928.431</ele>
        <time>2011-07-03T15:33:55Z</time>
      </trkpt>
      <trkpt lat="62.215475" lon="12.465033">
        <ele>928.928</ele>
        <time>2011-07-03T15:34:02Z</time>
      </trkpt>
      <trkpt lat="62.215478" lon="12.465164">
        <ele>928.963</ele>
        <time>2011-07-03T15:34:07Z</time>
      </trkpt>
      <trkpt lat="62.215491" lon="12.465231">
        <ele>929.224</ele>
        <time>2011-07-03T15:34:10Z</time>
      </trkpt>
      <trkpt lat="62.21551" lon="12.465469">
        <ele>929.779</ele>
        <time>2011-07-03T15:34:19Z</time>
      </trkpt>
      <trkpt lat="62.215553" lon="12.465662">
        <ele>929.552</ele>
        <time>2011-07-03T15:34:27Z</time>
      </trkpt>
      <trkpt lat="62.21558" lon="12.465715">
        <ele>929.431</ele>
        <time>2011-07-03T15:34:30Z</time>
      </trkpt>
      <trkpt lat="62.21563" lon="12.465945">
        <ele>929.348</ele>
        <time>2011-07-03T15:34:39Z</time>
      </trkpt>
      <trkpt lat="62.215671" lon="12.466145">
        <ele>929.426</ele>
        <time>2011-07-03T15:34:47Z</time>
      </trkpt>
      <trkpt lat="62.2157" lon="12.466305">
        <ele>929.044</ele>
        <time>2011-07-03T15:34:53Z</time>
      </trkpt>
      <trkpt lat="62.215713" lon="12.466462">
        <ele>928.564</ele>
        <time>2011-07-03T15:34:59Z</time>
      </trkpt>
      <trkpt lat="62.215729" lon="12.466709">
        <ele>927.911</ele>
        <time>2011-07-03T15:35:08Z</time>
      </trkpt>
      <trkpt lat="62.215757" lon="12.466882">
        <ele>927.866</ele>
        <time>2011-07-03T15:35:14Z</time>
      </trkpt>
      <trkpt lat="62.215771" lon="12.466929">
        <ele>927.808</ele>
        <time>2011-07-03T15:35:16Z</time>
      </trkpt>
      <trkpt lat="62.215778" lon="12.466976">
        <ele>927.584</ele>
        <time>2011-07-03T15:35:18Z</time>
      </trkpt>
      <trkpt lat="62.215816" lon="12.467151">
        <ele>927.362</ele>
        <time>2011-07-03T15:35:25Z</time>
      </trkpt>
      <trkpt lat="62.215836" lon="12.467221">
        <ele>927.248</ele>
        <time>2011-07-03T15:35:28Z</time>
      </trkpt>
      <trkpt lat="62.215866" lon="12.467446">
        <ele>927.675</ele>
        <time>2011-07-03T15:35:36Z</time>
      </trkpt>
      <trkpt lat="62.215906" lon="12.467562">
        <ele>927.849</ele>
        <time>2011-07-03T15:35:42Z</time>
      </trkpt>
      <trkpt lat="62.215955" lon="12.467743">
        <ele>927.5</ele>
        <time>2011-07-03T15:35:50Z</time>
      </trkpt>
      <trkpt lat="62.21602" lon="12.467908">
        <ele>927.324</ele>
        <time>2011-07-03T15:35:58Z</time>
      </trkpt>
      <trkpt lat="62.216019" lon="12.467957">
        <ele>926.839</ele>
        <time>2011-07-03T15:36:01Z</time>
      </trkpt>
      <trkpt lat="62.216005" lon="12.467983">
        <ele>926.785</ele>
        <time>2011-07-03T15:36:09Z</time>
      </trkpt>
      <trkpt lat="62.216027" lon="12.468079">
        <ele>927.194</ele>
        <time>2011-07-03T15:36:40Z</time>
      </trkpt>
      <trkpt lat="62.216068" lon="12.468315">
        <ele>926.467</ele>
        <time>2011-07-03T15:36:50Z</time>
      </trkpt>
      <trkpt lat="62.216109" lon="12.468542">
        <ele>925.749</ele>
        <time>2011-07-03T15:36:59Z</time>
      </trkpt>
      <trkpt lat="62.216125" lon="12.468614">
        <ele>925.714</ele>
        <time>2011-07-03T15:37:02Z</time>
      </trkpt>
      <trkpt lat="62.21617" lon="12.468769">
        <ele>925.292</ele>
        <time>2011-07-03T15:37:09Z</time>
      </trkpt>
      <trkpt lat="62.216199" lon="12.468947">
        <ele>925.256</ele>
        <time>2011-07-03T15:37:16Z</time>
      </trkpt>
      <trkpt lat="62.216216" lon="12.469115">
        <ele>925.219</ele>
        <time>2011-07-03T15:37:23Z</time>
      </trkpt>
      <trkpt lat="62.21624" lon="12.469318">
        <ele>925.352</ele>
        <time>2011-07-03T15:37:31Z</time>
      </trkpt>
      <trkpt lat="62.21628" lon="12.469484">
        <ele>926.12</ele>
        <time>2011-07-03T15:37:38Z</time>
      </trkpt>
      <trkpt lat="62.21628" lon="12.469537">
        <ele>926.221</ele>
        <time>2011-07-03T15:37:40Z</time>
      </trkpt>
      <trkpt lat="62.216271" lon="12.469795">
        <ele>926.322</ele>
        <time>2011-07-03T15:37:50Z</time>
      </trkpt>
      <trkpt lat="62.216287" lon="12.470034">
        <ele>926.611</ele>
        <time>2011-07-03T15:37:59Z</time>
      </trkpt>
      <trkpt lat="62.216295" lon="12.470198">
        <ele>927.08</ele>
        <time>2011-07-03T15:38:05Z</time>
      </trkpt>
      <trkpt lat="62.216297" lon="12.470295">
        <ele>928.095</ele>
        <time>2011-07-03T15:38:09Z</time>
      </trkpt>
      <trkpt lat="62.216308" lon="12.470332">
        <ele>928.489</ele>
        <time>2011-07-03T15:38:11Z</time>
      </trkpt>
      <trkpt lat="62.21631" lon="12.470433">
        <ele>929.06</ele>
        <time>2011-07-03T15:38:15Z</time>
      </trkpt>
      <trkpt lat="62.216348" lon="12.470596">
        <ele>929.476</ele>
        <time>2011-07-03T15:38:23Z</time>
      </trkpt>
      <trkpt lat="62.216351" lon="12.470709">
        <ele>929.169</ele>
        <time>2011-07-03T15:38:27Z</time>
      </trkpt>
      <trkpt lat="62.216364" lon="12.47083">
        <ele>930.172</ele>
        <time>2011-07-03T15:38:32Z</time>
      </trkpt>
      <trkpt lat="62.216388" lon="12.470977">
        <ele>930.877</ele>
        <time>2011-07-03T15:38:39Z</time>
      </trkpt>
      <trkpt lat="62.21641" lon="12.47113">
        <ele>931.394</ele>
        <time>2011-07-03T15:38:46Z</time>
      </trkpt>
      <trkpt lat="62.216418" lon="12.471205">
        <ele>930.989</ele>
        <time>2011-07-03T15:38:49Z</time>
      </trkpt>
      <trkpt lat="62.216434" lon="12.471303">
        <ele>930.833</ele>
        <time>2011-07-03T15:38:53Z</time>
      </trkpt>
      <trkpt lat="62.21644" lon="12.471476">
        <ele>930.266</ele>
        <time>2011-07-03T15:39:00Z</time>
      </trkpt>
      <trkpt lat="62.216452" lon="12.47162">
        <ele>929.847</ele>
        <time>2011-07-03T15:39:05Z</time>
      </trkpt>
      <trkpt lat="62.216465" lon="12.471779">
        <ele>929.721</ele>
        <time>2011-07-03T15:39:12Z</time>
      </trkpt>
      <trkpt lat="62.216492" lon="12.471892">
        <ele>930.123</ele>
        <time>2011-07-03T15:39:18Z</time>
      </trkpt>
      <trkpt lat="62.216493" lon="12.471937">
        <ele>930.635</ele>
        <time>2011-07-03T15:39:22Z</time>
      </trkpt>
      <trkpt lat="62.216519" lon="12.472047">
        <ele>930.582</ele>
        <time>2011-07-03T15:39:36Z</time>
      </trkpt>
      <trkpt lat="62.216533" lon="12.472146">
        <ele>930.414</ele>
        <time>2011-07-03T15:39:42Z</time>
      </trkpt>
      <trkpt lat="62.216534" lon="12.472188">
        <ele>929.705</ele>
        <time>2011-07-03T15:39:46Z</time>
      </trkpt>
      <trkpt lat="62.216508" lon="12.472234">
        <ele>930.264</ele>
        <time>2011-07-03T15:39:52Z</time>
      </trkpt>
      <trkpt lat="62.216494" lon="12.472341">
        <ele>930.866</ele>
        <time>2011-07-03T15:40:29Z</time>
      </trkpt>
      <trkpt lat="62.216508" lon="12.472425">
        <ele>930.564</ele>
        <time>2011-07-03T15:40:34Z</time>
      </trkpt>
      <trkpt lat="62.216484" lon="12.472498">
        <ele>930.52</ele>
        <time>2011-07-03T15:40:40Z</time>
      </trkpt>
      <trkpt lat="62.216483" lon="12.472542">
        <ele>930.918</ele>
        <time>2011-07-03T15:40:43Z</time>
      </trkpt>
      <trkpt lat="62.216454" lon="12.472634">
        <ele>930.71</ele>
        <time>2011-07-03T15:40:50Z</time>
      </trkpt>
      <trkpt lat="62.216453" lon="12.472675">
        <ele>930.815</ele>
        <time>2011-07-03T15:40:52Z</time>
      </trkpt>
      <trkpt lat="62.216464" lon="12.472739">
        <ele>930.85</ele>
        <time>2011-07-03T15:40:56Z</time>
      </trkpt>
      <trkpt lat="62.216468" lon="12.472792">
        <ele>930.585</ele>
        <time>2011-07-03T15:40:59Z</time>
      </trkpt>
      <trkpt lat="62.216458" lon="12.472848">
        <ele>930.273</ele>
        <time>2011-07-03T15:41:02Z</time>
      </trkpt>
      <trkpt lat="62.216444" lon="12.47299">
        <ele>929.88</ele>
        <time>2011-07-03T15:41:09Z</time>
      </trkpt>
      <trkpt lat="62.216442" lon="12.473011">
        <ele>929.84</ele>
        <time>2011-07-03T15:41:10Z</time>
      </trkpt>
      <trkpt lat="62.21643" lon="12.47306">
        <ele>929.631</ele>
        <time>2011-07-03T15:41:13Z</time>
      </trkpt>
      <trkpt lat="62.216435" lon="12.473168">
        <ele>929.404</ele>
        <time>2011-07-03T15:41:19Z</time>
      </trkpt>
      <trkpt lat="62.216435" lon="12.473182">
        <ele>929.484</ele>
        <time>2011-07-03T15:41:20Z</time>
      </trkpt>
      <trkpt lat="62.216405" lon="12.473351">
        <ele>928.663</ele>
        <time>2011-07-03T15:41:27Z</time>
      </trkpt>
      <trkpt lat="62.216398" lon="12.473426">
        <ele>928.699</ele>
        <time>2011-07-03T15:41:30Z</time>
      </trkpt>
      <trkpt lat="62.216397" lon="12.473491">
        <ele>928.494</ele>
        <time>2011-07-03T15:41:33Z</time>
      </trkpt>
      <trkpt lat="62.216428" lon="12.473566">
        <ele>927.959</ele>
        <time>2011-07-03T15:41:38Z</time>
      </trkpt>
      <trkpt lat="62.216436" lon="12.473783">
        <ele>927.345</ele>
        <time>2011-07-03T15:41:47Z</time>
      </trkpt>
      <trkpt lat="62.216425" lon="12.473854">
        <ele>927.307</ele>
        <time>2011-07-03T15:41:50Z</time>
      </trkpt>
      <trkpt lat="62.216418" lon="12.473947">
        <ele>927.432</ele>
        <time>2011-07-03T15:41:54Z</time>
      </trkpt>
      <trkpt lat="62.216403" lon="12.474066">
        <ele>927.28</ele>
        <time>2011-07-03T15:41:59Z</time>
      </trkpt>
      <trkpt lat="62.216385" lon="12.474257">
        <ele>926.465</ele>
        <time>2011-07-03T15:42:07Z</time>
      </trkpt>
      <trkpt lat="62.216355" lon="12.474393">
        <ele>925.066</ele>
        <time>2011-07-03T15:42:13Z</time>
      </trkpt>
      <trkpt lat="62.216319" lon="12.474572">
        <ele>924.333</ele>
        <time>2011-07-03T15:42:21Z</time>
      </trkpt>
      <trkpt lat="62.216315" lon="12.474713">
        <ele>924.398</ele>
        <time>2011-07-03T15:42:27Z</time>
      </trkpt>
      <trkpt lat="62.216286" lon="12.474804">
        <ele>923.671</ele>
        <time>2011-07-03T15:42:33Z</time>
      </trkpt>
      <trkpt lat="62.216296" lon="12.474893">
        <ele>924.532</ele>
        <time>2011-07-03T15:42:37Z</time>
      </trkpt>
      <trkpt lat="62.216326" lon="12.474989">
        <ele>924.331</ele>
        <time>2011-07-03T15:42:42Z</time>
      </trkpt>
      <trkpt lat="62.216338" lon="12.475045">
        <ele>924.62</ele>
        <time>2011-07-03T15:42:45Z</time>
      </trkpt>
      <trkpt lat="62.216316" lon="12.475098">
        <ele>923.563</ele>
        <time>2011-07-03T15:42:51Z</time>
      </trkpt>
      <trkpt lat="62.216308" lon="12.475141">
        <ele>923.762</ele>
        <time>2011-07-03T15:42:56Z</time>
      </trkpt>
      <trkpt lat="62.21629" lon="12.475211">
        <ele>923.457</ele>
        <time>2011-07-03T15:43:01Z</time>
      </trkpt>
      <trkpt lat="62.216288" lon="12.475217">
        <ele>923.594</ele>
        <time>2011-07-03T15:43:02Z</time>
      </trkpt>
      <trkpt lat="62.216286" lon="12.47527">
        <ele>923.44</ele>
        <time>2011-07-03T15:43:09Z</time>
      </trkpt>
      <trkpt lat="62.216283" lon="12.475292">
        <ele>923.737</ele>
        <time>2011-07-03T15:43:12Z</time>
      </trkpt>
      <trkpt lat="62.216265" lon="12.47539">
        <ele>923.115</ele>
        <time>2011-07-03T15:43:19Z</time>
      </trkpt>
      <trkpt lat="62.21627" lon="12.475519">
        <ele>922.982</ele>
        <time>2011-07-03T15:43:26Z</time>
      </trkpt>
      <trkpt lat="62.216271" lon="12.475566">
        <ele>922.753</ele>
        <time>2011-07-03T15:43:29Z</time>
      </trkpt>
      <trkpt lat="62.21622" lon="12.475743">
        <ele>921.231</ele>
        <time>2011-07-03T15:43:38Z</time>
      </trkpt>
      <trkpt lat="62.21618" lon="12.475964">
        <ele>919.938</ele>
        <time>2011-07-03T15:43:46Z</time>
      </trkpt>
      <trkpt lat="62.216176" lon="12.476029">
        <ele>919.967</ele>
        <time>2011-07-03T15:43:50Z</time>
      </trkpt>
      <trkpt lat="62.216141" lon="12.475977">
        <ele>919.905</ele>
        <time>2011-07-03T15:44:11Z</time>
      </trkpt>
      <trkpt lat="62.216136" lon="12.475972">
        <ele>920.067</ele>
        <time>2011-07-03T15:44:12Z</time>
      </trkpt>
      <trkpt lat="62.216092" lon="12.476026">
        <ele>920.942</ele>
        <time>2011-07-03T15:44:27Z</time>
      </trkpt>
      <trkpt lat="62.216135" lon="12.476203">
        <ele>920.783</ele>
        <time>2011-07-03T15:44:35Z</time>
      </trkpt>
      <trkpt lat="62.216159" lon="12.47639">
        <ele>920.434</ele>
        <time>2011-07-03T15:44:44Z</time>
      </trkpt>
      <trkpt lat="62.21614" lon="12.476596">
        <ele>920.194</ele>
        <time>2011-07-03T15:44:52Z</time>
      </trkpt>
      <trkpt lat="62.216132" lon="12.476793">
        <ele>920.049</ele>
        <time>2011-07-03T15:45:00Z</time>
      </trkpt>
      <trkpt lat="62.216117" lon="12.477004">
        <ele>920.204</ele>
        <time>2011-07-03T15:45:08Z</time>
      </trkpt>
      <trkpt lat="62.216088" lon="12.477144">
        <ele>920.119</ele>
        <time>2011-07-03T15:45:14Z</time>
      </trkpt>
      <trkpt lat="62.216059" lon="12.477386">
        <ele>920.109</ele>
        <time>2011-07-03T15:45:23Z</time>
      </trkpt>
      <trkpt lat="62.216061" lon="12.477606">
        <ele>920.62</ele>
        <time>2011-07-03T15:45:31Z</time>
      </trkpt>
      <trkpt lat="62.216046" lon="12.477851">
        <ele>920.796</ele>
        <time>2011-07-03T15:45:40Z</time>
      </trkpt>
      <trkpt lat="62.216045" lon="12.478046">
        <ele>920.853</ele>
        <time>2011-07-03T15:45:47Z</time>
      </trkpt>
      <trkpt lat="62.216034" lon="12.478232">
        <ele>920.259</ele>
        <time>2011-07-03T15:45:54Z</time>
      </trkpt>
      <trkpt lat="62.216003" lon="12.478347">
        <ele>920.605</ele>
        <time>2011-07-03T15:46:01Z</time>
      </trkpt>
      <trkpt lat="62.215986" lon="12.478466">
        <ele>920.922</ele>
        <time>2011-07-03T15:46:10Z</time>
      </trkpt>
      <trkpt lat="62.215959" lon="12.478712">
        <ele>920.715</ele>
        <time>2011-07-03T15:46:19Z</time>
      </trkpt>
      <trkpt lat="62.215962" lon="12.478918">
        <ele>921.383</ele>
        <time>2011-07-03T15:46:27Z</time>
      </trkpt>
      <trkpt lat="62.215985" lon="12.479005">
        <ele>921.753</ele>
        <time>2011-07-03T15:46:31Z</time>
      </trkpt>
      <trkpt lat="62.216029" lon="12.479248">
        <ele>922.221</ele>
        <time>2011-07-03T15:46:39Z</time>
      </trkpt>
      <trkpt lat="62.216021" lon="12.479472">
        <ele>922.092</ele>
        <time>2011-07-03T15:46:44Z</time>
      </trkpt>
      <trkpt lat="62.216003" lon="12.479598">
        <ele>921.591</ele>
        <time>2011-07-03T15:46:49Z</time>
      </trkpt>
      <trkpt lat="62.215997" lon="12.479785">
        <ele>921.74</ele>
        <time>2011-07-03T15:46:56Z</time>
      </trkpt>
      <trkpt lat="62.215992" lon="12.479811">
        <ele>921.514</ele>
        <time>2011-07-03T15:46:57Z</time>
      </trkpt>
      <trkpt lat="62.215943" lon="12.479973">
        <ele>920.886</ele>
        <time>2011-07-03T15:47:04Z</time>
      </trkpt>
      <trkpt lat="62.21592" lon="12.480166">
        <ele>920.859</ele>
        <time>2011-07-03T15:47:11Z</time>
      </trkpt>
      <trkpt lat="62.21593" lon="12.480419">
        <ele>921.18</ele>
        <time>2011-07-03T15:47:20Z</time>
      </trkpt>
      <trkpt lat="62.215928" lon="12.480621">
        <ele>921.156</ele>
        <time>2011-07-03T15:47:27Z</time>
      </trkpt>
      <trkpt lat="62.215931" lon="12.480805">
        <ele>921.454</ele>
        <time>2011-07-03T15:47:34Z</time>
      </trkpt>
      <trkpt lat="62.215904" lon="12.480988">
        <ele>921.12</ele>
        <time>2011-07-03T15:47:42Z</time>
      </trkpt>
      <trkpt lat="62.215888" lon="12.481123">
        <ele>920.996</ele>
        <time>2011-07-03T15:47:48Z</time>
      </trkpt>
      <trkpt lat="62.215876" lon="12.481279">
        <ele>921.066</ele>
        <time>2011-07-03T15:47:55Z</time>
      </trkpt>
      <trkpt lat="62.215846" lon="12.481489">
        <ele>920.572</ele>
        <time>2011-07-03T15:48:03Z</time>
      </trkpt>
      <trkpt lat="62.215818" lon="12.481706">
        <ele>920.057</ele>
        <time>2011-07-03T15:48:11Z</time>
      </trkpt>
      <trkpt lat="62.215802" lon="12.481881">
        <ele>920.091</ele>
        <time>2011-07-03T15:48:18Z</time>
      </trkpt>
      <trkpt lat="62.215788" lon="12.48205">
        <ele>919.953</ele>
        <time>2011-07-03T15:48:25Z</time>
      </trkpt>
      <trkpt lat="62.21576" lon="12.482133">
        <ele>918.748</ele>
        <time>2011-07-03T15:48:29Z</time>
      </trkpt>
      <trkpt lat="62.215748" lon="12.482251">
        <ele>918.923</ele>
        <time>2011-07-03T15:48:34Z</time>
      </trkpt>
      <trkpt lat="62.215751" lon="12.482329">
        <ele>918.98</ele>
        <time>2011-07-03T15:48:37Z</time>
      </trkpt>
      <trkpt lat="62.215755" lon="12.482482">
        <ele>918.63</ele>
        <time>2011-07-03T15:48:43Z</time>
      </trkpt>
      <trkpt lat="62.215741" lon="12.482618">
        <ele>918.206</ele>
        <time>2011-07-03T15:48:49Z</time>
      </trkpt>
      <trkpt lat="62.215727" lon="12.482775">
        <ele>917.516</ele>
        <time>2011-07-03T15:48:55Z</time>
      </trkpt>
      <trkpt lat="62.215725" lon="12.48294">
        <ele>917.667</ele>
        <time>2011-07-03T15:49:01Z</time>
      </trkpt>
      <trkpt lat="62.215721" lon="12.483087">
        <ele>917.651</ele>
        <time>2011-07-03T15:49:06Z</time>
      </trkpt>
      <trkpt lat="62.215709" lon="12.483325">
        <ele>916.33</ele>
        <time>2011-07-03T15:49:14Z</time>
      </trkpt>
      <trkpt lat="62.215706" lon="12.483442">
        <ele>916.24</ele>
        <time>2011-07-03T15:49:18Z</time>
      </trkpt>
      <trkpt lat="62.215748" lon="12.483617">
        <ele>916.437</ele>
        <time>2011-07-03T15:49:23Z</time>
      </trkpt>
      <trkpt lat="62.215746" lon="12.483771">
        <ele>916.009</ele>
        <time>2011-07-03T15:49:26Z</time>
      </trkpt>
      <trkpt lat="62.215729" lon="12.483957">
        <ele>915.341</ele>
        <time>2011-07-03T15:49:32Z</time>
      </trkpt>
      <trkpt lat="62.215707" lon="12.484175">
        <ele>915.09</ele>
        <time>2011-07-03T15:49:40Z</time>
      </trkpt>
      <trkpt lat="62.215687" lon="12.484368">
        <ele>913.984</ele>
        <time>2011-07-03T15:49:47Z</time>
      </trkpt>
      <trkpt lat="62.215676" lon="12.484417">
        <ele>913.842</ele>
        <time>2011-07-03T15:49:49Z</time>
      </trkpt>
      <trkpt lat="62.215676" lon="12.484636">
        <ele>913.642</ele>
        <time>2011-07-03T15:49:57Z</time>
      </trkpt>
      <trkpt lat="62.215681" lon="12.484823">
        <ele>913.558</ele>
        <time>2011-07-03T15:50:04Z</time>
      </trkpt>
      <trkpt lat="62.215672" lon="12.485113">
        <ele>912.76</ele>
        <time>2011-07-03T15:50:14Z</time>
      </trkpt>
      <trkpt lat="62.215655" lon="12.485331">
        <ele>912.861</ele>
        <time>2011-07-03T15:50:22Z</time>
      </trkpt>
      <trkpt lat="62.21566" lon="12.485357">
        <ele>912.881</ele>
        <time>2011-07-03T15:50:23Z</time>
      </trkpt>
      <trkpt lat="62.21568" lon="12.485448">
        <ele>913.227</ele>
        <time>2011-07-03T15:50:27Z</time>
      </trkpt>
      <trkpt lat="62.21569" lon="12.485664">
        <ele>912.634</ele>
        <time>2011-07-03T15:50:35Z</time>
      </trkpt>
      <trkpt lat="62.215697" lon="12.485837">
        <ele>911.801</ele>
        <time>2011-07-03T15:50:42Z</time>
      </trkpt>
      <trkpt lat="62.215716" lon="12.486015">
        <ele>911.529</ele>
        <time>2011-07-03T15:50:49Z</time>
      </trkpt>
      <trkpt lat="62.215736" lon="12.486101">
        <ele>911.329</ele>
        <time>2011-07-03T15:50:53Z</time>
      </trkpt>
      <trkpt lat="62.215753" lon="12.486336">
        <ele>910.315</ele>
        <time>2011-07-03T15:51:02Z</time>
      </trkpt>
      <trkpt lat="62.21575" lon="12.486498">
        <ele>909.463</ele>
        <time>2011-07-03T15:51:08Z</time>
      </trkpt>
      <trkpt lat="62.215765" lon="12.486711">
        <ele>908.583</ele>
        <time>2011-07-03T15:51:16Z</time>
      </trkpt>
      <trkpt lat="62.215776" lon="12.486889">
        <ele>907.727</ele>
        <time>2011-07-03T15:51:23Z</time>
      </trkpt>
      <trkpt lat="62.215784" lon="12.486941">
        <ele>907.64</ele>
        <time>2011-07-03T15:51:25Z</time>
      </trkpt>
      <trkpt lat="62.215774" lon="12.48708">
        <ele>907.123</ele>
        <time>2011-07-03T15:51:30Z</time>
      </trkpt>
      <trkpt lat="62.215801" lon="12.487298">
        <ele>906.84</ele>
        <time>2011-07-03T15:51:38Z</time>
      </trkpt>
      <trkpt lat="62.215835" lon="12.487508">
        <ele>906.414</ele>
        <time>2011-07-03T15:51:46Z</time>
      </trkpt>
      <trkpt lat="62.215841" lon="12.487691">
        <ele>905.761</ele>
        <time>2011-07-03T15:51:53Z</time>
      </trkpt>
      <trkpt lat="62.215839" lon="12.487758">
        <ele>905.583</ele>
        <time>2011-07-03T15:51:56Z</time>
      </trkpt>
      <trkpt lat="62.215867" lon="12.487895">
        <ele>904.972</ele>
        <time>2011-07-03T15:52:02Z</time>
      </trkpt>
      <trkpt lat="62.21587" lon="12.487945">
        <ele>904.683</ele>
        <time>2011-07-03T15:52:04Z</time>
      </trkpt>
      <trkpt lat="62.215859" lon="12.488156">
        <ele>903.128</ele>
        <time>2011-07-03T15:52:12Z</time>
      </trkpt>
      <trkpt lat="62.215863" lon="12.488319">
        <ele>902.446</ele>
        <time>2011-07-03T15:52:18Z</time>
      </trkpt>
      <trkpt lat="62.21587" lon="12.488376">
        <ele>902.206</ele>
        <time>2011-07-03T15:52:20Z</time>
      </trkpt>
      <trkpt lat="62.215893" lon="12.488519">
        <ele>901.775</ele>
        <time>2011-07-03T15:52:26Z</time>
      </trkpt>
      <trkpt lat="62.215912" lon="12.488623">
        <ele>901.274</ele>
        <time>2011-07-03T15:52:30Z</time>
      </trkpt>
      <trkpt lat="62.215921" lon="12.488836">
        <ele>899.745</ele>
        <time>2011-07-03T15:52:38Z</time>
      </trkpt>
      <trkpt lat="62.21595" lon="12.488972">
        <ele>898.791</ele>
        <time>2011-07-03T15:52:44Z</time>
      </trkpt>
      <trkpt lat="62.215956" lon="12.489128">
        <ele>897.548</ele>
        <time>2011-07-03T15:52:50Z</time>
      </trkpt>
      <trkpt lat="62.21598" lon="12.489264">
        <ele>896.918</ele>
        <time>2011-07-03T15:52:56Z</time>
      </trkpt>
      <trkpt lat="62.215973" lon="12.489459">
        <ele>895.765</ele>
        <time>2011-07-03T15:53:03Z</time>
      </trkpt>
      <trkpt lat="62.216019" lon="12.489622">
        <ele>895.589</ele>
        <time>2011-07-03T15:53:10Z</time>
      </trkpt>
      <trkpt lat="62.216034" lon="12.48973">
        <ele>895.446</ele>
        <time>2011-07-03T15:53:14Z</time>
      </trkpt>
      <trkpt lat="62.21604" lon="12.489864">
        <ele>894.778</ele>
        <time>2011-07-03T15:53:19Z</time>
      </trkpt>
      <trkpt lat="62.216062" lon="12.489986">
        <ele>894.434</ele>
        <time>2011-07-03T15:53:24Z</time>
      </trkpt>
      <trkpt lat="62.216069" lon="12.490049">
        <ele>893.872</ele>
        <time>2011-07-03T15:53:27Z</time>
      </trkpt>
      <trkpt lat="62.216093" lon="12.490217">
        <ele>893.246</ele>
        <time>2011-07-03T15:53:34Z</time>
      </trkpt>
      <trkpt lat="62.216118" lon="12.490413">
        <ele>892.152</ele>
        <time>2011-07-03T15:53:42Z</time>
      </trkpt>
      <trkpt lat="62.216101" lon="12.490487">
        <ele>890.463</ele>
        <time>2011-07-03T15:53:46Z</time>
      </trkpt>
      <trkpt lat="62.216081" lon="12.490624">
        <ele>890.14</ele>
        <time>2011-07-03T15:53:52Z</time>
      </trkpt>
      <trkpt lat="62.216092" lon="12.490743">
        <ele>889.733</ele>
        <time>2011-07-03T15:53:55Z</time>
      </trkpt>
      <trkpt lat="62.216157" lon="12.490908">
        <ele>888.532</ele>
        <time>2011-07-03T15:54:01Z</time>
      </trkpt>
      <trkpt lat="62.21616" lon="12.490934">
        <ele>888.263</ele>
        <time>2011-07-03T15:54:02Z</time>
      </trkpt>
      <trkpt lat="62.21617" lon="12.49102">
        <ele>887.37</ele>
        <time>2011-07-03T15:54:06Z</time>
      </trkpt>
      <trkpt lat="62.216201" lon="12.491137">
        <ele>886.669</ele>
        <time>2011-07-03T15:54:12Z</time>
      </trkpt>
      <trkpt lat="62.21622" lon="12.491195">
        <ele>886.462</ele>
        <time>2011-07-03T15:54:15Z</time>
      </trkpt>
      <trkpt lat="62.216255" lon="12.491409">
        <ele>884.767</ele>
        <time>2011-07-03T15:54:23Z</time>
      </trkpt>
      <trkpt lat="62.216304" lon="12.491569">
        <ele>884.531</ele>
        <time>2011-07-03T15:54:30Z</time>
      </trkpt>
      <trkpt lat="62.216341" lon="12.491728">
        <ele>883.707</ele>
        <time>2011-07-03T15:54:37Z</time>
      </trkpt>
      <trkpt lat="62.216379" lon="12.491909">
        <ele>883.309</ele>
        <time>2011-07-03T15:54:44Z</time>
      </trkpt>
      <trkpt lat="62.216387" lon="12.49217">
        <ele>881.957</ele>
        <time>2011-07-03T15:54:50Z</time>
      </trkpt>
      <trkpt lat="62.216373" lon="12.492459">
        <ele>881.626</ele>
        <time>2011-07-03T15:54:57Z</time>
      </trkpt>
      <trkpt lat="62.216377" lon="12.492557">
        <ele>881.652</ele>
        <time>2011-07-03T15:54:59Z</time>
      </trkpt>
      <trkpt lat="62.216444" lon="12.492662">
        <ele>881.922</ele>
        <time>2011-07-03T15:55:03Z</time>
      </trkpt>
      <trkpt lat="62.216561" lon="12.492872">
        <ele>881.207</ele>
        <time>2011-07-03T15:55:11Z</time>
      </trkpt>
      <trkpt lat="62.216583" lon="12.49289">
        <ele>881.082</ele>
        <time>2011-07-03T15:55:12Z</time>
      </trkpt>
      <trkpt lat="62.216701" lon="12.493087">
        <ele>880.616</ele>
        <time>2011-07-03T15:55:19Z</time>
      </trkpt>
      <trkpt lat="62.216796" lon="12.493201">
        <ele>880.152</ele>
        <time>2011-07-03T15:55:24Z</time>
      </trkpt>
      <trkpt lat="62.216881" lon="12.493411">
        <ele>880.079</ele>
        <time>2011-07-03T15:55:30Z</time>
      </trkpt>
      <trkpt lat="62.216931" lon="12.493617">
        <ele>880.318</ele>
        <time>2011-07-03T15:55:36Z</time>
      </trkpt>
      <trkpt lat="62.216947" lon="12.493692">
        <ele>880.357</ele>
        <time>2011-07-03T15:55:39Z</time>
      </trkpt>
      <trkpt lat="62.217018" lon="12.493859">
        <ele>881.451</ele>
        <time>2011-07-03T15:55:48Z</time>
      </trkpt>
      <trkpt lat="62.21704" lon="12.493992">
        <ele>882.437</ele>
        <time>2011-07-03T15:55:54Z</time>
      </trkpt>
      <trkpt lat="62.217065" lon="12.494167">
        <ele>882.675</ele>
        <time>2011-07-03T15:56:01Z</time>
      </trkpt>
      <trkpt lat="62.217119" lon="12.494358">
        <ele>883.153</ele>
        <time>2011-07-03T15:56:10Z</time>
      </trkpt>
      <trkpt lat="62.217163" lon="12.494456">
        <ele>881.828</ele>
        <time>2011-07-03T15:56:17Z</time>
      </trkpt>
      <trkpt lat="62.217167" lon="12.494468">
        <ele>881.762</ele>
        <time>2011-07-03T15:56:18Z</time>
      </trkpt>
      <trkpt lat="62.217174" lon="12.494504">
        <ele>881.556</ele>
        <time>2011-07-03T15:56:22Z</time>
      </trkpt>
      <trkpt lat="62.217182" lon="12.494725">
        <ele>881.896</ele>
        <time>2011-07-03T15:56:32Z</time>
      </trkpt>
      <trkpt lat="62.217225" lon="12.494829">
        <ele>881.85</ele>
        <time>2011-07-03T15:56:37Z</time>
      </trkpt>
      <trkpt lat="62.217334" lon="12.494916">
        <ele>881.556</ele>
        <time>2011-07-03T15:56:45Z</time>
      </trkpt>
      <trkpt lat="62.217421" lon="12.494977">
        <ele>881.867</ele>
        <time>2011-07-03T15:56:52Z</time>
      </trkpt>
      <trkpt lat="62.21747" lon="12.495081">
        <ele>882.075</ele>
        <time>2011-07-03T15:56:59Z</time>
      </trkpt>
      <trkpt lat="62.217507" lon="12.495151">
        <ele>882.679</ele>
        <time>2011-07-03T15:57:05Z</time>
      </trkpt>
      <trkpt lat="62.217517" lon="12.495139">
        <ele>882.846</ele>
        <time>2011-07-03T15:57:07Z</time>
      </trkpt>
      <trkpt lat="62.217543" lon="12.495041">
        <ele>881.974</ele>
        <time>2011-07-03T15:57:12Z</time>
      </trkpt>
      <trkpt lat="62.217541" lon="12.494983">
        <ele>881.429</ele>
        <time>2011-07-03T15:57:16Z</time>
      </trkpt>
      <trkpt lat="62.217533" lon="12.495026">
        <ele>881.401</ele>
        <time>2011-07-03T15:57:50Z</time>
      </trkpt>
      <trkpt lat="62.217538" lon="12.495066">
        <ele>881.925</ele>
        <time>2011-07-03T15:57:54Z</time>
      </trkpt>
      <trkpt lat="62.217562" lon="12.495162">
        <ele>882.366</ele>
        <time>2011-07-03T15:58:01Z</time>
      </trkpt>
      <trkpt lat="62.217607" lon="12.495324">
        <ele>883.677</ele>
        <time>2011-07-03T15:58:09Z</time>
      </trkpt>
      <trkpt lat="62.217661" lon="12.495448">
        <ele>884.713</ele>
        <time>2011-07-03T15:58:16Z</time>
      </trkpt>
      <trkpt lat="62.217722" lon="12.495596">
        <ele>885.266</ele>
        <time>2011-07-03T15:58:25Z</time>
      </trkpt>
      <trkpt lat="62.217748" lon="12.495657">
        <ele>884.749</ele>
        <time>2011-07-03T15:58:30Z</time>
      </trkpt>
      <trkpt lat="62.217703" lon="12.495732">
        <ele>885.397</ele>
        <time>2011-07-03T15:58:46Z</time>
      </trkpt>
      <trkpt lat="62.2177" lon="12.49571">
        <ele>885.381</ele>
        <time>2011-07-03T15:58:58Z</time>
      </trkpt>
      <trkpt lat="62.217727" lon="12.495667">
        <ele>885.234</ele>
        <time>2011-07-03T15:59:03Z</time>
      </trkpt>
      <trkpt lat="62.217742" lon="12.495575">
        <ele>885.142</ele>
        <time>2011-07-03T16:00:14Z</time>
      </trkpt>
      <trkpt lat="62.21778" lon="12.495608">
        <ele>884.979</ele>
        <time>2011-07-03T16:00:34Z</time>
      </trkpt>
      <trkpt lat="62.217804" lon="12.495556">
        <ele>884.863</ele>
        <time>2011-07-03T16:00:40Z</time>
      </trkpt>
      <trkpt lat="62.217804" lon="12.495545">
        <ele>885.332</ele>
        <time>2011-07-03T16:00:45Z</time>
      </trkpt>
      <trkpt lat="62.217833" lon="12.495503">
        <ele>885.401</ele>
        <time>2011-07-03T16:00:58Z</time>
      </trkpt>
      <trkpt lat="62.217865" lon="12.495461">
        <ele>886.494</ele>
        <time>2011-07-03T16:01:02Z</time>
      </trkpt>
      <trkpt lat="62.217894" lon="12.495426">
        <ele>886.037</ele>
        <time>2011-07-03T16:01:05Z</time>
      </trkpt>
      <trkpt lat="62.217972" lon="12.49542">
        <ele>886.42</ele>
        <time>2011-07-03T16:01:12Z</time>
      </trkpt>
      <trkpt lat="62.218017" lon="12.495374">
        <ele>885.985</ele>
        <time>2011-07-03T16:01:19Z</time>
      </trkpt>
      <trkpt lat="62.218051" lon="12.495317">
        <ele>886.343</ele>
        <time>2011-07-03T16:01:26Z</time>
      </trkpt>
      <trkpt lat="62.218068" lon="12.495369">
        <ele>885.978</ele>
        <time>2011-07-03T16:01:29Z</time>
      </trkpt>
      <trkpt lat="62.218116" lon="12.495408">
        <ele>884.774</ele>
        <time>2011-07-03T16:01:34Z</time>
      </trkpt>
      <trkpt lat="62.218207" lon="12.495412">
        <ele>883.13</ele>
        <time>2011-07-03T16:01:41Z</time>
      </trkpt>
      <trkpt lat="62.218306" lon="12.495472">
        <ele>882.379</ele>
        <time>2011-07-03T16:01:48Z</time>
      </trkpt>
      <trkpt lat="62.218475" lon="12.49546">
        <ele>881.654</ele>
        <time>2011-07-03T16:01:56Z</time>
      </trkpt>
      <trkpt lat="62.218597" lon="12.495417">
        <ele>881.28</ele>
        <time>2011-07-03T16:02:02Z</time>
      </trkpt>
      <trkpt lat="62.218616" lon="12.495403">
        <ele>881.151</ele>
        <time>2011-07-03T16:02:03Z</time>
      </trkpt>
      <trkpt lat="62.218727" lon="12.495412">
        <ele>880.133</ele>
        <time>2011-07-03T16:02:11Z</time>
      </trkpt>
      <trkpt lat="62.218764" lon="12.495437">
        <ele>880.18</ele>
        <time>2011-07-03T16:02:14Z</time>
      </trkpt>
      <trkpt lat="62.218827" lon="12.495458">
        <ele>879.776</ele>
        <time>2011-07-03T16:02:19Z</time>
      </trkpt>
      <trkpt lat="62.218923" lon="12.495454">
        <ele>879.275</ele>
        <time>2011-07-03T16:02:27Z</time>
      </trkpt>
      <trkpt lat="62.218974" lon="12.49544">
        <ele>878.489</ele>
        <time>2011-07-03T16:02:32Z</time>
      </trkpt>
      <trkpt lat="62.219072" lon="12.495403">
        <ele>878.136</ele>
        <time>2011-07-03T16:02:40Z</time>
      </trkpt>
      <trkpt lat="62.219107" lon="12.495388">
        <ele>878.074</ele>
        <time>2011-07-03T16:02:43Z</time>
      </trkpt>
      <trkpt lat="62.21913" lon="12.495382">
        <ele>877.96</ele>
        <time>2011-07-03T16:02:45Z</time>
      </trkpt>
      <trkpt lat="62.21918" lon="12.495341">
        <ele>877.402</ele>
        <time>2011-07-03T16:02:49Z</time>
      </trkpt>
      <trkpt lat="62.21929" lon="12.495259">
        <ele>876.386</ele>
        <time>2011-07-03T16:02:58Z</time>
      </trkpt>
      <trkpt lat="62.219381" lon="12.49526">
        <ele>875.465</ele>
        <time>2011-07-03T16:03:05Z</time>
      </trkpt>
      <trkpt lat="62.219416" lon="12.495259">
        <ele>875.202</ele>
        <time>2011-07-03T16:03:08Z</time>
      </trkpt>
      <trkpt lat="62.219492" lon="12.495248">
        <ele>874.699</ele>
        <time>2011-07-03T16:03:15Z</time>
      </trkpt>
      <trkpt lat="62.219617" lon="12.495245">
        <ele>874.203</ele>
        <time>2011-07-03T16:03:26Z</time>
      </trkpt>
      <trkpt lat="62.219742" lon="12.495244">
        <ele>874.382</ele>
        <time>2011-07-03T16:03:36Z</time>
      </trkpt>
      <trkpt lat="62.219877" lon="12.49524">
        <ele>874.395</ele>
        <time>2011-07-03T16:03:47Z</time>
      </trkpt>
      <trkpt lat="62.219923" lon="12.495236">
        <ele>874.31</ele>
        <time>2011-07-03T16:03:52Z</time>
      </trkpt>
      <trkpt lat="62.220076" lon="12.495233">
        <ele>874.246</ele>
        <time>2011-07-03T16:04:03Z</time>
      </trkpt>
      <trkpt lat="62.220139" lon="12.495273">
        <ele>874.558</ele>
        <time>2011-07-03T16:04:09Z</time>
      </trkpt>
      <trkpt lat="62.220226" lon="12.495309">
        <ele>875.022</ele>
        <time>2011-07-03T16:04:16Z</time>
      </trkpt>
      <trkpt lat="62.220292" lon="12.495443">
        <ele>875.097</ele>
        <time>2011-07-03T16:04:22Z</time>
      </trkpt>
      <trkpt lat="62.220381" lon="12.495571">
        <ele>875.072</ele>
        <time>2011-07-03T16:04:30Z</time>
      </trkpt>
      <trkpt lat="62.220406" lon="12.495604">
        <ele>874.995</ele>
        <time>2011-07-03T16:04:32Z</time>
      </trkpt>
      <trkpt lat="62.22051" lon="12.495582">
        <ele>874.803</ele>
        <time>2011-07-03T16:04:38Z</time>
      </trkpt>
      <trkpt lat="62.220576" lon="12.495583">
        <ele>874.696</ele>
        <time>2011-07-03T16:04:41Z</time>
      </trkpt>
      <trkpt lat="62.220781" lon="12.495541">
        <ele>874.597</ele>
        <time>2011-07-03T16:04:51Z</time>
      </trkpt>
      <trkpt lat="62.220966" lon="12.495441">
        <ele>874.603</ele>
        <time>2011-07-03T16:05:00Z</time>
      </trkpt>
      <trkpt lat="62.221105" lon="12.495485">
        <ele>874.065</ele>
        <time>2011-07-03T16:05:07Z</time>
      </trkpt>
      <trkpt lat="62.221211" lon="12.495416">
        <ele>874.31</ele>
        <time>2011-07-03T16:05:12Z</time>
      </trkpt>
      <trkpt lat="62.221364" lon="12.495323">
        <ele>874.644</ele>
        <time>2011-07-03T16:05:19Z</time>
      </trkpt>
      <trkpt lat="62.221402" lon="12.495305">
        <ele>874.766</ele>
        <time>2011-07-03T16:05:24Z</time>
      </trkpt>
      <trkpt lat="62.221453" lon="12.495249">
        <ele>874.911</ele>
        <time>2011-07-03T16:05:31Z</time>
      </trkpt>
      <trkpt lat="62.221464" lon="12.495251">
        <ele>874.947</ele>
        <time>2011-07-03T16:05:34Z</time>
      </trkpt>
      <trkpt lat="62.221523" lon="12.495245">
        <ele>875.23</ele>
        <time>2011-07-03T16:06:08Z</time>
      </trkpt>
      <trkpt lat="62.221632" lon="12.495238">
        <ele>875.29</ele>
        <time>2011-07-03T16:06:14Z</time>
      </trkpt>
      <trkpt lat="62.221673" lon="12.4953">
        <ele>875.1</ele>
        <time>2011-07-03T16:06:18Z</time>
      </trkpt>
      <trkpt lat="62.221688" lon="12.495295">
        <ele>874.879</ele>
        <time>2011-07-03T16:06:20Z</time>
      </trkpt>
      <trkpt lat="62.22171" lon="12.495255">
        <ele>874.669</ele>
        <time>2011-07-03T16:06:24Z</time>
      </trkpt>
      <trkpt lat="62.22175" lon="12.495244">
        <ele>874.539</ele>
        <time>2011-07-03T16:06:32Z</time>
      </trkpt>
      <trkpt lat="62.221792" lon="12.495292">
        <ele>874.434</ele>
        <time>2011-07-03T16:06:37Z</time>
      </trkpt>
      <trkpt lat="62.221798" lon="12.495284">
        <ele>874.229</ele>
        <time>2011-07-03T16:06:39Z</time>
      </trkpt>
      <trkpt lat="62.221902" lon="12.495251">
        <ele>874.579</ele>
        <time>2011-07-03T16:06:46Z</time>
      </trkpt>
      <trkpt lat="62.221993" lon="12.495291">
        <ele>875.166</ele>
        <time>2011-07-03T16:06:51Z</time>
      </trkpt>
      <trkpt lat="62.222144" lon="12.495305">
        <ele>874.999</ele>
        <time>2011-07-03T16:06:58Z</time>
      </trkpt>
      <trkpt lat="62.222266" lon="12.495303">
        <ele>875.058</ele>
        <time>2011-07-03T16:07:04Z</time>
      </trkpt>
      <trkpt lat="62.222385" lon="12.495277">
        <ele>875.399</ele>
        <time>2011-07-03T16:07:10Z</time>
      </trkpt>
      <trkpt lat="62.222477" lon="12.495291">
        <ele>876.201</ele>
        <time>2011-07-03T16:07:15Z</time>
      </trkpt>
      <trkpt lat="62.2226" lon="12.495404">
        <ele>876.596</ele>
        <time>2011-07-03T16:07:22Z</time>
      </trkpt>
      <trkpt lat="62.222708" lon="12.495434">
        <ele>876.878</ele>
        <time>2011-07-03T16:07:28Z</time>
      </trkpt>
      <trkpt lat="62.222805" lon="12.495421">
        <ele>877.485</ele>
        <time>2011-07-03T16:07:36Z</time>
      </trkpt>
      <trkpt lat="62.22289" lon="12.495383">
        <ele>878.142</ele>
        <time>2011-07-03T16:07:43Z</time>
      </trkpt>
      <trkpt lat="62.222979" lon="12.495396">
        <ele>878.702</ele>
        <time>2011-07-03T16:07:51Z</time>
      </trkpt>
      <trkpt lat="62.223044" lon="12.495481">
        <ele>878.745</ele>
        <time>2011-07-03T16:07:57Z</time>
      </trkpt>
      <trkpt lat="62.223158" lon="12.495546">
        <ele>878.817</ele>
        <time>2011-07-03T16:08:07Z</time>
      </trkpt>
      <trkpt lat="62.22324" lon="12.495542">
        <ele>878.623</ele>
        <time>2011-07-03T16:08:13Z</time>
      </trkpt>
      <trkpt lat="62.223343" lon="12.495575">
        <ele>878.502</ele>
        <time>2011-07-03T16:08:21Z</time>
      </trkpt>
      <trkpt lat="62.223433" lon="12.495647">
        <ele>878.466</ele>
        <time>2011-07-03T16:08:28Z</time>
      </trkpt>
      <trkpt lat="62.223545" lon="12.495685">
        <ele>878.333</ele>
        <time>2011-07-03T16:08:37Z</time>
      </trkpt>
      <trkpt lat="62.223641" lon="12.495733">
        <ele>878.49</ele>
        <time>2011-07-03T16:08:44Z</time>
      </trkpt>
      <trkpt lat="62.223694" lon="12.49574">
        <ele>878.326</ele>
        <time>2011-07-03T16:08:47Z</time>
      </trkpt>
      <trkpt lat="62.223802" lon="12.495799">
        <ele>877.78</ele>
        <time>2011-07-03T16:08:52Z</time>
      </trkpt>
      <trkpt lat="62.223917" lon="12.495759">
        <ele>878.348</ele>
        <time>2011-07-03T16:08:58Z</time>
      </trkpt>
      <trkpt lat="62.223981" lon="12.495771">
        <ele>879.272</ele>
        <time>2011-07-03T16:09:02Z</time>
      </trkpt>
      <trkpt lat="62.22406" lon="12.495833">
        <ele>879.556</ele>
        <time>2011-07-03T16:09:08Z</time>
      </trkpt>
      <trkpt lat="62.224085" lon="12.495842">
        <ele>879.796</ele>
        <time>2011-07-03T16:09:10Z</time>
      </trkpt>
      <trkpt lat="62.22419" lon="12.495822">
        <ele>880.068</ele>
        <time>2011-07-03T16:09:19Z</time>
      </trkpt>
      <trkpt lat="62.2242" lon="12.495815">
        <ele>880.115</ele>
        <time>2011-07-03T16:09:20Z</time>
      </trkpt>
      <trkpt lat="62.2243" lon="12.49586">
        <ele>879.863</ele>
        <time>2011-07-03T16:09:29Z</time>
      </trkpt>
      <trkpt lat="62.224386" lon="12.495843">
        <ele>880.082</ele>
        <time>2011-07-03T16:09:36Z</time>
      </trkpt>
      <trkpt lat="62.224489" lon="12.495858">
        <ele>880.267</ele>
        <time>2011-07-03T16:09:42Z</time>
      </trkpt>
      <trkpt lat="62.224638" lon="12.495896">
        <ele>879.728</ele>
        <time>2011-07-03T16:09:49Z</time>
      </trkpt>
      <trkpt lat="62.2247" lon="12.495909">
        <ele>879.428</ele>
        <time>2011-07-03T16:09:52Z</time>
      </trkpt>
      <trkpt lat="62.224779" lon="12.495896">
        <ele>879.461</ele>
        <time>2011-07-03T16:09:58Z</time>
      </trkpt>
      <trkpt lat="62.224788" lon="12.495904">
        <ele>879.507</ele>
        <time>2011-07-03T16:09:59Z</time>
      </trkpt>
      <trkpt lat="62.224802" lon="12.495892">
        <ele>879.477</ele>
        <time>2011-07-03T16:10:01Z</time>
      </trkpt>
      <trkpt lat="62.224882" lon="12.495983">
        <ele>879.385</ele>
        <time>2011-07-03T16:10:09Z</time>
      </trkpt>
      <trkpt lat="62.224893" lon="12.496014">
        <ele>879.599</ele>
        <time>2011-07-03T16:10:11Z</time>
      </trkpt>
      <trkpt lat="62.224972" lon="12.496073">
        <ele>879.358</ele>
        <time>2011-07-03T16:10:18Z</time>
      </trkpt>
      <trkpt lat="62.225047" lon="12.496203">
        <ele>879.381</ele>
        <time>2011-07-03T16:10:25Z</time>
      </trkpt>
      <trkpt lat="62.225078" lon="12.496222">
        <ele>879.349</ele>
        <time>2011-07-03T16:10:28Z</time>
      </trkpt>
      <trkpt lat="62.225185" lon="12.496314">
        <ele>879.267</ele>
        <time>2011-07-03T16:10:35Z</time>
      </trkpt>
      <trkpt lat="62.225292" lon="12.496489">
        <ele>879.032</ele>
        <time>2011-07-03T16:10:41Z</time>
      </trkpt>
      <trkpt lat="62.225308" lon="12.496503">
        <ele>879.005</ele>
        <time>2011-07-03T16:10:42Z</time>
      </trkpt>
      <trkpt lat="62.225379" lon="12.496477">
        <ele>879.205</ele>
        <time>2011-07-03T16:10:49Z</time>
      </trkpt>
      <trkpt lat="62.225394" lon="12.496466">
        <ele>879.53</ele>
        <time>2011-07-03T16:10:51Z</time>
      </trkpt>
      <trkpt lat="62.225485" lon="12.496534">
        <ele>879.495</ele>
        <time>2011-07-03T16:10:59Z</time>
      </trkpt>
      <trkpt lat="62.225531" lon="12.496576">
        <ele>879.396</ele>
        <time>2011-07-03T16:11:04Z</time>
      </trkpt>
      <trkpt lat="62.225611" lon="12.496597">
        <ele>878.758</ele>
        <time>2011-07-03T16:11:11Z</time>
      </trkpt>
      <trkpt lat="62.225698" lon="12.496655">
        <ele>877.952</ele>
        <time>2011-07-03T16:11:18Z</time>
      </trkpt>
      <trkpt lat="62.225792" lon="12.496716">
        <ele>875.07</ele>
        <time>2011-07-03T16:11:26Z</time>
      </trkpt>
      <trkpt lat="62.225892" lon="12.496734">
        <ele>873.953</ele>
        <time>2011-07-03T16:11:34Z</time>
      </trkpt>
      <trkpt lat="62.225955" lon="12.496773">
        <ele>872.311</ele>
        <time>2011-07-03T16:11:38Z</time>
      </trkpt>
      <trkpt lat="62.226063" lon="12.49684">
        <ele>870.13</ele>
        <time>2011-07-03T16:11:46Z</time>
      </trkpt>
      <trkpt lat="62.226092" lon="12.496901">
        <ele>868.697</ele>
        <time>2011-07-03T16:11:49Z</time>
      </trkpt>
      <trkpt lat="62.226185" lon="12.497001">
        <ele>866.398</ele>
        <time>2011-07-03T16:11:56Z</time>
      </trkpt>
      <trkpt lat="62.226229" lon="12.497068">
        <ele>865.822</ele>
        <time>2011-07-03T16:12:00Z</time>
      </trkpt>
      <trkpt lat="62.226275" lon="12.497216">
        <ele>865.8</ele>
        <time>2011-07-03T16:12:07Z</time>
      </trkpt>
      <trkpt lat="62.226319" lon="12.497258">
        <ele>865.78</ele>
        <time>2011-07-03T16:12:11Z</time>
      </trkpt>
      <trkpt lat="62.226399" lon="12.497337">
        <ele>865.018</ele>
        <time>2011-07-03T16:12:19Z</time>
      </trkpt>
      <trkpt lat="62.226464" lon="12.497437">
        <ele>865.074</ele>
        <time>2011-07-03T16:12:26Z</time>
      </trkpt>
      <trkpt lat="62.226468" lon="12.497459">
        <ele>864.949</ele>
        <time>2011-07-03T16:12:27Z</time>
      </trkpt>
      <trkpt lat="62.226543" lon="12.497561">
        <ele>864.859</ele>
        <time>2011-07-03T16:12:34Z</time>
      </trkpt>
      <trkpt lat="62.226597" lon="12.497704">
        <ele>864.614</ele>
        <time>2011-07-03T16:12:41Z</time>
      </trkpt>
      <trkpt lat="62.226654" lon="12.497737">
        <ele>865.147</ele>
        <time>2011-07-03T16:12:48Z</time>
      </trkpt>
      <trkpt lat="62.226718" lon="12.497828">
        <ele>864.795</ele>
        <time>2011-07-03T16:12:55Z</time>
      </trkpt>
      <trkpt lat="62.226783" lon="12.497982">
        <ele>863.515</ele>
        <time>2011-07-03T16:13:03Z</time>
      </trkpt>
      <trkpt lat="62.226851" lon="12.498085">
        <ele>862.858</ele>
        <time>2011-07-03T16:13:10Z</time>
      </trkpt>
      <trkpt lat="62.22686" lon="12.498098">
        <ele>862.89</ele>
        <time>2011-07-03T16:13:11Z</time>
      </trkpt>
      <trkpt lat="62.2269" lon="12.498093">
        <ele>862.407</ele>
        <time>2011-07-03T16:13:15Z</time>
      </trkpt>
      <trkpt lat="62.227009" lon="12.498147">
        <ele>861.563</ele>
        <time>2011-07-03T16:13:23Z</time>
      </trkpt>
      <trkpt lat="62.227141" lon="12.498182">
        <ele>859.921</ele>
        <time>2011-07-03T16:13:28Z</time>
      </trkpt>
      <trkpt lat="62.227256" lon="12.498283">
        <ele>858.026</ele>
        <time>2011-07-03T16:13:33Z</time>
      </trkpt>
      <trkpt lat="62.227337" lon="12.498471">
        <ele>857.449</ele>
        <time>2011-07-03T16:13:38Z</time>
      </trkpt>
      <trkpt lat="62.227441" lon="12.498655">
        <ele>856.609</ele>
        <time>2011-07-03T16:13:45Z</time>
      </trkpt>
      <trkpt lat="62.227466" lon="12.498797">
        <ele>854.606</ele>
        <time>2011-07-03T16:13:49Z</time>
      </trkpt>
      <trkpt lat="62.227464" lon="12.498911">
        <ele>852.695</ele>
        <time>2011-07-03T16:13:53Z</time>
      </trkpt>
      <trkpt lat="62.227461" lon="12.499009">
        <ele>852.037</ele>
        <time>2011-07-03T16:13:57Z</time>
      </trkpt>
      <trkpt lat="62.227477" lon="12.499149">
        <ele>851.049</ele>
        <time>2011-07-03T16:14:02Z</time>
      </trkpt>
      <trkpt lat="62.227571" lon="12.499246">
        <ele>850.24</ele>
        <time>2011-07-03T16:14:11Z</time>
      </trkpt>
      <trkpt lat="62.227635" lon="12.499268">
        <ele>849.884</ele>
        <time>2011-07-03T16:14:17Z</time>
      </trkpt>
      <trkpt lat="62.227684" lon="12.499299">
        <ele>849.191</ele>
        <time>2011-07-03T16:14:21Z</time>
      </trkpt>
      <trkpt lat="62.227715" lon="12.49931">
        <ele>848.587</ele>
        <time>2011-07-03T16:14:24Z</time>
      </trkpt>
      <trkpt lat="62.227754" lon="12.499418">
        <ele>848.053</ele>
        <time>2011-07-03T16:14:30Z</time>
      </trkpt>
      <trkpt lat="62.227821" lon="12.499524">
        <ele>847.348</ele>
        <time>2011-07-03T16:14:37Z</time>
      </trkpt>
      <trkpt lat="62.227883" lon="12.499583">
        <ele>846.229</ele>
        <time>2011-07-03T16:14:43Z</time>
      </trkpt>
      <trkpt lat="62.227913" lon="12.499609">
        <ele>845.825</ele>
        <time>2011-07-03T16:14:45Z</time>
      </trkpt>
      <trkpt lat="62.228004" lon="12.499693">
        <ele>845.509</ele>
        <time>2011-07-03T16:14:54Z</time>
      </trkpt>
      <trkpt lat="62.228034" lon="12.499762">
        <ele>846.471</ele>
        <time>2011-07-03T16:15:00Z</time>
      </trkpt>
      <trkpt lat="62.228052" lon="12.499771">
        <ele>846.341</ele>
        <time>2011-07-03T16:15:02Z</time>
      </trkpt>
      <trkpt lat="62.228112" lon="12.499837">
        <ele>846.075</ele>
        <time>2011-07-03T16:15:09Z</time>
      </trkpt>
      <trkpt lat="62.228191" lon="12.49981">
        <ele>845.582</ele>
        <time>2011-07-03T16:15:16Z</time>
      </trkpt>
      <trkpt lat="62.228274" lon="12.499833">
        <ele>844.901</ele>
        <time>2011-07-03T16:15:23Z</time>
      </trkpt>
      <trkpt lat="62.228371" lon="12.499787">
        <ele>845.149</ele>
        <time>2011-07-03T16:15:31Z</time>
      </trkpt>
      <trkpt lat="62.228466" lon="12.499897">
        <ele>844.913</ele>
        <time>2011-07-03T16:15:39Z</time>
      </trkpt>
      <trkpt lat="62.22853" lon="12.499935">
        <ele>844.315</ele>
        <time>2011-07-03T16:15:44Z</time>
      </trkpt>
      <trkpt lat="62.228578" lon="12.500046">
        <ele>844.115</ele>
        <time>2011-07-03T16:15:50Z</time>
      </trkpt>
      <trkpt lat="62.22864" lon="12.500183">
        <ele>843.556</ele>
        <time>2011-07-03T16:15:54Z</time>
      </trkpt>
      <trkpt lat="62.228792" lon="12.500381">
        <ele>842.214</ele>
        <time>2011-07-03T16:16:01Z</time>
      </trkpt>
      <trkpt lat="62.228918" lon="12.500549">
        <ele>840.77</ele>
        <time>2011-07-03T16:16:07Z</time>
      </trkpt>
      <trkpt lat="62.228953" lon="12.500616">
        <ele>840.175</ele>
        <time>2011-07-03T16:16:09Z</time>
      </trkpt>
      <trkpt lat="62.228993" lon="12.500874">
        <ele>839.079</ele>
        <time>2011-07-03T16:16:14Z</time>
      </trkpt>
      <trkpt lat="62.22903" lon="12.501008">
        <ele>839.584</ele>
        <time>2011-07-03T16:16:17Z</time>
      </trkpt>
      <trkpt lat="62.229125" lon="12.501321">
        <ele>838.8</ele>
        <time>2011-07-03T16:16:26Z</time>
      </trkpt>
      <trkpt lat="62.229189" lon="12.501403">
        <ele>837.569</ele>
        <time>2011-07-03T16:16:33Z</time>
      </trkpt>
      <trkpt lat="62.229213" lon="12.50144">
        <ele>837.015</ele>
        <time>2011-07-03T16:16:36Z</time>
      </trkpt>
      <trkpt lat="62.229287" lon="12.501571">
        <ele>835.984</ele>
        <time>2011-07-03T16:16:44Z</time>
      </trkpt>
      <trkpt lat="62.229337" lon="12.50166">
        <ele>835.894</ele>
        <time>2011-07-03T16:16:49Z</time>
      </trkpt>
      <trkpt lat="62.229385" lon="12.501706">
        <ele>835.861</ele>
        <time>2011-07-03T16:16:53Z</time>
      </trkpt>
      <trkpt lat="62.229448" lon="12.501769">
        <ele>835.53</ele>
        <time>2011-07-03T16:16:58Z</time>
      </trkpt>
      <trkpt lat="62.229523" lon="12.501871">
        <ele>835.656</ele>
        <time>2011-07-03T16:17:05Z</time>
      </trkpt>
      <trkpt lat="62.229599" lon="12.502011">
        <ele>835.563</ele>
        <time>2011-07-03T16:17:13Z</time>
      </trkpt>
      <trkpt lat="62.229604" lon="12.502015">
        <ele>835.507</ele>
        <time>2011-07-03T16:17:15Z</time>
      </trkpt>
      <trkpt lat="62.229579" lon="12.502104">
        <ele>834.98</ele>
        <time>2011-07-03T16:17:24Z</time>
      </trkpt>
      <trkpt lat="62.229639" lon="12.502042">
        <ele>835.313</ele>
        <time>2011-07-03T16:17:45Z</time>
      </trkpt>
      <trkpt lat="62.229725" lon="12.501982">
        <ele>835.449</ele>
        <time>2011-07-03T16:17:54Z</time>
      </trkpt>
      <trkpt lat="62.229773" lon="12.501957">
        <ele>835.843</ele>
        <time>2011-07-03T16:18:00Z</time>
      </trkpt>
      <trkpt lat="62.229803" lon="12.501962">
        <ele>836.317</ele>
        <time>2011-07-03T16:18:06Z</time>
      </trkpt>
      <trkpt lat="62.229833" lon="12.501951">
        <ele>836.297</ele>
        <time>2011-07-03T16:18:11Z</time>
      </trkpt>
      <trkpt lat="62.229877" lon="12.501925">
        <ele>835.513</ele>
        <time>2011-07-03T16:18:17Z</time>
      </trkpt>
      <trkpt lat="62.229901" lon="12.501936">
        <ele>835.423</ele>
        <time>2011-07-03T16:18:21Z</time>
      </trkpt>
      <trkpt lat="62.229935" lon="12.501852">
        <ele>835.417</ele>
        <time>2011-07-03T16:18:33Z</time>
      </trkpt>
      <trkpt lat="62.229991" lon="12.501809">
        <ele>835.824</ele>
        <time>2011-07-03T16:18:39Z</time>
      </trkpt>
      <trkpt lat="62.230052" lon="12.501824">
        <ele>836.018</ele>
        <time>2011-07-03T16:18:46Z</time>
      </trkpt>
      <trkpt lat="62.230078" lon="12.50185">
        <ele>835.767</ele>
        <time>2011-07-03T16:18:49Z</time>
      </trkpt>
      <trkpt lat="62.230092" lon="12.501843">
        <ele>835.919</ele>
        <time>2011-07-03T16:18:51Z</time>
      </trkpt>
      <trkpt lat="62.230146" lon="12.50188">
        <ele>836.646</ele>
        <time>2011-07-03T16:18:56Z</time>
      </trkpt>
      <trkpt lat="62.230235" lon="12.501872">
        <ele>837.131</ele>
        <time>2011-07-03T16:19:04Z</time>
      </trkpt>
      <trkpt lat="62.230289" lon="12.501913">
        <ele>837.047</ele>
        <time>2011-07-03T16:19:10Z</time>
      </trkpt>
      <trkpt lat="62.230377" lon="12.501932">
        <ele>836.605</ele>
        <time>2011-07-03T16:19:17Z</time>
      </trkpt>
      <trkpt lat="62.230431" lon="12.501901">
        <ele>836.309</ele>
        <time>2011-07-03T16:19:23Z</time>
      </trkpt>
      <trkpt lat="62.230454" lon="12.501891">
        <ele>836.51</ele>
        <time>2011-07-03T16:19:26Z</time>
      </trkpt>
      <trkpt lat="62.230522" lon="12.501933">
        <ele>836.063</ele>
        <time>2011-07-03T16:19:32Z</time>
      </trkpt>
      <trkpt lat="62.230582" lon="12.502034">
        <ele>835.787</ele>
        <time>2011-07-03T16:19:39Z</time>
      </trkpt>
      <trkpt lat="62.230654" lon="12.502058">
        <ele>835.563</ele>
        <time>2011-07-03T16:19:46Z</time>
      </trkpt>
      <trkpt lat="62.230739" lon="12.502072">
        <ele>835.918</ele>
        <time>2011-07-03T16:19:53Z</time>
      </trkpt>
      <trkpt lat="62.230825" lon="12.502109">
        <ele>836.158</ele>
        <time>2011-07-03T16:20:00Z</time>
      </trkpt>
      <trkpt lat="62.23089" lon="12.502133">
        <ele>835.324</ele>
        <time>2011-07-03T16:20:07Z</time>
      </trkpt>
      <trkpt lat="62.230934" lon="12.502115">
        <ele>835.38</ele>
        <time>2011-07-03T16:20:12Z</time>
      </trkpt>
      <trkpt lat="62.230961" lon="12.50211">
        <ele>835.337</ele>
        <time>2011-07-03T16:20:15Z</time>
      </trkpt>
      <trkpt lat="62.231011" lon="12.50206">
        <ele>835.006</ele>
        <time>2011-07-03T16:20:20Z</time>
      </trkpt>
      <trkpt lat="62.231094" lon="12.501979">
        <ele>835.062</ele>
        <time>2011-07-03T16:20:29Z</time>
      </trkpt>
      <trkpt lat="62.231101" lon="12.501968">
        <ele>835.022</ele>
        <time>2011-07-03T16:20:30Z</time>
      </trkpt>
      <trkpt lat="62.23114" lon="12.501985">
        <ele>834.752</ele>
        <time>2011-07-03T16:20:34Z</time>
      </trkpt>
      <trkpt lat="62.231194" lon="12.501941">
        <ele>834.172</ele>
        <time>2011-07-03T16:20:40Z</time>
      </trkpt>
      <trkpt lat="62.231247" lon="12.501895">
        <ele>833.642</ele>
        <time>2011-07-03T16:20:45Z</time>
      </trkpt>
      <trkpt lat="62.231329" lon="12.501864">
        <ele>832.636</ele>
        <time>2011-07-03T16:20:52Z</time>
      </trkpt>
      <trkpt lat="62.231424" lon="12.501881">
        <ele>832.057</ele>
        <time>2011-07-03T16:20:59Z</time>
      </trkpt>
      <trkpt lat="62.231489" lon="12.501898">
        <ele>831.157</ele>
        <time>2011-07-03T16:21:05Z</time>
      </trkpt>
      <trkpt lat="62.23158" lon="12.50188">
        <ele>830.287</ele>
        <time>2011-07-03T16:21:13Z</time>
      </trkpt>
      <trkpt lat="62.231646" lon="12.501873">
        <ele>829.919</ele>
        <time>2011-07-03T16:21:20Z</time>
      </trkpt>
      <trkpt lat="62.231733" lon="12.50185">
        <ele>829.814</ele>
        <time>2011-07-03T16:21:28Z</time>
      </trkpt>
      <trkpt lat="62.231781" lon="12.501857">
        <ele>829.228</ele>
        <time>2011-07-03T16:21:32Z</time>
      </trkpt>
      <trkpt lat="62.23192" lon="12.501979">
        <ele>829.074</ele>
        <time>2011-07-03T16:21:39Z</time>
      </trkpt>
      <trkpt lat="62.232131" lon="12.502112">
        <ele>829.435</ele>
        <time>2011-07-03T16:21:48Z</time>
      </trkpt>
      <trkpt lat="62.232342" lon="12.502174">
        <ele>829.656</ele>
        <time>2011-07-03T16:21:57Z</time>
      </trkpt>
      <trkpt lat="62.232551" lon="12.502214">
        <ele>829.812</ele>
        <time>2011-07-03T16:22:06Z</time>
      </trkpt>
      <trkpt lat="62.232794" lon="12.50228">
        <ele>829.687</ele>
        <time>2011-07-03T16:22:17Z</time>
      </trkpt>
      <trkpt lat="62.233028" lon="12.50235">
        <ele>829.804</ele>
        <time>2011-07-03T16:22:27Z</time>
      </trkpt>
      <trkpt lat="62.233224" lon="12.502348">
        <ele>829.294</ele>
        <time>2011-07-03T16:22:36Z</time>
      </trkpt>
      <trkpt lat="62.233327" lon="12.502352">
        <ele>829.677</ele>
        <time>2011-07-03T16:22:43Z</time>
      </trkpt>
      <trkpt lat="62.233431" lon="12.502348">
        <ele>829.172</ele>
        <time>2011-07-03T16:22:48Z</time>
      </trkpt>
      <trkpt lat="62.233565" lon="12.502251">
        <ele>829.156</ele>
        <time>2011-07-03T16:22:55Z</time>
      </trkpt>
      <trkpt lat="62.23363" lon="12.502199">
        <ele>829.031</ele>
        <time>2011-07-03T16:23:01Z</time>
      </trkpt>
      <trkpt lat="62.233737" lon="12.502114">
        <ele>829.005</ele>
        <time>2011-07-03T16:23:08Z</time>
      </trkpt>
      <trkpt lat="62.233868" lon="12.50203">
        <ele>828.494</ele>
        <time>2011-07-03T16:23:19Z</time>
      </trkpt>
      <trkpt lat="62.233991" lon="12.50199">
        <ele>828.756</ele>
        <time>2011-07-03T16:23:25Z</time>
      </trkpt>
      <trkpt lat="62.234217" lon="12.501957">
        <ele>828.604</ele>
        <time>2011-07-03T16:23:34Z</time>
      </trkpt>
      <trkpt lat="62.234351" lon="12.501926">
        <ele>828.772</ele>
        <time>2011-07-03T16:23:41Z</time>
      </trkpt>
      <trkpt lat="62.234401" lon="12.501917">
        <ele>828.891</ele>
        <time>2011-07-03T16:23:45Z</time>
      </trkpt>
      <trkpt lat="62.234442" lon="12.501902">
        <ele>828.821</ele>
        <time>2011-07-03T16:23:50Z</time>
      </trkpt>
      <trkpt lat="62.234541" lon="12.501872">
        <ele>828.804</ele>
        <time>2011-07-03T16:23:58Z</time>
      </trkpt>
      <trkpt lat="62.234661" lon="12.501829">
        <ele>828.706</ele>
        <time>2011-07-03T16:24:04Z</time>
      </trkpt>
      <trkpt lat="62.23486" lon="12.501733">
        <ele>828.791</ele>
        <time>2011-07-03T16:24:13Z</time>
      </trkpt>
      <trkpt lat="62.234917" lon="12.501689">
        <ele>828.774</ele>
        <time>2011-07-03T16:24:16Z</time>
      </trkpt>
      <trkpt lat="62.235089" lon="12.501769">
        <ele>828.328</ele>
        <time>2011-07-03T16:24:24Z</time>
      </trkpt>
      <trkpt lat="62.235214" lon="12.501856">
        <ele>828.322</ele>
        <time>2011-07-03T16:24:30Z</time>
      </trkpt>
      <trkpt lat="62.235274" lon="12.501875">
        <ele>828.301</ele>
        <time>2011-07-03T16:24:33Z</time>
      </trkpt>
      <trkpt lat="62.235405" lon="12.50194">
        <ele>828.452</ele>
        <time>2011-07-03T16:24:39Z</time>
      </trkpt>
      <trkpt lat="62.235469" lon="12.502007">
        <ele>828.438</ele>
        <time>2011-07-03T16:24:42Z</time>
      </trkpt>
      <trkpt lat="62.235643" lon="12.502282">
        <ele>828.37</ele>
        <time>2011-07-03T16:24:50Z</time>
      </trkpt>
      <trkpt lat="62.235758" lon="12.502647">
        <ele>828.282</ele>
        <time>2011-07-03T16:24:58Z</time>
      </trkpt>
      <trkpt lat="62.235849" lon="12.502905">
        <ele>828.268</ele>
        <time>2011-07-03T16:25:04Z</time>
      </trkpt>
      <trkpt lat="62.23593" lon="12.503017">
        <ele>828.006</ele>
        <time>2011-07-03T16:25:10Z</time>
      </trkpt>
      <trkpt lat="62.235969" lon="12.503151">
        <ele>828.035</ele>
        <time>2011-07-03T16:25:15Z</time>
      </trkpt>
      <trkpt lat="62.236026" lon="12.50328">
        <ele>828.136</ele>
        <time>2011-07-03T16:25:22Z</time>
      </trkpt>
      <trkpt lat="62.236026" lon="12.503284">
        <ele>828.124</ele>
        <time>2011-07-03T16:25:23Z</time>
      </trkpt>
      <trkpt lat="62.236074" lon="12.503358">
        <ele>828.013</ele>
        <time>2011-07-03T16:25:31Z</time>
      </trkpt>
      <trkpt lat="62.236134" lon="12.503435">
        <ele>828.017</ele>
        <time>2011-07-03T16:25:37Z</time>
      </trkpt>
      <trkpt lat="62.236142" lon="12.503451">
        <ele>828.043</ele>
        <time>2011-07-03T16:25:38Z</time>
      </trkpt>
      <trkpt lat="62.23622" lon="12.503548">
        <ele>828.145</ele>
        <time>2011-07-03T16:25:46Z</time>
      </trkpt>
      <trkpt lat="62.236248" lon="12.503628">
        <ele>827.896</ele>
        <time>2011-07-03T16:25:50Z</time>
      </trkpt>
      <trkpt lat="62.236327" lon="12.5037">
        <ele>827.786</ele>
        <time>2011-07-03T16:25:58Z</time>
      </trkpt>
      <trkpt lat="62.236357" lon="12.503731">
        <ele>827.624</ele>
        <time>2011-07-03T16:26:01Z</time>
      </trkpt>
      <trkpt lat="62.236448" lon="12.503743">
        <ele>827.434</ele>
        <time>2011-07-03T16:26:10Z</time>
      </trkpt>
      <trkpt lat="62.236468" lon="12.503733">
        <ele>827.289</ele>
        <time>2011-07-03T16:26:12Z</time>
      </trkpt>
      <trkpt lat="62.236528" lon="12.503688">
        <ele>826.956</ele>
        <time>2011-07-03T16:26:18Z</time>
      </trkpt>
      <trkpt lat="62.236569" lon="12.503701">
        <ele>826.65</ele>
        <time>2011-07-03T16:26:22Z</time>
      </trkpt>
      <trkpt lat="62.236654" lon="12.503723">
        <ele>826.377</ele>
        <time>2011-07-03T16:26:30Z</time>
      </trkpt>
      <trkpt lat="62.236731" lon="12.503689">
        <ele>826.412</ele>
        <time>2011-07-03T16:26:37Z</time>
      </trkpt>
      <trkpt lat="62.236845" lon="12.503674">
        <ele>825.759</ele>
        <time>2011-07-03T16:26:47Z</time>
      </trkpt>
      <trkpt lat="62.236963" lon="12.503605">
        <ele>825.42</ele>
        <time>2011-07-03T16:26:57Z</time>
      </trkpt>
      <trkpt lat="62.237129" lon="12.503711">
        <ele>825.404</ele>
        <time>2011-07-03T16:27:04Z</time>
      </trkpt>
      <trkpt lat="62.237367" lon="12.503968">
        <ele>825.474</ele>
        <time>2011-07-03T16:27:14Z</time>
      </trkpt>
      <trkpt lat="62.237525" lon="12.504224">
        <ele>825.452</ele>
        <time>2011-07-03T16:27:22Z</time>
      </trkpt>
      <trkpt lat="62.23762" lon="12.504408">
        <ele>825.109</ele>
        <time>2011-07-03T16:27:29Z</time>
      </trkpt>
      <trkpt lat="62.237681" lon="12.504535">
        <ele>825.453</ele>
        <time>2011-07-03T16:27:36Z</time>
      </trkpt>
      <trkpt lat="62.237738" lon="12.504642">
        <ele>825.125</ele>
        <time>2011-07-03T16:27:42Z</time>
      </trkpt>
      <trkpt lat="62.237772" lon="12.504754">
        <ele>825.428</ele>
        <time>2011-07-03T16:27:47Z</time>
      </trkpt>
      <trkpt lat="62.237852" lon="12.504954">
        <ele>825.288</ele>
        <time>2011-07-03T16:27:56Z</time>
      </trkpt>
      <trkpt lat="62.23796" lon="12.505208">
        <ele>824.785</ele>
        <time>2011-07-03T16:28:03Z</time>
      </trkpt>
      <trkpt lat="62.238006" lon="12.5053">
        <ele>825.3</ele>
        <time>2011-07-03T16:28:09Z</time>
      </trkpt>
      <trkpt lat="62.238057" lon="12.505376">
        <ele>824.697</ele>
        <time>2011-07-03T16:28:15Z</time>
      </trkpt>
      <trkpt lat="62.238159" lon="12.505444">
        <ele>824.335</ele>
        <time>2011-07-03T16:28:24Z</time>
      </trkpt>
      <trkpt lat="62.238291" lon="12.505528">
        <ele>824.143</ele>
        <time>2011-07-03T16:28:32Z</time>
      </trkpt>
      <trkpt lat="62.238315" lon="12.505536">
        <ele>824.204</ele>
        <time>2011-07-03T16:28:35Z</time>
      </trkpt>
      <trkpt lat="62.23837" lon="12.505581">
        <ele>824.39</ele>
        <time>2011-07-03T16:28:41Z</time>
      </trkpt>
      <trkpt lat="62.238445" lon="12.505636">
        <ele>824.038</ele>
        <time>2011-07-03T16:28:49Z</time>
      </trkpt>
      <trkpt lat="62.238462" lon="12.505675">
        <ele>824.074</ele>
        <time>2011-07-03T16:28:52Z</time>
      </trkpt>
      <trkpt lat="62.238527" lon="12.505739">
        <ele>823.791</ele>
        <time>2011-07-03T16:28:59Z</time>
      </trkpt>
      <trkpt lat="62.238606" lon="12.50584">
        <ele>823.533</ele>
        <time>2011-07-03T16:29:07Z</time>
      </trkpt>
      <trkpt lat="62.238636" lon="12.50586">
        <ele>823.496</ele>
        <time>2011-07-03T16:29:08Z</time>
      </trkpt>
      <trkpt lat="62.238693" lon="12.505947">
        <ele>823.309</ele>
        <time>2011-07-03T16:29:14Z</time>
      </trkpt>
      <trkpt lat="62.23878" lon="12.506074">
        <ele>823.142</ele>
        <time>2011-07-03T16:29:22Z</time>
      </trkpt>
      <trkpt lat="62.238786" lon="12.506084">
        <ele>823.254</ele>
        <time>2011-07-03T16:29:23Z</time>
      </trkpt>
      <trkpt lat="62.238845" lon="12.506107">
        <ele>823.231</ele>
        <time>2011-07-03T16:29:28Z</time>
      </trkpt>
      <trkpt lat="62.23891" lon="12.506212">
        <ele>822.782</ele>
        <time>2011-07-03T16:29:36Z</time>
      </trkpt>
      <trkpt lat="62.238977" lon="12.506338">
        <ele>822.612</ele>
        <time>2011-07-03T16:29:44Z</time>
      </trkpt>
      <trkpt lat="62.239015" lon="12.506394">
        <ele>822.58</ele>
        <time>2011-07-03T16:29:49Z</time>
      </trkpt>
      <trkpt lat="62.239042" lon="12.506465">
        <ele>822.395</ele>
        <time>2011-07-03T16:29:53Z</time>
      </trkpt>
      <trkpt lat="62.239064" lon="12.506499">
        <ele>822.541</ele>
        <time>2011-07-03T16:29:56Z</time>
      </trkpt>
      <trkpt lat="62.239093" lon="12.506573">
        <ele>822.946</ele>
        <time>2011-07-03T16:30:00Z</time>
      </trkpt>
      <trkpt lat="62.239201" lon="12.506746">
        <ele>822.758</ele>
        <time>2011-07-03T16:30:09Z</time>
      </trkpt>
      <trkpt lat="62.239304" lon="12.506859">
        <ele>822.303</ele>
        <time>2011-07-03T16:30:16Z</time>
      </trkpt>
      <trkpt lat="62.239347" lon="12.506905">
        <ele>822.182</ele>
        <time>2011-07-03T16:30:18Z</time>
      </trkpt>
      <trkpt lat="62.239411" lon="12.507005">
        <ele>821.912</ele>
        <time>2011-07-03T16:30:24Z</time>
      </trkpt>
      <trkpt lat="62.23945" lon="12.507021">
        <ele>821.563</ele>
        <time>2011-07-03T16:30:28Z</time>
      </trkpt>
      <trkpt lat="62.239548" lon="12.50717">
        <ele>821.871</ele>
        <time>2011-07-03T16:30:37Z</time>
      </trkpt>
      <trkpt lat="62.239609" lon="12.507243">
        <ele>822.545</ele>
        <time>2011-07-03T16:30:43Z</time>
      </trkpt>
      <trkpt lat="62.239687" lon="12.507266">
        <ele>823.159</ele>
        <time>2011-07-03T16:30:50Z</time>
      </trkpt>
      <trkpt lat="62.239774" lon="12.507269">
        <ele>823.416</ele>
        <time>2011-07-03T16:30:58Z</time>
      </trkpt>
      <trkpt lat="62.239807" lon="12.507308">
        <ele>823.044</ele>
        <time>2011-07-03T16:31:01Z</time>
      </trkpt>
      <trkpt lat="62.239881" lon="12.507282">
        <ele>822.126</ele>
        <time>2011-07-03T16:31:06Z</time>
      </trkpt>
      <trkpt lat="62.239901" lon="12.50729">
        <ele>822.002</ele>
        <time>2011-07-03T16:31:07Z</time>
      </trkpt>
      <trkpt lat="62.23994" lon="12.507307">
        <ele>821.821</ele>
        <time>2011-07-03T16:31:09Z</time>
      </trkpt>
      <trkpt lat="62.240066" lon="12.507367">
        <ele>821.399</ele>
        <time>2011-07-03T16:31:16Z</time>
      </trkpt>
      <trkpt lat="62.240235" lon="12.50743">
        <ele>821.267</ele>
        <time>2011-07-03T16:31:24Z</time>
      </trkpt>
      <trkpt lat="62.240375" lon="12.507513">
        <ele>820.92</ele>
        <time>2011-07-03T16:31:31Z</time>
      </trkpt>
      <trkpt lat="62.240446" lon="12.507572">
        <ele>821.147</ele>
        <time>2011-07-03T16:31:36Z</time>
      </trkpt>
      <trkpt lat="62.240536" lon="12.507694">
        <ele>821.434</ele>
        <time>2011-07-03T16:31:44Z</time>
      </trkpt>
      <trkpt lat="62.240613" lon="12.507712">
        <ele>822.219</ele>
        <time>2011-07-03T16:31:51Z</time>
      </trkpt>
      <trkpt lat="62.240635" lon="12.507708">
        <ele>822.171</ele>
        <time>2011-07-03T16:31:53Z</time>
      </trkpt>
      <trkpt lat="62.240698" lon="12.507751">
        <ele>821.742</ele>
        <time>2011-07-03T16:31:59Z</time>
      </trkpt>
      <trkpt lat="62.240715" lon="12.507778">
        <ele>822.188</ele>
        <time>2011-07-03T16:32:03Z</time>
      </trkpt>
      <trkpt lat="62.240808" lon="12.507803">
        <ele>822.591</ele>
        <time>2011-07-03T16:32:12Z</time>
      </trkpt>
      <trkpt lat="62.240875" lon="12.507834">
        <ele>819.416</ele>
        <time>2011-07-03T16:32:16Z</time>
      </trkpt>
      <trkpt lat="62.240923" lon="12.50785">
        <ele>819.299</ele>
        <time>2011-07-03T16:32:22Z</time>
      </trkpt>
      <trkpt lat="62.24097" lon="12.507861">
        <ele>819.304</ele>
        <time>2011-07-03T16:32:28Z</time>
      </trkpt>
      <trkpt lat="62.241" lon="12.507934">
        <ele>819.454</ele>
        <time>2011-07-03T16:32:33Z</time>
      </trkpt>
      <trkpt lat="62.241061" lon="12.50803">
        <ele>819.219</ele>
        <time>2011-07-03T16:32:39Z</time>
      </trkpt>
      <trkpt lat="62.24115" lon="12.508046">
        <ele>818.447</ele>
        <time>2011-07-03T16:33:05Z</time>
      </trkpt>
      <trkpt lat="62.241151" lon="12.508044">
        <ele>818.656</ele>
        <time>2011-07-03T16:33:06Z</time>
      </trkpt>
      <trkpt lat="62.241209" lon="12.508224">
        <ele>818.911</ele>
        <time>2011-07-03T16:33:17Z</time>
      </trkpt>
      <trkpt lat="62.241237" lon="12.508275">
        <ele>819.576</ele>
        <time>2011-07-03T16:33:22Z</time>
      </trkpt>
      <trkpt lat="62.241296" lon="12.508383">
        <ele>819.946</ele>
        <time>2011-07-03T16:33:29Z</time>
      </trkpt>
      <trkpt lat="62.241369" lon="12.508425">
        <ele>820.043</ele>
        <time>2011-07-03T16:33:37Z</time>
      </trkpt>
      <trkpt lat="62.241441" lon="12.508485">
        <ele>819.857</ele>
        <time>2011-07-03T16:33:46Z</time>
      </trkpt>
      <trkpt lat="62.241498" lon="12.508524">
        <ele>819.823</ele>
        <time>2011-07-03T16:33:53Z</time>
      </trkpt>
      <trkpt lat="62.241591" lon="12.508505">
        <ele>819.923</ele>
        <time>2011-07-03T16:34:01Z</time>
      </trkpt>
      <trkpt lat="62.241614" lon="12.508527">
        <ele>819.917</ele>
        <time>2011-07-03T16:34:07Z</time>
      </trkpt>
      <trkpt lat="62.241619" lon="12.508484">
        <ele>819.685</ele>
        <time>2011-07-03T16:34:12Z</time>
      </trkpt>
      <trkpt lat="62.24173" lon="12.508508">
        <ele>819.774</ele>
        <time>2011-07-03T16:34:21Z</time>
      </trkpt>
      <trkpt lat="62.241756" lon="12.508476">
        <ele>820.4</ele>
        <time>2011-07-03T16:34:26Z</time>
      </trkpt>
      <trkpt lat="62.241851" lon="12.50848">
        <ele>820.277</ele>
        <time>2011-07-03T16:34:34Z</time>
      </trkpt>
      <trkpt lat="62.241896" lon="12.508467">
        <ele>819.524</ele>
        <time>2011-07-03T16:35:11Z</time>
      </trkpt>
      <trkpt lat="62.241909" lon="12.508468">
        <ele>819.187</ele>
        <time>2011-07-03T16:35:12Z</time>
      </trkpt>
      <trkpt lat="62.241965" lon="12.508524">
        <ele>818.061</ele>
        <time>2011-07-03T16:35:17Z</time>
      </trkpt>
      <trkpt lat="62.242042" lon="12.508551">
        <ele>817.053</ele>
        <time>2011-07-03T16:35:25Z</time>
      </trkpt>
      <trkpt lat="62.242131" lon="12.508524">
        <ele>816.696</ele>
        <time>2011-07-03T16:35:33Z</time>
      </trkpt>
      <trkpt lat="62.242161" lon="12.508554">
        <ele>816.534</ele>
        <time>2011-07-03T16:35:38Z</time>
      </trkpt>
      <trkpt lat="62.242208" lon="12.508564">
        <ele>815.973</ele>
        <time>2011-07-03T16:35:46Z</time>
      </trkpt>
      <trkpt lat="62.242303" lon="12.508553">
        <ele>814.694</ele>
        <time>2011-07-03T16:35:54Z</time>
      </trkpt>
      <trkpt lat="62.242423" lon="12.508589">
        <ele>813.987</ele>
        <time>2011-07-03T16:36:00Z</time>
      </trkpt>
      <trkpt lat="62.242519" lon="12.508764">
        <ele>814.147</ele>
        <time>2011-07-03T16:36:07Z</time>
      </trkpt>
      <trkpt lat="62.242605" lon="12.50894">
        <ele>814.191</ele>
        <time>2011-07-03T16:36:13Z</time>
      </trkpt>
      <trkpt lat="62.242635" lon="12.508975">
        <ele>814.025</ele>
        <time>2011-07-03T16:36:15Z</time>
      </trkpt>
      <trkpt lat="62.242697" lon="12.509123">
        <ele>813.984</ele>
        <time>2011-07-03T16:36:20Z</time>
      </trkpt>
      <trkpt lat="62.242719" lon="12.509181">
        <ele>813.59</ele>
        <time>2011-07-03T16:36:22Z</time>
      </trkpt>
      <trkpt lat="62.242801" lon="12.509267">
        <ele>813.558</ele>
        <time>2011-07-03T16:36:28Z</time>
      </trkpt>
      <trkpt lat="62.242881" lon="12.509345">
        <ele>813.294</ele>
        <time>2011-07-03T16:36:35Z</time>
      </trkpt>
      <trkpt lat="62.242952" lon="12.509407">
        <ele>813.102</ele>
        <time>2011-07-03T16:36:41Z</time>
      </trkpt>
      <trkpt lat="62.243002" lon="12.50947">
        <ele>813.241</ele>
        <time>2011-07-03T16:36:47Z</time>
      </trkpt>
      <trkpt lat="62.243012" lon="12.509468">
        <ele>813.157</ele>
        <time>2011-07-03T16:36:48Z</time>
      </trkpt>
      <trkpt lat="62.243029" lon="12.509472">
        <ele>812.967</ele>
        <time>2011-07-03T16:36:50Z</time>
      </trkpt>
      <trkpt lat="62.243104" lon="12.509502">
        <ele>812.902</ele>
        <time>2011-07-03T16:36:56Z</time>
      </trkpt>
      <trkpt lat="62.243152" lon="12.509527">
        <ele>812.681</ele>
        <time>2011-07-03T16:37:00Z</time>
      </trkpt>
      <trkpt lat="62.243217" lon="12.509619">
        <ele>812.308</ele>
        <time>2011-07-03T16:37:05Z</time>
      </trkpt>
      <trkpt lat="62.243272" lon="12.509746">
        <ele>812.13</ele>
        <time>2011-07-03T16:37:09Z</time>
      </trkpt>
      <trkpt lat="62.243374" lon="12.509804">
        <ele>811.807</ele>
        <time>2011-07-03T16:37:14Z</time>
      </trkpt>
      <trkpt lat="62.243514" lon="12.509769">
        <ele>812.347</ele>
        <time>2011-07-03T16:37:21Z</time>
      </trkpt>
      <trkpt lat="62.24358" lon="12.509776">
        <ele>813.433</ele>
        <time>2011-07-03T16:37:25Z</time>
      </trkpt>
      <trkpt lat="62.24365" lon="12.509797">
        <ele>813.111</ele>
        <time>2011-07-03T16:37:32Z</time>
      </trkpt>
      <trkpt lat="62.24373" lon="12.509806">
        <ele>812.319</ele>
        <time>2011-07-03T16:37:37Z</time>
      </trkpt>
      <trkpt lat="62.243822" lon="12.509819">
        <ele>811.547</ele>
        <time>2011-07-03T16:37:42Z</time>
      </trkpt>
      <trkpt lat="62.243936" lon="12.509912">
        <ele>810.842</ele>
        <time>2011-07-03T16:37:48Z</time>
      </trkpt>
      <trkpt lat="62.243987" lon="12.50996">
        <ele>810.36</ele>
        <time>2011-07-03T16:37:51Z</time>
      </trkpt>
      <trkpt lat="62.244027" lon="12.510014">
        <ele>811.118</ele>
        <time>2011-07-03T16:37:54Z</time>
      </trkpt>
      <trkpt lat="62.244092" lon="12.510049">
        <ele>811.299</ele>
        <time>2011-07-03T16:37:59Z</time>
      </trkpt>
      <trkpt lat="62.244154" lon="12.510082">
        <ele>811.186</ele>
        <time>2011-07-03T16:38:03Z</time>
      </trkpt>
      <trkpt lat="62.244211" lon="12.510095">
        <ele>810.81</ele>
        <time>2011-07-03T16:38:07Z</time>
      </trkpt>
      <trkpt lat="62.244264" lon="12.510141">
        <ele>810.671</ele>
        <time>2011-07-03T16:38:12Z</time>
      </trkpt>
      <trkpt lat="62.244346" lon="12.510238">
        <ele>810.783</ele>
        <time>2011-07-03T16:38:18Z</time>
      </trkpt>
      <trkpt lat="62.244468" lon="12.510352">
        <ele>811.681</ele>
        <time>2011-07-03T16:38:26Z</time>
      </trkpt>
      <trkpt lat="62.244587" lon="12.510484">
        <ele>810.619</ele>
        <time>2011-07-03T16:38:32Z</time>
      </trkpt>
      <trkpt lat="62.244714" lon="12.510539">
        <ele>808.231</ele>
        <time>2011-07-03T16:38:40Z</time>
      </trkpt>
      <trkpt lat="62.244795" lon="12.51058">
        <ele>808.207</ele>
        <time>2011-07-03T16:38:47Z</time>
      </trkpt>
      <trkpt lat="62.244865" lon="12.510621">
        <ele>807.993</ele>
        <time>2011-07-03T16:38:52Z</time>
      </trkpt>
      <trkpt lat="62.24494" lon="12.510692">
        <ele>807.115</ele>
        <time>2011-07-03T16:38:59Z</time>
      </trkpt>
      <trkpt lat="62.244994" lon="12.510734">
        <ele>807.032</ele>
        <time>2011-07-03T16:39:02Z</time>
      </trkpt>
      <trkpt lat="62.245089" lon="12.510712">
        <ele>807.326</ele>
        <time>2011-07-03T16:39:08Z</time>
      </trkpt>
      <trkpt lat="62.245141" lon="12.510714">
        <ele>807.727</ele>
        <time>2011-07-03T16:39:11Z</time>
      </trkpt>
      <trkpt lat="62.245209" lon="12.510702">
        <ele>808.177</ele>
        <time>2011-07-03T16:39:15Z</time>
      </trkpt>
      <trkpt lat="62.245341" lon="12.510704">
        <ele>808.272</ele>
        <time>2011-07-03T16:39:24Z</time>
      </trkpt>
      <trkpt lat="62.245448" lon="12.510713">
        <ele>807.799</ele>
        <time>2011-07-03T16:39:31Z</time>
      </trkpt>
      <trkpt lat="62.245561" lon="12.510679">
        <ele>807.466</ele>
        <time>2011-07-03T16:39:37Z</time>
      </trkpt>
      <trkpt lat="62.245663" lon="12.510671">
        <ele>807.049</ele>
        <time>2011-07-03T16:39:43Z</time>
      </trkpt>
      <trkpt lat="62.245699" lon="12.510687">
        <ele>806.617</ele>
        <time>2011-07-03T16:39:45Z</time>
      </trkpt>
      <trkpt lat="62.245768" lon="12.510747">
        <ele>805.511</ele>
        <time>2011-07-03T16:39:49Z</time>
      </trkpt>
      <trkpt lat="62.24587" lon="12.510718">
        <ele>804.016</ele>
        <time>2011-07-03T16:39:55Z</time>
      </trkpt>
      <trkpt lat="62.245941" lon="12.510728">
        <ele>803.008</ele>
        <time>2011-07-03T16:40:03Z</time>
      </trkpt>
      <trkpt lat="62.245966" lon="12.510745">
        <ele>802.62</ele>
        <time>2011-07-03T16:40:05Z</time>
      </trkpt>
      <trkpt lat="62.246028" lon="12.510764">
        <ele>800.884</ele>
        <time>2011-07-03T16:40:09Z</time>
      </trkpt>
      <trkpt lat="62.246117" lon="12.510693">
        <ele>799.672</ele>
        <time>2011-07-03T16:40:14Z</time>
      </trkpt>
      <trkpt lat="62.24621" lon="12.510691">
        <ele>799.453</ele>
        <time>2011-07-03T16:40:22Z</time>
      </trkpt>
      <trkpt lat="62.246306" lon="12.510653">
        <ele>800.25</ele>
        <time>2011-07-03T16:40:30Z</time>
      </trkpt>
      <trkpt lat="62.246381" lon="12.510687">
        <ele>801.941</ele>
        <time>2011-07-03T16:40:39Z</time>
      </trkpt>
      <trkpt lat="62.246427" lon="12.510683">
        <ele>801.974</ele>
        <time>2011-07-03T16:40:44Z</time>
      </trkpt>
      <trkpt lat="62.246464" lon="12.510682">
        <ele>802.009</ele>
        <time>2011-07-03T16:40:48Z</time>
      </trkpt>
      <trkpt lat="62.246533" lon="12.510709">
        <ele>800.295</ele>
        <time>2011-07-03T16:40:55Z</time>
      </trkpt>
      <trkpt lat="62.246629" lon="12.510738">
        <ele>799.253</ele>
        <time>2011-07-03T16:41:03Z</time>
      </trkpt>
      <trkpt lat="62.246694" lon="12.510795">
        <ele>799.02</ele>
        <time>2011-07-03T16:41:08Z</time>
      </trkpt>
      <trkpt lat="62.246742" lon="12.510785">
        <ele>798.412</ele>
        <time>2011-07-03T16:41:12Z</time>
      </trkpt>
      <trkpt lat="62.246845" lon="12.510696">
        <ele>796.903</ele>
        <time>2011-07-03T16:41:20Z</time>
      </trkpt>
      <trkpt lat="62.24694" lon="12.510698">
        <ele>795.375</ele>
        <time>2011-07-03T16:41:28Z</time>
      </trkpt>
      <trkpt lat="62.246995" lon="12.510718">
        <ele>793.965</ele>
        <time>2011-07-03T16:41:33Z</time>
      </trkpt>
      <trkpt lat="62.24706" lon="12.510687">
        <ele>792.937</ele>
        <time>2011-07-03T16:41:39Z</time>
      </trkpt>
      <trkpt lat="62.247083" lon="12.510635">
        <ele>792.514</ele>
        <time>2011-07-03T16:41:41Z</time>
      </trkpt>
      <trkpt lat="62.247164" lon="12.5106">
        <ele>791.445</ele>
        <time>2011-07-03T16:41:47Z</time>
      </trkpt>
      <trkpt lat="62.247252" lon="12.51047">
        <ele>792.169</ele>
        <time>2011-07-03T16:41:56Z</time>
      </trkpt>
      <trkpt lat="62.247268" lon="12.510473">
        <ele>792.624</ele>
        <time>2011-07-03T16:41:58Z</time>
      </trkpt>
      <trkpt lat="62.247325" lon="12.510447">
        <ele>794.169</ele>
        <time>2011-07-03T16:42:04Z</time>
      </trkpt>
      <trkpt lat="62.247409" lon="12.510481">
        <ele>796.689</ele>
        <time>2011-07-03T16:42:13Z</time>
      </trkpt>
      <trkpt lat="62.247477" lon="12.510479">
        <ele>798.018</ele>
        <time>2011-07-03T16:42:20Z</time>
      </trkpt>
      <trkpt lat="62.247578" lon="12.510449">
        <ele>799.01</ele>
        <time>2011-07-03T16:42:27Z</time>
      </trkpt>
      <trkpt lat="62.247649" lon="12.510499">
        <ele>799.107</ele>
        <time>2011-07-03T16:42:33Z</time>
      </trkpt>
      <trkpt lat="62.247713" lon="12.510509">
        <ele>798.235</ele>
        <time>2011-07-03T16:42:40Z</time>
      </trkpt>
      <trkpt lat="62.247744" lon="12.510503">
        <ele>797.632</ele>
        <time>2011-07-03T16:42:43Z</time>
      </trkpt>
      <trkpt lat="62.24782" lon="12.510494">
        <ele>796.282</ele>
        <time>2011-07-03T16:42:50Z</time>
      </trkpt>
      <trkpt lat="62.247894" lon="12.51049">
        <ele>794.889</ele>
        <time>2011-07-03T16:42:57Z</time>
      </trkpt>
      <trkpt lat="62.247984" lon="12.510523">
        <ele>793.68</ele>
        <time>2011-07-03T16:43:06Z</time>
      </trkpt>
      <trkpt lat="62.248089" lon="12.510536">
        <ele>793.279</ele>
        <time>2011-07-03T16:43:14Z</time>
      </trkpt>
      <trkpt lat="62.248172" lon="12.510533">
        <ele>792.998</ele>
        <time>2011-07-03T16:43:21Z</time>
      </trkpt>
      <trkpt lat="62.248181" lon="12.510536">
        <ele>793.088</ele>
        <time>2011-07-03T16:43:22Z</time>
      </trkpt>
      <trkpt lat="62.248249" lon="12.510551">
        <ele>792.919</ele>
        <time>2011-07-03T16:43:29Z</time>
      </trkpt>
      <trkpt lat="62.248274" lon="12.51058">
        <ele>792.402</ele>
        <time>2011-07-03T16:43:32Z</time>
      </trkpt>
      <trkpt lat="62.248369" lon="12.510633">
        <ele>793.201</ele>
        <time>2011-07-03T16:43:41Z</time>
      </trkpt>
      <trkpt lat="62.248425" lon="12.510684">
        <ele>793.312</ele>
        <time>2011-07-03T16:43:47Z</time>
      </trkpt>
      <trkpt lat="62.24849" lon="12.510712">
        <ele>792.904</ele>
        <time>2011-07-03T16:43:53Z</time>
      </trkpt>
      <trkpt lat="62.248587" lon="12.510709">
        <ele>791.714</ele>
        <time>2011-07-03T16:44:02Z</time>
      </trkpt>
      <trkpt lat="62.248655" lon="12.510724">
        <ele>789.868</ele>
        <time>2011-07-03T16:44:09Z</time>
      </trkpt>
      <trkpt lat="62.248815" lon="12.510713">
        <ele>787.613</ele>
        <time>2011-07-03T16:44:46Z</time>
      </trkpt>
      <trkpt lat="62.248873" lon="12.510657">
        <ele>785.858</ele>
        <time>2011-07-03T16:44:54Z</time>
      </trkpt>
      <trkpt lat="62.248937" lon="12.510747">
        <ele>783.995</ele>
        <time>2011-07-03T16:45:01Z</time>
      </trkpt>
      <trkpt lat="62.248943" lon="12.51077">
        <ele>783.921</ele>
        <time>2011-07-03T16:45:02Z</time>
      </trkpt>
      <trkpt lat="62.248983" lon="12.510891">
        <ele>782.648</ele>
        <time>2011-07-03T16:45:07Z</time>
      </trkpt>
      <trkpt lat="62.248996" lon="12.510945">
        <ele>782.137</ele>
        <time>2011-07-03T16:45:11Z</time>
      </trkpt>
      <trkpt lat="62.249021" lon="12.511051">
        <ele>780.507</ele>
        <time>2011-07-03T16:45:18Z</time>
      </trkpt>
      <trkpt lat="62.249035" lon="12.511062">
        <ele>780.139</ele>
        <time>2011-07-03T16:45:20Z</time>
      </trkpt>
      <trkpt lat="62.249075" lon="12.511118">
        <ele>778.966</ele>
        <time>2011-07-03T16:45:25Z</time>
      </trkpt>
      <trkpt lat="62.249082" lon="12.511177">
        <ele>778.502</ele>
        <time>2011-07-03T16:45:28Z</time>
      </trkpt>
      <trkpt lat="62.249147" lon="12.511283">
        <ele>778.138</ele>
        <time>2011-07-03T16:45:34Z</time>
      </trkpt>
      <trkpt lat="62.249151" lon="12.511327">
        <ele>778.304</ele>
        <time>2011-07-03T16:45:36Z</time>
      </trkpt>
      <trkpt lat="62.249226" lon="12.51139">
        <ele>778.211</ele>
        <time>2011-07-03T16:45:43Z</time>
      </trkpt>
      <trkpt lat="62.249239" lon="12.511406">
        <ele>778.173</ele>
        <time>2011-07-03T16:45:45Z</time>
      </trkpt>
      <trkpt lat="62.249276" lon="12.511563">
        <ele>777.91</ele>
        <time>2011-07-03T16:45:53Z</time>
      </trkpt>
      <trkpt lat="62.249326" lon="12.511671">
        <ele>776.478</ele>
        <time>2011-07-03T16:46:01Z</time>
      </trkpt>
      <trkpt lat="62.24933" lon="12.511667">
        <ele>776.379</ele>
        <time>2011-07-03T16:46:02Z</time>
      </trkpt>
      <trkpt lat="62.249358" lon="12.511716">
        <ele>775.5</ele>
        <time>2011-07-03T16:46:10Z</time>
      </trkpt>
      <trkpt lat="62.249374" lon="12.51178">
        <ele>774.65</ele>
        <time>2011-07-03T16:46:16Z</time>
      </trkpt>
      <trkpt lat="62.249376" lon="12.511835">
        <ele>774.016</ele>
        <time>2011-07-03T16:46:18Z</time>
      </trkpt>
      <trkpt lat="62.249381" lon="12.511926">
        <ele>774.427</ele>
        <time>2011-07-03T16:46:23Z</time>
      </trkpt>
      <trkpt lat="62.249438" lon="12.512146">
        <ele>774.565</ele>
        <time>2011-07-03T16:46:32Z</time>
      </trkpt>
      <trkpt lat="62.249468" lon="12.512246">
        <ele>774.582</ele>
        <time>2011-07-03T16:46:38Z</time>
      </trkpt>
      <trkpt lat="62.249507" lon="12.512268">
        <ele>774.594</ele>
        <time>2011-07-03T16:46:42Z</time>
      </trkpt>
      <trkpt lat="62.249615" lon="12.512362">
        <ele>774.622</ele>
        <time>2011-07-03T16:46:52Z</time>
      </trkpt>
      <trkpt lat="62.249664" lon="12.512432">
        <ele>774.639</ele>
        <time>2011-07-03T16:46:57Z</time>
      </trkpt>
      <trkpt lat="62.2497" lon="12.512513">
        <ele>774.658</ele>
        <time>2011-07-03T16:47:02Z</time>
      </trkpt>
      <trkpt lat="62.24973" lon="12.512562">
        <ele>774.673</ele>
        <time>2011-07-03T16:47:06Z</time>
      </trkpt>
      <trkpt lat="62.249799" lon="12.512602">
        <ele>774.697</ele>
        <time>2011-07-03T16:47:13Z</time>
      </trkpt>
      <trkpt lat="62.249843" lon="12.512712">
        <ele>770.971</ele>
        <time>2011-07-03T16:47:20Z</time>
      </trkpt>
      <trkpt lat="62.249847" lon="12.512737">
        <ele>770.19</ele>
        <time>2011-07-03T16:47:21Z</time>
      </trkpt>
      <trkpt lat="62.249858" lon="12.512782">
        <ele>768.794</ele>
        <time>2011-07-03T16:47:23Z</time>
      </trkpt>
      <trkpt lat="62.249921" lon="12.512981">
        <ele>768.52</ele>
        <time>2011-07-03T16:47:33Z</time>
      </trkpt>
      <trkpt lat="62.249966" lon="12.513061">
        <ele>768.627</ele>
        <time>2011-07-03T16:47:39Z</time>
      </trkpt>
      <trkpt lat="62.250016" lon="12.51318">
        <ele>767.802</ele>
        <time>2011-07-03T16:47:46Z</time>
      </trkpt>
      <trkpt lat="62.250051" lon="12.513279">
        <ele>767.443</ele>
        <time>2011-07-03T16:47:52Z</time>
      </trkpt>
      <trkpt lat="62.250066" lon="12.513341">
        <ele>767.835</ele>
        <time>2011-07-03T16:47:56Z</time>
      </trkpt>
      <trkpt lat="62.250078" lon="12.513376">
        <ele>767.585</ele>
        <time>2011-07-03T16:47:58Z</time>
      </trkpt>
      <trkpt lat="62.250122" lon="12.513487">
        <ele>766.758</ele>
        <time>2011-07-03T16:48:04Z</time>
      </trkpt>
      <trkpt lat="62.250141" lon="12.513517">
        <ele>766.209</ele>
        <time>2011-07-03T16:48:06Z</time>
      </trkpt>
      <trkpt lat="62.25018" lon="12.513656">
        <ele>765.853</ele>
        <time>2011-07-03T16:48:12Z</time>
      </trkpt>
      <trkpt lat="62.250228" lon="12.513755">
        <ele>765.505</ele>
        <time>2011-07-03T16:48:20Z</time>
      </trkpt>
      <trkpt lat="62.25026" lon="12.513772">
        <ele>765.303</ele>
        <time>2011-07-03T16:48:24Z</time>
      </trkpt>
      <trkpt lat="62.25033" lon="12.513887">
        <ele>763.995</ele>
        <time>2011-07-03T16:48:32Z</time>
      </trkpt>
      <trkpt lat="62.250346" lon="12.513908">
        <ele>763.706</ele>
        <time>2011-07-03T16:48:34Z</time>
      </trkpt>
      <trkpt lat="62.250389" lon="12.51397">
        <ele>762.818</ele>
        <time>2011-07-03T16:48:40Z</time>
      </trkpt>
      <trkpt lat="62.250459" lon="12.514075">
        <ele>761.987</ele>
        <time>2011-07-03T16:48:47Z</time>
      </trkpt>
      <trkpt lat="62.250576" lon="12.514313">
        <ele>761.644</ele>
        <time>2011-07-03T16:48:55Z</time>
      </trkpt>
      <trkpt lat="62.250616" lon="12.514414">
        <ele>761.271</ele>
        <time>2011-07-03T16:49:00Z</time>
      </trkpt>
      <trkpt lat="62.250658" lon="12.514464">
        <ele>761.154</ele>
        <time>2011-07-03T16:49:05Z</time>
      </trkpt>
      <trkpt lat="62.250673" lon="12.514504">
        <ele>760.966</ele>
        <time>2011-07-03T16:49:07Z</time>
      </trkpt>
      <trkpt lat="62.250724" lon="12.514616">
        <ele>761.017</ele>
        <time>2011-07-03T16:49:14Z</time>
      </trkpt>
      <trkpt lat="62.250775" lon="12.514733">
        <ele>760.914</ele>
        <time>2011-07-03T16:49:20Z</time>
      </trkpt>
      <trkpt lat="62.250853" lon="12.514874">
        <ele>760.034</ele>
        <time>2011-07-03T16:49:28Z</time>
      </trkpt>
      <trkpt lat="62.250904" lon="12.514955">
        <ele>759.813</ele>
        <time>2011-07-03T16:49:34Z</time>
      </trkpt>
      <trkpt lat="62.250928" lon="12.514978">
        <ele>759.627</ele>
        <time>2011-07-03T16:49:37Z</time>
      </trkpt>
      <trkpt lat="62.25098" lon="12.515097">
        <ele>758.507</ele>
        <time>2011-07-03T16:49:44Z</time>
      </trkpt>
      <trkpt lat="62.251015" lon="12.51515">
        <ele>758.168</ele>
        <time>2011-07-03T16:49:48Z</time>
      </trkpt>
      <trkpt lat="62.251053" lon="12.515231">
        <ele>757.808</ele>
        <time>2011-07-03T16:49:53Z</time>
      </trkpt>
      <trkpt lat="62.251108" lon="12.515281">
        <ele>756.788</ele>
        <time>2011-07-03T16:50:00Z</time>
      </trkpt>
      <trkpt lat="62.251171" lon="12.515328">
        <ele>755.91</ele>
        <time>2011-07-03T16:50:07Z</time>
      </trkpt>
      <trkpt lat="62.251195" lon="12.515369">
        <ele>755.498</ele>
        <time>2011-07-03T16:50:10Z</time>
      </trkpt>
      <trkpt lat="62.251223" lon="12.515431">
        <ele>755.277</ele>
        <time>2011-07-03T16:50:15Z</time>
      </trkpt>
      <trkpt lat="62.251295" lon="12.515523">
        <ele>755.265</ele>
        <time>2011-07-03T16:50:22Z</time>
      </trkpt>
      <trkpt lat="62.25131" lon="12.515548">
        <ele>755.22</ele>
        <time>2011-07-03T16:50:24Z</time>
      </trkpt>
      <trkpt lat="62.251366" lon="12.515657">
        <ele>755.239</ele>
        <time>2011-07-03T16:50:32Z</time>
      </trkpt>
      <trkpt lat="62.25142" lon="12.515779">
        <ele>755.069</ele>
        <time>2011-07-03T16:50:40Z</time>
      </trkpt>
      <trkpt lat="62.251441" lon="12.515823">
        <ele>754.81</ele>
        <time>2011-07-03T16:50:43Z</time>
      </trkpt>
      <trkpt lat="62.251455" lon="12.515874">
        <ele>754.671</ele>
        <time>2011-07-03T16:50:46Z</time>
      </trkpt>
      <trkpt lat="62.251476" lon="12.515909">
        <ele>754.127</ele>
        <time>2011-07-03T16:50:49Z</time>
      </trkpt>
      <trkpt lat="62.251545" lon="12.516061">
        <ele>753.031</ele>
        <time>2011-07-03T16:50:58Z</time>
      </trkpt>
      <trkpt lat="62.251561" lon="12.516122">
        <ele>752.78</ele>
        <time>2011-07-03T16:51:01Z</time>
      </trkpt>
      <trkpt lat="62.251623" lon="12.516264">
        <ele>752.219</ele>
        <time>2011-07-03T16:51:09Z</time>
      </trkpt>
      <trkpt lat="62.251645" lon="12.516481">
        <ele>751.89</ele>
        <time>2011-07-03T16:51:18Z</time>
      </trkpt>
      <trkpt lat="62.25167" lon="12.516522">
        <ele>751.819</ele>
        <time>2011-07-03T16:51:22Z</time>
      </trkpt>
      <trkpt lat="62.251711" lon="12.516603">
        <ele>751.886</ele>
        <time>2011-07-03T16:51:27Z</time>
      </trkpt>
      <trkpt lat="62.251723" lon="12.516669">
        <ele>751.948</ele>
        <time>2011-07-03T16:51:30Z</time>
      </trkpt>
      <trkpt lat="62.251807" lon="12.516855">
        <ele>751.582</ele>
        <time>2011-07-03T16:51:40Z</time>
      </trkpt>
      <trkpt lat="62.251858" lon="12.516996">
        <ele>751.421</ele>
        <time>2011-07-03T16:51:48Z</time>
      </trkpt>
      <trkpt lat="62.251923" lon="12.517057">
        <ele>751.509</ele>
        <time>2011-07-03T16:51:55Z</time>
      </trkpt>
      <trkpt lat="62.252009" lon="12.517063">
        <ele>751.449</ele>
        <time>2011-07-03T16:52:01Z</time>
      </trkpt>
      <trkpt lat="62.252021" lon="12.517075">
        <ele>751.47</ele>
        <time>2011-07-03T16:52:02Z</time>
      </trkpt>
      <trkpt lat="62.252078" lon="12.517164">
        <ele>751.455</ele>
        <time>2011-07-03T16:52:10Z</time>
      </trkpt>
      <trkpt lat="62.252131" lon="12.517184">
        <ele>751.384</ele>
        <time>2011-07-03T16:52:15Z</time>
      </trkpt>
      <trkpt lat="62.25219" lon="12.517226">
        <ele>752.097</ele>
        <time>2011-07-03T16:52:22Z</time>
      </trkpt>
      <trkpt lat="62.252216" lon="12.517242">
        <ele>752.439</ele>
        <time>2011-07-03T16:52:27Z</time>
      </trkpt>
      <trkpt lat="62.252247" lon="12.517326">
        <ele>751.81</ele>
        <time>2011-07-03T16:52:32Z</time>
      </trkpt>
      <trkpt lat="62.252344" lon="12.5173">
        <ele>751.003</ele>
        <time>2011-07-03T16:52:39Z</time>
      </trkpt>
      <trkpt lat="62.252419" lon="12.517314">
        <ele>750.809</ele>
        <time>2011-07-03T16:52:46Z</time>
      </trkpt>
      <trkpt lat="62.252473" lon="12.517357">
        <ele>750.645</ele>
        <time>2011-07-03T16:52:51Z</time>
      </trkpt>
      <trkpt lat="62.252528" lon="12.51734">
        <ele>750.859</ele>
        <time>2011-07-03T16:52:58Z</time>
      </trkpt>
      <trkpt lat="62.252543" lon="12.517341">
        <ele>750.914</ele>
        <time>2011-07-03T16:53:01Z</time>
      </trkpt>
      <trkpt lat="62.252622" lon="12.51741">
        <ele>750.998</ele>
        <time>2011-07-03T16:53:14Z</time>
      </trkpt>
      <trkpt lat="62.252627" lon="12.517415">
        <ele>751.118</ele>
        <time>2011-07-03T16:53:15Z</time>
      </trkpt>
      <trkpt lat="62.252682" lon="12.517452">
        <ele>751.465</ele>
        <time>2011-07-03T16:53:21Z</time>
      </trkpt>
      <trkpt lat="62.252714" lon="12.517451">
        <ele>751.592</ele>
        <time>2011-07-03T16:53:26Z</time>
      </trkpt>
      <trkpt lat="62.252712" lon="12.517469">
        <ele>751.612</ele>
        <time>2011-07-03T16:53:35Z</time>
      </trkpt>
      <trkpt lat="62.252734" lon="12.517466">
        <ele>751.637</ele>
        <time>2011-07-03T16:53:37Z</time>
      </trkpt>
      <trkpt lat="62.252787" lon="12.517476">
        <ele>751.628</ele>
        <time>2011-07-03T16:53:41Z</time>
      </trkpt>
      <trkpt lat="62.252935" lon="12.517577">
        <ele>751.665</ele>
        <time>2011-07-03T16:53:54Z</time>
      </trkpt>
      <trkpt lat="62.253033" lon="12.517662">
        <ele>752.11</ele>
        <time>2011-07-03T16:54:04Z</time>
      </trkpt>
      <trkpt lat="62.2531" lon="12.517681">
        <ele>752.705</ele>
        <time>2011-07-03T16:54:11Z</time>
      </trkpt>
      <trkpt lat="62.253104" lon="12.51768">
        <ele>752.914</ele>
        <time>2011-07-03T16:54:12Z</time>
      </trkpt>
      <trkpt lat="62.253151" lon="12.517666">
        <ele>753.627</ele>
        <time>2011-07-03T16:54:18Z</time>
      </trkpt>
      <trkpt lat="62.253184" lon="12.517701">
        <ele>753.771</ele>
        <time>2011-07-03T16:54:22Z</time>
      </trkpt>
      <trkpt lat="62.253248" lon="12.517679">
        <ele>753.738</ele>
        <time>2011-07-03T16:54:29Z</time>
      </trkpt>
      <trkpt lat="62.253266" lon="12.517658">
        <ele>753.725</ele>
        <time>2011-07-03T16:54:31Z</time>
      </trkpt>
      <trkpt lat="62.253326" lon="12.517686">
        <ele>753.453</ele>
        <time>2011-07-03T16:54:38Z</time>
      </trkpt>
      <trkpt lat="62.253337" lon="12.517695">
        <ele>753.36</ele>
        <time>2011-07-03T16:54:40Z</time>
      </trkpt>
      <trkpt lat="62.253421" lon="12.517707">
        <ele>753.408</ele>
        <time>2011-07-03T16:54:53Z</time>
      </trkpt>
      <trkpt lat="62.253472" lon="12.51786">
        <ele>753.606</ele>
        <time>2011-07-03T16:55:02Z</time>
      </trkpt>
      <trkpt lat="62.253579" lon="12.517977">
        <ele>753.802</ele>
        <time>2011-07-03T16:55:11Z</time>
      </trkpt>
      <trkpt lat="62.253666" lon="12.51811">
        <ele>753.724</ele>
        <time>2011-07-03T16:55:16Z</time>
      </trkpt>
      <trkpt lat="62.253763" lon="12.518304">
        <ele>754.463</ele>
        <time>2011-07-03T16:55:22Z</time>
      </trkpt>
      <trkpt lat="62.253898" lon="12.518564">
        <ele>755.467</ele>
        <time>2011-07-03T16:55:31Z</time>
      </trkpt>
      <trkpt lat="62.253986" lon="12.518689">
        <ele>755.617</ele>
        <time>2011-07-03T16:55:37Z</time>
      </trkpt>
      <trkpt lat="62.254009" lon="12.518723">
        <ele>755.877</ele>
        <time>2011-07-03T16:55:39Z</time>
      </trkpt>
      <trkpt lat="62.254048" lon="12.518759">
        <ele>756.107</ele>
        <time>2011-07-03T16:55:42Z</time>
      </trkpt>
      <trkpt lat="62.254119" lon="12.518877">
        <ele>757.256</ele>
        <time>2011-07-03T16:55:49Z</time>
      </trkpt>
      <trkpt lat="62.254145" lon="12.51898">
        <ele>758.115</ele>
        <time>2011-07-03T16:55:55Z</time>
      </trkpt>
      <trkpt lat="62.254148" lon="12.519024">
        <ele>759.478</ele>
        <time>2011-07-03T16:55:59Z</time>
      </trkpt>
      <trkpt lat="62.254152" lon="12.519037">
        <ele>759.759</ele>
        <time>2011-07-03T16:56:00Z</time>
      </trkpt>
      <trkpt lat="62.254163" lon="12.519104">
        <ele>761.764</ele>
        <time>2011-07-03T16:56:06Z</time>
      </trkpt>
      <trkpt lat="62.25417" lon="12.519108">
        <ele>763.677</ele>
        <time>2011-07-03T16:56:12Z</time>
      </trkpt>
      <trkpt lat="62.254182" lon="12.519144">
        <ele>764.952</ele>
        <time>2011-07-03T16:56:19Z</time>
      </trkpt>
      <trkpt lat="62.254196" lon="12.519155">
        <ele>765.456</ele>
        <time>2011-07-03T16:56:21Z</time>
      </trkpt>
      <trkpt lat="62.254226" lon="12.51916">
        <ele>766.201</ele>
        <time>2011-07-03T16:56:24Z</time>
      </trkpt>
      <trkpt lat="62.254258" lon="12.519169">
        <ele>766.696</ele>
        <time>2011-07-03T16:56:28Z</time>
      </trkpt>
      <trkpt lat="62.254308" lon="12.519225">
        <ele>767.57</ele>
        <time>2011-07-03T16:56:32Z</time>
      </trkpt>
      <trkpt lat="62.254324" lon="12.519316">
        <ele>767.773</ele>
        <time>2011-07-03T16:56:37Z</time>
      </trkpt>
      <trkpt lat="62.254377" lon="12.519383">
        <ele>767.964</ele>
        <time>2011-07-03T16:56:44Z</time>
      </trkpt>
      <trkpt lat="62.254437" lon="12.519435">
        <ele>768.592</ele>
        <time>2011-07-03T16:56:53Z</time>
      </trkpt>
      <trkpt lat="62.254519" lon="12.519494">
        <ele>769.261</ele>
        <time>2011-07-03T16:57:01Z</time>
      </trkpt>
      <trkpt lat="62.254587" lon="12.519521">
        <ele>769.609</ele>
        <time>2011-07-03T16:57:08Z</time>
      </trkpt>
      <trkpt lat="62.254609" lon="12.519539">
        <ele>769.268</ele>
        <time>2011-07-03T16:57:11Z</time>
      </trkpt>
      <trkpt lat="62.254637" lon="12.519527">
        <ele>769.73</ele>
        <time>2011-07-03T16:57:14Z</time>
      </trkpt>
      <trkpt lat="62.254704" lon="12.519597">
        <ele>770.38</ele>
        <time>2011-07-03T16:57:21Z</time>
      </trkpt>
      <trkpt lat="62.254734" lon="12.519608">
        <ele>770.456</ele>
        <time>2011-07-03T16:57:24Z</time>
      </trkpt>
      <trkpt lat="62.254757" lon="12.519671">
        <ele>770.204</ele>
        <time>2011-07-03T16:57:28Z</time>
      </trkpt>
      <trkpt lat="62.254778" lon="12.519713">
        <ele>769.635</ele>
        <time>2011-07-03T16:57:31Z</time>
      </trkpt>
      <trkpt lat="62.254832" lon="12.519729">
        <ele>769.247</ele>
        <time>2011-07-03T16:57:35Z</time>
      </trkpt>
      <trkpt lat="62.254858" lon="12.519744">
        <ele>769.639</ele>
        <time>2011-07-03T16:57:37Z</time>
      </trkpt>
      <trkpt lat="62.254927" lon="12.519812">
        <ele>769.767</ele>
        <time>2011-07-03T16:57:43Z</time>
      </trkpt>
      <trkpt lat="62.254996" lon="12.519811">
        <ele>769.669</ele>
        <time>2011-07-03T16:57:50Z</time>
      </trkpt>
      <trkpt lat="62.255033" lon="12.519812">
        <ele>769.157</ele>
        <time>2011-07-03T16:57:56Z</time>
      </trkpt>
      <trkpt lat="62.255054" lon="12.519831">
        <ele>769.111</ele>
        <time>2011-07-03T16:58:01Z</time>
      </trkpt>
      <trkpt lat="62.255101" lon="12.519847">
        <ele>769.697</ele>
        <time>2011-07-03T16:58:07Z</time>
      </trkpt>
      <trkpt lat="62.255147" lon="12.519855">
        <ele>769.945</ele>
        <time>2011-07-03T16:58:12Z</time>
      </trkpt>
      <trkpt lat="62.25517" lon="12.519835">
        <ele>769.744</ele>
        <time>2011-07-03T16:58:15Z</time>
      </trkpt>
      <trkpt lat="62.255233" lon="12.51978">
        <ele>769.466</ele>
        <time>2011-07-03T16:58:22Z</time>
      </trkpt>
      <trkpt lat="62.25525" lon="12.519782">
        <ele>769.469</ele>
        <time>2011-07-03T16:58:25Z</time>
      </trkpt>
      <trkpt lat="62.255297" lon="12.519804">
        <ele>769.51</ele>
        <time>2011-07-03T16:58:31Z</time>
      </trkpt>
      <trkpt lat="62.255327" lon="12.51978">
        <ele>769.751</ele>
        <time>2011-07-03T16:58:35Z</time>
      </trkpt>
      <trkpt lat="62.255378" lon="12.519791">
        <ele>770.142</ele>
        <time>2011-07-03T16:58:41Z</time>
      </trkpt>
      <trkpt lat="62.255396" lon="12.519788">
        <ele>770.243</ele>
        <time>2011-07-03T16:58:43Z</time>
      </trkpt>
      <trkpt lat="62.255457" lon="12.519811">
        <ele>769.453</ele>
        <time>2011-07-03T16:58:48Z</time>
      </trkpt>
      <trkpt lat="62.255493" lon="12.519771">
        <ele>770.085</ele>
        <time>2011-07-03T16:58:53Z</time>
      </trkpt>
      <trkpt lat="62.25554" lon="12.519779">
        <ele>770.125</ele>
        <time>2011-07-03T16:58:57Z</time>
      </trkpt>
      <trkpt lat="62.255599" lon="12.519752">
        <ele>770.055</ele>
        <time>2011-07-03T16:59:03Z</time>
      </trkpt>
      <trkpt lat="62.255681" lon="12.51971">
        <ele>770.835</ele>
        <time>2011-07-03T16:59:11Z</time>
      </trkpt>
      <trkpt lat="62.25575" lon="12.519706">
        <ele>771.747</ele>
        <time>2011-07-03T16:59:17Z</time>
      </trkpt>
      <trkpt lat="62.25583" lon="12.519736">
        <ele>771.582</ele>
        <time>2011-07-03T16:59:25Z</time>
      </trkpt>
      <trkpt lat="62.255845" lon="12.519749">
        <ele>771.67</ele>
        <time>2011-07-03T16:59:27Z</time>
      </trkpt>
      <trkpt lat="62.25589" lon="12.519729">
        <ele>771.392</ele>
        <time>2011-07-03T16:59:38Z</time>
      </trkpt>
      <trkpt lat="62.255901" lon="12.519679">
        <ele>771.353</ele>
        <time>2011-07-03T16:59:42Z</time>
      </trkpt>
      <trkpt lat="62.25591" lon="12.519639">
        <ele>771.237</ele>
        <time>2011-07-03T16:59:45Z</time>
      </trkpt>
      <trkpt lat="62.255947" lon="12.519649">
        <ele>770.627</ele>
        <time>2011-07-03T16:59:51Z</time>
      </trkpt>
      <trkpt lat="62.255985" lon="12.519688">
        <ele>769.654</ele>
        <time>2011-07-03T16:59:57Z</time>
      </trkpt>
      <trkpt lat="62.256012" lon="12.519746">
        <ele>770.52</ele>
        <time>2011-07-03T17:00:04Z</time>
      </trkpt>
      <trkpt lat="62.256028" lon="12.519764">
        <ele>771.045</ele>
        <time>2011-07-03T17:00:07Z</time>
      </trkpt>
      <trkpt lat="62.256108" lon="12.519795">
        <ele>771.477</ele>
        <time>2011-07-03T17:00:13Z</time>
      </trkpt>
      <trkpt lat="62.256137" lon="12.519814">
        <ele>771.126</ele>
        <time>2011-07-03T17:00:17Z</time>
      </trkpt>
      <trkpt lat="62.256195" lon="12.519819">
        <ele>771.524</ele>
        <time>2011-07-03T17:00:22Z</time>
      </trkpt>
      <trkpt lat="62.256266" lon="12.519768">
        <ele>772.42</ele>
        <time>2011-07-03T17:00:30Z</time>
      </trkpt>
      <trkpt lat="62.256299" lon="12.519757">
        <ele>772.595</ele>
        <time>2011-07-03T17:00:34Z</time>
      </trkpt>
      <trkpt lat="62.256331" lon="12.51975">
        <ele>772.911</ele>
        <time>2011-07-03T17:00:38Z</time>
      </trkpt>
      <trkpt lat="62.256377" lon="12.519706">
        <ele>773.695</ele>
        <time>2011-07-03T17:00:45Z</time>
      </trkpt>
      <trkpt lat="62.256385" lon="12.519707">
        <ele>773.677</ele>
        <time>2011-07-03T17:00:46Z</time>
      </trkpt>
      <trkpt lat="62.256434" lon="12.519704">
        <ele>773.875</ele>
        <time>2011-07-03T17:00:53Z</time>
      </trkpt>
      <trkpt lat="62.256438" lon="12.519697">
        <ele>774.034</ele>
        <time>2011-07-03T17:00:54Z</time>
      </trkpt>
      <trkpt lat="62.256499" lon="12.519682">
        <ele>774.04</ele>
        <time>2011-07-03T17:01:06Z</time>
      </trkpt>
      <trkpt lat="62.25655" lon="12.519663">
        <ele>774.382</ele>
        <time>2011-07-03T17:01:13Z</time>
      </trkpt>
      <trkpt lat="62.256564" lon="12.519647">
        <ele>774.437</ele>
        <time>2011-07-03T17:01:16Z</time>
      </trkpt>
      <trkpt lat="62.256606" lon="12.519609">
        <ele>774.334</ele>
        <time>2011-07-03T17:01:24Z</time>
      </trkpt>
      <trkpt lat="62.256651" lon="12.519534">
        <ele>773.428</ele>
        <time>2011-07-03T17:01:31Z</time>
      </trkpt>
      <trkpt lat="62.256654" lon="12.519516">
        <ele>773.273</ele>
        <time>2011-07-03T17:01:32Z</time>
      </trkpt>
      <trkpt lat="62.256667" lon="12.519488">
        <ele>772.774</ele>
        <time>2011-07-03T17:01:34Z</time>
      </trkpt>
      <trkpt lat="62.256683" lon="12.519378">
        <ele>772.689</ele>
        <time>2011-07-03T17:01:40Z</time>
      </trkpt>
      <trkpt lat="62.256683" lon="12.519236">
        <ele>772.768</ele>
        <time>2011-07-03T17:01:44Z</time>
      </trkpt>
      <trkpt lat="62.256717" lon="12.519122">
        <ele>772.785</ele>
        <time>2011-07-03T17:01:56Z</time>
      </trkpt>
      <trkpt lat="62.256737" lon="12.519137">
        <ele>772.752</ele>
        <time>2011-07-03T17:02:02Z</time>
      </trkpt>
      <trkpt lat="62.256793" lon="12.519124">
        <ele>773.242</ele>
        <time>2011-07-03T17:02:09Z</time>
      </trkpt>
      <trkpt lat="62.256823" lon="12.519101">
        <ele>773.845</ele>
        <time>2011-07-03T17:02:14Z</time>
      </trkpt>
      <trkpt lat="62.256851" lon="12.519098">
        <ele>774.178</ele>
        <time>2011-07-03T17:02:18Z</time>
      </trkpt>
      <trkpt lat="62.256907" lon="12.519087">
        <ele>773.966</ele>
        <time>2011-07-03T17:02:27Z</time>
      </trkpt>
      <trkpt lat="62.256925" lon="12.519089">
        <ele>773.992</ele>
        <time>2011-07-03T17:02:30Z</time>
      </trkpt>
      <trkpt lat="62.257001" lon="12.519064">
        <ele>774.194</ele>
        <time>2011-07-03T17:02:43Z</time>
      </trkpt>
      <trkpt lat="62.257005" lon="12.519065">
        <ele>774.146</ele>
        <time>2011-07-03T17:02:44Z</time>
      </trkpt>
      <trkpt lat="62.257069" lon="12.519122">
        <ele>774.837</ele>
        <time>2011-07-03T17:02:57Z</time>
      </trkpt>
      <trkpt lat="62.257189" lon="12.519114">
        <ele>775.333</ele>
        <time>2011-07-03T17:03:29Z</time>
      </trkpt>
      <trkpt lat="62.257196" lon="12.519142">
        <ele>775.536</ele>
        <time>2011-07-03T17:03:32Z</time>
      </trkpt>
      <trkpt lat="62.257208" lon="12.519079">
        <ele>775.354</ele>
        <time>2011-07-03T17:04:04Z</time>
      </trkpt>
      <trkpt lat="62.257212" lon="12.518993">
        <ele>774.818</ele>
        <time>2011-07-03T17:04:10Z</time>
      </trkpt>
      <trkpt lat="62.257233" lon="12.518972">
        <ele>775.269</ele>
        <time>2011-07-03T17:04:15Z</time>
      </trkpt>
      <trkpt lat="62.257234" lon="12.518968">
        <ele>775.424</ele>
        <time>2011-07-03T17:04:16Z</time>
      </trkpt>
      <trkpt lat="62.257284" lon="12.51892">
        <ele>775.194</ele>
        <time>2011-07-03T17:04:30Z</time>
      </trkpt>
      <trkpt lat="62.257289" lon="12.518918">
        <ele>775.189</ele>
        <time>2011-07-03T17:04:32Z</time>
      </trkpt>
      <trkpt lat="62.257336" lon="12.518891">
        <ele>775.018</ele>
        <time>2011-07-03T17:04:50Z</time>
      </trkpt>
      <trkpt lat="62.257342" lon="12.518911">
        <ele>775.449</ele>
        <time>2011-07-03T17:04:53Z</time>
      </trkpt>
      <trkpt lat="62.257306" lon="12.518956">
        <ele>775.597</ele>
        <time>2011-07-03T17:05:06Z</time>
      </trkpt>
      <trkpt lat="62.257294" lon="12.518947">
        <ele>775.533</ele>
        <time>2011-07-03T17:05:08Z</time>
      </trkpt>
      <trkpt lat="62.257239" lon="12.518956">
        <ele>775.506</ele>
        <time>2011-07-03T17:05:15Z</time>
      </trkpt>
      <trkpt lat="62.25723" lon="12.518956">
        <ele>775.6</ele>
        <time>2011-07-03T17:05:16Z</time>
      </trkpt>
      <trkpt lat="62.257194" lon="12.518947">
        <ele>775.308</ele>
        <time>2011-07-03T17:05:20Z</time>
      </trkpt>
      <trkpt lat="62.257172" lon="12.518864">
        <ele>774.59</ele>
        <time>2011-07-03T17:05:27Z</time>
      </trkpt>
      <trkpt lat="62.257161" lon="12.518817">
        <ele>774.242</ele>
        <time>2011-07-03T17:05:33Z</time>
      </trkpt>
      <trkpt lat="62.257155" lon="12.518792">
        <ele>773.995</ele>
        <time>2011-07-03T17:05:36Z</time>
      </trkpt>
      <trkpt lat="62.257121" lon="12.518724">
        <ele>773.43</ele>
        <time>2011-07-03T17:05:41Z</time>
      </trkpt>
      <trkpt lat="62.25705" lon="12.518705">
        <ele>772.759</ele>
        <time>2011-07-03T17:05:48Z</time>
      </trkpt>
      <trkpt lat="62.257042" lon="12.518708">
        <ele>772.644</ele>
        <time>2011-07-03T17:05:49Z</time>
      </trkpt>
      <trkpt lat="62.257006" lon="12.51869">
        <ele>771.767</ele>
        <time>2011-07-03T17:05:53Z</time>
      </trkpt>
      <trkpt lat="62.256986" lon="12.518718">
        <ele>771.714</ele>
        <time>2011-07-03T17:05:57Z</time>
      </trkpt>
      <trkpt lat="62.256949" lon="12.518776">
        <ele>771.614</ele>
        <time>2011-07-03T17:06:02Z</time>
      </trkpt>
      <trkpt lat="62.256941" lon="12.518789">
        <ele>771.568</ele>
        <time>2011-07-03T17:06:03Z</time>
      </trkpt>
      <trkpt lat="62.256896" lon="12.518863">
        <ele>772.316</ele>
        <time>2011-07-03T17:06:08Z</time>
      </trkpt>
      <trkpt lat="62.25685" lon="12.51886">
        <ele>772.821</ele>
        <time>2011-07-03T17:06:14Z</time>
      </trkpt>
      <trkpt lat="62.256778" lon="12.518862">
        <ele>771.821</ele>
        <time>2011-07-03T17:06:22Z</time>
      </trkpt>
      <trkpt lat="62.25672" lon="12.518848">
        <ele>772.055</ele>
        <time>2011-07-03T17:06:28Z</time>
      </trkpt>
      <trkpt lat="62.256718" lon="12.518854">
        <ele>772.033</ele>
        <time>2011-07-03T17:06:29Z</time>
      </trkpt>
      <trkpt lat="62.256683" lon="12.518775">
        <ele>772.029</ele>
        <time>2011-07-03T17:06:56Z</time>
      </trkpt>
      <trkpt lat="62.256674" lon="12.518763">
        <ele>771.766</ele>
        <time>2011-07-03T17:06:58Z</time>
      </trkpt>
      <trkpt lat="62.256648" lon="12.518731">
        <ele>771.107</ele>
        <time>2011-07-03T17:07:03Z</time>
      </trkpt>
      <trkpt lat="62.256593" lon="12.518734">
        <ele>770.673</ele>
        <time>2011-07-03T17:07:08Z</time>
      </trkpt>
      <trkpt lat="62.256551" lon="12.518684">
        <ele>771.274</ele>
        <time>2011-07-03T17:07:13Z</time>
      </trkpt>
      <trkpt lat="62.256532" lon="12.51869">
        <ele>770.945</ele>
        <time>2011-07-03T17:07:17Z</time>
      </trkpt>
      <trkpt lat="62.256451" lon="12.518695">
        <ele>770.32</ele>
        <time>2011-07-03T17:07:30Z</time>
      </trkpt>
      <trkpt lat="62.256449" lon="12.518699">
        <ele>770.407</ele>
        <time>2011-07-03T17:07:31Z</time>
      </trkpt>
      <trkpt lat="62.256425" lon="12.518733">
        <ele>770.761</ele>
        <time>2011-07-03T17:07:47Z</time>
      </trkpt>
      <trkpt lat="62.256376" lon="12.518792">
        <ele>770.077</ele>
        <time>2011-07-03T17:08:00Z</time>
      </trkpt>
      <trkpt lat="62.256376" lon="12.518885">
        <ele>768.906</ele>
        <time>2011-07-03T17:08:12Z</time>
      </trkpt>
      <trkpt lat="62.256366" lon="12.518942">
        <ele>769.408</ele>
        <time>2011-07-03T17:08:15Z</time>
      </trkpt>
      <trkpt lat="62.256363" lon="12.519056">
        <ele>769.878</ele>
        <time>2011-07-03T17:08:22Z</time>
      </trkpt>
      <trkpt lat="62.256343" lon="12.519116">
        <ele>770.019</ele>
        <time>2011-07-03T17:08:26Z</time>
      </trkpt>
      <trkpt lat="62.256293" lon="12.5192">
        <ele>770.94</ele>
        <time>2011-07-03T17:08:33Z</time>
      </trkpt>
      <trkpt lat="62.256242" lon="12.519319">
        <ele>770.855</ele>
        <time>2011-07-03T17:08:39Z</time>
      </trkpt>
      <trkpt lat="62.256204" lon="12.519347">
        <ele>770.889</ele>
        <time>2011-07-03T17:08:42Z</time>
      </trkpt>
      <trkpt lat="62.256182" lon="12.519358">
        <ele>771.121</ele>
        <time>2011-07-03T17:08:45Z</time>
      </trkpt>
      <trkpt lat="62.25614" lon="12.519362">
        <ele>770.832</ele>
        <time>2011-07-03T17:08:50Z</time>
      </trkpt>
      <trkpt lat="62.25612" lon="12.519372">
        <ele>770.733</ele>
        <time>2011-07-03T17:08:52Z</time>
      </trkpt>
      <trkpt lat="62.256059" lon="12.519398">
        <ele>769.835</ele>
        <time>2011-07-03T17:08:59Z</time>
      </trkpt>
      <trkpt lat="62.25602" lon="12.519417">
        <ele>770.178</ele>
        <time>2011-07-03T17:09:04Z</time>
      </trkpt>
      <trkpt lat="62.255964" lon="12.519428">
        <ele>769.388</ele>
        <time>2011-07-03T17:09:10Z</time>
      </trkpt>
      <trkpt lat="62.255959" lon="12.51944">
        <ele>769.784</ele>
        <time>2011-07-03T17:09:12Z</time>
      </trkpt>
      <trkpt lat="62.255983" lon="12.519581">
        <ele>770.503</ele>
        <time>2011-07-03T17:09:20Z</time>
      </trkpt>
      <trkpt lat="62.256039" lon="12.51953">
        <ele>771.365</ele>
        <time>2011-07-03T17:09:26Z</time>
      </trkpt>
      <trkpt lat="62.256117" lon="12.519544">
        <ele>771.57</ele>
        <time>2011-07-03T17:09:33Z</time>
      </trkpt>
      <trkpt lat="62.256169" lon="12.519582">
        <ele>771.592</ele>
        <time>2011-07-03T17:09:39Z</time>
      </trkpt>
      <trkpt lat="62.256183" lon="12.519585">
        <ele>771.352</ele>
        <time>2011-07-03T17:09:42Z</time>
      </trkpt>
      <trkpt lat="62.256181" lon="12.519485">
        <ele>772.5</ele>
        <time>2011-07-03T17:12:35Z</time>
      </trkpt>
      <trkpt lat="62.256222" lon="12.519541">
        <ele>771.735</ele>
        <time>2011-07-03T17:12:42Z</time>
      </trkpt>
      <trkpt lat="62.256261" lon="12.519591">
        <ele>771.321</ele>
        <time>2011-07-03T17:12:47Z</time>
      </trkpt>
      <trkpt lat="62.256293" lon="12.519657">
        <ele>772.097</ele>
        <time>2011-07-03T17:12:52Z</time>
      </trkpt>
      <trkpt lat="62.256333" lon="12.519662">
        <ele>773.401</ele>
        <time>2011-07-03T17:12:59Z</time>
      </trkpt>
      <trkpt lat="62.256347" lon="12.519654">
        <ele>773.431</ele>
        <time>2011-07-03T17:13:01Z</time>
      </trkpt>
      <trkpt lat="62.256424" lon="12.519595">
        <ele>773.75</ele>
        <time>2011-07-03T17:13:10Z</time>
      </trkpt>
      <trkpt lat="62.256439" lon="12.519586">
        <ele>773.859</ele>
        <time>2011-07-03T17:13:11Z</time>
      </trkpt>
      <trkpt lat="62.256486" lon="12.519567">
        <ele>774.063</ele>
        <time>2011-07-03T17:13:14Z</time>
      </trkpt>
      <trkpt lat="62.25655" lon="12.519536">
        <ele>775.013</ele>
        <time>2011-07-03T17:13:21Z</time>
      </trkpt>
      <trkpt lat="62.256597" lon="12.519508">
        <ele>776.055</ele>
        <time>2011-07-03T17:13:26Z</time>
      </trkpt>
      <trkpt lat="62.25665" lon="12.519478">
        <ele>776.152</ele>
        <time>2011-07-03T17:13:30Z</time>
      </trkpt>
      <trkpt lat="62.256699" lon="12.519447">
        <ele>776.525</ele>
        <time>2011-07-03T17:13:36Z</time>
      </trkpt>
      <trkpt lat="62.256744" lon="12.519375">
        <ele>777.128</ele>
        <time>2011-07-03T17:13:42Z</time>
      </trkpt>
      <trkpt lat="62.256749" lon="12.51937">
        <ele>777.161</ele>
        <time>2011-07-03T17:13:43Z</time>
      </trkpt>
      <trkpt lat="62.256772" lon="12.519396">
        <ele>777.148</ele>
        <time>2011-07-03T17:13:47Z</time>
      </trkpt>
      <trkpt lat="62.256806" lon="12.519367">
        <ele>777.59</ele>
        <time>2011-07-03T17:13:52Z</time>
      </trkpt>
      <trkpt lat="62.256814" lon="12.519363">
        <ele>777.669</ele>
        <time>2011-07-03T17:13:53Z</time>
      </trkpt>
      <trkpt lat="62.256814" lon="12.519519">
        <ele>777.911</ele>
        <time>2011-07-03T17:14:02Z</time>
      </trkpt>
      <trkpt lat="62.256831" lon="12.519576">
        <ele>777.828</ele>
        <time>2011-07-03T17:14:05Z</time>
      </trkpt>
      <trkpt lat="62.256851" lon="12.519664">
        <ele>777.58</ele>
        <time>2011-07-03T17:14:09Z</time>
      </trkpt>
      <trkpt lat="62.256849" lon="12.519771">
        <ele>777.602</ele>
        <time>2011-07-03T17:14:15Z</time>
      </trkpt>
      <trkpt lat="62.256875" lon="12.519897">
        <ele>778.038</ele>
        <time>2011-07-03T17:14:22Z</time>
      </trkpt>
      <trkpt lat="62.256911" lon="12.519978">
        <ele>778.195</ele>
        <time>2011-07-03T17:14:26Z</time>
      </trkpt>
      <trkpt lat="62.256942" lon="12.519993">
        <ele>777.883</ele>
        <time>2011-07-03T17:14:32Z</time>
      </trkpt>
      <trkpt lat="62.256972" lon="12.519982">
        <ele>778.997</ele>
        <time>2011-07-03T17:14:38Z</time>
      </trkpt>
      <trkpt lat="62.257015" lon="12.519996">
        <ele>779.412</ele>
        <time>2011-07-03T17:14:44Z</time>
      </trkpt>
      <trkpt lat="62.25704" lon="12.520008">
        <ele>779.273</ele>
        <time>2011-07-03T17:14:48Z</time>
      </trkpt>
      <trkpt lat="62.257101" lon="12.519983">
        <ele>779.887</ele>
        <time>2011-07-03T17:14:57Z</time>
      </trkpt>
      <trkpt lat="62.257168" lon="12.519875">
        <ele>779.078</ele>
        <time>2011-07-03T17:15:05Z</time>
      </trkpt>
      <trkpt lat="62.257198" lon="12.519852">
        <ele>779.191</ele>
        <time>2011-07-03T17:15:11Z</time>
      </trkpt>
      <trkpt lat="62.257266" lon="12.519847">
        <ele>779.42</ele>
        <time>2011-07-03T17:15:17Z</time>
      </trkpt>
      <trkpt lat="62.257318" lon="12.519824">
        <ele>779.355</ele>
        <time>2011-07-03T17:15:23Z</time>
      </trkpt>
      <trkpt lat="62.257391" lon="12.519888">
        <ele>779.77</ele>
        <time>2011-07-03T17:15:33Z</time>
      </trkpt>
      <trkpt lat="62.257395" lon="12.519894">
        <ele>779.914</ele>
        <time>2011-07-03T17:15:34Z</time>
      </trkpt>
      <trkpt lat="62.257497" lon="12.519955">
        <ele>780.649</ele>
        <time>2011-07-03T17:15:44Z</time>
      </trkpt>
      <trkpt lat="62.257536" lon="12.519974">
        <ele>781.262</ele>
        <time>2011-07-03T17:15:50Z</time>
      </trkpt>
      <trkpt lat="62.257572" lon="12.519945">
        <ele>781.497</ele>
        <time>2011-07-03T17:15:56Z</time>
      </trkpt>
      <trkpt lat="62.257649" lon="12.519957">
        <ele>782.887</ele>
        <time>2011-07-03T17:16:09Z</time>
      </trkpt>
      <trkpt lat="62.257655" lon="12.519957">
        <ele>783.055</ele>
        <time>2011-07-03T17:16:10Z</time>
      </trkpt>
      <trkpt lat="62.257677" lon="12.520024">
        <ele>783.342</ele>
        <time>2011-07-03T17:16:15Z</time>
      </trkpt>
      <trkpt lat="62.257704" lon="12.52008">
        <ele>783.822</ele>
        <time>2011-07-03T17:16:20Z</time>
      </trkpt>
      <trkpt lat="62.257773" lon="12.520256">
        <ele>786.318</ele>
        <time>2011-07-03T17:16:38Z</time>
      </trkpt>
      <trkpt lat="62.257789" lon="12.520282">
        <ele>786.653</ele>
        <time>2011-07-03T17:16:42Z</time>
      </trkpt>
      <trkpt lat="62.257886" lon="12.520328">
        <ele>787.24</ele>
        <time>2011-07-03T17:16:50Z</time>
      </trkpt>
      <trkpt lat="62.257959" lon="12.520311">
        <ele>786.243</ele>
        <time>2011-07-03T17:16:58Z</time>
      </trkpt>
      <trkpt lat="62.257995" lon="12.520292">
        <ele>785.697</ele>
        <time>2011-07-03T17:17:02Z</time>
      </trkpt>
      <trkpt lat="62.25802" lon="12.520289">
        <ele>785.427</ele>
        <time>2011-07-03T17:17:05Z</time>
      </trkpt>
      <trkpt lat="62.258025" lon="12.520292">
        <ele>785.408</ele>
        <time>2011-07-03T17:17:06Z</time>
      </trkpt>
      <trkpt lat="62.258125" lon="12.520274">
        <ele>784.26</ele>
        <time>2011-07-03T17:17:23Z</time>
      </trkpt>
      <trkpt lat="62.25813" lon="12.520267">
        <ele>784.308</ele>
        <time>2011-07-03T17:17:24Z</time>
      </trkpt>
      <trkpt lat="62.258232" lon="12.520288">
        <ele>784.891</ele>
        <time>2011-07-03T17:17:35Z</time>
      </trkpt>
      <trkpt lat="62.258261" lon="12.52032">
        <ele>784.763</ele>
        <time>2011-07-03T17:17:39Z</time>
      </trkpt>
      <trkpt lat="62.258314" lon="12.520375">
        <ele>785.141</ele>
        <time>2011-07-03T17:17:47Z</time>
      </trkpt>
      <trkpt lat="62.258367" lon="12.520353">
        <ele>785.247</ele>
        <time>2011-07-03T17:17:52Z</time>
      </trkpt>
      <trkpt lat="62.258387" lon="12.520411">
        <ele>785.273</ele>
        <time>2011-07-03T17:17:56Z</time>
      </trkpt>
      <trkpt lat="62.2584" lon="12.520452">
        <ele>785.59</ele>
        <time>2011-07-03T17:18:00Z</time>
      </trkpt>
      <trkpt lat="62.258403" lon="12.520458">
        <ele>785.619</ele>
        <time>2011-07-03T17:18:01Z</time>
      </trkpt>
      <trkpt lat="62.258453" lon="12.520508">
        <ele>784.85</ele>
        <time>2011-07-03T17:18:10Z</time>
      </trkpt>
      <trkpt lat="62.258494" lon="12.52062">
        <ele>784.573</ele>
        <time>2011-07-03T17:18:17Z</time>
      </trkpt>
      <trkpt lat="62.258542" lon="12.520678">
        <ele>785.101</ele>
        <time>2011-07-03T17:18:23Z</time>
      </trkpt>
      <trkpt lat="62.258549" lon="12.520683">
        <ele>785.268</ele>
        <time>2011-07-03T17:18:24Z</time>
      </trkpt>
      <trkpt lat="62.258595" lon="12.520818">
        <ele>785.329</ele>
        <time>2011-07-03T17:18:32Z</time>
      </trkpt>
      <trkpt lat="62.258621" lon="12.52086">
        <ele>785.174</ele>
        <time>2011-07-03T17:18:38Z</time>
      </trkpt>
      <trkpt lat="62.258664" lon="12.520969">
        <ele>785.696</ele>
        <time>2011-07-03T17:18:45Z</time>
      </trkpt>
      <trkpt lat="62.258677" lon="12.521013">
        <ele>785.437</ele>
        <time>2011-07-03T17:18:48Z</time>
      </trkpt>
      <trkpt lat="62.258742" lon="12.521072">
        <ele>784.62</ele>
        <time>2011-07-03T17:18:55Z</time>
      </trkpt>
      <trkpt lat="62.258755" lon="12.521088">
        <ele>784.523</ele>
        <time>2011-07-03T17:18:57Z</time>
      </trkpt>
      <trkpt lat="62.258898" lon="12.521227">
        <ele>786.026</ele>
        <time>2011-07-03T17:19:05Z</time>
      </trkpt>
      <trkpt lat="62.258926" lon="12.521252">
        <ele>786.043</ele>
        <time>2011-07-03T17:19:07Z</time>
      </trkpt>
      <trkpt lat="62.258978" lon="12.521262">
        <ele>785.171</ele>
        <time>2011-07-03T17:19:11Z</time>
      </trkpt>
      <trkpt lat="62.259068" lon="12.521275">
        <ele>784.826</ele>
        <time>2011-07-03T17:19:19Z</time>
      </trkpt>
      <trkpt lat="62.259073" lon="12.521283">
        <ele>784.909</ele>
        <time>2011-07-03T17:19:20Z</time>
      </trkpt>
      <trkpt lat="62.259128" lon="12.521274">
        <ele>784.788</ele>
        <time>2011-07-03T17:19:27Z</time>
      </trkpt>
      <trkpt lat="62.259184" lon="12.52124">
        <ele>785.129</ele>
        <time>2011-07-03T17:19:35Z</time>
      </trkpt>
      <trkpt lat="62.259253" lon="12.521268">
        <ele>785.043</ele>
        <time>2011-07-03T17:19:42Z</time>
      </trkpt>
      <trkpt lat="62.259318" lon="12.521291">
        <ele>784.201</ele>
        <time>2011-07-03T17:19:47Z</time>
      </trkpt>
      <trkpt lat="62.259368" lon="12.521364">
        <ele>782.603</ele>
        <time>2011-07-03T17:19:53Z</time>
      </trkpt>
      <trkpt lat="62.259382" lon="12.521373">
        <ele>782.623</ele>
        <time>2011-07-03T17:19:55Z</time>
      </trkpt>
      <trkpt lat="62.25945" lon="12.521341">
        <ele>782.565</ele>
        <time>2011-07-03T17:20:00Z</time>
      </trkpt>
      <trkpt lat="62.259547" lon="12.521387">
        <ele>783.018</ele>
        <time>2011-07-03T17:20:08Z</time>
      </trkpt>
      <trkpt lat="62.259615" lon="12.521451">
        <ele>782.967</ele>
        <time>2011-07-03T17:20:14Z</time>
      </trkpt>
      <trkpt lat="62.259676" lon="12.521523">
        <ele>783.285</ele>
        <time>2011-07-03T17:20:22Z</time>
      </trkpt>
      <trkpt lat="62.25971" lon="12.521543">
        <ele>783.43</ele>
        <time>2011-07-03T17:20:27Z</time>
      </trkpt>
      <trkpt lat="62.25981" lon="12.5216">
        <ele>783.095</ele>
        <time>2011-07-03T17:20:35Z</time>
      </trkpt>
      <trkpt lat="62.259845" lon="12.521588">
        <ele>782.992</ele>
        <time>2011-07-03T17:20:38Z</time>
      </trkpt>
      <trkpt lat="62.259929" lon="12.521616">
        <ele>783.411</ele>
        <time>2011-07-03T17:20:46Z</time>
      </trkpt>
      <trkpt lat="62.259975" lon="12.521664">
        <ele>783.964</ele>
        <time>2011-07-03T17:20:52Z</time>
      </trkpt>
      <trkpt lat="62.259992" lon="12.521712">
        <ele>783.959</ele>
        <time>2011-07-03T17:20:55Z</time>
      </trkpt>
      <trkpt lat="62.260038" lon="12.521789">
        <ele>783.297</ele>
        <time>2011-07-03T17:21:00Z</time>
      </trkpt>
      <trkpt lat="62.260089" lon="12.522003">
        <ele>783.145</ele>
        <time>2011-07-03T17:21:09Z</time>
      </trkpt>
      <trkpt lat="62.260112" lon="12.522067">
        <ele>782.87</ele>
        <time>2011-07-03T17:21:12Z</time>
      </trkpt>
      <trkpt lat="62.260195" lon="12.522137">
        <ele>783.241</ele>
        <time>2011-07-03T17:21:20Z</time>
      </trkpt>
      <trkpt lat="62.260222" lon="12.522147">
        <ele>783.643</ele>
        <time>2011-07-03T17:21:23Z</time>
      </trkpt>
      <trkpt lat="62.260335" lon="12.522164">
        <ele>783.51</ele>
        <time>2011-07-03T17:21:38Z</time>
      </trkpt>
      <trkpt lat="62.260373" lon="12.522172">
        <ele>783.304</ele>
        <time>2011-07-03T17:21:42Z</time>
      </trkpt>
      <trkpt lat="62.260431" lon="12.522121">
        <ele>783.048</ele>
        <time>2011-07-03T17:21:49Z</time>
      </trkpt>
      <trkpt lat="62.260479" lon="12.522066">
        <ele>783.545</ele>
        <time>2011-07-03T17:21:55Z</time>
      </trkpt>
      <trkpt lat="62.260544" lon="12.522082">
        <ele>784.502</ele>
        <time>2011-07-03T17:22:00Z</time>
      </trkpt>
      <trkpt lat="62.260599" lon="12.522069">
        <ele>784.88</ele>
        <time>2011-07-03T17:22:06Z</time>
      </trkpt>
      <trkpt lat="62.260654" lon="12.522117">
        <ele>784.866</ele>
        <time>2011-07-03T17:22:14Z</time>
      </trkpt>
      <trkpt lat="62.260708" lon="12.522146">
        <ele>784.222</ele>
        <time>2011-07-03T17:22:19Z</time>
      </trkpt>
      <trkpt lat="62.260761" lon="12.522117">
        <ele>784.168</ele>
        <time>2011-07-03T17:22:23Z</time>
      </trkpt>
      <trkpt lat="62.260827" lon="12.522072">
        <ele>784.154</ele>
        <time>2011-07-03T17:22:29Z</time>
      </trkpt>
      <trkpt lat="62.260907" lon="12.522144">
        <ele>784.244</ele>
        <time>2011-07-03T17:22:36Z</time>
      </trkpt>
      <trkpt lat="62.260961" lon="12.52217">
        <ele>784.258</ele>
        <time>2011-07-03T17:22:41Z</time>
      </trkpt>
      <trkpt lat="62.261019" lon="12.5222">
        <ele>784.022</ele>
        <time>2011-07-03T17:22:45Z</time>
      </trkpt>
      <trkpt lat="62.261082" lon="12.522352">
        <ele>783.842</ele>
        <time>2011-07-03T17:22:53Z</time>
      </trkpt>
      <trkpt lat="62.261103" lon="12.52238">
        <ele>783.824</ele>
        <time>2011-07-03T17:22:55Z</time>
      </trkpt>
      <trkpt lat="62.261159" lon="12.522435">
        <ele>783.847</ele>
        <time>2011-07-03T17:23:01Z</time>
      </trkpt>
      <trkpt lat="62.261167" lon="12.522446">
        <ele>783.928</ele>
        <time>2011-07-03T17:23:02Z</time>
      </trkpt>
      <trkpt lat="62.261268" lon="12.522506">
        <ele>784.312</ele>
        <time>2011-07-03T17:23:10Z</time>
      </trkpt>
      <trkpt lat="62.261325" lon="12.522557">
        <ele>784.713</ele>
        <time>2011-07-03T17:23:17Z</time>
      </trkpt>
      <trkpt lat="62.261379" lon="12.522585">
        <ele>785.126</ele>
        <time>2011-07-03T17:23:25Z</time>
      </trkpt>
      <trkpt lat="62.261386" lon="12.522589">
        <ele>785.01</ele>
        <time>2011-07-03T17:23:26Z</time>
      </trkpt>
      <trkpt lat="62.261453" lon="12.522664">
        <ele>784.874</ele>
        <time>2011-07-03T17:23:35Z</time>
      </trkpt>
      <trkpt lat="62.26149" lon="12.52266">
        <ele>785.277</ele>
        <time>2011-07-03T17:23:40Z</time>
      </trkpt>
      <trkpt lat="62.261562" lon="12.522677">
        <ele>786.033</ele>
        <time>2011-07-03T17:23:48Z</time>
      </trkpt>
      <trkpt lat="62.26164" lon="12.522762">
        <ele>786.778</ele>
        <time>2011-07-03T17:23:54Z</time>
      </trkpt>
      <trkpt lat="62.261685" lon="12.522818">
        <ele>787.423</ele>
        <time>2011-07-03T17:23:59Z</time>
      </trkpt>
      <trkpt lat="62.26175" lon="12.522903">
        <ele>788.063</ele>
        <time>2011-07-03T17:24:04Z</time>
      </trkpt>
      <trkpt lat="62.261797" lon="12.522957">
        <ele>788.946</ele>
        <time>2011-07-03T17:24:11Z</time>
      </trkpt>
      <trkpt lat="62.261836" lon="12.523003">
        <ele>789.538</ele>
        <time>2011-07-03T17:24:15Z</time>
      </trkpt>
      <trkpt lat="62.261877" lon="12.523024">
        <ele>790.532</ele>
        <time>2011-07-03T17:24:21Z</time>
      </trkpt>
      <trkpt lat="62.261935" lon="12.523071">
        <ele>790.859</ele>
        <time>2011-07-03T17:24:28Z</time>
      </trkpt>
      <trkpt lat="62.261989" lon="12.523099">
        <ele>790.88</ele>
        <time>2011-07-03T17:24:34Z</time>
      </trkpt>
      <trkpt lat="62.262027" lon="12.523212">
        <ele>791.107</ele>
        <time>2011-07-03T17:24:39Z</time>
      </trkpt>
      <trkpt lat="62.262098" lon="12.523361">
        <ele>791.626</ele>
        <time>2011-07-03T17:24:47Z</time>
      </trkpt>
      <trkpt lat="62.262148" lon="12.523495">
        <ele>791.543</ele>
        <time>2011-07-03T17:24:54Z</time>
      </trkpt>
      <trkpt lat="62.262204" lon="12.523576">
        <ele>791.712</ele>
        <time>2011-07-03T17:25:00Z</time>
      </trkpt>
      <trkpt lat="62.26233" lon="12.52363">
        <ele>791.691</ele>
        <time>2011-07-03T17:25:09Z</time>
      </trkpt>
      <trkpt lat="62.262409" lon="12.523635">
        <ele>791.735</ele>
        <time>2011-07-03T17:25:17Z</time>
      </trkpt>
      <trkpt lat="62.262444" lon="12.52368">
        <ele>791.619</ele>
        <time>2011-07-03T17:25:21Z</time>
      </trkpt>
      <trkpt lat="62.262522" lon="12.52375">
        <ele>790.514</ele>
        <time>2011-07-03T17:25:29Z</time>
      </trkpt>
      <trkpt lat="62.262528" lon="12.52375">
        <ele>790.304</ele>
        <time>2011-07-03T17:25:30Z</time>
      </trkpt>
      <trkpt lat="62.262579" lon="12.523854">
        <ele>789.355</ele>
        <time>2011-07-03T17:25:37Z</time>
      </trkpt>
      <trkpt lat="62.262624" lon="12.523942">
        <ele>789.277</ele>
        <time>2011-07-03T17:25:44Z</time>
      </trkpt>
      <trkpt lat="62.262662" lon="12.523985">
        <ele>789.639</ele>
        <time>2011-07-03T17:25:48Z</time>
      </trkpt>
      <trkpt lat="62.262718" lon="12.524076">
        <ele>789.887</ele>
        <time>2011-07-03T17:25:55Z</time>
      </trkpt>
      <trkpt lat="62.262752" lon="12.524156">
        <ele>789.65</ele>
        <time>2011-07-03T17:26:00Z</time>
      </trkpt>
      <trkpt lat="62.262795" lon="12.524217">
        <ele>789.41</ele>
        <time>2011-07-03T17:26:05Z</time>
      </trkpt>
      <trkpt lat="62.262803" lon="12.52423">
        <ele>789.341</ele>
        <time>2011-07-03T17:26:06Z</time>
      </trkpt>
      <trkpt lat="62.262902" lon="12.524291">
        <ele>789.466</ele>
        <time>2011-07-03T17:26:15Z</time>
      </trkpt>
      <trkpt lat="62.262925" lon="12.52431">
        <ele>789.601</ele>
        <time>2011-07-03T17:26:17Z</time>
      </trkpt>
      <trkpt lat="62.263011" lon="12.524399">
        <ele>790.104</ele>
        <time>2011-07-03T17:26:29Z</time>
      </trkpt>
      <trkpt lat="62.263063" lon="12.524431">
        <ele>790.037</ele>
        <time>2011-07-03T17:26:35Z</time>
      </trkpt>
      <trkpt lat="62.263108" lon="12.524523">
        <ele>789.196</ele>
        <time>2011-07-03T17:26:43Z</time>
      </trkpt>
      <trkpt lat="62.263139" lon="12.524577">
        <ele>788.6</ele>
        <time>2011-07-03T17:26:48Z</time>
      </trkpt>
      <trkpt lat="62.263157" lon="12.524637">
        <ele>788.241</ele>
        <time>2011-07-03T17:26:53Z</time>
      </trkpt>
      <trkpt lat="62.263207" lon="12.524736">
        <ele>787.679</ele>
        <time>2011-07-03T17:27:00Z</time>
      </trkpt>
      <trkpt lat="62.263237" lon="12.524721">
        <ele>787.675</ele>
        <time>2011-07-03T17:27:05Z</time>
      </trkpt>
      <trkpt lat="62.263336" lon="12.524706">
        <ele>787.727</ele>
        <time>2011-07-03T17:27:12Z</time>
      </trkpt>
      <trkpt lat="62.2634" lon="12.524684">
        <ele>787.848</ele>
        <time>2011-07-03T17:27:19Z</time>
      </trkpt>
      <trkpt lat="62.263404" lon="12.524689">
        <ele>787.818</ele>
        <time>2011-07-03T17:27:20Z</time>
      </trkpt>
      <trkpt lat="62.263415" lon="12.524714">
        <ele>788.006</ele>
        <time>2011-07-03T17:27:22Z</time>
      </trkpt>
      <trkpt lat="62.263484" lon="12.52477">
        <ele>787.948</ele>
        <time>2011-07-03T17:27:30Z</time>
      </trkpt>
      <trkpt lat="62.263549" lon="12.524848">
        <ele>788.568</ele>
        <time>2011-07-03T17:27:37Z</time>
      </trkpt>
      <trkpt lat="62.263661" lon="12.524917">
        <ele>789.443</ele>
        <time>2011-07-03T17:27:46Z</time>
      </trkpt>
      <trkpt lat="62.263713" lon="12.525005">
        <ele>789.999</ele>
        <time>2011-07-03T17:27:53Z</time>
      </trkpt>
      <trkpt lat="62.263731" lon="12.525074">
        <ele>790.591</ele>
        <time>2011-07-03T17:27:59Z</time>
      </trkpt>
      <trkpt lat="62.263738" lon="12.52517">
        <ele>790.959</ele>
        <time>2011-07-03T17:28:03Z</time>
      </trkpt>
      <trkpt lat="62.263811" lon="12.525235">
        <ele>792.151</ele>
        <time>2011-07-03T17:28:10Z</time>
      </trkpt>
      <trkpt lat="62.26388" lon="12.525342">
        <ele>792.998</ele>
        <time>2011-07-03T17:28:17Z</time>
      </trkpt>
      <trkpt lat="62.263895" lon="12.52537">
        <ele>793.341</ele>
        <time>2011-07-03T17:28:19Z</time>
      </trkpt>
      <trkpt lat="62.263917" lon="12.525399">
        <ele>793.939</ele>
        <time>2011-07-03T17:28:24Z</time>
      </trkpt>
      <trkpt lat="62.263965" lon="12.525446">
        <ele>794.652</ele>
        <time>2011-07-03T17:28:32Z</time>
      </trkpt>
      <trkpt lat="62.264021" lon="12.525479">
        <ele>795.006</ele>
        <time>2011-07-03T17:28:40Z</time>
      </trkpt>
      <trkpt lat="62.264076" lon="12.525563">
        <ele>795.186</ele>
        <time>2011-07-03T17:28:48Z</time>
      </trkpt>
      <trkpt lat="62.264116" lon="12.525631">
        <ele>795.112</ele>
        <time>2011-07-03T17:28:53Z</time>
      </trkpt>
      <trkpt lat="62.264159" lon="12.525693">
        <ele>795.242</ele>
        <time>2011-07-03T17:28:58Z</time>
      </trkpt>
      <trkpt lat="62.26422" lon="12.525679">
        <ele>795.644</ele>
        <time>2011-07-03T17:29:04Z</time>
      </trkpt>
      <trkpt lat="62.264267" lon="12.525718">
        <ele>795.696</ele>
        <time>2011-07-03T17:29:10Z</time>
      </trkpt>
      <trkpt lat="62.264293" lon="12.525769">
        <ele>795.897</ele>
        <time>2011-07-03T17:29:13Z</time>
      </trkpt>
      <trkpt lat="62.264328" lon="12.525835">
        <ele>795.728</ele>
        <time>2011-07-03T17:29:18Z</time>
      </trkpt>
      <trkpt lat="62.264349" lon="12.525895">
        <ele>795.425</ele>
        <time>2011-07-03T17:29:22Z</time>
      </trkpt>
      <trkpt lat="62.264378" lon="12.525939">
        <ele>795.49</ele>
        <time>2011-07-03T17:29:29Z</time>
      </trkpt>
      <trkpt lat="62.264381" lon="12.525943">
        <ele>795.48</ele>
        <time>2011-07-03T17:29:30Z</time>
      </trkpt>
      <trkpt lat="62.264533" lon="12.526007">
        <ele>794.553</ele>
        <time>2011-07-03T17:29:49Z</time>
      </trkpt>
      <trkpt lat="62.26462" lon="12.526149">
        <ele>794.484</ele>
        <time>2011-07-03T17:29:58Z</time>
      </trkpt>
      <trkpt lat="62.264658" lon="12.526249">
        <ele>794.615</ele>
        <time>2011-07-03T17:30:04Z</time>
      </trkpt>
      <trkpt lat="62.264702" lon="12.526283">
        <ele>794.951</ele>
        <time>2011-07-03T17:30:09Z</time>
      </trkpt>
      <trkpt lat="62.264765" lon="12.526358">
        <ele>795.606</ele>
        <time>2011-07-03T17:30:16Z</time>
      </trkpt>
      <trkpt lat="62.264814" lon="12.526411">
        <ele>796.171</ele>
        <time>2011-07-03T17:30:23Z</time>
      </trkpt>
      <trkpt lat="62.26487" lon="12.526534">
        <ele>796.729</ele>
        <time>2011-07-03T17:30:31Z</time>
      </trkpt>
      <trkpt lat="62.264934" lon="12.526604">
        <ele>797.021</ele>
        <time>2011-07-03T17:30:36Z</time>
      </trkpt>
      <trkpt lat="62.264992" lon="12.526695">
        <ele>797.927</ele>
        <time>2011-07-03T17:30:44Z</time>
      </trkpt>
      <trkpt lat="62.265024" lon="12.526778">
        <ele>798.611</ele>
        <time>2011-07-03T17:30:50Z</time>
      </trkpt>
      <trkpt lat="62.265084" lon="12.526869">
        <ele>799.479</ele>
        <time>2011-07-03T17:30:58Z</time>
      </trkpt>
      <trkpt lat="62.265145" lon="12.526957">
        <ele>800.426</ele>
        <time>2011-07-03T17:31:07Z</time>
      </trkpt>
      <trkpt lat="62.265156" lon="12.527007">
        <ele>800.991</ele>
        <time>2011-07-03T17:31:13Z</time>
      </trkpt>
      <trkpt lat="62.26518" lon="12.527105">
        <ele>801.142</ele>
        <time>2011-07-03T17:31:21Z</time>
      </trkpt>
      <trkpt lat="62.2652" lon="12.52721">
        <ele>801.075</ele>
        <time>2011-07-03T17:31:26Z</time>
      </trkpt>
      <trkpt lat="62.265212" lon="12.527237">
        <ele>800.688</ele>
        <time>2011-07-03T17:31:29Z</time>
      </trkpt>
      <trkpt lat="62.265287" lon="12.527321">
        <ele>800.542</ele>
        <time>2011-07-03T17:31:36Z</time>
      </trkpt>
      <trkpt lat="62.265297" lon="12.527347">
        <ele>800.499</ele>
        <time>2011-07-03T17:31:39Z</time>
      </trkpt>
      <trkpt lat="62.265327" lon="12.527384">
        <ele>800.54</ele>
        <time>2011-07-03T17:31:44Z</time>
      </trkpt>
      <trkpt lat="62.265326" lon="12.527387">
        <ele>800.739</ele>
        <time>2011-07-03T17:31:45Z</time>
      </trkpt>
      <trkpt lat="62.265321" lon="12.527449">
        <ele>800.763</ele>
        <time>2011-07-03T17:31:51Z</time>
      </trkpt>
      <trkpt lat="62.265351" lon="12.527534">
        <ele>800.631</ele>
        <time>2011-07-03T17:31:58Z</time>
      </trkpt>
      <trkpt lat="62.265362" lon="12.527537">
        <ele>800.59</ele>
        <time>2011-07-03T17:31:59Z</time>
      </trkpt>
      <trkpt lat="62.26545" lon="12.527559">
        <ele>800.829</ele>
        <time>2011-07-03T17:32:07Z</time>
      </trkpt>
      <trkpt lat="62.265506" lon="12.527554">
        <ele>800.844</ele>
        <time>2011-07-03T17:32:13Z</time>
      </trkpt>
      <trkpt lat="62.265581" lon="12.527595">
        <ele>801.115</ele>
        <time>2011-07-03T17:32:20Z</time>
      </trkpt>
      <trkpt lat="62.265648" lon="12.527642">
        <ele>801.668</ele>
        <time>2011-07-03T17:32:25Z</time>
      </trkpt>
      <trkpt lat="62.26572" lon="12.527695">
        <ele>802.319</ele>
        <time>2011-07-03T17:32:31Z</time>
      </trkpt>
      <trkpt lat="62.265755" lon="12.527726">
        <ele>802.542</ele>
        <time>2011-07-03T17:32:37Z</time>
      </trkpt>
      <trkpt lat="62.265789" lon="12.527781">
        <ele>802.826</ele>
        <time>2011-07-03T17:32:41Z</time>
      </trkpt>
      <trkpt lat="62.265822" lon="12.527879">
        <ele>803.725</ele>
        <time>2011-07-03T17:32:47Z</time>
      </trkpt>
      <trkpt lat="62.26584" lon="12.527935">
        <ele>804.057</ele>
        <time>2011-07-03T17:32:50Z</time>
      </trkpt>
      <trkpt lat="62.26589" lon="12.528006">
        <ele>803.951</ele>
        <time>2011-07-03T17:32:58Z</time>
      </trkpt>
      <trkpt lat="62.265897" lon="12.528011">
        <ele>803.814</ele>
        <time>2011-07-03T17:32:59Z</time>
      </trkpt>
      <trkpt lat="62.26599" lon="12.528083">
        <ele>804.777</ele>
        <time>2011-07-03T17:33:14Z</time>
      </trkpt>
      <trkpt lat="62.266023" lon="12.528163">
        <ele>804.902</ele>
        <time>2011-07-03T17:33:20Z</time>
      </trkpt>
      <trkpt lat="62.266065" lon="12.528229">
        <ele>804.785</ele>
        <time>2011-07-03T17:33:26Z</time>
      </trkpt>
      <trkpt lat="62.266062" lon="12.528269">
        <ele>804.838</ele>
        <time>2011-07-03T17:33:29Z</time>
      </trkpt>
      <trkpt lat="62.266071" lon="12.528302">
        <ele>804.919</ele>
        <time>2011-07-03T17:33:31Z</time>
      </trkpt>
      <trkpt lat="62.266068" lon="12.528343">
        <ele>804.875</ele>
        <time>2011-07-03T17:33:35Z</time>
      </trkpt>
      <trkpt lat="62.266089" lon="12.528463">
        <ele>805.411</ele>
        <time>2011-07-03T17:34:16Z</time>
      </trkpt>
      <trkpt lat="62.266106" lon="12.528514">
        <ele>805.623</ele>
        <time>2011-07-03T17:34:19Z</time>
      </trkpt>
      <trkpt lat="62.266109" lon="12.528526">
        <ele>805.855</ele>
        <time>2011-07-03T17:34:20Z</time>
      </trkpt>
      <trkpt lat="62.266121" lon="12.528602">
        <ele>805.984</ele>
        <time>2011-07-03T17:34:25Z</time>
      </trkpt>
      <trkpt lat="62.266129" lon="12.528692">
        <ele>805.964</ele>
        <time>2011-07-03T17:34:31Z</time>
      </trkpt>
      <trkpt lat="62.266133" lon="12.528704">
        <ele>805.889</ele>
        <time>2011-07-03T17:34:32Z</time>
      </trkpt>
      <trkpt lat="62.266206" lon="12.528775">
        <ele>805.8</ele>
        <time>2011-07-03T17:34:40Z</time>
      </trkpt>
      <trkpt lat="62.26625" lon="12.528794">
        <ele>805.794</ele>
        <time>2011-07-03T17:34:46Z</time>
      </trkpt>
      <trkpt lat="62.26629" lon="12.528805">
        <ele>805.828</ele>
        <time>2011-07-03T17:34:56Z</time>
      </trkpt>
      <trkpt lat="62.266311" lon="12.528713">
        <ele>806.132</ele>
        <time>2011-07-03T17:35:01Z</time>
      </trkpt>
      <trkpt lat="62.266372" lon="12.528753">
        <ele>806.288</ele>
        <time>2011-07-03T17:35:07Z</time>
      </trkpt>
      <trkpt lat="62.266407" lon="12.528742">
        <ele>806.313</ele>
        <time>2011-07-03T17:35:10Z</time>
      </trkpt>
      <trkpt lat="62.266457" lon="12.528778">
        <ele>806.349</ele>
        <time>2011-07-03T17:35:14Z</time>
      </trkpt>
      <trkpt lat="62.266534" lon="12.528749">
        <ele>806.965</ele>
        <time>2011-07-03T17:35:23Z</time>
      </trkpt>
      <trkpt lat="62.266599" lon="12.528756">
        <ele>807.794</ele>
        <time>2011-07-03T17:35:30Z</time>
      </trkpt>
      <trkpt lat="62.266656" lon="12.528751">
        <ele>808.574</ele>
        <time>2011-07-03T17:35:37Z</time>
      </trkpt>
      <trkpt lat="62.266682" lon="12.528769">
        <ele>808.821</ele>
        <time>2011-07-03T17:35:40Z</time>
      </trkpt>
      <trkpt lat="62.26674" lon="12.52873">
        <ele>809.519</ele>
        <time>2011-07-03T17:35:46Z</time>
      </trkpt>
      <trkpt lat="62.266786" lon="12.528678">
        <ele>809.95</ele>
        <time>2011-07-03T17:35:50Z</time>
      </trkpt>
      <trkpt lat="62.266828" lon="12.528654">
        <ele>810.531</ele>
        <time>2011-07-03T17:35:54Z</time>
      </trkpt>
      <trkpt lat="62.26689" lon="12.528633">
        <ele>811.153</ele>
        <time>2011-07-03T17:35:59Z</time>
      </trkpt>
      <trkpt lat="62.266943" lon="12.528645">
        <ele>811.717</ele>
        <time>2011-07-03T17:36:03Z</time>
      </trkpt>
      <trkpt lat="62.26704" lon="12.528613">
        <ele>812.874</ele>
        <time>2011-07-03T17:36:11Z</time>
      </trkpt>
      <trkpt lat="62.267117" lon="12.528628">
        <ele>813.389</ele>
        <time>2011-07-03T17:36:18Z</time>
      </trkpt>
      <trkpt lat="62.267194" lon="12.528618">
        <ele>814.074</ele>
        <time>2011-07-03T17:36:26Z</time>
      </trkpt>
      <trkpt lat="62.267202" lon="12.528609">
        <ele>814.12</ele>
        <time>2011-07-03T17:36:27Z</time>
      </trkpt>
      <trkpt lat="62.267306" lon="12.528604">
        <ele>814.527</ele>
        <time>2011-07-03T17:36:35Z</time>
      </trkpt>
      <trkpt lat="62.267345" lon="12.528616">
        <ele>814.534</ele>
        <time>2011-07-03T17:36:40Z</time>
      </trkpt>
      <trkpt lat="62.26736" lon="12.528598">
        <ele>814.497</ele>
        <time>2011-07-03T17:36:42Z</time>
      </trkpt>
      <trkpt lat="62.267439" lon="12.528606">
        <ele>814.842</ele>
        <time>2011-07-03T17:36:50Z</time>
      </trkpt>
      <trkpt lat="62.267472" lon="12.528608">
        <ele>815.077</ele>
        <time>2011-07-03T17:36:53Z</time>
      </trkpt>
      <trkpt lat="62.267538" lon="12.528549">
        <ele>815.179</ele>
        <time>2011-07-03T17:37:00Z</time>
      </trkpt>
      <trkpt lat="62.267623" lon="12.528569">
        <ele>815.18</ele>
        <time>2011-07-03T17:37:05Z</time>
      </trkpt>
      <trkpt lat="62.267656" lon="12.528597">
        <ele>814.745</ele>
        <time>2011-07-03T17:37:08Z</time>
      </trkpt>
      <trkpt lat="62.26771" lon="12.528632">
        <ele>814.199</ele>
        <time>2011-07-03T17:37:12Z</time>
      </trkpt>
      <trkpt lat="62.26779" lon="12.52857">
        <ele>813.573</ele>
        <time>2011-07-03T17:37:20Z</time>
      </trkpt>
      <trkpt lat="62.267816" lon="12.528537">
        <ele>813.368</ele>
        <time>2011-07-03T17:37:23Z</time>
      </trkpt>
      <trkpt lat="62.26788" lon="12.528511">
        <ele>813.535</ele>
        <time>2011-07-03T17:37:29Z</time>
      </trkpt>
      <trkpt lat="62.267954" lon="12.52846">
        <ele>813.733</ele>
        <time>2011-07-03T17:37:36Z</time>
      </trkpt>
      <trkpt lat="62.268025" lon="12.528447">
        <ele>814.82</ele>
        <time>2011-07-03T17:37:44Z</time>
      </trkpt>
      <trkpt lat="62.268041" lon="12.528426">
        <ele>815.285</ele>
        <time>2011-07-03T17:37:48Z</time>
      </trkpt>
      <trkpt lat="62.268118" lon="12.528401">
        <ele>815.57</ele>
        <time>2011-07-03T17:38:53Z</time>
      </trkpt>
      <trkpt lat="62.268145" lon="12.528361">
        <ele>815.677</ele>
        <time>2011-07-03T17:38:57Z</time>
      </trkpt>
      <trkpt lat="62.268177" lon="12.528299">
        <ele>815.903</ele>
        <time>2011-07-03T17:39:01Z</time>
      </trkpt>
      <trkpt lat="62.268237" lon="12.528307">
        <ele>815.921</ele>
        <time>2011-07-03T17:39:07Z</time>
      </trkpt>
      <trkpt lat="62.268314" lon="12.528276">
        <ele>815.832</ele>
        <time>2011-07-03T17:39:15Z</time>
      </trkpt>
      <trkpt lat="62.268372" lon="12.528244">
        <ele>816.648</ele>
        <time>2011-07-03T17:39:22Z</time>
      </trkpt>
      <trkpt lat="62.268433" lon="12.528213">
        <ele>817.829</ele>
        <time>2011-07-03T17:39:30Z</time>
      </trkpt>
      <trkpt lat="62.268438" lon="12.528205">
        <ele>817.915</ele>
        <time>2011-07-03T17:39:31Z</time>
      </trkpt>
      <trkpt lat="62.268477" lon="12.528138">
        <ele>818.049</ele>
        <time>2011-07-03T17:39:36Z</time>
      </trkpt>
      <trkpt lat="62.268565" lon="12.528128">
        <ele>817.65</ele>
        <time>2011-07-03T17:39:44Z</time>
      </trkpt>
      <trkpt lat="62.268623" lon="12.528136">
        <ele>817.016</ele>
        <time>2011-07-03T17:39:50Z</time>
      </trkpt>
      <trkpt lat="62.268696" lon="12.528087">
        <ele>816.512</ele>
        <time>2011-07-03T17:39:58Z</time>
      </trkpt>
      <trkpt lat="62.268703" lon="12.528077">
        <ele>816.4</ele>
        <time>2011-07-03T17:39:59Z</time>
      </trkpt>
      <trkpt lat="62.268747" lon="12.528118">
        <ele>815.865</ele>
        <time>2011-07-03T17:40:04Z</time>
      </trkpt>
      <trkpt lat="62.268768" lon="12.528132">
        <ele>815.86</ele>
        <time>2011-07-03T17:40:06Z</time>
      </trkpt>
      <trkpt lat="62.268772" lon="12.528157">
        <ele>815.928</ele>
        <time>2011-07-03T17:40:08Z</time>
      </trkpt>
      <trkpt lat="62.268801" lon="12.528151">
        <ele>816.085</ele>
        <time>2011-07-03T17:40:11Z</time>
      </trkpt>
      <trkpt lat="62.268869" lon="12.528106">
        <ele>816.291</ele>
        <time>2011-07-03T17:40:17Z</time>
      </trkpt>
      <trkpt lat="62.268885" lon="12.528106">
        <ele>816.512</ele>
        <time>2011-07-03T17:40:19Z</time>
      </trkpt>
      <trkpt lat="62.268941" lon="12.528104">
        <ele>817.155</ele>
        <time>2011-07-03T17:40:24Z</time>
      </trkpt>
      <trkpt lat="62.269" lon="12.528121">
        <ele>817.624</ele>
        <time>2011-07-03T17:40:31Z</time>
      </trkpt>
      <trkpt lat="62.269023" lon="12.528121">
        <ele>817.705</ele>
        <time>2011-07-03T17:40:34Z</time>
      </trkpt>
      <trkpt lat="62.269071" lon="12.528105">
        <ele>817.989</ele>
        <time>2011-07-03T17:40:41Z</time>
      </trkpt>
      <trkpt lat="62.2691" lon="12.528047">
        <ele>818.224</ele>
        <time>2011-07-03T17:40:47Z</time>
      </trkpt>
      <trkpt lat="62.269137" lon="12.527996">
        <ele>818.302</ele>
        <time>2011-07-03T17:40:52Z</time>
      </trkpt>
      <trkpt lat="62.269188" lon="12.527906">
        <ele>818.478</ele>
        <time>2011-07-03T17:40:57Z</time>
      </trkpt>
      <trkpt lat="62.269259" lon="12.527788">
        <ele>818.693</ele>
        <time>2011-07-03T17:41:03Z</time>
      </trkpt>
      <trkpt lat="62.269345" lon="12.527684">
        <ele>819.366</ele>
        <time>2011-07-03T17:41:11Z</time>
      </trkpt>
      <trkpt lat="62.269434" lon="12.527569">
        <ele>819.635</ele>
        <time>2011-07-03T17:41:19Z</time>
      </trkpt>
      <trkpt lat="62.269447" lon="12.527541">
        <ele>819.683</ele>
        <time>2011-07-03T17:41:21Z</time>
      </trkpt>
      <trkpt lat="62.269546" lon="12.527464">
        <ele>819.179</ele>
        <time>2011-07-03T17:41:30Z</time>
      </trkpt>
      <trkpt lat="62.269631" lon="12.527374">
        <ele>818.978</ele>
        <time>2011-07-03T17:41:36Z</time>
      </trkpt>
      <trkpt lat="62.269703" lon="12.527243">
        <ele>819.101</ele>
        <time>2011-07-03T17:41:43Z</time>
      </trkpt>
      <trkpt lat="62.269796" lon="12.527141">
        <ele>819.177</ele>
        <time>2011-07-03T17:41:50Z</time>
      </trkpt>
      <trkpt lat="62.269889" lon="12.527016">
        <ele>819.397</ele>
        <time>2011-07-03T17:41:56Z</time>
      </trkpt>
      <trkpt lat="62.26991" lon="12.52701">
        <ele>819.393</ele>
        <time>2011-07-03T17:41:57Z</time>
      </trkpt>
      <trkpt lat="62.270034" lon="12.526813">
        <ele>819.721</ele>
        <time>2011-07-03T17:42:04Z</time>
      </trkpt>
      <trkpt lat="62.270155" lon="12.526682">
        <ele>819.915</ele>
        <time>2011-07-03T17:42:10Z</time>
      </trkpt>
      <trkpt lat="62.270261" lon="12.526549">
        <ele>819.853</ele>
        <time>2011-07-03T17:42:16Z</time>
      </trkpt>
      <trkpt lat="62.270344" lon="12.526384">
        <ele>819.457</ele>
        <time>2011-07-03T17:42:21Z</time>
      </trkpt>
      <trkpt lat="62.270364" lon="12.526363">
        <ele>819.422</ele>
        <time>2011-07-03T17:42:22Z</time>
      </trkpt>
      <trkpt lat="62.270393" lon="12.526352">
        <ele>819.447</ele>
        <time>2011-07-03T17:42:24Z</time>
      </trkpt>
      <trkpt lat="62.270455" lon="12.526286">
        <ele>819.349</ele>
        <time>2011-07-03T17:42:28Z</time>
      </trkpt>
      <trkpt lat="62.270528" lon="12.526207">
        <ele>819.636</ele>
        <time>2011-07-03T17:42:34Z</time>
      </trkpt>
      <trkpt lat="62.270575" lon="12.52617">
        <ele>819.575</ele>
        <time>2011-07-03T17:42:39Z</time>
      </trkpt>
      <trkpt lat="62.270646" lon="12.52612">
        <ele>819.818</ele>
        <time>2011-07-03T17:42:46Z</time>
      </trkpt>
      <trkpt lat="62.270712" lon="12.526038">
        <ele>819.855</ele>
        <time>2011-07-03T17:42:53Z</time>
      </trkpt>
      <trkpt lat="62.27079" lon="12.525905">
        <ele>819.646</ele>
        <time>2011-07-03T17:43:01Z</time>
      </trkpt>
      <trkpt lat="62.270872" lon="12.525848">
        <ele>819.623</ele>
        <time>2011-07-03T17:43:07Z</time>
      </trkpt>
      <trkpt lat="62.270966" lon="12.525706">
        <ele>818.602</ele>
        <time>2011-07-03T17:43:16Z</time>
      </trkpt>
      <trkpt lat="62.27106" lon="12.525579">
        <ele>818.124</ele>
        <time>2011-07-03T17:43:24Z</time>
      </trkpt>
      <trkpt lat="62.271073" lon="12.525573">
        <ele>818.211</ele>
        <time>2011-07-03T17:43:25Z</time>
      </trkpt>
      <trkpt lat="62.271179" lon="12.525502">
        <ele>818.146</ele>
        <time>2011-07-03T17:43:34Z</time>
      </trkpt>
      <trkpt lat="62.27126" lon="12.525468">
        <ele>818.194</ele>
        <time>2011-07-03T17:43:41Z</time>
      </trkpt>
      <trkpt lat="62.271311" lon="12.525431">
        <ele>818.193</ele>
        <time>2011-07-03T17:43:45Z</time>
      </trkpt>
      <trkpt lat="62.271379" lon="12.525342">
        <ele>818.032</ele>
        <time>2011-07-03T17:43:50Z</time>
      </trkpt>
      <trkpt lat="62.27148" lon="12.525216">
        <ele>818.675</ele>
        <time>2011-07-03T17:43:59Z</time>
      </trkpt>
      <trkpt lat="62.27151" lon="12.525182">
        <ele>818.689</ele>
        <time>2011-07-03T17:44:01Z</time>
      </trkpt>
      <trkpt lat="62.271635" lon="12.525014">
        <ele>818.733</ele>
        <time>2011-07-03T17:44:08Z</time>
      </trkpt>
      <trkpt lat="62.271736" lon="12.524976">
        <ele>818.766</ele>
        <time>2011-07-03T17:44:14Z</time>
      </trkpt>
      <trkpt lat="62.271784" lon="12.524942">
        <ele>818.949</ele>
        <time>2011-07-03T17:44:17Z</time>
      </trkpt>
      <trkpt lat="62.271905" lon="12.52479">
        <ele>819.331</ele>
        <time>2011-07-03T17:44:24Z</time>
      </trkpt>
      <trkpt lat="62.271921" lon="12.524754">
        <ele>819.355</ele>
        <time>2011-07-03T17:44:25Z</time>
      </trkpt>
      <trkpt lat="62.272001" lon="12.524674">
        <ele>820.063</ele>
        <time>2011-07-03T17:44:30Z</time>
      </trkpt>
      <trkpt lat="62.272103" lon="12.524566">
        <ele>820.188</ele>
        <time>2011-07-03T17:44:38Z</time>
      </trkpt>
      <trkpt lat="62.272111" lon="12.524556">
        <ele>820.181</ele>
        <time>2011-07-03T17:44:39Z</time>
      </trkpt>
      <trkpt lat="62.272188" lon="12.524472">
        <ele>820.359</ele>
        <time>2011-07-03T17:44:46Z</time>
      </trkpt>
      <trkpt lat="62.2722" lon="12.524463">
        <ele>820.425</ele>
        <time>2011-07-03T17:44:47Z</time>
      </trkpt>
      <trkpt lat="62.272232" lon="12.524456">
        <ele>820.471</ele>
        <time>2011-07-03T17:44:51Z</time>
      </trkpt>
      <trkpt lat="62.272275" lon="12.524436">
        <ele>820.708</ele>
        <time>2011-07-03T17:44:55Z</time>
      </trkpt>
      <trkpt lat="62.272346" lon="12.524351">
        <ele>821.48</ele>
        <time>2011-07-03T17:45:01Z</time>
      </trkpt>
      <trkpt lat="62.272381" lon="12.524295">
        <ele>821.822</ele>
        <time>2011-07-03T17:45:06Z</time>
      </trkpt>
      <trkpt lat="62.272431" lon="12.524258">
        <ele>822.199</ele>
        <time>2011-07-03T17:45:10Z</time>
      </trkpt>
      <trkpt lat="62.272527" lon="12.524138">
        <ele>822.955</ele>
        <time>2011-07-03T17:45:19Z</time>
      </trkpt>
      <trkpt lat="62.27255" lon="12.524132">
        <ele>822.942</ele>
        <time>2011-07-03T17:45:21Z</time>
      </trkpt>
      <trkpt lat="62.272638" lon="12.524053">
        <ele>823.111</ele>
        <time>2011-07-03T17:45:29Z</time>
      </trkpt>
      <trkpt lat="62.272714" lon="12.523964">
        <ele>823.811</ele>
        <time>2011-07-03T17:45:37Z</time>
      </trkpt>
      <trkpt lat="62.27273" lon="12.52394">
        <ele>823.86</ele>
        <time>2011-07-03T17:45:39Z</time>
      </trkpt>
      <trkpt lat="62.272749" lon="12.523901">
        <ele>824.214</ele>
        <time>2011-07-03T17:45:42Z</time>
      </trkpt>
      <trkpt lat="62.272795" lon="12.523805">
        <ele>824.561</ele>
        <time>2011-07-03T17:45:49Z</time>
      </trkpt>
      <trkpt lat="62.27281" lon="12.523767">
        <ele>824.679</ele>
        <time>2011-07-03T17:45:51Z</time>
      </trkpt>
      <trkpt lat="62.272845" lon="12.523773">
        <ele>824.768</ele>
        <time>2011-07-03T17:45:54Z</time>
      </trkpt>
      <trkpt lat="62.272897" lon="12.523772">
        <ele>824.853</ele>
        <time>2011-07-03T17:45:59Z</time>
      </trkpt>
      <trkpt lat="62.272977" lon="12.523622">
        <ele>825.248</ele>
        <time>2011-07-03T17:46:06Z</time>
      </trkpt>
      <trkpt lat="62.273053" lon="12.523523">
        <ele>825.633</ele>
        <time>2011-07-03T17:46:13Z</time>
      </trkpt>
      <trkpt lat="62.273151" lon="12.523469">
        <ele>826.061</ele>
        <time>2011-07-03T17:46:21Z</time>
      </trkpt>
      <trkpt lat="62.273249" lon="12.523397">
        <ele>826.211</ele>
        <time>2011-07-03T17:46:30Z</time>
      </trkpt>
      <trkpt lat="62.273318" lon="12.523312">
        <ele>826.919</ele>
        <time>2011-07-03T17:46:37Z</time>
      </trkpt>
      <trkpt lat="62.273392" lon="12.523229">
        <ele>827.794</ele>
        <time>2011-07-03T17:46:44Z</time>
      </trkpt>
      <trkpt lat="62.273454" lon="12.523166">
        <ele>829.041</ele>
        <time>2011-07-03T17:46:52Z</time>
      </trkpt>
      <trkpt lat="62.273499" lon="12.523118">
        <ele>830.154</ele>
        <time>2011-07-03T17:46:58Z</time>
      </trkpt>
      <trkpt lat="62.273572" lon="12.523034">
        <ele>831.451</ele>
        <time>2011-07-03T17:47:06Z</time>
      </trkpt>
      <trkpt lat="62.273602" lon="12.522985">
        <ele>831.774</ele>
        <time>2011-07-03T17:47:09Z</time>
      </trkpt>
      <trkpt lat="62.273669" lon="12.522908">
        <ele>832.257</ele>
        <time>2011-07-03T17:47:15Z</time>
      </trkpt>
      <trkpt lat="62.27373" lon="12.522754">
        <ele>832.661</ele>
        <time>2011-07-03T17:47:23Z</time>
      </trkpt>
      <trkpt lat="62.273764" lon="12.522665">
        <ele>832.835</ele>
        <time>2011-07-03T17:47:29Z</time>
      </trkpt>
      <trkpt lat="62.273787" lon="12.522617">
        <ele>833.375</ele>
        <time>2011-07-03T17:47:34Z</time>
      </trkpt>
      <trkpt lat="62.273817" lon="12.522579">
        <ele>833.65</ele>
        <time>2011-07-03T17:47:38Z</time>
      </trkpt>
      <trkpt lat="62.273868" lon="12.522529">
        <ele>834.117</ele>
        <time>2011-07-03T17:47:44Z</time>
      </trkpt>
      <trkpt lat="62.273929" lon="12.522433">
        <ele>834.601</ele>
        <time>2011-07-03T17:47:50Z</time>
      </trkpt>
      <trkpt lat="62.274009" lon="12.522404">
        <ele>834.548</ele>
        <time>2011-07-03T17:47:58Z</time>
      </trkpt>
      <trkpt lat="62.274065" lon="12.522338">
        <ele>834.824</ele>
        <time>2011-07-03T17:48:04Z</time>
      </trkpt>
      <trkpt lat="62.274089" lon="12.522311">
        <ele>835.079</ele>
        <time>2011-07-03T17:48:07Z</time>
      </trkpt>
      <trkpt lat="62.274159" lon="12.522313">
        <ele>835.261</ele>
        <time>2011-07-03T17:48:14Z</time>
      </trkpt>
      <trkpt lat="62.274252" lon="12.522209">
        <ele>836.048</ele>
        <time>2011-07-03T17:48:23Z</time>
      </trkpt>
      <trkpt lat="62.27431" lon="12.522142">
        <ele>836.516</ele>
        <time>2011-07-03T17:48:28Z</time>
      </trkpt>
      <trkpt lat="62.274351" lon="12.522067">
        <ele>836.889</ele>
        <time>2011-07-03T17:48:32Z</time>
      </trkpt>
      <trkpt lat="62.274422" lon="12.521974">
        <ele>837.297</ele>
        <time>2011-07-03T17:48:38Z</time>
      </trkpt>
      <trkpt lat="62.27446" lon="12.521873">
        <ele>838.138</ele>
        <time>2011-07-03T17:48:44Z</time>
      </trkpt>
      <trkpt lat="62.27449" lon="12.521855">
        <ele>838.433</ele>
        <time>2011-07-03T17:48:47Z</time>
      </trkpt>
      <trkpt lat="62.27453" lon="12.521788">
        <ele>838.33</ele>
        <time>2011-07-03T17:48:51Z</time>
      </trkpt>
      <trkpt lat="62.274596" lon="12.521767">
        <ele>838.679</ele>
        <time>2011-07-03T17:48:57Z</time>
      </trkpt>
      <trkpt lat="62.274672" lon="12.521694">
        <ele>838.867</ele>
        <time>2011-07-03T17:49:05Z</time>
      </trkpt>
      <trkpt lat="62.274726" lon="12.521634">
        <ele>839.255</ele>
        <time>2011-07-03T17:49:11Z</time>
      </trkpt>
      <trkpt lat="62.274822" lon="12.521528">
        <ele>839.773</ele>
        <time>2011-07-03T17:49:20Z</time>
      </trkpt>
      <trkpt lat="62.274838" lon="12.521497">
        <ele>840.009</ele>
        <time>2011-07-03T17:49:22Z</time>
      </trkpt>
      <trkpt lat="62.274903" lon="12.521433">
        <ele>840.467</ele>
        <time>2011-07-03T17:49:28Z</time>
      </trkpt>
      <trkpt lat="62.275002" lon="12.521325">
        <ele>841.489</ele>
        <time>2011-07-03T17:49:38Z</time>
      </trkpt>
      <trkpt lat="62.275065" lon="12.521241">
        <ele>842.019</ele>
        <time>2011-07-03T17:49:45Z</time>
      </trkpt>
      <trkpt lat="62.27507" lon="12.521226">
        <ele>842.115</ele>
        <time>2011-07-03T17:49:46Z</time>
      </trkpt>
      <trkpt lat="62.275101" lon="12.521209">
        <ele>842.345</ele>
        <time>2011-07-03T17:49:50Z</time>
      </trkpt>
      <trkpt lat="62.275193" lon="12.521124">
        <ele>842.502</ele>
        <time>2011-07-03T17:49:58Z</time>
      </trkpt>
      <trkpt lat="62.275282" lon="12.521074">
        <ele>842.643</ele>
        <time>2011-07-03T17:50:06Z</time>
      </trkpt>
      <trkpt lat="62.275329" lon="12.521049">
        <ele>842.747</ele>
        <time>2011-07-03T17:50:10Z</time>
      </trkpt>
      <trkpt lat="62.275381" lon="12.520982">
        <ele>842.979</ele>
        <time>2011-07-03T17:50:16Z</time>
      </trkpt>
      <trkpt lat="62.275415" lon="12.520978">
        <ele>843.416</ele>
        <time>2011-07-03T17:50:19Z</time>
      </trkpt>
      <trkpt lat="62.275507" lon="12.520915">
        <ele>843.728</ele>
        <time>2011-07-03T17:50:26Z</time>
      </trkpt>
      <trkpt lat="62.275558" lon="12.520892">
        <ele>843.946</ele>
        <time>2011-07-03T17:50:30Z</time>
      </trkpt>
      <trkpt lat="62.275601" lon="12.520844">
        <ele>844.066</ele>
        <time>2011-07-03T17:50:34Z</time>
      </trkpt>
      <trkpt lat="62.275698" lon="12.520777">
        <ele>844.644</ele>
        <time>2011-07-03T17:50:42Z</time>
      </trkpt>
      <trkpt lat="62.275747" lon="12.520726">
        <ele>844.877</ele>
        <time>2011-07-03T17:50:46Z</time>
      </trkpt>
      <trkpt lat="62.275789" lon="12.520689">
        <ele>845.227</ele>
        <time>2011-07-03T17:50:50Z</time>
      </trkpt>
      <trkpt lat="62.275829" lon="12.520604">
        <ele>845.526</ele>
        <time>2011-07-03T17:50:54Z</time>
      </trkpt>
      <trkpt lat="62.275901" lon="12.520521">
        <ele>846.257</ele>
        <time>2011-07-03T17:51:01Z</time>
      </trkpt>
      <trkpt lat="62.275967" lon="12.520431">
        <ele>846.316</ele>
        <time>2011-07-03T17:51:08Z</time>
      </trkpt>
      <trkpt lat="62.275984" lon="12.520418">
        <ele>846.198</ele>
        <time>2011-07-03T17:51:10Z</time>
      </trkpt>
      <trkpt lat="62.276051" lon="12.520315">
        <ele>845.812</ele>
        <time>2011-07-03T17:51:17Z</time>
      </trkpt>
      <trkpt lat="62.276117" lon="12.520218">
        <ele>846.025</ele>
        <time>2011-07-03T17:51:23Z</time>
      </trkpt>
      <trkpt lat="62.276132" lon="12.520154">
        <ele>846.3</ele>
        <time>2011-07-03T17:51:26Z</time>
      </trkpt>
      <trkpt lat="62.276192" lon="12.520007">
        <ele>847.262</ele>
        <time>2011-07-03T17:51:34Z</time>
      </trkpt>
      <trkpt lat="62.276205" lon="12.519996">
        <ele>847.319</ele>
        <time>2011-07-03T17:51:35Z</time>
      </trkpt>
      <trkpt lat="62.276241" lon="12.519875">
        <ele>847.226</ele>
        <time>2011-07-03T17:51:40Z</time>
      </trkpt>
      <trkpt lat="62.276271" lon="12.519761">
        <ele>847.511</ele>
        <time>2011-07-03T17:51:45Z</time>
      </trkpt>
      <trkpt lat="62.276369" lon="12.519596">
        <ele>847.972</ele>
        <time>2011-07-03T17:51:55Z</time>
      </trkpt>
      <trkpt lat="62.276438" lon="12.519477">
        <ele>847.578</ele>
        <time>2011-07-03T17:52:02Z</time>
      </trkpt>
      <trkpt lat="62.276494" lon="12.519376">
        <ele>846.888</ele>
        <time>2011-07-03T17:52:09Z</time>
      </trkpt>
      <trkpt lat="62.276519" lon="12.519359">
        <ele>846.515</ele>
        <time>2011-07-03T17:52:11Z</time>
      </trkpt>
      <trkpt lat="62.276606" lon="12.519195">
        <ele>845.946</ele>
        <time>2011-07-03T17:52:19Z</time>
      </trkpt>
      <trkpt lat="62.276693" lon="12.519034">
        <ele>845.844</ele>
        <time>2011-07-03T17:52:27Z</time>
      </trkpt>
      <trkpt lat="62.276771" lon="12.518916">
        <ele>845.8</ele>
        <time>2011-07-03T17:52:34Z</time>
      </trkpt>
      <trkpt lat="62.276814" lon="12.518833">
        <ele>845.894</ele>
        <time>2011-07-03T17:52:38Z</time>
      </trkpt>
      <trkpt lat="62.276844" lon="12.518737">
        <ele>845.99</ele>
        <time>2011-07-03T17:52:43Z</time>
      </trkpt>
      <trkpt lat="62.276923" lon="12.518627">
        <ele>845.951</ele>
        <time>2011-07-03T17:52:51Z</time>
      </trkpt>
      <trkpt lat="62.276981" lon="12.518536">
        <ele>845.761</ele>
        <time>2011-07-03T17:52:57Z</time>
      </trkpt>
      <trkpt lat="62.277037" lon="12.518443">
        <ele>846.069</ele>
        <time>2011-07-03T17:53:02Z</time>
      </trkpt>
      <trkpt lat="62.2771" lon="12.51832">
        <ele>846.651</ele>
        <time>2011-07-03T17:53:09Z</time>
      </trkpt>
      <trkpt lat="62.277128" lon="12.518282">
        <ele>846.629</ele>
        <time>2011-07-03T17:53:14Z</time>
      </trkpt>
      <trkpt lat="62.27716" lon="12.518248">
        <ele>846.948</ele>
        <time>2011-07-03T17:53:17Z</time>
      </trkpt>
      <trkpt lat="62.277196" lon="12.518164">
        <ele>847.693</ele>
        <time>2011-07-03T17:53:23Z</time>
      </trkpt>
      <trkpt lat="62.277215" lon="12.518099">
        <ele>847.396</ele>
        <time>2011-07-03T17:53:26Z</time>
      </trkpt>
      <trkpt lat="62.277294" lon="12.517943">
        <ele>847.725</ele>
        <time>2011-07-03T17:53:34Z</time>
      </trkpt>
      <trkpt lat="62.277364" lon="12.517813">
        <ele>848.178</ele>
        <time>2011-07-03T17:53:42Z</time>
      </trkpt>
      <trkpt lat="62.277371" lon="12.517795">
        <ele>848.094</ele>
        <time>2011-07-03T17:53:43Z</time>
      </trkpt>
      <trkpt lat="62.277445" lon="12.51761">
        <ele>848.299</ele>
        <time>2011-07-03T17:53:52Z</time>
      </trkpt>
      <trkpt lat="62.277453" lon="12.517572">
        <ele>848.22</ele>
        <time>2011-07-03T17:53:54Z</time>
      </trkpt>
      <trkpt lat="62.277512" lon="12.517473">
        <ele>847.915</ele>
        <time>2011-07-03T17:54:01Z</time>
      </trkpt>
      <trkpt lat="62.277572" lon="12.517371">
        <ele>847.499</ele>
        <time>2011-07-03T17:54:08Z</time>
      </trkpt>
      <trkpt lat="62.277584" lon="12.517313">
        <ele>847.454</ele>
        <time>2011-07-03T17:54:11Z</time>
      </trkpt>
      <trkpt lat="62.277612" lon="12.517231">
        <ele>847.407</ele>
        <time>2011-07-03T17:54:17Z</time>
      </trkpt>
      <trkpt lat="62.277659" lon="12.517156">
        <ele>847.417</ele>
        <time>2011-07-03T17:54:23Z</time>
      </trkpt>
      <trkpt lat="62.277678" lon="12.517064">
        <ele>847.579</ele>
        <time>2011-07-03T17:54:27Z</time>
      </trkpt>
      <trkpt lat="62.277746" lon="12.516897">
        <ele>847.244</ele>
        <time>2011-07-03T17:54:35Z</time>
      </trkpt>
      <trkpt lat="62.277764" lon="12.516865">
        <ele>847.416</ele>
        <time>2011-07-03T17:54:38Z</time>
      </trkpt>
      <trkpt lat="62.277796" lon="12.516757">
        <ele>847.609</ele>
        <time>2011-07-03T17:54:44Z</time>
      </trkpt>
      <trkpt lat="62.27784" lon="12.516691">
        <ele>847.568</ele>
        <time>2011-07-03T17:54:49Z</time>
      </trkpt>
      <trkpt lat="62.277871" lon="12.516585">
        <ele>847.673</ele>
        <time>2011-07-03T17:54:55Z</time>
      </trkpt>
      <trkpt lat="62.277928" lon="12.516456">
        <ele>847.378</ele>
        <time>2011-07-03T17:55:03Z</time>
      </trkpt>
      <trkpt lat="62.277998" lon="12.516382">
        <ele>847.728</ele>
        <time>2011-07-03T17:55:09Z</time>
      </trkpt>
      <trkpt lat="62.278012" lon="12.516364">
        <ele>847.688</ele>
        <time>2011-07-03T17:55:14Z</time>
      </trkpt>
      <trkpt lat="62.278054" lon="12.516265">
        <ele>847.531</ele>
        <time>2011-07-03T17:55:19Z</time>
      </trkpt>
      <trkpt lat="62.278079" lon="12.516155">
        <ele>847.686</ele>
        <time>2011-07-03T17:55:25Z</time>
      </trkpt>
      <trkpt lat="62.278108" lon="12.516061">
        <ele>847.629</ele>
        <time>2011-07-03T17:55:30Z</time>
      </trkpt>
      <trkpt lat="62.278186" lon="12.515891">
        <ele>846.848</ele>
        <time>2011-07-03T17:55:38Z</time>
      </trkpt>
      <trkpt lat="62.278228" lon="12.51581">
        <ele>847.046</ele>
        <time>2011-07-03T17:55:43Z</time>
      </trkpt>
      <trkpt lat="62.278247" lon="12.515743">
        <ele>847.096</ele>
        <time>2011-07-03T17:55:46Z</time>
      </trkpt>
      <trkpt lat="62.278347" lon="12.515645">
        <ele>847.42</ele>
        <time>2011-07-03T17:55:54Z</time>
      </trkpt>
      <trkpt lat="62.278391" lon="12.515538">
        <ele>847.732</ele>
        <time>2011-07-03T17:56:00Z</time>
      </trkpt>
      <trkpt lat="62.278462" lon="12.515423">
        <ele>848.097</ele>
        <time>2011-07-03T17:56:07Z</time>
      </trkpt>
      <trkpt lat="62.278486" lon="12.515345">
        <ele>848.358</ele>
        <time>2011-07-03T17:56:12Z</time>
      </trkpt>
      <trkpt lat="62.278541" lon="12.515236">
        <ele>848.128</ele>
        <time>2011-07-03T17:56:18Z</time>
      </trkpt>
      <trkpt lat="62.278596" lon="12.515154">
        <ele>848.48</ele>
        <time>2011-07-03T17:56:24Z</time>
      </trkpt>
      <trkpt lat="62.278636" lon="12.515053">
        <ele>848.642</ele>
        <time>2011-07-03T17:56:30Z</time>
      </trkpt>
      <trkpt lat="62.278655" lon="12.515046">
        <ele>848.929</ele>
        <time>2011-07-03T17:56:32Z</time>
      </trkpt>
      <trkpt lat="62.278675" lon="12.514919">
        <ele>849.304</ele>
        <time>2011-07-03T17:56:37Z</time>
      </trkpt>
      <trkpt lat="62.278756" lon="12.514779">
        <ele>849.375</ele>
        <time>2011-07-03T17:56:45Z</time>
      </trkpt>
      <trkpt lat="62.278765" lon="12.514778">
        <ele>849.485</ele>
        <time>2011-07-03T17:56:46Z</time>
      </trkpt>
      <trkpt lat="62.27882" lon="12.514676">
        <ele>850.386</ele>
        <time>2011-07-03T17:56:54Z</time>
      </trkpt>
      <trkpt lat="62.278928" lon="12.514582">
        <ele>850.826</ele>
        <time>2011-07-03T17:57:02Z</time>
      </trkpt>
      <trkpt lat="62.279003" lon="12.514484">
        <ele>851.239</ele>
        <time>2011-07-03T17:57:09Z</time>
      </trkpt>
      <trkpt lat="62.279042" lon="12.514427">
        <ele>851.535</ele>
        <time>2011-07-03T17:57:13Z</time>
      </trkpt>
      <trkpt lat="62.279086" lon="12.514353">
        <ele>851.808</ele>
        <time>2011-07-03T17:57:17Z</time>
      </trkpt>
      <trkpt lat="62.279117" lon="12.514319">
        <ele>851.848</ele>
        <time>2011-07-03T17:57:19Z</time>
      </trkpt>
      <trkpt lat="62.279135" lon="12.514291">
        <ele>851.988</ele>
        <time>2011-07-03T17:57:21Z</time>
      </trkpt>
      <trkpt lat="62.27919" lon="12.514237">
        <ele>852.972</ele>
        <time>2011-07-03T17:57:27Z</time>
      </trkpt>
      <trkpt lat="62.27928" lon="12.514089">
        <ele>853.505</ele>
        <time>2011-07-03T17:57:34Z</time>
      </trkpt>
      <trkpt lat="62.279347" lon="12.51395">
        <ele>854.95</ele>
        <time>2011-07-03T17:57:41Z</time>
      </trkpt>
      <trkpt lat="62.27938" lon="12.513821">
        <ele>855.809</ele>
        <time>2011-07-03T17:57:46Z</time>
      </trkpt>
      <trkpt lat="62.279427" lon="12.513661">
        <ele>857.93</ele>
        <time>2011-07-03T17:57:54Z</time>
      </trkpt>
      <trkpt lat="62.279497" lon="12.513584">
        <ele>858.828</ele>
        <time>2011-07-03T17:58:01Z</time>
      </trkpt>
      <trkpt lat="62.279577" lon="12.513495">
        <ele>860.447</ele>
        <time>2011-07-03T17:58:09Z</time>
      </trkpt>
      <trkpt lat="62.279661" lon="12.51334">
        <ele>861.894</ele>
        <time>2011-07-03T17:58:16Z</time>
      </trkpt>
      <trkpt lat="62.279713" lon="12.513238">
        <ele>863.43</ele>
        <time>2011-07-03T17:58:23Z</time>
      </trkpt>
      <trkpt lat="62.279758" lon="12.513192">
        <ele>864.727</ele>
        <time>2011-07-03T17:58:29Z</time>
      </trkpt>
      <trkpt lat="62.279761" lon="12.513194">
        <ele>865.008</ele>
        <time>2011-07-03T17:58:30Z</time>
      </trkpt>
      <trkpt lat="62.279783" lon="12.513176">
        <ele>865.93</ele>
        <time>2011-07-03T17:58:33Z</time>
      </trkpt>
      <trkpt lat="62.279808" lon="12.51313">
        <ele>866.954</ele>
        <time>2011-07-03T17:58:37Z</time>
      </trkpt>
      <trkpt lat="62.279878" lon="12.513051">
        <ele>868.773</ele>
        <time>2011-07-03T17:58:45Z</time>
      </trkpt>
      <trkpt lat="62.279918" lon="12.51301">
        <ele>869.419</ele>
        <time>2011-07-03T17:58:49Z</time>
      </trkpt>
      <trkpt lat="62.279934" lon="12.513011">
        <ele>869.975</ele>
        <time>2011-07-03T17:58:51Z</time>
      </trkpt>
      <trkpt lat="62.279984" lon="12.51297">
        <ele>871.091</ele>
        <time>2011-07-03T17:58:58Z</time>
      </trkpt>
      <trkpt lat="62.280039" lon="12.512906">
        <ele>872.814</ele>
        <time>2011-07-03T17:59:04Z</time>
      </trkpt>
      <trkpt lat="62.280112" lon="12.512854">
        <ele>874.541</ele>
        <time>2011-07-03T17:59:12Z</time>
      </trkpt>
      <trkpt lat="62.280136" lon="12.512821">
        <ele>874.972</ele>
        <time>2011-07-03T17:59:14Z</time>
      </trkpt>
      <trkpt lat="62.280182" lon="12.512782">
        <ele>875.984</ele>
        <time>2011-07-03T17:59:18Z</time>
      </trkpt>
      <trkpt lat="62.280272" lon="12.512651">
        <ele>877.501</ele>
        <time>2011-07-03T17:59:26Z</time>
      </trkpt>
      <trkpt lat="62.280354" lon="12.512534">
        <ele>878.983</ele>
        <time>2011-07-03T17:59:33Z</time>
      </trkpt>
      <trkpt lat="62.280443" lon="12.512422">
        <ele>880.302</ele>
        <time>2011-07-03T17:59:40Z</time>
      </trkpt>
      <trkpt lat="62.280534" lon="12.512354">
        <ele>881.305</ele>
        <time>2011-07-03T17:59:46Z</time>
      </trkpt>
      <trkpt lat="62.280623" lon="12.512302">
        <ele>882.539</ele>
        <time>2011-07-03T17:59:53Z</time>
      </trkpt>
      <trkpt lat="62.280667" lon="12.51227">
        <ele>883.454</ele>
        <time>2011-07-03T17:59:57Z</time>
      </trkpt>
      <trkpt lat="62.280731" lon="12.512219">
        <ele>884.863</ele>
        <time>2011-07-03T18:00:03Z</time>
      </trkpt>
      <trkpt lat="62.280773" lon="12.512149">
        <ele>885.766</ele>
        <time>2011-07-03T18:00:07Z</time>
      </trkpt>
      <trkpt lat="62.280846" lon="12.512126">
        <ele>886.954</ele>
        <time>2011-07-03T18:00:12Z</time>
      </trkpt>
      <trkpt lat="62.280943" lon="12.51212">
        <ele>888.432</ele>
        <time>2011-07-03T18:00:20Z</time>
      </trkpt>
      <trkpt lat="62.281026" lon="12.51206">
        <ele>889.222</ele>
        <time>2011-07-03T18:00:26Z</time>
      </trkpt>
      <trkpt lat="62.281137" lon="12.511946">
        <ele>890.523</ele>
        <time>2011-07-03T18:00:34Z</time>
      </trkpt>
      <trkpt lat="62.281217" lon="12.511874">
        <ele>891.23</ele>
        <time>2011-07-03T18:00:40Z</time>
      </trkpt>
      <trkpt lat="62.28129" lon="12.511775">
        <ele>892.146</ele>
        <time>2011-07-03T18:00:46Z</time>
      </trkpt>
      <trkpt lat="62.281376" lon="12.511735">
        <ele>893.252</ele>
        <time>2011-07-03T18:00:53Z</time>
      </trkpt>
      <trkpt lat="62.281468" lon="12.511643">
        <ele>894.282</ele>
        <time>2011-07-03T18:00:59Z</time>
      </trkpt>
      <trkpt lat="62.28155" lon="12.511574">
        <ele>894.938</ele>
        <time>2011-07-03T18:01:05Z</time>
      </trkpt>
      <trkpt lat="62.281586" lon="12.511552">
        <ele>894.592</ele>
        <time>2011-07-03T18:01:07Z</time>
      </trkpt>
      <trkpt lat="62.281616" lon="12.511552">
        <ele>894.402</ele>
        <time>2011-07-03T18:01:10Z</time>
      </trkpt>
      <trkpt lat="62.281657" lon="12.511509">
        <ele>895.479</ele>
        <time>2011-07-03T18:01:14Z</time>
      </trkpt>
      <trkpt lat="62.281675" lon="12.51148">
        <ele>895.987</ele>
        <time>2011-07-03T18:01:16Z</time>
      </trkpt>
      <trkpt lat="62.281751" lon="12.511472">
        <ele>898.02</ele>
        <time>2011-07-03T18:01:23Z</time>
      </trkpt>
      <trkpt lat="62.28176" lon="12.511468">
        <ele>898.229</ele>
        <time>2011-07-03T18:01:24Z</time>
      </trkpt>
      <trkpt lat="62.281788" lon="12.511391">
        <ele>899.378</ele>
        <time>2011-07-03T18:01:28Z</time>
      </trkpt>
      <trkpt lat="62.281845" lon="12.511369">
        <ele>900.92</ele>
        <time>2011-07-03T18:01:34Z</time>
      </trkpt>
      <trkpt lat="62.281925" lon="12.511296">
        <ele>902.504</ele>
        <time>2011-07-03T18:01:41Z</time>
      </trkpt>
      <trkpt lat="62.28196" lon="12.511253">
        <ele>903.488</ele>
        <time>2011-07-03T18:01:45Z</time>
      </trkpt>
      <trkpt lat="62.282006" lon="12.51121">
        <ele>905.008</ele>
        <time>2011-07-03T18:01:50Z</time>
      </trkpt>
      <trkpt lat="62.282073" lon="12.511124">
        <ele>906.636</ele>
        <time>2011-07-03T18:01:57Z</time>
      </trkpt>
      <trkpt lat="62.282144" lon="12.511044">
        <ele>907.921</ele>
        <time>2011-07-03T18:02:04Z</time>
      </trkpt>
      <trkpt lat="62.282202" lon="12.510952">
        <ele>908.848</ele>
        <time>2011-07-03T18:02:10Z</time>
      </trkpt>
      <trkpt lat="62.282283" lon="12.510864">
        <ele>909.91</ele>
        <time>2011-07-03T18:02:18Z</time>
      </trkpt>
      <trkpt lat="62.282289" lon="12.510849">
        <ele>910.262</ele>
        <time>2011-07-03T18:02:20Z</time>
      </trkpt>
      <trkpt lat="62.282301" lon="12.510866">
        <ele>910.214</ele>
        <time>2011-07-03T18:02:23Z</time>
      </trkpt>
      <trkpt lat="62.28234" lon="12.510902">
        <ele>910.642</ele>
        <time>2011-07-03T18:02:27Z</time>
      </trkpt>
      <trkpt lat="62.282397" lon="12.511015">
        <ele>911.246</ele>
        <time>2011-07-03T18:02:34Z</time>
      </trkpt>
      <trkpt lat="62.282423" lon="12.511034">
        <ele>911.189</ele>
        <time>2011-07-03T18:02:36Z</time>
      </trkpt>
      <trkpt lat="62.282493" lon="12.510902">
        <ele>911.379</ele>
        <time>2011-07-03T18:02:43Z</time>
      </trkpt>
      <trkpt lat="62.282579" lon="12.510783">
        <ele>911.414</ele>
        <time>2011-07-03T18:02:51Z</time>
      </trkpt>
      <trkpt lat="62.282611" lon="12.51076">
        <ele>911.353</ele>
        <time>2011-07-03T18:02:56Z</time>
      </trkpt>
      <trkpt lat="62.282616" lon="12.510777">
        <ele>911.162</ele>
        <time>2011-07-03T18:03:22Z</time>
      </trkpt>
      <trkpt lat="62.282623" lon="12.51076">
        <ele>911.111</ele>
        <time>2011-07-03T18:03:23Z</time>
      </trkpt>
      <trkpt lat="62.282666" lon="12.510682">
        <ele>911.242</ele>
        <time>2011-07-03T18:03:27Z</time>
      </trkpt>
      <trkpt lat="62.282745" lon="12.510628">
        <ele>910.75</ele>
        <time>2011-07-03T18:03:33Z</time>
      </trkpt>
      <trkpt lat="62.282844" lon="12.510541">
        <ele>910.512</ele>
        <time>2011-07-03T18:03:40Z</time>
      </trkpt>
      <trkpt lat="62.282931" lon="12.510448">
        <ele>910.016</ele>
        <time>2011-07-03T18:03:47Z</time>
      </trkpt>
      <trkpt lat="62.282947" lon="12.510445">
        <ele>910.019</ele>
        <time>2011-07-03T18:03:48Z</time>
      </trkpt>
      <trkpt lat="62.282975" lon="12.510451">
        <ele>910.02</ele>
        <time>2011-07-03T18:03:50Z</time>
      </trkpt>
      <trkpt lat="62.283051" lon="12.510385">
        <ele>909.757</ele>
        <time>2011-07-03T18:03:57Z</time>
      </trkpt>
      <trkpt lat="62.28311" lon="12.5103">
        <ele>909.914</ele>
        <time>2011-07-03T18:04:03Z</time>
      </trkpt>
      <trkpt lat="62.283196" lon="12.510229">
        <ele>910.252</ele>
        <time>2011-07-03T18:04:10Z</time>
      </trkpt>
      <trkpt lat="62.283203" lon="12.510226">
        <ele>910.274</ele>
        <time>2011-07-03T18:04:11Z</time>
      </trkpt>
      <trkpt lat="62.283224" lon="12.510247">
        <ele>910.507</ele>
        <time>2011-07-03T18:04:14Z</time>
      </trkpt>
      <trkpt lat="62.283295" lon="12.510171">
        <ele>911.022</ele>
        <time>2011-07-03T18:04:22Z</time>
      </trkpt>
      <trkpt lat="62.28335" lon="12.510121">
        <ele>911.875</ele>
        <time>2011-07-03T18:04:29Z</time>
      </trkpt>
      <trkpt lat="62.283377" lon="12.51011">
        <ele>912.243</ele>
        <time>2011-07-03T18:04:32Z</time>
      </trkpt>
      <trkpt lat="62.28345" lon="12.510051">
        <ele>913.256</ele>
        <time>2011-07-03T18:04:40Z</time>
      </trkpt>
      <trkpt lat="62.283489" lon="12.510029">
        <ele>913.73</ele>
        <time>2011-07-03T18:04:44Z</time>
      </trkpt>
      <trkpt lat="62.283576" lon="12.509978">
        <ele>915.013</ele>
        <time>2011-07-03T18:04:53Z</time>
      </trkpt>
      <trkpt lat="62.28364" lon="12.509952">
        <ele>915.95</ele>
        <time>2011-07-03T18:04:59Z</time>
      </trkpt>
      <trkpt lat="62.283733" lon="12.509895">
        <ele>916.756</ele>
        <time>2011-07-03T18:05:07Z</time>
      </trkpt>
      <trkpt lat="62.283751" lon="12.509866">
        <ele>917.147</ele>
        <time>2011-07-03T18:05:09Z</time>
      </trkpt>
      <trkpt lat="62.283816" lon="12.509832">
        <ele>917.48</ele>
        <time>2011-07-03T18:05:15Z</time>
      </trkpt>
      <trkpt lat="62.28388" lon="12.509783">
        <ele>917.776</ele>
        <time>2011-07-03T18:05:21Z</time>
      </trkpt>
      <trkpt lat="62.283964" lon="12.509736">
        <ele>917.872</ele>
        <time>2011-07-03T18:05:28Z</time>
      </trkpt>
      <trkpt lat="62.283988" lon="12.509735">
        <ele>917.853</ele>
        <time>2011-07-03T18:05:30Z</time>
      </trkpt>
      <trkpt lat="62.284044" lon="12.509681">
        <ele>917.902</ele>
        <time>2011-07-03T18:05:35Z</time>
      </trkpt>
      <trkpt lat="62.28415" lon="12.509574">
        <ele>917.357</ele>
        <time>2011-07-03T18:05:44Z</time>
      </trkpt>
      <trkpt lat="62.284205" lon="12.509492">
        <ele>917.044</ele>
        <time>2011-07-03T18:05:49Z</time>
      </trkpt>
      <trkpt lat="62.284245" lon="12.509464">
        <ele>916.65</ele>
        <time>2011-07-03T18:05:54Z</time>
      </trkpt>
      <trkpt lat="62.284311" lon="12.509429">
        <ele>917.011</ele>
        <time>2011-07-03T18:06:00Z</time>
      </trkpt>
      <trkpt lat="62.284355" lon="12.50944">
        <ele>917.115</ele>
        <time>2011-07-03T18:06:04Z</time>
      </trkpt>
      <trkpt lat="62.284428" lon="12.509375">
        <ele>917.294</ele>
        <time>2011-07-03T18:06:11Z</time>
      </trkpt>
      <trkpt lat="62.284508" lon="12.509259">
        <ele>917.738</ele>
        <time>2011-07-03T18:06:18Z</time>
      </trkpt>
      <trkpt lat="62.284566" lon="12.509224">
        <ele>917.998</ele>
        <time>2011-07-03T18:06:22Z</time>
      </trkpt>
      <trkpt lat="62.284627" lon="12.50921">
        <ele>918.242</ele>
        <time>2011-07-03T18:06:26Z</time>
      </trkpt>
      <trkpt lat="62.284652" lon="12.509188">
        <ele>918.465</ele>
        <time>2011-07-03T18:06:28Z</time>
      </trkpt>
      <trkpt lat="62.284728" lon="12.509123">
        <ele>919.187</ele>
        <time>2011-07-03T18:06:35Z</time>
      </trkpt>
      <trkpt lat="62.28485" lon="12.508946">
        <ele>920.417</ele>
        <time>2011-07-03T18:06:46Z</time>
      </trkpt>
      <trkpt lat="62.284945" lon="12.508914">
        <ele>921.351</ele>
        <time>2011-07-03T18:06:53Z</time>
      </trkpt>
      <trkpt lat="62.285052" lon="12.508836">
        <ele>922.408</ele>
        <time>2011-07-03T18:07:01Z</time>
      </trkpt>
      <trkpt lat="62.285137" lon="12.508702">
        <ele>922.752</ele>
        <time>2011-07-03T18:07:08Z</time>
      </trkpt>
      <trkpt lat="62.285243" lon="12.508595">
        <ele>923.723</ele>
        <time>2011-07-03T18:07:17Z</time>
      </trkpt>
      <trkpt lat="62.285275" lon="12.508575">
        <ele>924.057</ele>
        <time>2011-07-03T18:07:20Z</time>
      </trkpt>
      <trkpt lat="62.28533" lon="12.508515">
        <ele>924.579</ele>
        <time>2011-07-03T18:07:25Z</time>
      </trkpt>
      <trkpt lat="62.285424" lon="12.50848">
        <ele>925.284</ele>
        <time>2011-07-03T18:07:32Z</time>
      </trkpt>
      <trkpt lat="62.28552" lon="12.508458">
        <ele>926.809</ele>
        <time>2011-07-03T18:07:40Z</time>
      </trkpt>
      <trkpt lat="62.285571" lon="12.508384">
        <ele>927.119</ele>
        <time>2011-07-03T18:07:46Z</time>
      </trkpt>
      <trkpt lat="62.285577" lon="12.508367">
        <ele>927.169</ele>
        <time>2011-07-03T18:07:47Z</time>
      </trkpt>
      <trkpt lat="62.285629" lon="12.508367">
        <ele>927.298</ele>
        <time>2011-07-03T18:07:51Z</time>
      </trkpt>
      <trkpt lat="62.285729" lon="12.508305">
        <ele>928.221</ele>
        <time>2011-07-03T18:07:59Z</time>
      </trkpt>
      <trkpt lat="62.285827" lon="12.508188">
        <ele>929.653</ele>
        <time>2011-07-03T18:08:06Z</time>
      </trkpt>
      <trkpt lat="62.285932" lon="12.508116">
        <ele>930.942</ele>
        <time>2011-07-03T18:08:14Z</time>
      </trkpt>
      <trkpt lat="62.286008" lon="12.50806">
        <ele>931.964</ele>
        <time>2011-07-03T18:08:20Z</time>
      </trkpt>
      <trkpt lat="62.286098" lon="12.50801">
        <ele>933.305</ele>
        <time>2011-07-03T18:08:28Z</time>
      </trkpt>
      <trkpt lat="62.286194" lon="12.508004">
        <ele>934.898</ele>
        <time>2011-07-03T18:08:35Z</time>
      </trkpt>
      <trkpt lat="62.286288" lon="12.507963">
        <ele>936.669</ele>
        <time>2011-07-03T18:08:42Z</time>
      </trkpt>
      <trkpt lat="62.286317" lon="12.507931">
        <ele>937.597</ele>
        <time>2011-07-03T18:08:45Z</time>
      </trkpt>
      <trkpt lat="62.286386" lon="12.507869">
        <ele>938.603</ele>
        <time>2011-07-03T18:08:51Z</time>
      </trkpt>
      <trkpt lat="62.286398" lon="12.507856">
        <ele>938.773</ele>
        <time>2011-07-03T18:08:52Z</time>
      </trkpt>
      <trkpt lat="62.286464" lon="12.50783">
        <ele>940.111</ele>
        <time>2011-07-03T18:08:58Z</time>
      </trkpt>
      <trkpt lat="62.286542" lon="12.507765">
        <ele>941.815</ele>
        <time>2011-07-03T18:09:05Z</time>
      </trkpt>
      <trkpt lat="62.286641" lon="12.507694">
        <ele>944.423</ele>
        <time>2011-07-03T18:09:15Z</time>
      </trkpt>
      <trkpt lat="62.286651" lon="12.50769">
        <ele>944.609</ele>
        <time>2011-07-03T18:09:16Z</time>
      </trkpt>
      <trkpt lat="62.286704" lon="12.507693">
        <ele>946.291</ele>
        <time>2011-07-03T18:09:22Z</time>
      </trkpt>
      <trkpt lat="62.286784" lon="12.507632">
        <ele>948.414</ele>
        <time>2011-07-03T18:09:29Z</time>
      </trkpt>
      <trkpt lat="62.286838" lon="12.507574">
        <ele>949.646</ele>
        <time>2011-07-03T18:09:35Z</time>
      </trkpt>
      <trkpt lat="62.286859" lon="12.507556">
        <ele>950.262</ele>
        <time>2011-07-03T18:09:38Z</time>
      </trkpt>
      <trkpt lat="62.286882" lon="12.507532">
        <ele>951.21</ele>
        <time>2011-07-03T18:09:42Z</time>
      </trkpt>
      <trkpt lat="62.286903" lon="12.507516">
        <ele>951.926</ele>
        <time>2011-07-03T18:09:46Z</time>
      </trkpt>
      <trkpt lat="62.286926" lon="12.507461">
        <ele>952.555</ele>
        <time>2011-07-03T18:09:49Z</time>
      </trkpt>
      <trkpt lat="62.286943" lon="12.507447">
        <ele>953.202</ele>
        <time>2011-07-03T18:09:51Z</time>
      </trkpt>
      <trkpt lat="62.286984" lon="12.507375">
        <ele>953.933</ele>
        <time>2011-07-03T18:09:55Z</time>
      </trkpt>
      <trkpt lat="62.287067" lon="12.507258">
        <ele>955.793</ele>
        <time>2011-07-03T18:10:03Z</time>
      </trkpt>
      <trkpt lat="62.287091" lon="12.507233">
        <ele>956.116</ele>
        <time>2011-07-03T18:10:05Z</time>
      </trkpt>
      <trkpt lat="62.287162" lon="12.507095">
        <ele>957.927</ele>
        <time>2011-07-03T18:10:13Z</time>
      </trkpt>
      <trkpt lat="62.287221" lon="12.506995">
        <ele>959.032</ele>
        <time>2011-07-03T18:10:19Z</time>
      </trkpt>
      <trkpt lat="62.287339" lon="12.506898">
        <ele>960.868</ele>
        <time>2011-07-03T18:10:29Z</time>
      </trkpt>
      <trkpt lat="62.287417" lon="12.506854">
        <ele>961.565</ele>
        <time>2011-07-03T18:10:35Z</time>
      </trkpt>
      <trkpt lat="62.287499" lon="12.506831">
        <ele>962.234</ele>
        <time>2011-07-03T18:10:41Z</time>
      </trkpt>
      <trkpt lat="62.287577" lon="12.506773">
        <ele>963.418</ele>
        <time>2011-07-03T18:10:48Z</time>
      </trkpt>
      <trkpt lat="62.287645" lon="12.50667">
        <ele>963.59</ele>
        <time>2011-07-03T18:10:55Z</time>
      </trkpt>
      <trkpt lat="62.287681" lon="12.506611">
        <ele>964.894</ele>
        <time>2011-07-03T18:10:59Z</time>
      </trkpt>
      <trkpt lat="62.287772" lon="12.506546">
        <ele>965.31</ele>
        <time>2011-07-03T18:11:07Z</time>
      </trkpt>
      <trkpt lat="62.287815" lon="12.506487">
        <ele>966.024</ele>
        <time>2011-07-03T18:11:11Z</time>
      </trkpt>
      <trkpt lat="62.287896" lon="12.506443">
        <ele>966.56</ele>
        <time>2011-07-03T18:11:17Z</time>
      </trkpt>
      <trkpt lat="62.287906" lon="12.506436">
        <ele>966.574</ele>
        <time>2011-07-03T18:11:18Z</time>
      </trkpt>
      <trkpt lat="62.28796" lon="12.506399">
        <ele>967.911</ele>
        <time>2011-07-03T18:11:24Z</time>
      </trkpt>
      <trkpt lat="62.288015" lon="12.506297">
        <ele>969.563</ele>
        <time>2011-07-03T18:11:30Z</time>
      </trkpt>
      <trkpt lat="62.288125" lon="12.506205">
        <ele>970.511</ele>
        <time>2011-07-03T18:11:39Z</time>
      </trkpt>
      <trkpt lat="62.288238" lon="12.506144">
        <ele>971.751</ele>
        <time>2011-07-03T18:11:48Z</time>
      </trkpt>
      <trkpt lat="62.288324" lon="12.506064">
        <ele>972.549</ele>
        <time>2011-07-03T18:11:55Z</time>
      </trkpt>
      <trkpt lat="62.288393" lon="12.505968">
        <ele>973.394</ele>
        <time>2011-07-03T18:12:01Z</time>
      </trkpt>
      <trkpt lat="62.28845" lon="12.505949">
        <ele>974.826</ele>
        <time>2011-07-03T18:12:07Z</time>
      </trkpt>
      <trkpt lat="62.288558" lon="12.505871">
        <ele>976.023</ele>
        <time>2011-07-03T18:12:16Z</time>
      </trkpt>
      <trkpt lat="62.288645" lon="12.505769">
        <ele>976.527</ele>
        <time>2011-07-03T18:12:23Z</time>
      </trkpt>
      <trkpt lat="62.288776" lon="12.505702">
        <ele>976.602</ele>
        <time>2011-07-03T18:12:29Z</time>
      </trkpt>
      <trkpt lat="62.28891" lon="12.505539">
        <ele>977.046</ele>
        <time>2011-07-03T18:12:35Z</time>
      </trkpt>
      <trkpt lat="62.289062" lon="12.505423">
        <ele>978.502</ele>
        <time>2011-07-03T18:12:43Z</time>
      </trkpt>
      <trkpt lat="62.289208" lon="12.505265">
        <ele>978.628</ele>
        <time>2011-07-03T18:12:51Z</time>
      </trkpt>
      <trkpt lat="62.289301" lon="12.505182">
        <ele>978.867</ele>
        <time>2011-07-03T18:12:57Z</time>
      </trkpt>
      <trkpt lat="62.289375" lon="12.505054">
        <ele>978.962</ele>
        <time>2011-07-03T18:13:04Z</time>
      </trkpt>
      <trkpt lat="62.289404" lon="12.505026">
        <ele>978.96</ele>
        <time>2011-07-03T18:13:06Z</time>
      </trkpt>
      <trkpt lat="62.289486" lon="12.504973">
        <ele>978.986</ele>
        <time>2011-07-03T18:13:13Z</time>
      </trkpt>
      <trkpt lat="62.289504" lon="12.504985">
        <ele>979.126</ele>
        <time>2011-07-03T18:13:16Z</time>
      </trkpt>
      <trkpt lat="62.289523" lon="12.504972">
        <ele>979.456</ele>
        <time>2011-07-03T18:13:20Z</time>
      </trkpt>
      <trkpt lat="62.289609" lon="12.504955">
        <ele>979.618</ele>
        <time>2011-07-03T18:13:38Z</time>
      </trkpt>
      <trkpt lat="62.28967" lon="12.504928">
        <ele>979.85</ele>
        <time>2011-07-03T18:13:44Z</time>
      </trkpt>
      <trkpt lat="62.289716" lon="12.504897">
        <ele>980.246</ele>
        <time>2011-07-03T18:13:48Z</time>
      </trkpt>
      <trkpt lat="62.28981" lon="12.504799">
        <ele>981.274</ele>
        <time>2011-07-03T18:13:56Z</time>
      </trkpt>
      <trkpt lat="62.289842" lon="12.504748">
        <ele>981.653</ele>
        <time>2011-07-03T18:13:59Z</time>
      </trkpt>
      <trkpt lat="62.289929" lon="12.504609">
        <ele>981.509</ele>
        <time>2011-07-03T18:14:07Z</time>
      </trkpt>
      <trkpt lat="62.290072" lon="12.504513">
        <ele>981.907</ele>
        <time>2011-07-03T18:14:17Z</time>
      </trkpt>
      <trkpt lat="62.290148" lon="12.50452">
        <ele>982.197</ele>
        <time>2011-07-03T18:14:24Z</time>
      </trkpt>
      <trkpt lat="62.290223" lon="12.50442">
        <ele>981.869</ele>
        <time>2011-07-03T18:14:31Z</time>
      </trkpt>
      <trkpt lat="62.29032" lon="12.504369">
        <ele>982.155</ele>
        <time>2011-07-03T18:14:39Z</time>
      </trkpt>
      <trkpt lat="62.290392" lon="12.504298">
        <ele>981.532</ele>
        <time>2011-07-03T18:14:46Z</time>
      </trkpt>
      <trkpt lat="62.290432" lon="12.504307">
        <ele>980.793</ele>
        <time>2011-07-03T18:14:50Z</time>
      </trkpt>
      <trkpt lat="62.290531" lon="12.504224">
        <ele>979.428</ele>
        <time>2011-07-03T18:14:59Z</time>
      </trkpt>
      <trkpt lat="62.290626" lon="12.50411">
        <ele>978.053</ele>
        <time>2011-07-03T18:15:07Z</time>
      </trkpt>
      <trkpt lat="62.29074" lon="12.504012">
        <ele>976.367</ele>
        <time>2011-07-03T18:15:15Z</time>
      </trkpt>
      <trkpt lat="62.290835" lon="12.503937">
        <ele>975.55</ele>
        <time>2011-07-03T18:15:23Z</time>
      </trkpt>
      <trkpt lat="62.290881" lon="12.50392">
        <ele>974.61</ele>
        <time>2011-07-03T18:15:27Z</time>
      </trkpt>
      <trkpt lat="62.290934" lon="12.503903">
        <ele>973.347</ele>
        <time>2011-07-03T18:15:32Z</time>
      </trkpt>
      <trkpt lat="62.290995" lon="12.503872">
        <ele>972.495</ele>
        <time>2011-07-03T18:15:38Z</time>
      </trkpt>
      <trkpt lat="62.291083" lon="12.503787">
        <ele>971.829</ele>
        <time>2011-07-03T18:15:46Z</time>
      </trkpt>
      <trkpt lat="62.291104" lon="12.503734">
        <ele>971.342</ele>
        <time>2011-07-03T18:15:50Z</time>
      </trkpt>
      <trkpt lat="62.291217" lon="12.503639">
        <ele>970.249</ele>
        <time>2011-07-03T18:16:02Z</time>
      </trkpt>
      <trkpt lat="62.291317" lon="12.503559">
        <ele>969.763</ele>
        <time>2011-07-03T18:16:10Z</time>
      </trkpt>
      <trkpt lat="62.291347" lon="12.503545">
        <ele>969.78</ele>
        <time>2011-07-03T18:16:14Z</time>
      </trkpt>
      <trkpt lat="62.291367" lon="12.503521">
        <ele>969.658</ele>
        <time>2011-07-03T18:16:20Z</time>
      </trkpt>
      <trkpt lat="62.291412" lon="12.503477">
        <ele>969.439</ele>
        <time>2011-07-03T18:16:26Z</time>
      </trkpt>
      <trkpt lat="62.291445" lon="12.503434">
        <ele>969.149</ele>
        <time>2011-07-03T18:16:30Z</time>
      </trkpt>
      <trkpt lat="62.291526" lon="12.503359">
        <ele>968.688</ele>
        <time>2011-07-03T18:16:38Z</time>
      </trkpt>
      <trkpt lat="62.291638" lon="12.503314">
        <ele>967.203</ele>
        <time>2011-07-03T18:16:47Z</time>
      </trkpt>
      <trkpt lat="62.291659" lon="12.503288">
        <ele>966.742</ele>
        <time>2011-07-03T18:16:49Z</time>
      </trkpt>
      <trkpt lat="62.291699" lon="12.503256">
        <ele>966.031</ele>
        <time>2011-07-03T18:16:53Z</time>
      </trkpt>
      <trkpt lat="62.29175" lon="12.503139">
        <ele>965.555</ele>
        <time>2011-07-03T18:17:00Z</time>
      </trkpt>
      <trkpt lat="62.291817" lon="12.503023">
        <ele>964.589</ele>
        <time>2011-07-03T18:17:07Z</time>
      </trkpt>
      <trkpt lat="62.291859" lon="12.502944">
        <ele>964.382</ele>
        <time>2011-07-03T18:17:11Z</time>
      </trkpt>
      <trkpt lat="62.291902" lon="12.502964">
        <ele>963.87</ele>
        <time>2011-07-03T18:17:16Z</time>
      </trkpt>
      <trkpt lat="62.291968" lon="12.502944">
        <ele>962.893</ele>
        <time>2011-07-03T18:17:23Z</time>
      </trkpt>
      <trkpt lat="62.29199" lon="12.502908">
        <ele>962.902</ele>
        <time>2011-07-03T18:17:25Z</time>
      </trkpt>
      <trkpt lat="62.29211" lon="12.502767">
        <ele>962.245</ele>
        <time>2011-07-03T18:17:33Z</time>
      </trkpt>
      <trkpt lat="62.292212" lon="12.5028">
        <ele>961.751</ele>
        <time>2011-07-03T18:17:38Z</time>
      </trkpt>
      <trkpt lat="62.292286" lon="12.502775">
        <ele>961.188</ele>
        <time>2011-07-03T18:17:45Z</time>
      </trkpt>
      <trkpt lat="62.292304" lon="12.502747">
        <ele>961.016</ele>
        <time>2011-07-03T18:17:48Z</time>
      </trkpt>
      <trkpt lat="62.292355" lon="12.502652">
        <ele>960.917</ele>
        <time>2011-07-03T18:17:54Z</time>
      </trkpt>
      <trkpt lat="62.29237" lon="12.502642">
        <ele>960.839</ele>
        <time>2011-07-03T18:17:55Z</time>
      </trkpt>
      <trkpt lat="62.292484" lon="12.502548">
        <ele>960.073</ele>
        <time>2011-07-03T18:18:04Z</time>
      </trkpt>
      <trkpt lat="62.292558" lon="12.50244">
        <ele>959.605</ele>
        <time>2011-07-03T18:18:11Z</time>
      </trkpt>
      <trkpt lat="62.29261" lon="12.502403">
        <ele>959.325</ele>
        <time>2011-07-03T18:18:14Z</time>
      </trkpt>
      <trkpt lat="62.292686" lon="12.50241">
        <ele>959.535</ele>
        <time>2011-07-03T18:18:20Z</time>
      </trkpt>
      <trkpt lat="62.292705" lon="12.502405">
        <ele>959.681</ele>
        <time>2011-07-03T18:18:21Z</time>
      </trkpt>
      <trkpt lat="62.292822" lon="12.502336">
        <ele>959.89</ele>
        <time>2011-07-03T18:18:29Z</time>
      </trkpt>
      <trkpt lat="62.292919" lon="12.502305">
        <ele>960.244</ele>
        <time>2011-07-03T18:18:37Z</time>
      </trkpt>
      <trkpt lat="62.293004" lon="12.502244">
        <ele>960.246</ele>
        <time>2011-07-03T18:18:45Z</time>
      </trkpt>
      <trkpt lat="62.293031" lon="12.502231">
        <ele>960.247</ele>
        <time>2011-07-03T18:18:48Z</time>
      </trkpt>
      <trkpt lat="62.293071" lon="12.502183">
        <ele>959.573</ele>
        <time>2011-07-03T18:18:52Z</time>
      </trkpt>
      <trkpt lat="62.293115" lon="12.502174">
        <ele>959.03</ele>
        <time>2011-07-03T18:18:56Z</time>
      </trkpt>
      <trkpt lat="62.293212" lon="12.502121">
        <ele>958.385</ele>
        <time>2011-07-03T18:19:05Z</time>
      </trkpt>
      <trkpt lat="62.293295" lon="12.502061">
        <ele>958.448</ele>
        <time>2011-07-03T18:19:13Z</time>
      </trkpt>
      <trkpt lat="62.293354" lon="12.501959">
        <ele>957.172</ele>
        <time>2011-07-03T18:19:19Z</time>
      </trkpt>
      <trkpt lat="62.293411" lon="12.501944">
        <ele>957.256</ele>
        <time>2011-07-03T18:19:24Z</time>
      </trkpt>
      <trkpt lat="62.293474" lon="12.501833">
        <ele>956.846</ele>
        <time>2011-07-03T18:19:30Z</time>
      </trkpt>
      <trkpt lat="62.29352" lon="12.501809">
        <ele>956.66</ele>
        <time>2011-07-03T18:19:33Z</time>
      </trkpt>
      <trkpt lat="62.293618" lon="12.501728">
        <ele>957.12</ele>
        <time>2011-07-03T18:19:41Z</time>
      </trkpt>
      <trkpt lat="62.293696" lon="12.501664">
        <ele>957.255</ele>
        <time>2011-07-03T18:19:47Z</time>
      </trkpt>
      <trkpt lat="62.293789" lon="12.501625">
        <ele>957.299</ele>
        <time>2011-07-03T18:19:56Z</time>
      </trkpt>
      <trkpt lat="62.293902" lon="12.501588">
        <ele>957.336</ele>
        <time>2011-07-03T18:20:03Z</time>
      </trkpt>
      <trkpt lat="62.293988" lon="12.501553">
        <ele>957.459</ele>
        <time>2011-07-03T18:20:11Z</time>
      </trkpt>
      <trkpt lat="62.294059" lon="12.501511">
        <ele>956.911</ele>
        <time>2011-07-03T18:20:17Z</time>
      </trkpt>
      <trkpt lat="62.294125" lon="12.501477">
        <ele>957.207</ele>
        <time>2011-07-03T18:20:23Z</time>
      </trkpt>
      <trkpt lat="62.294173" lon="12.501441">
        <ele>957.448</ele>
        <time>2011-07-03T18:20:26Z</time>
      </trkpt>
      <trkpt lat="62.294233" lon="12.5014">
        <ele>957.531</ele>
        <time>2011-07-03T18:20:30Z</time>
      </trkpt>
      <trkpt lat="62.294379" lon="12.501312">
        <ele>957.125</ele>
        <time>2011-07-03T18:20:39Z</time>
      </trkpt>
      <trkpt lat="62.294395" lon="12.501308">
        <ele>957.071</ele>
        <time>2011-07-03T18:20:40Z</time>
      </trkpt>
      <trkpt lat="62.294436" lon="12.501239">
        <ele>957.634</ele>
        <time>2011-07-03T18:20:48Z</time>
      </trkpt>
      <trkpt lat="62.29452" lon="12.501197">
        <ele>958.5</ele>
        <time>2011-07-03T18:20:56Z</time>
      </trkpt>
      <trkpt lat="62.294601" lon="12.501171">
        <ele>959.178</ele>
        <time>2011-07-03T18:21:05Z</time>
      </trkpt>
      <trkpt lat="62.2947" lon="12.501136">
        <ele>959.646</ele>
        <time>2011-07-03T18:21:12Z</time>
      </trkpt>
      <trkpt lat="62.294737" lon="12.50115">
        <ele>958.768</ele>
        <time>2011-07-03T18:21:20Z</time>
      </trkpt>
      <trkpt lat="62.294743" lon="12.501146">
        <ele>958.75</ele>
        <time>2011-07-03T18:21:21Z</time>
      </trkpt>
      <trkpt lat="62.294777" lon="12.501121">
        <ele>958.847</ele>
        <time>2011-07-03T18:21:25Z</time>
      </trkpt>
      <trkpt lat="62.294893" lon="12.501058">
        <ele>958.499</ele>
        <time>2011-07-03T18:21:33Z</time>
      </trkpt>
      <trkpt lat="62.29494" lon="12.501098">
        <ele>957.228</ele>
        <time>2011-07-03T18:21:40Z</time>
      </trkpt>
      <trkpt lat="62.29501" lon="12.501115">
        <ele>956.669</ele>
        <time>2011-07-03T18:21:47Z</time>
      </trkpt>
      <trkpt lat="62.295104" lon="12.501089">
        <ele>955.678</ele>
        <time>2011-07-03T18:21:54Z</time>
      </trkpt>
      <trkpt lat="62.295175" lon="12.501081">
        <ele>954.03</ele>
        <time>2011-07-03T18:22:02Z</time>
      </trkpt>
      <trkpt lat="62.295251" lon="12.501047">
        <ele>953.685</ele>
        <time>2011-07-03T18:22:09Z</time>
      </trkpt>
      <trkpt lat="62.295287" lon="12.501047">
        <ele>953.383</ele>
        <time>2011-07-03T18:22:13Z</time>
      </trkpt>
      <trkpt lat="62.295363" lon="12.501015">
        <ele>952.714</ele>
        <time>2011-07-03T18:22:21Z</time>
      </trkpt>
      <trkpt lat="62.295448" lon="12.501029">
        <ele>951.953</ele>
        <time>2011-07-03T18:22:29Z</time>
      </trkpt>
      <trkpt lat="62.295525" lon="12.501042">
        <ele>951.2</ele>
        <time>2011-07-03T18:22:37Z</time>
      </trkpt>
      <trkpt lat="62.295601" lon="12.501006">
        <ele>950.181</ele>
        <time>2011-07-03T18:22:44Z</time>
      </trkpt>
      <trkpt lat="62.295677" lon="12.50104">
        <ele>949.393</ele>
        <time>2011-07-03T18:22:50Z</time>
      </trkpt>
      <trkpt lat="62.295772" lon="12.50103">
        <ele>948.282</ele>
        <time>2011-07-03T18:22:56Z</time>
      </trkpt>
      <trkpt lat="62.295864" lon="12.501055">
        <ele>947.496</ele>
        <time>2011-07-03T18:23:02Z</time>
      </trkpt>
      <trkpt lat="62.295959" lon="12.501048">
        <ele>947.687</ele>
        <time>2011-07-03T18:23:10Z</time>
      </trkpt>
      <trkpt lat="62.296064" lon="12.501054">
        <ele>947.445</ele>
        <time>2011-07-03T18:23:19Z</time>
      </trkpt>
      <trkpt lat="62.296073" lon="12.501049">
        <ele>947.373</ele>
        <time>2011-07-03T18:23:20Z</time>
      </trkpt>
      <trkpt lat="62.296104" lon="12.500984">
        <ele>947.419</ele>
        <time>2011-07-03T18:23:24Z</time>
      </trkpt>
      <trkpt lat="62.296167" lon="12.500978">
        <ele>948.706</ele>
        <time>2011-07-03T18:23:31Z</time>
      </trkpt>
      <trkpt lat="62.296255" lon="12.500978">
        <ele>950.468</ele>
        <time>2011-07-03T18:23:39Z</time>
      </trkpt>
      <trkpt lat="62.296353" lon="12.500974">
        <ele>951.237</ele>
        <time>2011-07-03T18:23:48Z</time>
      </trkpt>
      <trkpt lat="62.296426" lon="12.500942">
        <ele>951.073</ele>
        <time>2011-07-03T18:23:55Z</time>
      </trkpt>
      <trkpt lat="62.296485" lon="12.500943">
        <ele>951.606</ele>
        <time>2011-07-03T18:24:01Z</time>
      </trkpt>
      <trkpt lat="62.296527" lon="12.500922">
        <ele>951.406</ele>
        <time>2011-07-03T18:24:05Z</time>
      </trkpt>
      <trkpt lat="62.296622" lon="12.500906">
        <ele>951.246</ele>
        <time>2011-07-03T18:24:13Z</time>
      </trkpt>
      <trkpt lat="62.296709" lon="12.500908">
        <ele>952.027</ele>
        <time>2011-07-03T18:24:20Z</time>
      </trkpt>
      <trkpt lat="62.296783" lon="12.500908">
        <ele>952.269</ele>
        <time>2011-07-03T18:24:26Z</time>
      </trkpt>
      <trkpt lat="62.296906" lon="12.500851">
        <ele>952.642</ele>
        <time>2011-07-03T18:24:37Z</time>
      </trkpt>
      <trkpt lat="62.296997" lon="12.500882">
        <ele>952.021</ele>
        <time>2011-07-03T18:24:44Z</time>
      </trkpt>
      <trkpt lat="62.297114" lon="12.500864">
        <ele>950.891</ele>
        <time>2011-07-03T18:24:53Z</time>
      </trkpt>
      <trkpt lat="62.297201" lon="12.500835">
        <ele>950.889</ele>
        <time>2011-07-03T18:25:00Z</time>
      </trkpt>
      <trkpt lat="62.297285" lon="12.500811">
        <ele>949.731</ele>
        <time>2011-07-03T18:25:07Z</time>
      </trkpt>
      <trkpt lat="62.297308" lon="12.500845">
        <ele>948.491</ele>
        <time>2011-07-03T18:25:09Z</time>
      </trkpt>
      <trkpt lat="62.297396" lon="12.50082">
        <ele>946.656</ele>
        <time>2011-07-03T18:25:15Z</time>
      </trkpt>
      <trkpt lat="62.297497" lon="12.500776">
        <ele>945.74</ele>
        <time>2011-07-03T18:25:23Z</time>
      </trkpt>
      <trkpt lat="62.297585" lon="12.500746">
        <ele>944.428</ele>
        <time>2011-07-03T18:25:30Z</time>
      </trkpt>
      <trkpt lat="62.297671" lon="12.500748">
        <ele>943.652</ele>
        <time>2011-07-03T18:25:37Z</time>
      </trkpt>
      <trkpt lat="62.297684" lon="12.500738">
        <ele>943.52</ele>
        <time>2011-07-03T18:25:38Z</time>
      </trkpt>
      <trkpt lat="62.297805" lon="12.500734">
        <ele>943.561</ele>
        <time>2011-07-03T18:25:47Z</time>
      </trkpt>
      <trkpt lat="62.297907" lon="12.500754">
        <ele>944.005</ele>
        <time>2011-07-03T18:25:55Z</time>
      </trkpt>
      <trkpt lat="62.297964" lon="12.500733">
        <ele>944.71</ele>
        <time>2011-07-03T18:26:01Z</time>
      </trkpt>
      <trkpt lat="62.298009" lon="12.500732">
        <ele>944.432</ele>
        <time>2011-07-03T18:26:07Z</time>
      </trkpt>
      <trkpt lat="62.298104" lon="12.500724">
        <ele>944.354</ele>
        <time>2011-07-03T18:26:15Z</time>
      </trkpt>
      <trkpt lat="62.298193" lon="12.500695">
        <ele>944.009</ele>
        <time>2011-07-03T18:26:22Z</time>
      </trkpt>
      <trkpt lat="62.298223" lon="12.500673">
        <ele>943.837</ele>
        <time>2011-07-03T18:26:25Z</time>
      </trkpt>
      <trkpt lat="62.298349" lon="12.500637">
        <ele>943.621</ele>
        <time>2011-07-03T18:26:34Z</time>
      </trkpt>
      <trkpt lat="62.298364" lon="12.500656">
        <ele>943.464</ele>
        <time>2011-07-03T18:26:37Z</time>
      </trkpt>
      <trkpt lat="62.298393" lon="12.500672">
        <ele>943.532</ele>
        <time>2011-07-03T18:26:45Z</time>
      </trkpt>
      <trkpt lat="62.298428" lon="12.500629">
        <ele>943.417</ele>
        <time>2011-07-03T18:26:49Z</time>
      </trkpt>
      <trkpt lat="62.298509" lon="12.500581">
        <ele>943.364</ele>
        <time>2011-07-03T18:26:57Z</time>
      </trkpt>
      <trkpt lat="62.298543" lon="12.500549">
        <ele>942.889</ele>
        <time>2011-07-03T18:27:02Z</time>
      </trkpt>
      <trkpt lat="62.298626" lon="12.500534">
        <ele>942.033</ele>
        <time>2011-07-03T18:27:10Z</time>
      </trkpt>
      <trkpt lat="62.298698" lon="12.500466">
        <ele>942.333</ele>
        <time>2011-07-03T18:27:18Z</time>
      </trkpt>
      <trkpt lat="62.298773" lon="12.500401">
        <ele>941.536</ele>
        <time>2011-07-03T18:27:25Z</time>
      </trkpt>
      <trkpt lat="62.298813" lon="12.500411">
        <ele>941.071</ele>
        <time>2011-07-03T18:27:30Z</time>
      </trkpt>
      <trkpt lat="62.29887" lon="12.500439">
        <ele>940.998</ele>
        <time>2011-07-03T18:27:36Z</time>
      </trkpt>
      <trkpt lat="62.29888" lon="12.500437">
        <ele>940.825</ele>
        <time>2011-07-03T18:27:37Z</time>
      </trkpt>
      <trkpt lat="62.298918" lon="12.500418">
        <ele>939.201</ele>
        <time>2011-07-03T18:27:41Z</time>
      </trkpt>
      <trkpt lat="62.299009" lon="12.500409">
        <ele>938.021</ele>
        <time>2011-07-03T18:27:50Z</time>
      </trkpt>
      <trkpt lat="62.29905" lon="12.500386">
        <ele>937.887</ele>
        <time>2011-07-03T18:27:56Z</time>
      </trkpt>
      <trkpt lat="62.299082" lon="12.500374">
        <ele>936.965</ele>
        <time>2011-07-03T18:28:01Z</time>
      </trkpt>
      <trkpt lat="62.299124" lon="12.500397">
        <ele>936.597</ele>
        <time>2011-07-03T18:28:08Z</time>
      </trkpt>
      <trkpt lat="62.29921" lon="12.500327">
        <ele>934.863</ele>
        <time>2011-07-03T18:28:17Z</time>
      </trkpt>
      <trkpt lat="62.299295" lon="12.500245">
        <ele>934.101</ele>
        <time>2011-07-03T18:28:24Z</time>
      </trkpt>
      <trkpt lat="62.299362" lon="12.500145">
        <ele>933.608</ele>
        <time>2011-07-03T18:28:30Z</time>
      </trkpt>
      <trkpt lat="62.299391" lon="12.50012">
        <ele>933.455</ele>
        <time>2011-07-03T18:28:32Z</time>
      </trkpt>
      <trkpt lat="62.299463" lon="12.500091">
        <ele>933.47</ele>
        <time>2011-07-03T18:28:41Z</time>
      </trkpt>
      <trkpt lat="62.299528" lon="12.500062">
        <ele>933.654</ele>
        <time>2011-07-03T18:28:48Z</time>
      </trkpt>
      <trkpt lat="62.299577" lon="12.500008">
        <ele>933.683</ele>
        <time>2011-07-03T18:28:55Z</time>
      </trkpt>
      <trkpt lat="62.299631" lon="12.49995">
        <ele>933.57</ele>
        <time>2011-07-03T18:29:00Z</time>
      </trkpt>
      <trkpt lat="62.299666" lon="12.499961">
        <ele>933.445</ele>
        <time>2011-07-03T18:29:04Z</time>
      </trkpt>
      <trkpt lat="62.299727" lon="12.499952">
        <ele>932.771</ele>
        <time>2011-07-03T18:29:11Z</time>
      </trkpt>
      <trkpt lat="62.299766" lon="12.499898">
        <ele>932.31</ele>
        <time>2011-07-03T18:29:15Z</time>
      </trkpt>
      <trkpt lat="62.299802" lon="12.499858">
        <ele>931.657</ele>
        <time>2011-07-03T18:29:18Z</time>
      </trkpt>
      <trkpt lat="62.299878" lon="12.499834">
        <ele>930.656</ele>
        <time>2011-07-03T18:29:25Z</time>
      </trkpt>
      <trkpt lat="62.29992" lon="12.499842">
        <ele>930.531</ele>
        <time>2011-07-03T18:29:29Z</time>
      </trkpt>
      <trkpt lat="62.299945" lon="12.499855">
        <ele>930.188</ele>
        <time>2011-07-03T18:29:32Z</time>
      </trkpt>
      <trkpt lat="62.300023" lon="12.499794">
        <ele>930.469</ele>
        <time>2011-07-03T18:29:40Z</time>
      </trkpt>
      <trkpt lat="62.300112" lon="12.49973">
        <ele>929.253</ele>
        <time>2011-07-03T18:29:48Z</time>
      </trkpt>
      <trkpt lat="62.300144" lon="12.499695">
        <ele>929.228</ele>
        <time>2011-07-03T18:29:53Z</time>
      </trkpt>
      <trkpt lat="62.300225" lon="12.499596">
        <ele>928.657</ele>
        <time>2011-07-03T18:30:02Z</time>
      </trkpt>
      <trkpt lat="62.300283" lon="12.499525">
        <ele>928.083</ele>
        <time>2011-07-03T18:30:09Z</time>
      </trkpt>
      <trkpt lat="62.300338" lon="12.49945">
        <ele>927.391</ele>
        <time>2011-07-03T18:30:16Z</time>
      </trkpt>
      <trkpt lat="62.300335" lon="12.499435">
        <ele>927.602</ele>
        <time>2011-07-03T18:30:18Z</time>
      </trkpt>
      <trkpt lat="62.300385" lon="12.499383">
        <ele>926.181</ele>
        <time>2011-07-03T18:30:30Z</time>
      </trkpt>
      <trkpt lat="62.300475" lon="12.499287">
        <ele>925.059</ele>
        <time>2011-07-03T18:30:37Z</time>
      </trkpt>
      <trkpt lat="62.300489" lon="12.499322">
        <ele>924.124</ele>
        <time>2011-07-03T18:30:42Z</time>
      </trkpt>
      <trkpt lat="62.300497" lon="12.499357">
        <ele>923.771</ele>
        <time>2011-07-03T18:30:45Z</time>
      </trkpt>
      <trkpt lat="62.300522" lon="12.499376">
        <ele>922.869</ele>
        <time>2011-07-03T18:30:49Z</time>
      </trkpt>
      <trkpt lat="62.300541" lon="12.499309">
        <ele>922.318</ele>
        <time>2011-07-03T18:30:53Z</time>
      </trkpt>
      <trkpt lat="62.300557" lon="12.499233">
        <ele>922.11</ele>
        <time>2011-07-03T18:30:56Z</time>
      </trkpt>
      <trkpt lat="62.300565" lon="12.499079">
        <ele>921.562</ele>
        <time>2011-07-03T18:31:04Z</time>
      </trkpt>
      <trkpt lat="62.300603" lon="12.499046">
        <ele>921.226</ele>
        <time>2011-07-03T18:31:09Z</time>
      </trkpt>
      <trkpt lat="62.300611" lon="12.498999">
        <ele>920.631</ele>
        <time>2011-07-03T18:31:45Z</time>
      </trkpt>
      <trkpt lat="62.300692" lon="12.498969">
        <ele>919.172</ele>
        <time>2011-07-03T18:31:52Z</time>
      </trkpt>
      <trkpt lat="62.300783" lon="12.498977">
        <ele>918.757</ele>
        <time>2011-07-03T18:32:08Z</time>
      </trkpt>
      <trkpt lat="62.300793" lon="12.498966">
        <ele>918.555</ele>
        <time>2011-07-03T18:32:09Z</time>
      </trkpt>
      <trkpt lat="62.300886" lon="12.498883">
        <ele>916.976</ele>
        <time>2011-07-03T18:32:17Z</time>
      </trkpt>
      <trkpt lat="62.300916" lon="12.498879">
        <ele>916.697</ele>
        <time>2011-07-03T18:32:21Z</time>
      </trkpt>
      <trkpt lat="62.300962" lon="12.498864">
        <ele>916.791</ele>
        <time>2011-07-03T18:32:34Z</time>
      </trkpt>
      <trkpt lat="62.300982" lon="12.498843">
        <ele>916.642</ele>
        <time>2011-07-03T18:32:37Z</time>
      </trkpt>
      <trkpt lat="62.301028" lon="12.498742">
        <ele>916.383</ele>
        <time>2011-07-03T18:32:43Z</time>
      </trkpt>
      <trkpt lat="62.301047" lon="12.498712">
        <ele>916.271</ele>
        <time>2011-07-03T18:32:48Z</time>
      </trkpt>
      <trkpt lat="62.301089" lon="12.498634">
        <ele>915.52</ele>
        <time>2011-07-03T18:32:57Z</time>
      </trkpt>
      <trkpt lat="62.301168" lon="12.498487">
        <ele>914.676</ele>
        <time>2011-07-03T18:33:05Z</time>
      </trkpt>
      <trkpt lat="62.301254" lon="12.498389">
        <ele>912.982</ele>
        <time>2011-07-03T18:33:13Z</time>
      </trkpt>
      <trkpt lat="62.301343" lon="12.498313">
        <ele>911.311</ele>
        <time>2011-07-03T18:33:21Z</time>
      </trkpt>
      <trkpt lat="62.301353" lon="12.498307">
        <ele>911.181</ele>
        <time>2011-07-03T18:33:22Z</time>
      </trkpt>
      <trkpt lat="62.301422" lon="12.498247">
        <ele>909.593</ele>
        <time>2011-07-03T18:33:28Z</time>
      </trkpt>
      <trkpt lat="62.301486" lon="12.498197">
        <ele>908.019</ele>
        <time>2011-07-03T18:33:35Z</time>
      </trkpt>
      <trkpt lat="62.301603" lon="12.498083">
        <ele>906.31</ele>
        <time>2011-07-03T18:33:45Z</time>
      </trkpt>
      <trkpt lat="62.301668" lon="12.498001">
        <ele>904.208</ele>
        <time>2011-07-03T18:33:52Z</time>
      </trkpt>
      <trkpt lat="62.30175" lon="12.497919">
        <ele>903.755</ele>
        <time>2011-07-03T18:34:00Z</time>
      </trkpt>
      <trkpt lat="62.301816" lon="12.497804">
        <ele>903.163</ele>
        <time>2011-07-03T18:34:07Z</time>
      </trkpt>
      <trkpt lat="62.301905" lon="12.497666">
        <ele>903.006</ele>
        <time>2011-07-03T18:34:16Z</time>
      </trkpt>
      <trkpt lat="62.301958" lon="12.497611">
        <ele>901.785</ele>
        <time>2011-07-03T18:34:22Z</time>
      </trkpt>
      <trkpt lat="62.302012" lon="12.49755">
        <ele>900.178</ele>
        <time>2011-07-03T18:34:29Z</time>
      </trkpt>
      <trkpt lat="62.30206" lon="12.497411">
        <ele>899.154</ele>
        <time>2011-07-03T18:34:36Z</time>
      </trkpt>
      <trkpt lat="62.302129" lon="12.497279">
        <ele>897.868</ele>
        <time>2011-07-03T18:34:44Z</time>
      </trkpt>
      <trkpt lat="62.302175" lon="12.497214">
        <ele>896.326</ele>
        <time>2011-07-03T18:34:49Z</time>
      </trkpt>
      <trkpt lat="62.302261" lon="12.497131">
        <ele>895.53</ele>
        <time>2011-07-03T18:34:57Z</time>
      </trkpt>
      <trkpt lat="62.302293" lon="12.497062">
        <ele>894.668</ele>
        <time>2011-07-03T18:35:01Z</time>
      </trkpt>
      <trkpt lat="62.302311" lon="12.497015">
        <ele>894.226</ele>
        <time>2011-07-03T18:35:04Z</time>
      </trkpt>
      <trkpt lat="62.302363" lon="12.496985">
        <ele>892.74</ele>
        <time>2011-07-03T18:35:09Z</time>
      </trkpt>
      <trkpt lat="62.302379" lon="12.496947">
        <ele>892.063</ele>
        <time>2011-07-03T18:35:11Z</time>
      </trkpt>
      <trkpt lat="62.302466" lon="12.49687">
        <ele>891.624</ele>
        <time>2011-07-03T18:35:19Z</time>
      </trkpt>
      <trkpt lat="62.302552" lon="12.496798">
        <ele>889.749</ele>
        <time>2011-07-03T18:35:26Z</time>
      </trkpt>
      <trkpt lat="62.302641" lon="12.496654">
        <ele>887.914</ele>
        <time>2011-07-03T18:35:34Z</time>
      </trkpt>
      <trkpt lat="62.30273" lon="12.496535">
        <ele>885.765</ele>
        <time>2011-07-03T18:35:41Z</time>
      </trkpt>
      <trkpt lat="62.302807" lon="12.496415">
        <ele>884.426</ele>
        <time>2011-07-03T18:35:48Z</time>
      </trkpt>
      <trkpt lat="62.302877" lon="12.496261">
        <ele>882.807</ele>
        <time>2011-07-03T18:35:56Z</time>
      </trkpt>
      <trkpt lat="62.30291" lon="12.496124">
        <ele>882.421</ele>
        <time>2011-07-03T18:36:02Z</time>
      </trkpt>
      <trkpt lat="62.302918" lon="12.496052">
        <ele>881.888</ele>
        <time>2011-07-03T18:36:05Z</time>
      </trkpt>
      <trkpt lat="62.302965" lon="12.495897">
        <ele>881.638</ele>
        <time>2011-07-03T18:36:13Z</time>
      </trkpt>
      <trkpt lat="62.302984" lon="12.49583">
        <ele>881.262</ele>
        <time>2011-07-03T18:36:16Z</time>
      </trkpt>
      <trkpt lat="62.302985" lon="12.495745">
        <ele>880.17</ele>
        <time>2011-07-03T18:36:19Z</time>
      </trkpt>
      <trkpt lat="62.302989" lon="12.495678">
        <ele>879.977</ele>
        <time>2011-07-03T18:36:22Z</time>
      </trkpt>
      <trkpt lat="62.302994" lon="12.495576">
        <ele>879.796</ele>
        <time>2011-07-03T18:36:27Z</time>
      </trkpt>
      <trkpt lat="62.303036" lon="12.495395">
        <ele>878.379</ele>
        <time>2011-07-03T18:36:35Z</time>
      </trkpt>
      <trkpt lat="62.303059" lon="12.495334">
        <ele>877.827</ele>
        <time>2011-07-03T18:36:40Z</time>
      </trkpt>
      <trkpt lat="62.303061" lon="12.495222">
        <ele>877.015</ele>
        <time>2011-07-03T18:36:48Z</time>
      </trkpt>
      <trkpt lat="62.303061" lon="12.495222">
        <ele>876.942</ele>
        <time>2011-07-03T18:36:49Z</time>
      </trkpt>
      <trkpt lat="62.303109" lon="12.495096">
        <ele>875.968</ele>
        <time>2011-07-03T18:37:50Z</time>
      </trkpt>
      <trkpt lat="62.303111" lon="12.495095">
        <ele>875.815</ele>
        <time>2011-07-03T18:37:51Z</time>
      </trkpt>
      <trkpt lat="62.303161" lon="12.495008">
        <ele>875.601</ele>
        <time>2011-07-03T18:38:09Z</time>
      </trkpt>
      <trkpt lat="62.303154" lon="12.49487">
        <ele>874.296</ele>
        <time>2011-07-03T18:38:13Z</time>
      </trkpt>
      <trkpt lat="62.303138" lon="12.494758">
        <ele>873.862</ele>
        <time>2011-07-03T18:38:17Z</time>
      </trkpt>
      <trkpt lat="62.30317" lon="12.494584">
        <ele>872.047</ele>
        <time>2011-07-03T18:38:25Z</time>
      </trkpt>
      <trkpt lat="62.303167" lon="12.494389">
        <ele>870.294</ele>
        <time>2011-07-03T18:38:32Z</time>
      </trkpt>
      <trkpt lat="62.303162" lon="12.494333">
        <ele>869.805</ele>
        <time>2011-07-03T18:38:34Z</time>
      </trkpt>
      <trkpt lat="62.303169" lon="12.494108">
        <ele>868.145</ele>
        <time>2011-07-03T18:38:42Z</time>
      </trkpt>
      <trkpt lat="62.303191" lon="12.493974">
        <ele>867.324</ele>
        <time>2011-07-03T18:38:47Z</time>
      </trkpt>
      <trkpt lat="62.303211" lon="12.493885">
        <ele>866.444</ele>
        <time>2011-07-03T18:38:51Z</time>
      </trkpt>
      <trkpt lat="62.303229" lon="12.493639">
        <ele>864.67</ele>
        <time>2011-07-03T18:38:58Z</time>
      </trkpt>
      <trkpt lat="62.303258" lon="12.493404">
        <ele>862.909</ele>
        <time>2011-07-03T18:39:03Z</time>
      </trkpt>
      <trkpt lat="62.303255" lon="12.493055">
        <ele>860.487</ele>
        <time>2011-07-03T18:39:10Z</time>
      </trkpt>
      <trkpt lat="62.303254" lon="12.492864">
        <ele>858.795</ele>
        <time>2011-07-03T18:39:15Z</time>
      </trkpt>
      <trkpt lat="62.303265" lon="12.492727">
        <ele>857.009</ele>
        <time>2011-07-03T18:39:20Z</time>
      </trkpt>
      <trkpt lat="62.303291" lon="12.492628">
        <ele>854.953</ele>
        <time>2011-07-03T18:39:26Z</time>
      </trkpt>
      <trkpt lat="62.303294" lon="12.492571">
        <ele>854.655</ele>
        <time>2011-07-03T18:39:28Z</time>
      </trkpt>
      <trkpt lat="62.303343" lon="12.492507">
        <ele>853.687</ele>
        <time>2011-07-03T18:39:32Z</time>
      </trkpt>
      <trkpt lat="62.303263" lon="12.492202">
        <ele>851.657</ele>
        <time>2011-07-03T18:39:41Z</time>
      </trkpt>
      <trkpt lat="62.303253" lon="12.492058">
        <ele>849.997</ele>
        <time>2011-07-03T18:39:48Z</time>
      </trkpt>
      <trkpt lat="62.303269" lon="12.491908">
        <ele>847.838</ele>
        <time>2011-07-03T18:39:53Z</time>
      </trkpt>
      <trkpt lat="62.303309" lon="12.491895">
        <ele>847.374</ele>
        <time>2011-07-03T18:39:55Z</time>
      </trkpt>
      <trkpt lat="62.30337" lon="12.491753">
        <ele>846.704</ele>
        <time>2011-07-03T18:40:02Z</time>
      </trkpt>
      <trkpt lat="62.303362" lon="12.491619">
        <ele>845.171</ele>
        <time>2011-07-03T18:40:07Z</time>
      </trkpt>
      <trkpt lat="62.303343" lon="12.491338">
        <ele>842.859</ele>
        <time>2011-07-03T18:40:16Z</time>
      </trkpt>
      <trkpt lat="62.30334" lon="12.491315">
        <ele>842.588</ele>
        <time>2011-07-03T18:40:17Z</time>
      </trkpt>
      <trkpt lat="62.303341" lon="12.491179">
        <ele>841.921</ele>
        <time>2011-07-03T18:40:22Z</time>
      </trkpt>
      <trkpt lat="62.303399" lon="12.491127">
        <ele>841.384</ele>
        <time>2011-07-03T18:40:26Z</time>
      </trkpt>
      <trkpt lat="62.3034" lon="12.49092">
        <ele>839.581</ele>
        <time>2011-07-03T18:40:32Z</time>
      </trkpt>
      <trkpt lat="62.303401" lon="12.490882">
        <ele>839.296</ele>
        <time>2011-07-03T18:40:35Z</time>
      </trkpt>
      <trkpt lat="62.303432" lon="12.490794">
        <ele>837.572</ele>
        <time>2011-07-03T18:40:41Z</time>
      </trkpt>
      <trkpt lat="62.303427" lon="12.490753">
        <ele>837.511</ele>
        <time>2011-07-03T18:40:44Z</time>
      </trkpt>
      <trkpt lat="62.303388" lon="12.490607">
        <ele>836.321</ele>
        <time>2011-07-03T18:40:50Z</time>
      </trkpt>
      <trkpt lat="62.30338" lon="12.490491">
        <ele>835.193</ele>
        <time>2011-07-03T18:40:55Z</time>
      </trkpt>
      <trkpt lat="62.303355" lon="12.49031">
        <ele>833.883</ele>
        <time>2011-07-03T18:41:02Z</time>
      </trkpt>
      <trkpt lat="62.303317" lon="12.490099">
        <ele>833.177</ele>
        <time>2011-07-03T18:41:09Z</time>
      </trkpt>
      <trkpt lat="62.303361" lon="12.489934">
        <ele>832.134</ele>
        <time>2011-07-03T18:41:16Z</time>
      </trkpt>
      <trkpt lat="62.303374" lon="12.489922">
        <ele>832.077</ele>
        <time>2011-07-03T18:41:17Z</time>
      </trkpt>
      <trkpt lat="62.3034" lon="12.489764">
        <ele>831.14</ele>
        <time>2011-07-03T18:41:26Z</time>
      </trkpt>
      <trkpt lat="62.303371" lon="12.489504">
        <ele>830.164</ele>
        <time>2011-07-03T18:41:37Z</time>
      </trkpt>
      <trkpt lat="62.303373" lon="12.489478">
        <ele>830.103</ele>
        <time>2011-07-03T18:41:38Z</time>
      </trkpt>
      <trkpt lat="62.303358" lon="12.489311">
        <ele>829.109</ele>
        <time>2011-07-03T18:41:42Z</time>
      </trkpt>
      <trkpt lat="62.303359" lon="12.489054">
        <ele>828.073</ele>
        <time>2011-07-03T18:41:48Z</time>
      </trkpt>
      <trkpt lat="62.30336" lon="12.48901">
        <ele>828.067</ele>
        <time>2011-07-03T18:41:49Z</time>
      </trkpt>
      <trkpt lat="62.303375" lon="12.488643">
        <ele>826.856</ele>
        <time>2011-07-03T18:41:57Z</time>
      </trkpt>
      <trkpt lat="62.303355" lon="12.488296">
        <ele>825.608</ele>
        <time>2011-07-03T18:42:04Z</time>
      </trkpt>
      <trkpt lat="62.303325" lon="12.48801">
        <ele>824.922</ele>
        <time>2011-07-03T18:42:10Z</time>
      </trkpt>
      <trkpt lat="62.303342" lon="12.487739">
        <ele>824.582</ele>
        <time>2011-07-03T18:42:16Z</time>
      </trkpt>
      <trkpt lat="62.303344" lon="12.487589">
        <ele>824.069</ele>
        <time>2011-07-03T18:42:21Z</time>
      </trkpt>
      <trkpt lat="62.303338" lon="12.487344">
        <ele>822.574</ele>
        <time>2011-07-03T18:42:28Z</time>
      </trkpt>
      <trkpt lat="62.303334" lon="12.487062">
        <ele>821.363</ele>
        <time>2011-07-03T18:42:35Z</time>
      </trkpt>
      <trkpt lat="62.303305" lon="12.486818">
        <ele>820.634</ele>
        <time>2011-07-03T18:42:40Z</time>
      </trkpt>
      <trkpt lat="62.303303" lon="12.486499">
        <ele>820.409</ele>
        <time>2011-07-03T18:42:46Z</time>
      </trkpt>
      <trkpt lat="62.303312" lon="12.486311">
        <ele>820.183</ele>
        <time>2011-07-03T18:42:50Z</time>
      </trkpt>
      <trkpt lat="62.303305" lon="12.485969">
        <ele>819.628</ele>
        <time>2011-07-03T18:42:57Z</time>
      </trkpt>
      <trkpt lat="62.303282" lon="12.48563">
        <ele>819.287</ele>
        <time>2011-07-03T18:43:04Z</time>
      </trkpt>
      <trkpt lat="62.303308" lon="12.48536">
        <ele>817.783</ele>
        <time>2011-07-03T18:43:11Z</time>
      </trkpt>
      <trkpt lat="62.303337" lon="12.485145">
        <ele>815.97</ele>
        <time>2011-07-03T18:43:17Z</time>
      </trkpt>
      <trkpt lat="62.303345" lon="12.485118">
        <ele>815.711</ele>
        <time>2011-07-03T18:43:18Z</time>
      </trkpt>
      <trkpt lat="62.303415" lon="12.485002">
        <ele>814.929</ele>
        <time>2011-07-03T18:43:22Z</time>
      </trkpt>
      <trkpt lat="62.303478" lon="12.484879">
        <ele>813.989</ele>
        <time>2011-07-03T18:43:28Z</time>
      </trkpt>
      <trkpt lat="62.303537" lon="12.484764">
        <ele>812.989</ele>
        <time>2011-07-03T18:43:34Z</time>
      </trkpt>
      <trkpt lat="62.303547" lon="12.484743">
        <ele>812.823</ele>
        <time>2011-07-03T18:43:35Z</time>
      </trkpt>
      <trkpt lat="62.303593" lon="12.484626">
        <ele>812.193</ele>
        <time>2011-07-03T18:43:40Z</time>
      </trkpt>
      <trkpt lat="62.30366" lon="12.48444">
        <ele>810.777</ele>
        <time>2011-07-03T18:43:48Z</time>
      </trkpt>
      <trkpt lat="62.303682" lon="12.484413">
        <ele>810.231</ele>
        <time>2011-07-03T18:43:51Z</time>
      </trkpt>
      <trkpt lat="62.303709" lon="12.484469">
        <ele>810.476</ele>
        <time>2011-07-03T18:43:59Z</time>
      </trkpt>
      <trkpt lat="62.303739" lon="12.484479">
        <ele>810.279</ele>
        <time>2011-07-03T18:44:03Z</time>
      </trkpt>
      <trkpt lat="62.303733" lon="12.484294">
        <ele>809.727</ele>
        <time>2011-07-03T18:44:11Z</time>
      </trkpt>
      <trkpt lat="62.303751" lon="12.484096">
        <ele>809.243</ele>
        <time>2011-07-03T18:44:20Z</time>
      </trkpt>
      <trkpt lat="62.303766" lon="12.484072">
        <ele>809.082</ele>
        <time>2011-07-03T18:44:22Z</time>
      </trkpt>
      <trkpt lat="62.303796" lon="12.483979">
        <ele>809.056</ele>
        <time>2011-07-03T18:44:27Z</time>
      </trkpt>
      <trkpt lat="62.303839" lon="12.483922">
        <ele>808.813</ele>
        <time>2011-07-03T18:44:31Z</time>
      </trkpt>
      <trkpt lat="62.303869" lon="12.483803">
        <ele>808.146</ele>
        <time>2011-07-03T18:44:37Z</time>
      </trkpt>
      <trkpt lat="62.30387" lon="12.483722">
        <ele>807.875</ele>
        <time>2011-07-03T18:44:42Z</time>
      </trkpt>
      <trkpt lat="62.303934" lon="12.483618">
        <ele>807.323</ele>
        <time>2011-07-03T18:44:49Z</time>
      </trkpt>
      <trkpt lat="62.303997" lon="12.483508">
        <ele>806.87</ele>
        <time>2011-07-03T18:44:56Z</time>
      </trkpt>
      <trkpt lat="62.304078" lon="12.483389">
        <ele>806.525</ele>
        <time>2011-07-03T18:45:04Z</time>
      </trkpt>
      <trkpt lat="62.304154" lon="12.483275">
        <ele>806.005</ele>
        <time>2011-07-03T18:45:11Z</time>
      </trkpt>
      <trkpt lat="62.30418" lon="12.483232">
        <ele>805.771</ele>
        <time>2011-07-03T18:45:14Z</time>
      </trkpt>
      <trkpt lat="62.304224" lon="12.483053">
        <ele>804.983</ele>
        <time>2011-07-03T18:45:21Z</time>
      </trkpt>
      <trkpt lat="62.304233" lon="12.48301">
        <ele>805.072</ele>
        <time>2011-07-03T18:45:23Z</time>
      </trkpt>
      <trkpt lat="62.304284" lon="12.482907">
        <ele>804.48</ele>
        <time>2011-07-03T18:45:29Z</time>
      </trkpt>
      <trkpt lat="62.304311" lon="12.482833">
        <ele>804.298</ele>
        <time>2011-07-03T18:45:33Z</time>
      </trkpt>
      <trkpt lat="62.304409" lon="12.482678">
        <ele>803.342</ele>
        <time>2011-07-03T18:45:42Z</time>
      </trkpt>
      <trkpt lat="62.304426" lon="12.482619">
        <ele>803.129</ele>
        <time>2011-07-03T18:45:45Z</time>
      </trkpt>
      <trkpt lat="62.304438" lon="12.482471">
        <ele>802.67</ele>
        <time>2011-07-03T18:45:50Z</time>
      </trkpt>
      <trkpt lat="62.304483" lon="12.482334">
        <ele>802.13</ele>
        <time>2011-07-03T18:45:56Z</time>
      </trkpt>
      <trkpt lat="62.304493" lon="12.482183">
        <ele>800.799</ele>
        <time>2011-07-03T18:46:03Z</time>
      </trkpt>
      <trkpt lat="62.304465" lon="12.482057">
        <ele>799.939</ele>
        <time>2011-07-03T18:46:10Z</time>
      </trkpt>
      <trkpt lat="62.304454" lon="12.481975">
        <ele>799.721</ele>
        <time>2011-07-03T18:46:13Z</time>
      </trkpt>
      <trkpt lat="62.304414" lon="12.481767">
        <ele>799.783</ele>
        <time>2011-07-03T18:46:20Z</time>
      </trkpt>
      <trkpt lat="62.304398" lon="12.481697">
        <ele>799.546</ele>
        <time>2011-07-03T18:46:24Z</time>
      </trkpt>
      <trkpt lat="62.304418" lon="12.481551">
        <ele>799.299</ele>
        <time>2011-07-03T18:46:30Z</time>
      </trkpt>
      <trkpt lat="62.304556" lon="12.481484">
        <ele>798.274</ele>
        <time>2011-07-03T18:46:39Z</time>
      </trkpt>
      <trkpt lat="62.304654" lon="12.481339">
        <ele>797.577</ele>
        <time>2011-07-03T18:46:45Z</time>
      </trkpt>
      <trkpt lat="62.304682" lon="12.481251">
        <ele>797.277</ele>
        <time>2011-07-03T18:46:47Z</time>
      </trkpt>
      <trkpt lat="62.304725" lon="12.481162">
        <ele>797.078</ele>
        <time>2011-07-03T18:46:50Z</time>
      </trkpt>
      <trkpt lat="62.304763" lon="12.480949">
        <ele>796.032</ele>
        <time>2011-07-03T18:46:56Z</time>
      </trkpt>
      <trkpt lat="62.304833" lon="12.480748">
        <ele>795.887</ele>
        <time>2011-07-03T18:47:03Z</time>
      </trkpt>
      <trkpt lat="62.30491" lon="12.48053">
        <ele>796.665</ele>
        <time>2011-07-03T18:47:10Z</time>
      </trkpt>
      <trkpt lat="62.304925" lon="12.480506">
        <ele>796.698</ele>
        <time>2011-07-03T18:47:11Z</time>
      </trkpt>
      <trkpt lat="62.305" lon="12.480358">
        <ele>797.341</ele>
        <time>2011-07-03T18:47:17Z</time>
      </trkpt>
      <trkpt lat="62.305095" lon="12.480102">
        <ele>798.502</ele>
        <time>2011-07-03T18:47:26Z</time>
      </trkpt>
      <trkpt lat="62.305191" lon="12.47996">
        <ele>798.502</ele>
        <time>2011-07-03T18:47:33Z</time>
      </trkpt>
      <trkpt lat="62.305207" lon="12.47991">
        <ele>798.252</ele>
        <time>2011-07-03T18:47:35Z</time>
      </trkpt>
      <trkpt lat="62.305297" lon="12.479826">
        <ele>797.984</ele>
        <time>2011-07-03T18:47:42Z</time>
      </trkpt>
      <trkpt lat="62.305385" lon="12.479706">
        <ele>798.174</ele>
        <time>2011-07-03T18:47:50Z</time>
      </trkpt>
      <trkpt lat="62.305463" lon="12.479525">
        <ele>797.687</ele>
        <time>2011-07-03T18:47:58Z</time>
      </trkpt>
      <trkpt lat="62.305529" lon="12.479397">
        <ele>797.242</ele>
        <time>2011-07-03T18:48:05Z</time>
      </trkpt>
      <trkpt lat="62.30559" lon="12.479272">
        <ele>796.387</ele>
        <time>2011-07-03T18:48:11Z</time>
      </trkpt>
      <trkpt lat="62.305676" lon="12.479148">
        <ele>796.092</ele>
        <time>2011-07-03T18:48:18Z</time>
      </trkpt>
      <trkpt lat="62.305761" lon="12.479059">
        <ele>795.74</ele>
        <time>2011-07-03T18:48:24Z</time>
      </trkpt>
      <trkpt lat="62.305807" lon="12.478919">
        <ele>796.066</ele>
        <time>2011-07-03T18:48:31Z</time>
      </trkpt>
      <trkpt lat="62.305846" lon="12.478791">
        <ele>796.171</ele>
        <time>2011-07-03T18:48:38Z</time>
      </trkpt>
      <trkpt lat="62.305903" lon="12.478657">
        <ele>796.105</ele>
        <time>2011-07-03T18:48:45Z</time>
      </trkpt>
      <trkpt lat="62.305967" lon="12.478508">
        <ele>796.144</ele>
        <time>2011-07-03T18:48:54Z</time>
      </trkpt>
      <trkpt lat="62.305971" lon="12.47848">
        <ele>796.056</ele>
        <time>2011-07-03T18:48:55Z</time>
      </trkpt>
      <trkpt lat="62.306012" lon="12.478329">
        <ele>795.451</ele>
        <time>2011-07-03T18:49:02Z</time>
      </trkpt>
      <trkpt lat="62.306079" lon="12.47824">
        <ele>795.001</ele>
        <time>2011-07-03T18:49:08Z</time>
      </trkpt>
      <trkpt lat="62.306093" lon="12.478207">
        <ele>795.063</ele>
        <time>2011-07-03T18:49:10Z</time>
      </trkpt>
      <trkpt lat="62.306158" lon="12.478029">
        <ele>794.412</ele>
        <time>2011-07-03T18:49:18Z</time>
      </trkpt>
      <trkpt lat="62.306174" lon="12.477965">
        <ele>794.175</ele>
        <time>2011-07-03T18:49:22Z</time>
      </trkpt>
      <trkpt lat="62.306268" lon="12.477805">
        <ele>794.018</ele>
        <time>2011-07-03T18:49:32Z</time>
      </trkpt>
      <trkpt lat="62.30628" lon="12.477786">
        <ele>793.96</ele>
        <time>2011-07-03T18:49:33Z</time>
      </trkpt>
      <trkpt lat="62.30631" lon="12.477591">
        <ele>793.499</ele>
        <time>2011-07-03T18:49:41Z</time>
      </trkpt>
      <trkpt lat="62.306344" lon="12.477462">
        <ele>793.476</ele>
        <time>2011-07-03T18:49:47Z</time>
      </trkpt>
      <trkpt lat="62.30642" lon="12.47731">
        <ele>792.931</ele>
        <time>2011-07-03T18:49:55Z</time>
      </trkpt>
      <trkpt lat="62.306497" lon="12.477209">
        <ele>792.256</ele>
        <time>2011-07-03T18:50:02Z</time>
      </trkpt>
      <trkpt lat="62.306532" lon="12.477138">
        <ele>791.892</ele>
        <time>2011-07-03T18:50:06Z</time>
      </trkpt>
      <trkpt lat="62.306595" lon="12.476951">
        <ele>791.27</ele>
        <time>2011-07-03T18:50:14Z</time>
      </trkpt>
      <trkpt lat="62.30663" lon="12.476862">
        <ele>790.533</ele>
        <time>2011-07-03T18:50:19Z</time>
      </trkpt>
      <trkpt lat="62.306633" lon="12.476762">
        <ele>788.913</ele>
        <time>2011-07-03T18:50:24Z</time>
      </trkpt>
      <trkpt lat="62.30671" lon="12.476621">
        <ele>786.866</ele>
        <time>2011-07-03T18:50:33Z</time>
      </trkpt>
      <trkpt lat="62.306713" lon="12.47648">
        <ele>785.66</ele>
        <time>2011-07-03T18:50:39Z</time>
      </trkpt>
      <trkpt lat="62.306716" lon="12.476282">
        <ele>785.005</ele>
        <time>2011-07-03T18:50:46Z</time>
      </trkpt>
      <trkpt lat="62.306731" lon="12.476209">
        <ele>784.07</ele>
        <time>2011-07-03T18:50:50Z</time>
      </trkpt>
      <trkpt lat="62.306792" lon="12.476051">
        <ele>783.471</ele>
        <time>2011-07-03T18:50:59Z</time>
      </trkpt>
      <trkpt lat="62.306802" lon="12.475953">
        <ele>783.06</ele>
        <time>2011-07-03T18:51:04Z</time>
      </trkpt>
      <trkpt lat="62.306849" lon="12.475738">
        <ele>783.214</ele>
        <time>2011-07-03T18:51:12Z</time>
      </trkpt>
      <trkpt lat="62.30688" lon="12.475634">
        <ele>783.033</ele>
        <time>2011-07-03T18:51:17Z</time>
      </trkpt>
      <trkpt lat="62.306888" lon="12.475471">
        <ele>782.064</ele>
        <time>2011-07-03T18:51:23Z</time>
      </trkpt>
      <trkpt lat="62.30691" lon="12.475313">
        <ele>781.838</ele>
        <time>2011-07-03T18:51:30Z</time>
      </trkpt>
      <trkpt lat="62.306906" lon="12.475266">
        <ele>781.589</ele>
        <time>2011-07-03T18:51:32Z</time>
      </trkpt>
      <trkpt lat="62.306915" lon="12.47513">
        <ele>781.092</ele>
        <time>2011-07-03T18:51:38Z</time>
      </trkpt>
      <trkpt lat="62.306941" lon="12.475034">
        <ele>781.194</ele>
        <time>2011-07-03T18:51:43Z</time>
      </trkpt>
      <trkpt lat="62.306965" lon="12.474943">
        <ele>781.04</ele>
        <time>2011-07-03T18:51:48Z</time>
      </trkpt>
      <trkpt lat="62.306969" lon="12.474765">
        <ele>781.524</ele>
        <time>2011-07-03T18:51:55Z</time>
      </trkpt>
      <trkpt lat="62.307024" lon="12.474617">
        <ele>781.103</ele>
        <time>2011-07-03T18:52:02Z</time>
      </trkpt>
      <trkpt lat="62.307058" lon="12.47458">
        <ele>781.063</ele>
        <time>2011-07-03T18:52:05Z</time>
      </trkpt>
      <trkpt lat="62.30712" lon="12.474433">
        <ele>779.914</ele>
        <time>2011-07-03T18:52:12Z</time>
      </trkpt>
      <trkpt lat="62.307133" lon="12.474411">
        <ele>779.885</ele>
        <time>2011-07-03T18:52:13Z</time>
      </trkpt>
      <trkpt lat="62.307199" lon="12.47421">
        <ele>778.535</ele>
        <time>2011-07-03T18:52:19Z</time>
      </trkpt>
      <trkpt lat="62.307255" lon="12.474147">
        <ele>777.921</ele>
        <time>2011-07-03T18:52:23Z</time>
      </trkpt>
      <trkpt lat="62.307287" lon="12.474076">
        <ele>777.607</ele>
        <time>2011-07-03T18:52:26Z</time>
      </trkpt>
      <trkpt lat="62.307358" lon="12.474004">
        <ele>776.649</ele>
        <time>2011-07-03T18:52:31Z</time>
      </trkpt>
      <trkpt lat="62.307446" lon="12.473907">
        <ele>775.916</ele>
        <time>2011-07-03T18:52:37Z</time>
      </trkpt>
      <trkpt lat="62.307544" lon="12.473768">
        <ele>774.843</ele>
        <time>2011-07-03T18:52:43Z</time>
      </trkpt>
      <trkpt lat="62.307682" lon="12.473627">
        <ele>772.948</ele>
        <time>2011-07-03T18:52:50Z</time>
      </trkpt>
      <trkpt lat="62.307745" lon="12.473426">
        <ele>771.902</ele>
        <time>2011-07-03T18:52:55Z</time>
      </trkpt>
      <trkpt lat="62.307797" lon="12.473267">
        <ele>771.513</ele>
        <time>2011-07-03T18:53:00Z</time>
      </trkpt>
      <trkpt lat="62.307853" lon="12.473182">
        <ele>770.406</ele>
        <time>2011-07-03T18:53:06Z</time>
      </trkpt>
      <trkpt lat="62.30788" lon="12.47312">
        <ele>770.283</ele>
        <time>2011-07-03T18:53:10Z</time>
      </trkpt>
      <trkpt lat="62.307883" lon="12.473115">
        <ele>770.397</ele>
        <time>2011-07-03T18:53:11Z</time>
      </trkpt>
      <trkpt lat="62.307924" lon="12.473034">
        <ele>770.754</ele>
        <time>2011-07-03T18:53:19Z</time>
      </trkpt>
      <trkpt lat="62.307975" lon="12.472893">
        <ele>770.352</ele>
        <time>2011-07-03T18:53:26Z</time>
      </trkpt>
      <trkpt lat="62.307997" lon="12.472796">
        <ele>770.763</ele>
        <time>2011-07-03T18:53:32Z</time>
      </trkpt>
      <trkpt lat="62.308039" lon="12.472731">
        <ele>771.036</ele>
        <time>2011-07-03T18:53:38Z</time>
      </trkpt>
      <trkpt lat="62.308061" lon="12.472652">
        <ele>771.064</ele>
        <time>2011-07-03T18:53:43Z</time>
      </trkpt>
      <trkpt lat="62.308117" lon="12.472561">
        <ele>771.423</ele>
        <time>2011-07-03T18:53:50Z</time>
      </trkpt>
      <trkpt lat="62.308139" lon="12.472486">
        <ele>770.595</ele>
        <time>2011-07-03T18:53:55Z</time>
      </trkpt>
      <trkpt lat="62.308204" lon="12.472408">
        <ele>769.449</ele>
        <time>2011-07-03T18:54:02Z</time>
      </trkpt>
      <trkpt lat="62.308243" lon="12.472334">
        <ele>770.001</ele>
        <time>2011-07-03T18:54:07Z</time>
      </trkpt>
      <trkpt lat="62.308297" lon="12.4723">
        <ele>769.314</ele>
        <time>2011-07-03T18:54:12Z</time>
      </trkpt>
      <trkpt lat="62.308339" lon="12.472224">
        <ele>769.262</ele>
        <time>2011-07-03T18:54:17Z</time>
      </trkpt>
      <trkpt lat="62.308398" lon="12.472131">
        <ele>768.894</ele>
        <time>2011-07-03T18:54:24Z</time>
      </trkpt>
      <trkpt lat="62.308461" lon="12.472083">
        <ele>768.71</ele>
        <time>2011-07-03T18:54:30Z</time>
      </trkpt>
      <trkpt lat="62.308482" lon="12.472055">
        <ele>768.486</ele>
        <time>2011-07-03T18:54:33Z</time>
      </trkpt>
      <trkpt lat="62.308531" lon="12.471927">
        <ele>768.23</ele>
        <time>2011-07-03T18:54:40Z</time>
      </trkpt>
      <trkpt lat="62.308599" lon="12.471866">
        <ele>768.509</ele>
        <time>2011-07-03T18:54:47Z</time>
      </trkpt>
      <trkpt lat="62.308651" lon="12.471795">
        <ele>768.636</ele>
        <time>2011-07-03T18:54:52Z</time>
      </trkpt>
      <trkpt lat="62.308703" lon="12.471663">
        <ele>768.483</ele>
        <time>2011-07-03T18:54:58Z</time>
      </trkpt>
      <trkpt lat="62.308748" lon="12.47161">
        <ele>768.194</ele>
        <time>2011-07-03T18:55:04Z</time>
      </trkpt>
      <trkpt lat="62.3088" lon="12.471588">
        <ele>767.82</ele>
        <time>2011-07-03T18:55:09Z</time>
      </trkpt>
      <trkpt lat="62.308838" lon="12.471535">
        <ele>767.61</ele>
        <time>2011-07-03T18:55:14Z</time>
      </trkpt>
      <trkpt lat="62.308965" lon="12.471414">
        <ele>767.138</ele>
        <time>2011-07-03T18:55:28Z</time>
      </trkpt>
      <trkpt lat="62.308996" lon="12.471335">
        <ele>767.075</ele>
        <time>2011-07-03T18:55:33Z</time>
      </trkpt>
      <trkpt lat="62.309039" lon="12.471232">
        <ele>766.485</ele>
        <time>2011-07-03T18:55:39Z</time>
      </trkpt>
      <trkpt lat="62.309099" lon="12.471208">
        <ele>766.083</ele>
        <time>2011-07-03T18:55:44Z</time>
      </trkpt>
      <trkpt lat="62.309151" lon="12.471131">
        <ele>765.021</ele>
        <time>2011-07-03T18:55:50Z</time>
      </trkpt>
      <trkpt lat="62.309205" lon="12.470947">
        <ele>764.503</ele>
        <time>2011-07-03T18:55:58Z</time>
      </trkpt>
      <trkpt lat="62.309351" lon="12.470742">
        <ele>764.082</ele>
        <time>2011-07-03T18:56:07Z</time>
      </trkpt>
      <trkpt lat="62.3095" lon="12.470584">
        <ele>764.058</ele>
        <time>2011-07-03T18:56:12Z</time>
      </trkpt>
      <trkpt lat="62.309599" lon="12.470547">
        <ele>763.795</ele>
        <time>2011-07-03T18:56:17Z</time>
      </trkpt>
      <trkpt lat="62.309663" lon="12.470511">
        <ele>764.513</ele>
        <time>2011-07-03T18:56:21Z</time>
      </trkpt>
      <trkpt lat="62.3099" lon="12.470511">
        <ele>766.295</ele>
        <time>2011-07-03T18:56:30Z</time>
      </trkpt>
      <trkpt lat="62.309921" lon="12.470527">
        <ele>766.473</ele>
        <time>2011-07-03T18:56:31Z</time>
      </trkpt>
      <trkpt lat="62.310056" lon="12.470591">
        <ele>767.689</ele>
        <time>2011-07-03T18:56:39Z</time>
      </trkpt>
      <trkpt lat="62.310132" lon="12.470612">
        <ele>768.819</ele>
        <time>2011-07-03T18:56:45Z</time>
      </trkpt>
      <trkpt lat="62.310167" lon="12.47061">
        <ele>769.319</ele>
        <time>2011-07-03T18:56:49Z</time>
      </trkpt>
      <trkpt lat="62.310198" lon="12.470598">
        <ele>769.562</ele>
        <time>2011-07-03T18:56:52Z</time>
      </trkpt>
      <trkpt lat="62.310322" lon="12.47065">
        <ele>769.98</ele>
        <time>2011-07-03T18:57:00Z</time>
      </trkpt>
      <trkpt lat="62.310406" lon="12.47067">
        <ele>771.068</ele>
        <time>2011-07-03T18:57:06Z</time>
      </trkpt>
      <trkpt lat="62.310434" lon="12.470676">
        <ele>771.398</ele>
        <time>2011-07-03T18:57:08Z</time>
      </trkpt>
      <trkpt lat="62.310541" lon="12.470728">
        <ele>771.985</ele>
        <time>2011-07-03T18:57:15Z</time>
      </trkpt>
      <trkpt lat="62.310554" lon="12.470732">
        <ele>772.101</ele>
        <time>2011-07-03T18:57:16Z</time>
      </trkpt>
      <trkpt lat="62.310673" lon="12.470811">
        <ele>772.693</ele>
        <time>2011-07-03T18:57:24Z</time>
      </trkpt>
      <trkpt lat="62.310756" lon="12.470826">
        <ele>772.653</ele>
        <time>2011-07-03T18:57:30Z</time>
      </trkpt>
      <trkpt lat="62.310805" lon="12.47084">
        <ele>772.692</ele>
        <time>2011-07-03T18:57:34Z</time>
      </trkpt>
      <trkpt lat="62.310915" lon="12.470872">
        <ele>773.508</ele>
        <time>2011-07-03T18:57:42Z</time>
      </trkpt>
      <trkpt lat="62.310952" lon="12.470879">
        <ele>773.775</ele>
        <time>2011-07-03T18:57:45Z</time>
      </trkpt>
      <trkpt lat="62.311021" lon="12.470913">
        <ele>774.454</ele>
        <time>2011-07-03T18:57:50Z</time>
      </trkpt>
      <trkpt lat="62.311115" lon="12.470903">
        <ele>775.232</ele>
        <time>2011-07-03T18:57:57Z</time>
      </trkpt>
      <trkpt lat="62.311199" lon="12.470954">
        <ele>774.713</ele>
        <time>2011-07-03T18:58:04Z</time>
      </trkpt>
      <trkpt lat="62.311212" lon="12.470956">
        <ele>774.388</ele>
        <time>2011-07-03T18:58:05Z</time>
      </trkpt>
      <trkpt lat="62.311249" lon="12.470953">
        <ele>773.734</ele>
        <time>2011-07-03T18:58:08Z</time>
      </trkpt>
      <trkpt lat="62.311293" lon="12.471022">
        <ele>773.332</ele>
        <time>2011-07-03T18:58:13Z</time>
      </trkpt>
      <trkpt lat="62.311315" lon="12.47108">
        <ele>773.226</ele>
        <time>2011-07-03T18:58:18Z</time>
      </trkpt>
      <trkpt lat="62.311323" lon="12.471104">
        <ele>773.095</ele>
        <time>2011-07-03T18:58:19Z</time>
      </trkpt>
      <trkpt lat="62.311347" lon="12.471206">
        <ele>772.582</ele>
        <time>2011-07-03T18:58:23Z</time>
      </trkpt>
      <trkpt lat="62.311415" lon="12.471237">
        <ele>771.221</ele>
        <time>2011-07-03T18:58:30Z</time>
      </trkpt>
      <trkpt lat="62.311462" lon="12.471388">
        <ele>769.524</ele>
        <time>2011-07-03T18:58:37Z</time>
      </trkpt>
      <trkpt lat="62.311494" lon="12.471477">
        <ele>769.954</ele>
        <time>2011-07-03T18:58:43Z</time>
      </trkpt>
      <trkpt lat="62.311542" lon="12.471583">
        <ele>769.416</ele>
        <time>2011-07-03T18:58:50Z</time>
      </trkpt>
      <trkpt lat="62.311629" lon="12.471634">
        <ele>770.107</ele>
        <time>2011-07-03T18:58:57Z</time>
      </trkpt>
      <trkpt lat="62.311706" lon="12.47167">
        <ele>771.33</ele>
        <time>2011-07-03T18:59:05Z</time>
      </trkpt>
      <trkpt lat="62.311781" lon="12.471737">
        <ele>771.464</ele>
        <time>2011-07-03T18:59:11Z</time>
      </trkpt>
      <trkpt lat="62.311864" lon="12.471696">
        <ele>771.653</ele>
        <time>2011-07-03T18:59:19Z</time>
      </trkpt>
      <trkpt lat="62.311917" lon="12.471602">
        <ele>772.017</ele>
        <time>2011-07-03T18:59:27Z</time>
      </trkpt>
      <trkpt lat="62.311951" lon="12.471546">
        <ele>772.597</ele>
        <time>2011-07-03T18:59:31Z</time>
      </trkpt>
      <trkpt lat="62.312002" lon="12.471493">
        <ele>772.571</ele>
        <time>2011-07-03T18:59:36Z</time>
      </trkpt>
      <trkpt lat="62.31203" lon="12.471498">
        <ele>772.115</ele>
        <time>2011-07-03T18:59:39Z</time>
      </trkpt>
      <trkpt lat="62.312107" lon="12.471361">
        <ele>771.106</ele>
        <time>2011-07-03T18:59:47Z</time>
      </trkpt>
      <trkpt lat="62.312128" lon="12.471338">
        <ele>770.941</ele>
        <time>2011-07-03T18:59:49Z</time>
      </trkpt>
      <trkpt lat="62.312232" lon="12.471331">
        <ele>771.866</ele>
        <time>2011-07-03T18:59:56Z</time>
      </trkpt>
      <trkpt lat="62.312323" lon="12.471294">
        <ele>772.108</ele>
        <time>2011-07-03T19:00:03Z</time>
      </trkpt>
      <trkpt lat="62.312347" lon="12.471295">
        <ele>771.974</ele>
        <time>2011-07-03T19:00:05Z</time>
      </trkpt>
      <trkpt lat="62.312383" lon="12.471314">
        <ele>771.746</ele>
        <time>2011-07-03T19:00:07Z</time>
      </trkpt>
      <trkpt lat="62.3125" lon="12.471323">
        <ele>771.802</ele>
        <time>2011-07-03T19:00:16Z</time>
      </trkpt>
      <trkpt lat="62.312542" lon="12.471312">
        <ele>771.829</ele>
        <time>2011-07-03T19:00:20Z</time>
      </trkpt>
      <trkpt lat="62.312601" lon="12.471291">
        <ele>771.604</ele>
        <time>2011-07-03T19:00:25Z</time>
      </trkpt>
      <trkpt lat="62.31267" lon="12.471237">
        <ele>771.417</ele>
        <time>2011-07-03T19:00:31Z</time>
      </trkpt>
      <trkpt lat="62.312713" lon="12.471207">
        <ele>771.731</ele>
        <time>2011-07-03T19:00:36Z</time>
      </trkpt>
      <trkpt lat="62.312766" lon="12.471158">
        <ele>771.463</ele>
        <time>2011-07-03T19:00:41Z</time>
      </trkpt>
      <trkpt lat="62.312783" lon="12.471135">
        <ele>771.521</ele>
        <time>2011-07-03T19:00:43Z</time>
      </trkpt>
      <trkpt lat="62.312849" lon="12.471064">
        <ele>771.02</ele>
        <time>2011-07-03T19:00:49Z</time>
      </trkpt>
      <trkpt lat="62.312882" lon="12.471052">
        <ele>769.89</ele>
        <time>2011-07-03T19:00:54Z</time>
      </trkpt>
      <trkpt lat="62.312895" lon="12.471025">
        <ele>769.76</ele>
        <time>2011-07-03T19:00:56Z</time>
      </trkpt>
      <trkpt lat="62.312935" lon="12.470973">
        <ele>770.331</ele>
        <time>2011-07-03T19:01:01Z</time>
      </trkpt>
      <trkpt lat="62.313024" lon="12.470919">
        <ele>771.88</ele>
        <time>2011-07-03T19:01:10Z</time>
      </trkpt>
      <trkpt lat="62.313024" lon="12.470902">
        <ele>771.938</ele>
        <time>2011-07-03T19:01:11Z</time>
      </trkpt>
      <trkpt lat="62.31311" lon="12.470883">
        <ele>771.672</ele>
        <time>2011-07-03T19:01:15Z</time>
      </trkpt>
      <trkpt lat="62.31319" lon="12.470751">
        <ele>771.184</ele>
        <time>2011-07-03T19:01:23Z</time>
      </trkpt>
      <trkpt lat="62.313255" lon="12.470596">
        <ele>770.332</ele>
        <time>2011-07-03T19:01:30Z</time>
      </trkpt>
      <trkpt lat="62.31327" lon="12.470571">
        <ele>770.43</ele>
        <time>2011-07-03T19:01:32Z</time>
      </trkpt>
      <trkpt lat="62.31341" lon="12.47062">
        <ele>771.175</ele>
        <time>2011-07-03T19:01:42Z</time>
      </trkpt>
      <trkpt lat="62.313473" lon="12.470621">
        <ele>772.658</ele>
        <time>2011-07-03T19:01:48Z</time>
      </trkpt>
      <trkpt lat="62.313535" lon="12.470635">
        <ele>773.429</ele>
        <time>2011-07-03T19:01:53Z</time>
      </trkpt>
      <trkpt lat="62.313568" lon="12.470634">
        <ele>773.675</ele>
        <time>2011-07-03T19:01:55Z</time>
      </trkpt>
      <trkpt lat="62.313681" lon="12.47065">
        <ele>773.828</ele>
        <time>2011-07-03T19:02:04Z</time>
      </trkpt>
      <trkpt lat="62.313715" lon="12.470649">
        <ele>773.841</ele>
        <time>2011-07-03T19:02:08Z</time>
      </trkpt>
      <trkpt lat="62.313749" lon="12.470645">
        <ele>774.099</ele>
        <time>2011-07-03T19:02:12Z</time>
      </trkpt>
      <trkpt lat="62.313802" lon="12.470645">
        <ele>774.414</ele>
        <time>2011-07-03T19:02:17Z</time>
      </trkpt>
      <trkpt lat="62.313849" lon="12.470663">
        <ele>774.395</ele>
        <time>2011-07-03T19:02:22Z</time>
      </trkpt>
      <trkpt lat="62.313958" lon="12.470639">
        <ele>774.189</ele>
        <time>2011-07-03T19:02:33Z</time>
      </trkpt>
      <trkpt lat="62.314041" lon="12.470645">
        <ele>773.773</ele>
        <time>2011-07-03T19:02:40Z</time>
      </trkpt>
      <trkpt lat="62.314125" lon="12.47061">
        <ele>773.698</ele>
        <time>2011-07-03T19:02:48Z</time>
      </trkpt>
      <trkpt lat="62.314256" lon="12.470594">
        <ele>773.215</ele>
        <time>2011-07-03T19:02:56Z</time>
      </trkpt>
      <trkpt lat="62.314273" lon="12.470592">
        <ele>773.1</ele>
        <time>2011-07-03T19:02:57Z</time>
      </trkpt>
      <trkpt lat="62.31432" lon="12.470578">
        <ele>772.126</ele>
        <time>2011-07-03T19:03:02Z</time>
      </trkpt>
      <trkpt lat="62.314399" lon="12.470503">
        <ele>771.958</ele>
        <time>2011-07-03T19:03:11Z</time>
      </trkpt>
      <trkpt lat="62.314461" lon="12.47047">
        <ele>771.763</ele>
        <time>2011-07-03T19:03:17Z</time>
      </trkpt>
      <trkpt lat="62.314533" lon="12.47042">
        <ele>771.171</ele>
        <time>2011-07-03T19:03:24Z</time>
      </trkpt>
      <trkpt lat="62.314634" lon="12.470422">
        <ele>771.451</ele>
        <time>2011-07-03T19:03:32Z</time>
      </trkpt>
      <trkpt lat="62.314729" lon="12.470475">
        <ele>770.975</ele>
        <time>2011-07-03T19:03:40Z</time>
      </trkpt>
      <trkpt lat="62.314736" lon="12.470479">
        <ele>771.138</ele>
        <time>2011-07-03T19:03:41Z</time>
      </trkpt>
      <trkpt lat="62.314813" lon="12.470549">
        <ele>771.029</ele>
        <time>2011-07-03T19:03:49Z</time>
      </trkpt>
      <trkpt lat="62.31486" lon="12.470544">
        <ele>770.456</ele>
        <time>2011-07-03T19:03:55Z</time>
      </trkpt>
      <trkpt lat="62.314902" lon="12.470545">
        <ele>769.521</ele>
        <time>2011-07-03T19:04:01Z</time>
      </trkpt>
      <trkpt lat="62.314912" lon="12.470548">
        <ele>769.476</ele>
        <time>2011-07-03T19:04:02Z</time>
      </trkpt>
      <trkpt lat="62.314962" lon="12.470538">
        <ele>769.777</ele>
        <time>2011-07-03T19:04:07Z</time>
      </trkpt>
      <trkpt lat="62.315" lon="12.470525">
        <ele>769.755</ele>
        <time>2011-07-03T19:04:12Z</time>
      </trkpt>
      <trkpt lat="62.315086" lon="12.470535">
        <ele>769.887</ele>
        <time>2011-07-03T19:04:20Z</time>
      </trkpt>
      <trkpt lat="62.315132" lon="12.470484">
        <ele>769.067</ele>
        <time>2011-07-03T19:04:27Z</time>
      </trkpt>
      <trkpt lat="62.315181" lon="12.47045">
        <ele>768.254</ele>
        <time>2011-07-03T19:04:33Z</time>
      </trkpt>
      <trkpt lat="62.31522" lon="12.470408">
        <ele>768.056</ele>
        <time>2011-07-03T19:04:39Z</time>
      </trkpt>
      <trkpt lat="62.3153" lon="12.470347">
        <ele>766.812</ele>
        <time>2011-07-03T19:04:47Z</time>
      </trkpt>
      <trkpt lat="62.315332" lon="12.470256">
        <ele>766.292</ele>
        <time>2011-07-03T19:04:53Z</time>
      </trkpt>
      <trkpt lat="62.315334" lon="12.470225">
        <ele>766.158</ele>
        <time>2011-07-03T19:04:56Z</time>
      </trkpt>
      <trkpt lat="62.315386" lon="12.47021">
        <ele>764.27</ele>
        <time>2011-07-03T19:05:04Z</time>
      </trkpt>
      <trkpt lat="62.315429" lon="12.470102">
        <ele>763.324</ele>
        <time>2011-07-03T19:05:09Z</time>
      </trkpt>
      <trkpt lat="62.315489" lon="12.469986">
        <ele>761.378</ele>
        <time>2011-07-03T19:05:15Z</time>
      </trkpt>
      <trkpt lat="62.315496" lon="12.469962">
        <ele>760.669</ele>
        <time>2011-07-03T19:05:17Z</time>
      </trkpt>
      <trkpt lat="62.315564" lon="12.469789">
        <ele>758.54</ele>
        <time>2011-07-03T19:05:29Z</time>
      </trkpt>
      <trkpt lat="62.315606" lon="12.469691">
        <ele>758.197</ele>
        <time>2011-07-03T19:05:35Z</time>
      </trkpt>
      <trkpt lat="62.315633" lon="12.469632">
        <ele>757.644</ele>
        <time>2011-07-03T19:05:40Z</time>
      </trkpt>
      <trkpt lat="62.315672" lon="12.469559">
        <ele>756.908</ele>
        <time>2011-07-03T19:05:48Z</time>
      </trkpt>
      <trkpt lat="62.315721" lon="12.469474">
        <ele>756.143</ele>
        <time>2011-07-03T19:05:56Z</time>
      </trkpt>
      <trkpt lat="62.315759" lon="12.469468">
        <ele>755.904</ele>
        <time>2011-07-03T19:06:01Z</time>
      </trkpt>
      <trkpt lat="62.315797" lon="12.469455">
        <ele>755.653</ele>
        <time>2011-07-03T19:06:06Z</time>
      </trkpt>
      <trkpt lat="62.315833" lon="12.4693">
        <ele>755.709</ele>
        <time>2011-07-03T19:06:14Z</time>
      </trkpt>
      <trkpt lat="62.31589" lon="12.469192">
        <ele>755.56</ele>
        <time>2011-07-03T19:06:20Z</time>
      </trkpt>
      <trkpt lat="62.316027" lon="12.469107">
        <ele>754.529</ele>
        <time>2011-07-03T19:06:29Z</time>
      </trkpt>
      <trkpt lat="62.316044" lon="12.469009">
        <ele>754.45</ele>
        <time>2011-07-03T19:06:35Z</time>
      </trkpt>
      <trkpt lat="62.316097" lon="12.46893">
        <ele>754.413</ele>
        <time>2011-07-03T19:06:39Z</time>
      </trkpt>
      <trkpt lat="62.316187" lon="12.46886">
        <ele>754.221</ele>
        <time>2011-07-03T19:06:45Z</time>
      </trkpt>
      <trkpt lat="62.31631" lon="12.468749">
        <ele>754.084</ele>
        <time>2011-07-03T19:06:52Z</time>
      </trkpt>
      <trkpt lat="62.316449" lon="12.468614">
        <ele>754.186</ele>
        <time>2011-07-03T19:06:59Z</time>
      </trkpt>
      <trkpt lat="62.316529" lon="12.468445">
        <ele>754.232</ele>
        <time>2011-07-03T19:07:08Z</time>
      </trkpt>
      <trkpt lat="62.316569" lon="12.468329">
        <ele>753.682</ele>
        <time>2011-07-03T19:07:15Z</time>
      </trkpt>
      <trkpt lat="62.316625" lon="12.468212">
        <ele>753.408</ele>
        <time>2011-07-03T19:07:22Z</time>
      </trkpt>
      <trkpt lat="62.316671" lon="12.468008">
        <ele>753.391</ele>
        <time>2011-07-03T19:07:30Z</time>
      </trkpt>
      <trkpt lat="62.316743" lon="12.467878">
        <ele>752.834</ele>
        <time>2011-07-03T19:07:39Z</time>
      </trkpt>
      <trkpt lat="62.316843" lon="12.467778">
        <ele>752.58</ele>
        <time>2011-07-03T19:07:47Z</time>
      </trkpt>
      <trkpt lat="62.316928" lon="12.467708">
        <ele>752.348</ele>
        <time>2011-07-03T19:07:54Z</time>
      </trkpt>
      <trkpt lat="62.316996" lon="12.467677">
        <ele>752.258</ele>
        <time>2011-07-03T19:08:01Z</time>
      </trkpt>
      <trkpt lat="62.317056" lon="12.467635">
        <ele>752.105</ele>
        <time>2011-07-03T19:08:07Z</time>
      </trkpt>
      <trkpt lat="62.317072" lon="12.467629">
        <ele>752.069</ele>
        <time>2011-07-03T19:08:08Z</time>
      </trkpt>
      <trkpt lat="62.317139" lon="12.46766">
        <ele>751.961</ele>
        <time>2011-07-03T19:08:14Z</time>
      </trkpt>
      <trkpt lat="62.317211" lon="12.467769">
        <ele>751.993</ele>
        <time>2011-07-03T19:08:45Z</time>
      </trkpt>
      <trkpt lat="62.317348" lon="12.467911">
        <ele>751.647</ele>
        <time>2011-07-03T19:09:14Z</time>
      </trkpt>
      <trkpt lat="62.317431" lon="12.468027">
        <ele>752.03</ele>
        <time>2011-07-03T19:09:21Z</time>
      </trkpt>
      <trkpt lat="62.317518" lon="12.468134">
        <ele>753.642</ele>
        <time>2011-07-03T19:09:30Z</time>
      </trkpt>
      <trkpt lat="62.317595" lon="12.468159">
        <ele>752.882</ele>
        <time>2011-07-03T19:09:38Z</time>
      </trkpt>
      <trkpt lat="62.317663" lon="12.468157">
        <ele>752.541</ele>
        <time>2011-07-03T19:09:45Z</time>
      </trkpt>
      <trkpt lat="62.317777" lon="12.468109">
        <ele>752.909</ele>
        <time>2011-07-03T19:09:55Z</time>
      </trkpt>
      <trkpt lat="62.317846" lon="12.468026">
        <ele>753.1</ele>
        <time>2011-07-03T19:10:01Z</time>
      </trkpt>
      <trkpt lat="62.317939" lon="12.467999">
        <ele>752.553</ele>
        <time>2011-07-03T19:10:09Z</time>
      </trkpt>
      <trkpt lat="62.318059" lon="12.468014">
        <ele>751.366</ele>
        <time>2011-07-03T19:10:17Z</time>
      </trkpt>
      <trkpt lat="62.318178" lon="12.468044">
        <ele>750.659</ele>
        <time>2011-07-03T19:10:25Z</time>
      </trkpt>
      <trkpt lat="62.31831" lon="12.468127">
        <ele>750.388</ele>
        <time>2011-07-03T19:10:34Z</time>
      </trkpt>
      <trkpt lat="62.318409" lon="12.468223">
        <ele>750.142</ele>
        <time>2011-07-03T19:10:43Z</time>
      </trkpt>
      <trkpt lat="62.31848" lon="12.46827">
        <ele>750.122</ele>
        <time>2011-07-03T19:10:49Z</time>
      </trkpt>
      <trkpt lat="62.318488" lon="12.468284">
        <ele>750.053</ele>
        <time>2011-07-03T19:10:50Z</time>
      </trkpt>
      <trkpt lat="62.318578" lon="12.468356">
        <ele>749.675</ele>
        <time>2011-07-03T19:10:57Z</time>
      </trkpt>
      <trkpt lat="62.318687" lon="12.468451">
        <ele>749.777</ele>
        <time>2011-07-03T19:11:05Z</time>
      </trkpt>
      <trkpt lat="62.3188" lon="12.468539">
        <ele>749.148</ele>
        <time>2011-07-03T19:11:14Z</time>
      </trkpt>
      <trkpt lat="62.318847" lon="12.468614">
        <ele>749.52</ele>
        <time>2011-07-03T19:11:18Z</time>
      </trkpt>
      <trkpt lat="62.318921" lon="12.468646">
        <ele>749.813</ele>
        <time>2011-07-03T19:11:24Z</time>
      </trkpt>
      <trkpt lat="62.31897" lon="12.468693">
        <ele>749.403</ele>
        <time>2011-07-03T19:11:28Z</time>
      </trkpt>
      <trkpt lat="62.318998" lon="12.468736">
        <ele>749.401</ele>
        <time>2011-07-03T19:11:30Z</time>
      </trkpt>
      <trkpt lat="62.319064" lon="12.468758">
        <ele>749.175</ele>
        <time>2011-07-03T19:11:35Z</time>
      </trkpt>
      <trkpt lat="62.319133" lon="12.468894">
        <ele>749.412</ele>
        <time>2011-07-03T19:11:43Z</time>
      </trkpt>
      <trkpt lat="62.3192" lon="12.469029">
        <ele>749.646</ele>
        <time>2011-07-03T19:11:50Z</time>
      </trkpt>
      <trkpt lat="62.319274" lon="12.469107">
        <ele>750.031</ele>
        <time>2011-07-03T19:11:58Z</time>
      </trkpt>
      <trkpt lat="62.319321" lon="12.469129">
        <ele>749.747</ele>
        <time>2011-07-03T19:12:02Z</time>
      </trkpt>
      <trkpt lat="62.319394" lon="12.469207">
        <ele>749.834</ele>
        <time>2011-07-03T19:12:08Z</time>
      </trkpt>
      <trkpt lat="62.319442" lon="12.469228">
        <ele>749.91</ele>
        <time>2011-07-03T19:12:12Z</time>
      </trkpt>
      <trkpt lat="62.319502" lon="12.469298">
        <ele>750.444</ele>
        <time>2011-07-03T19:12:18Z</time>
      </trkpt>
      <trkpt lat="62.31958" lon="12.469369">
        <ele>750.442</ele>
        <time>2011-07-03T19:12:25Z</time>
      </trkpt>
      <trkpt lat="62.319675" lon="12.469466">
        <ele>750.485</ele>
        <time>2011-07-03T19:12:34Z</time>
      </trkpt>
      <trkpt lat="62.319712" lon="12.469501">
        <ele>750.684</ele>
        <time>2011-07-03T19:12:37Z</time>
      </trkpt>
      <trkpt lat="62.319785" lon="12.469538">
        <ele>751.245</ele>
        <time>2011-07-03T19:12:43Z</time>
      </trkpt>
      <trkpt lat="62.319853" lon="12.469593">
        <ele>751.109</ele>
        <time>2011-07-03T19:12:50Z</time>
      </trkpt>
      <trkpt lat="62.319898" lon="12.469674">
        <ele>750.789</ele>
        <time>2011-07-03T19:12:55Z</time>
      </trkpt>
      <trkpt lat="62.319943" lon="12.469717">
        <ele>750.582</ele>
        <time>2011-07-03T19:12:59Z</time>
      </trkpt>
      <trkpt lat="62.320035" lon="12.469734">
        <ele>750.828</ele>
        <time>2011-07-03T19:13:07Z</time>
      </trkpt>
      <trkpt lat="62.320054" lon="12.469726">
        <ele>750.765</ele>
        <time>2011-07-03T19:13:11Z</time>
      </trkpt>
      <trkpt lat="62.320083" lon="12.46973">
        <ele>750.674</ele>
        <time>2011-07-03T19:13:15Z</time>
      </trkpt>
      <trkpt lat="62.320127" lon="12.469801">
        <ele>750.232</ele>
        <time>2011-07-03T19:13:21Z</time>
      </trkpt>
      <trkpt lat="62.32015" lon="12.469891">
        <ele>750.539</ele>
        <time>2011-07-03T19:13:27Z</time>
      </trkpt>
      <trkpt lat="62.32019" lon="12.470083">
        <ele>750.673</ele>
        <time>2011-07-03T19:13:38Z</time>
      </trkpt>
      <trkpt lat="62.320209" lon="12.470168">
        <ele>750.97</ele>
        <time>2011-07-03T19:13:42Z</time>
      </trkpt>
      <trkpt lat="62.320232" lon="12.470275">
        <ele>751.216</ele>
        <time>2011-07-03T19:13:48Z</time>
      </trkpt>
      <trkpt lat="62.32026" lon="12.470379">
        <ele>750.795</ele>
        <time>2011-07-03T19:13:53Z</time>
      </trkpt>
      <trkpt lat="62.320302" lon="12.470348">
        <ele>750.297</ele>
        <time>2011-07-03T19:13:59Z</time>
      </trkpt>
      <trkpt lat="62.320337" lon="12.470343">
        <ele>750.359</ele>
        <time>2011-07-03T19:14:02Z</time>
      </trkpt>
      <trkpt lat="62.320425" lon="12.470305">
        <ele>750.611</ele>
        <time>2011-07-03T19:14:16Z</time>
      </trkpt>
      <trkpt lat="62.320442" lon="12.470275">
        <ele>750.781</ele>
        <time>2011-07-03T19:14:20Z</time>
      </trkpt>
      <trkpt lat="62.320468" lon="12.470185">
        <ele>751.013</ele>
        <time>2011-07-03T19:14:41Z</time>
      </trkpt>
      <trkpt lat="62.320486" lon="12.470181">
        <ele>750.928</ele>
        <time>2011-07-03T19:14:42Z</time>
      </trkpt>
      <trkpt lat="62.32057" lon="12.470036">
        <ele>750.885</ele>
        <time>2011-07-03T19:14:52Z</time>
      </trkpt>
      <trkpt lat="62.320662" lon="12.469966">
        <ele>750.911</ele>
        <time>2011-07-03T19:15:00Z</time>
      </trkpt>
      <trkpt lat="62.320761" lon="12.469891">
        <ele>750.818</ele>
        <time>2011-07-03T19:15:09Z</time>
      </trkpt>
      <trkpt lat="62.320819" lon="12.469856">
        <ele>750.74</ele>
        <time>2011-07-03T19:15:14Z</time>
      </trkpt>
      <trkpt lat="62.320915" lon="12.469783">
        <ele>750.838</ele>
        <time>2011-07-03T19:15:23Z</time>
      </trkpt>
      <trkpt lat="62.320978" lon="12.469731">
        <ele>750.646</ele>
        <time>2011-07-03T19:15:29Z</time>
      </trkpt>
      <trkpt lat="62.320991" lon="12.469696">
        <ele>750.447</ele>
        <time>2011-07-03T19:15:31Z</time>
      </trkpt>
      <trkpt lat="62.321018" lon="12.469651">
        <ele>750.543</ele>
        <time>2011-07-03T19:15:34Z</time>
      </trkpt>
      <trkpt lat="62.321054" lon="12.469636">
        <ele>750.325</ele>
        <time>2011-07-03T19:15:38Z</time>
      </trkpt>
      <trkpt lat="62.321071" lon="12.469614">
        <ele>750.421</ele>
        <time>2011-07-03T19:15:40Z</time>
      </trkpt>
      <trkpt lat="62.321095" lon="12.469593">
        <ele>750.502</ele>
        <time>2011-07-03T19:15:43Z</time>
      </trkpt>
      <trkpt lat="62.321154" lon="12.469679">
        <ele>750.504</ele>
        <time>2011-07-03T19:15:49Z</time>
      </trkpt>
      <trkpt lat="62.321253" lon="12.469717">
        <ele>750.826</ele>
        <time>2011-07-03T19:15:58Z</time>
      </trkpt>
      <trkpt lat="62.321298" lon="12.469744">
        <ele>750.792</ele>
        <time>2011-07-03T19:16:03Z</time>
      </trkpt>
      <trkpt lat="62.321361" lon="12.469779">
        <ele>751.413</ele>
        <time>2011-07-03T19:16:10Z</time>
      </trkpt>
      <trkpt lat="62.321404" lon="12.469774">
        <ele>751.79</ele>
        <time>2011-07-03T19:16:14Z</time>
      </trkpt>
      <trkpt lat="62.32146" lon="12.469777">
        <ele>752.164</ele>
        <time>2011-07-03T19:16:19Z</time>
      </trkpt>
      <trkpt lat="62.321471" lon="12.469784">
        <ele>752.291</ele>
        <time>2011-07-03T19:16:20Z</time>
      </trkpt>
      <trkpt lat="62.321524" lon="12.469779">
        <ele>752.232</ele>
        <time>2011-07-03T19:16:26Z</time>
      </trkpt>
      <trkpt lat="62.321589" lon="12.469799">
        <ele>752.231</ele>
        <time>2011-07-03T19:16:33Z</time>
      </trkpt>
      <trkpt lat="62.321677" lon="12.469778">
        <ele>752.54</ele>
        <time>2011-07-03T19:16:41Z</time>
      </trkpt>
      <trkpt lat="62.321729" lon="12.469755">
        <ele>752.584</ele>
        <time>2011-07-03T19:16:48Z</time>
      </trkpt>
      <trkpt lat="62.321778" lon="12.469767">
        <ele>752.33</ele>
        <time>2011-07-03T19:16:53Z</time>
      </trkpt>
      <trkpt lat="62.321808" lon="12.469726">
        <ele>751.705</ele>
        <time>2011-07-03T19:16:58Z</time>
      </trkpt>
      <trkpt lat="62.321849" lon="12.46969">
        <ele>750.861</ele>
        <time>2011-07-03T19:17:02Z</time>
      </trkpt>
      <trkpt lat="62.321906" lon="12.469623">
        <ele>750.585</ele>
        <time>2011-07-03T19:17:09Z</time>
      </trkpt>
      <trkpt lat="62.321987" lon="12.469481">
        <ele>751.174</ele>
        <time>2011-07-03T19:17:18Z</time>
      </trkpt>
      <trkpt lat="62.322021" lon="12.469469">
        <ele>751.046</ele>
        <time>2011-07-03T19:17:21Z</time>
      </trkpt>
      <trkpt lat="62.322127" lon="12.469458">
        <ele>750.584</ele>
        <time>2011-07-03T19:17:29Z</time>
      </trkpt>
      <trkpt lat="62.322189" lon="12.469375">
        <ele>750.586</ele>
        <time>2011-07-03T19:17:35Z</time>
      </trkpt>
      <trkpt lat="62.322213" lon="12.469321">
        <ele>750.519</ele>
        <time>2011-07-03T19:17:39Z</time>
      </trkpt>
      <trkpt lat="62.322285" lon="12.469273">
        <ele>750.396</ele>
        <time>2011-07-03T19:17:54Z</time>
      </trkpt>
      <trkpt lat="62.322434" lon="12.469072">
        <ele>750.51</ele>
        <time>2011-07-03T19:18:04Z</time>
      </trkpt>
      <trkpt lat="62.322523" lon="12.468864">
        <ele>750.4</ele>
        <time>2011-07-03T19:18:12Z</time>
      </trkpt>
      <trkpt lat="62.32259" lon="12.468727">
        <ele>750.533</ele>
        <time>2011-07-03T19:18:17Z</time>
      </trkpt>
      <trkpt lat="62.322642" lon="12.468504">
        <ele>750.479</ele>
        <time>2011-07-03T19:18:23Z</time>
      </trkpt>
      <trkpt lat="62.322626" lon="12.468294">
        <ele>749.942</ele>
        <time>2011-07-03T19:18:29Z</time>
      </trkpt>
      <trkpt lat="62.322556" lon="12.467993">
        <ele>749.991</ele>
        <time>2011-07-03T19:18:34Z</time>
      </trkpt>
      <trkpt lat="62.32247" lon="12.46772">
        <ele>750.908</ele>
        <time>2011-07-03T19:18:39Z</time>
      </trkpt>
      <trkpt lat="62.322414" lon="12.467503">
        <ele>751.004</ele>
        <time>2011-07-03T19:18:44Z</time>
      </trkpt>
      <trkpt lat="62.322395" lon="12.467407">
        <ele>751.231</ele>
        <time>2011-07-03T19:18:46Z</time>
      </trkpt>
      <trkpt lat="62.322361" lon="12.467121">
        <ele>751.884</ele>
        <time>2011-07-03T19:18:52Z</time>
      </trkpt>
      <trkpt lat="62.322315" lon="12.466874">
        <ele>752.01</ele>
        <time>2011-07-03T19:18:58Z</time>
      </trkpt>
      <trkpt lat="62.322304" lon="12.466839">
        <ele>751.865</ele>
        <time>2011-07-03T19:18:59Z</time>
      </trkpt>
      <trkpt lat="62.322242" lon="12.466586">
        <ele>751.197</ele>
        <time>2011-07-03T19:19:06Z</time>
      </trkpt>
      <trkpt lat="62.322221" lon="12.466517">
        <ele>751.292</ele>
        <time>2011-07-03T19:19:08Z</time>
      </trkpt>
      <trkpt lat="62.322173" lon="12.466421">
        <ele>751.367</ele>
        <time>2011-07-03T19:19:11Z</time>
      </trkpt>
      <trkpt lat="62.322106" lon="12.466266">
        <ele>751.804</ele>
        <time>2011-07-03T19:19:18Z</time>
      </trkpt>
      <trkpt lat="62.322063" lon="12.4662">
        <ele>752.348</ele>
        <time>2011-07-03T19:19:22Z</time>
      </trkpt>
      <trkpt lat="62.322005" lon="12.466009">
        <ele>754.203</ele>
        <time>2011-07-03T19:19:30Z</time>
      </trkpt>
      <trkpt lat="62.32194" lon="12.465887">
        <ele>754.114</ele>
        <time>2011-07-03T19:19:37Z</time>
      </trkpt>
      <trkpt lat="62.32189" lon="12.46576">
        <ele>753.475</ele>
        <time>2011-07-03T19:19:44Z</time>
      </trkpt>
      <trkpt lat="62.321855" lon="12.465714">
        <ele>753.284</ele>
        <time>2011-07-03T19:19:47Z</time>
      </trkpt>
      <trkpt lat="62.321768" lon="12.465583">
        <ele>753.356</ele>
        <time>2011-07-03T19:19:55Z</time>
      </trkpt>
      <trkpt lat="62.32173" lon="12.465524">
        <ele>753.146</ele>
        <time>2011-07-03T19:19:59Z</time>
      </trkpt>
      <trkpt lat="62.321696" lon="12.465456">
        <ele>753.091</ele>
        <time>2011-07-03T19:20:03Z</time>
      </trkpt>
      <trkpt lat="62.321632" lon="12.465325">
        <ele>753.191</ele>
        <time>2011-07-03T19:20:11Z</time>
      </trkpt>
      <trkpt lat="62.321589" lon="12.465189">
        <ele>753.082</ele>
        <time>2011-07-03T19:20:16Z</time>
      </trkpt>
      <trkpt lat="62.321549" lon="12.465038">
        <ele>753.825</ele>
        <time>2011-07-03T19:20:24Z</time>
      </trkpt>
      <trkpt lat="62.321531" lon="12.464907">
        <ele>753.378</ele>
        <time>2011-07-03T19:20:32Z</time>
      </trkpt>
      <trkpt lat="62.321529" lon="12.464865">
        <ele>753.21</ele>
        <time>2011-07-03T19:20:34Z</time>
      </trkpt>
      <trkpt lat="62.321476" lon="12.464669">
        <ele>752.372</ele>
        <time>2011-07-03T19:20:43Z</time>
      </trkpt>
      <trkpt lat="62.321465" lon="12.464606">
        <ele>752.429</ele>
        <time>2011-07-03T19:20:45Z</time>
      </trkpt>
      <trkpt lat="62.321436" lon="12.464461">
        <ele>752.614</ele>
        <time>2011-07-03T19:20:50Z</time>
      </trkpt>
      <trkpt lat="62.321416" lon="12.464298">
        <ele>753.471</ele>
        <time>2011-07-03T19:20:57Z</time>
      </trkpt>
      <trkpt lat="62.321405" lon="12.464247">
        <ele>754.175</ele>
        <time>2011-07-03T19:21:00Z</time>
      </trkpt>
      <trkpt lat="62.32139" lon="12.464129">
        <ele>756.112</ele>
        <time>2011-07-03T19:21:07Z</time>
      </trkpt>
      <trkpt lat="62.321354" lon="12.464074">
        <ele>757.868</ele>
        <time>2011-07-03T19:21:13Z</time>
      </trkpt>
      <trkpt lat="62.321277" lon="12.464063">
        <ele>758.526</ele>
        <time>2011-07-03T19:21:41Z</time>
      </trkpt>
      <trkpt lat="62.321272" lon="12.46405">
        <ele>758.795</ele>
        <time>2011-07-03T19:21:42Z</time>
      </trkpt>
      <trkpt lat="62.321231" lon="12.463953">
        <ele>759.459</ele>
        <time>2011-07-03T19:21:49Z</time>
      </trkpt>
      <trkpt lat="62.321197" lon="12.46384">
        <ele>760.936</ele>
        <time>2011-07-03T19:21:54Z</time>
      </trkpt>
      <trkpt lat="62.321193" lon="12.463823">
        <ele>761.145</ele>
        <time>2011-07-03T19:21:55Z</time>
      </trkpt>
      <trkpt lat="62.321168" lon="12.463689">
        <ele>761.854</ele>
        <time>2011-07-03T19:22:01Z</time>
      </trkpt>
      <trkpt lat="62.321135" lon="12.463545">
        <ele>762.587</ele>
        <time>2011-07-03T19:22:08Z</time>
      </trkpt>
      <trkpt lat="62.321097" lon="12.463417">
        <ele>763.342</ele>
        <time>2011-07-03T19:22:15Z</time>
      </trkpt>
      <trkpt lat="62.321049" lon="12.463327">
        <ele>763.552</ele>
        <time>2011-07-03T19:22:22Z</time>
      </trkpt>
      <trkpt lat="62.320971" lon="12.463232">
        <ele>763.343</ele>
        <time>2011-07-03T19:22:32Z</time>
      </trkpt>
      <trkpt lat="62.32093" lon="12.4632">
        <ele>762.791</ele>
        <time>2011-07-03T19:22:38Z</time>
      </trkpt>
      <trkpt lat="62.320891" lon="12.463145">
        <ele>762.534</ele>
        <time>2011-07-03T19:22:42Z</time>
      </trkpt>
      <trkpt lat="62.320873" lon="12.463121">
        <ele>762.365</ele>
        <time>2011-07-03T19:22:44Z</time>
      </trkpt>
      <trkpt lat="62.32078" lon="12.463069">
        <ele>762.189</ele>
        <time>2011-07-03T19:22:51Z</time>
      </trkpt>
      <trkpt lat="62.320725" lon="12.463037">
        <ele>762.168</ele>
        <time>2011-07-03T19:22:56Z</time>
      </trkpt>
      <trkpt lat="62.320573" lon="12.462981">
        <ele>762.039</ele>
        <time>2011-07-03T19:23:18Z</time>
      </trkpt>
      <trkpt lat="62.320568" lon="12.462969">
        <ele>762.053</ele>
        <time>2011-07-03T19:23:19Z</time>
      </trkpt>
      <trkpt lat="62.320517" lon="12.462927">
        <ele>762.712</ele>
        <time>2011-07-03T19:23:25Z</time>
      </trkpt>
      <trkpt lat="62.320445" lon="12.462874">
        <ele>762.179</ele>
        <time>2011-07-03T19:23:33Z</time>
      </trkpt>
      <trkpt lat="62.320385" lon="12.462848">
        <ele>761.858</ele>
        <time>2011-07-03T19:23:38Z</time>
      </trkpt>
      <trkpt lat="62.320377" lon="12.462845">
        <ele>761.743</ele>
        <time>2011-07-03T19:23:39Z</time>
      </trkpt>
      <trkpt lat="62.3203" lon="12.462807">
        <ele>760.93</ele>
        <time>2011-07-03T19:23:47Z</time>
      </trkpt>
      <trkpt lat="62.320228" lon="12.462799">
        <ele>760.735</ele>
        <time>2011-07-03T19:23:54Z</time>
      </trkpt>
      <trkpt lat="62.320157" lon="12.462794">
        <ele>760.914</ele>
        <time>2011-07-03T19:24:04Z</time>
      </trkpt>
      <trkpt lat="62.320124" lon="12.462804">
        <ele>761.051</ele>
        <time>2011-07-03T19:24:07Z</time>
      </trkpt>
      <trkpt lat="62.320044" lon="12.462804">
        <ele>761.68</ele>
        <time>2011-07-03T19:24:14Z</time>
      </trkpt>
      <trkpt lat="62.319969" lon="12.462794">
        <ele>762.254</ele>
        <time>2011-07-03T19:24:21Z</time>
      </trkpt>
      <trkpt lat="62.319954" lon="12.462806">
        <ele>762.228</ele>
        <time>2011-07-03T19:24:22Z</time>
      </trkpt>
      <trkpt lat="62.319887" lon="12.46277">
        <ele>762.442</ele>
        <time>2011-07-03T19:24:29Z</time>
      </trkpt>
      <trkpt lat="62.319876" lon="12.462752">
        <ele>762.5</ele>
        <time>2011-07-03T19:24:30Z</time>
      </trkpt>
      <trkpt lat="62.319803" lon="12.462655">
        <ele>761.914</ele>
        <time>2011-07-03T19:24:37Z</time>
      </trkpt>
      <trkpt lat="62.319746" lon="12.462572">
        <ele>761.923</ele>
        <time>2011-07-03T19:24:44Z</time>
      </trkpt>
      <trkpt lat="62.319677" lon="12.462506">
        <ele>761.451</ele>
        <time>2011-07-03T19:24:51Z</time>
      </trkpt>
      <trkpt lat="62.319613" lon="12.462439">
        <ele>761.192</ele>
        <time>2011-07-03T19:24:58Z</time>
      </trkpt>
      <trkpt lat="62.319561" lon="12.462368">
        <ele>761.092</ele>
        <time>2011-07-03T19:25:04Z</time>
      </trkpt>
      <trkpt lat="62.319539" lon="12.462353">
        <ele>760.86</ele>
        <time>2011-07-03T19:25:06Z</time>
      </trkpt>
      <trkpt lat="62.319456" lon="12.462263">
        <ele>760.73</ele>
        <time>2011-07-03T19:25:15Z</time>
      </trkpt>
      <trkpt lat="62.319398" lon="12.462206">
        <ele>761.176</ele>
        <time>2011-07-03T19:25:21Z</time>
      </trkpt>
      <trkpt lat="62.31937" lon="12.462166">
        <ele>761.431</ele>
        <time>2011-07-03T19:25:24Z</time>
      </trkpt>
      <trkpt lat="62.319332" lon="12.462117">
        <ele>761.505</ele>
        <time>2011-07-03T19:25:29Z</time>
      </trkpt>
      <trkpt lat="62.319308" lon="12.462063">
        <ele>761.823</ele>
        <time>2011-07-03T19:25:33Z</time>
      </trkpt>
      <trkpt lat="62.319272" lon="12.461899">
        <ele>762.011</ele>
        <time>2011-07-03T19:25:42Z</time>
      </trkpt>
      <trkpt lat="62.319225" lon="12.461765">
        <ele>762.34</ele>
        <time>2011-07-03T19:25:50Z</time>
      </trkpt>
      <trkpt lat="62.319199" lon="12.461656">
        <ele>762.36</ele>
        <time>2011-07-03T19:25:56Z</time>
      </trkpt>
      <trkpt lat="62.319176" lon="12.46158">
        <ele>762.533</ele>
        <time>2011-07-03T19:26:00Z</time>
      </trkpt>
      <trkpt lat="62.319117" lon="12.461448">
        <ele>762.431</ele>
        <time>2011-07-03T19:26:08Z</time>
      </trkpt>
      <trkpt lat="62.31908" lon="12.461294">
        <ele>761.961</ele>
        <time>2011-07-03T19:26:15Z</time>
      </trkpt>
      <trkpt lat="62.319033" lon="12.461183">
        <ele>761.697</ele>
        <time>2011-07-03T19:26:21Z</time>
      </trkpt>
      <trkpt lat="62.318989" lon="12.461111">
        <ele>760.974</ele>
        <time>2011-07-03T19:26:26Z</time>
      </trkpt>
      <trkpt lat="62.318935" lon="12.461037">
        <ele>759.262</ele>
        <time>2011-07-03T19:26:31Z</time>
      </trkpt>
      <trkpt lat="62.318876" lon="12.460955">
        <ele>756.083</ele>
        <time>2011-07-03T19:26:38Z</time>
      </trkpt>
      <trkpt lat="62.31883" lon="12.460844">
        <ele>753.278</ele>
        <time>2011-07-03T19:26:45Z</time>
      </trkpt>
      <trkpt lat="62.318808" lon="12.460737">
        <ele>752.867</ele>
        <time>2011-07-03T19:26:51Z</time>
      </trkpt>
      <trkpt lat="62.318771" lon="12.460564">
        <ele>751.694</ele>
        <time>2011-07-03T19:26:58Z</time>
      </trkpt>
      <trkpt lat="62.318755" lon="12.460492">
        <ele>751.931</ele>
        <time>2011-07-03T19:27:02Z</time>
      </trkpt>
      <trkpt lat="62.31873" lon="12.460452">
        <ele>752.182</ele>
        <time>2011-07-03T19:27:05Z</time>
      </trkpt>
      <trkpt lat="62.318702" lon="12.460348">
        <ele>752.052</ele>
        <time>2011-07-03T19:27:09Z</time>
      </trkpt>
      <trkpt lat="62.318683" lon="12.460293">
        <ele>752.205</ele>
        <time>2011-07-03T19:27:11Z</time>
      </trkpt>
      <trkpt lat="62.318602" lon="12.460106">
        <ele>752.28</ele>
        <time>2011-07-03T19:27:19Z</time>
      </trkpt>
      <trkpt lat="62.318562" lon="12.459959">
        <ele>752.519</ele>
        <time>2011-07-03T19:27:26Z</time>
      </trkpt>
      <trkpt lat="62.318272" lon="12.459851">
        <ele>748.539</ele>
        <time>2011-07-03T19:27:47Z</time>
      </trkpt>
      <trkpt lat="62.318229" lon="12.459811">
        <ele>748.451</ele>
        <time>2011-07-03T19:27:50Z</time>
      </trkpt>
      <trkpt lat="62.318195" lon="12.459748">
        <ele>748.448</ele>
        <time>2011-07-03T19:27:53Z</time>
      </trkpt>
      <trkpt lat="62.31814" lon="12.459662">
        <ele>748.813</ele>
        <time>2011-07-03T19:27:58Z</time>
      </trkpt>
      <trkpt lat="62.318095" lon="12.459638">
        <ele>749.26</ele>
        <time>2011-07-03T19:28:01Z</time>
      </trkpt>
      <trkpt lat="62.318066" lon="12.45956">
        <ele>749.354</ele>
        <time>2011-07-03T19:28:04Z</time>
      </trkpt>
      <trkpt lat="62.318027" lon="12.459439">
        <ele>749.72</ele>
        <time>2011-07-03T19:28:09Z</time>
      </trkpt>
      <trkpt lat="62.317989" lon="12.459392">
        <ele>749.808</ele>
        <time>2011-07-03T19:28:12Z</time>
      </trkpt>
      <trkpt lat="62.317931" lon="12.459288">
        <ele>749.12</ele>
        <time>2011-07-03T19:28:17Z</time>
      </trkpt>
      <trkpt lat="62.317922" lon="12.459255">
        <ele>749.109</ele>
        <time>2011-07-03T19:28:18Z</time>
      </trkpt>
      <trkpt lat="62.317839" lon="12.459004">
        <ele>748.891</ele>
        <time>2011-07-03T19:28:26Z</time>
      </trkpt>
      <trkpt lat="62.317806" lon="12.45892">
        <ele>749.041</ele>
        <time>2011-07-03T19:28:30Z</time>
      </trkpt>
      <trkpt lat="62.317732" lon="12.45867">
        <ele>748.397</ele>
        <time>2011-07-03T19:28:36Z</time>
      </trkpt>
      <trkpt lat="62.317684" lon="12.45855">
        <ele>747.792</ele>
        <time>2011-07-03T19:28:39Z</time>
      </trkpt>
      <trkpt lat="62.317633" lon="12.458262">
        <ele>748.331</ele>
        <time>2011-07-03T19:28:45Z</time>
      </trkpt>
      <trkpt lat="62.317587" lon="12.458085">
        <ele>748.312</ele>
        <time>2011-07-03T19:28:49Z</time>
      </trkpt>
      <trkpt lat="62.317498" lon="12.457864">
        <ele>747.797</ele>
        <time>2011-07-03T19:28:54Z</time>
      </trkpt>
      <trkpt lat="62.317417" lon="12.457525">
        <ele>747.381</ele>
        <time>2011-07-03T19:29:01Z</time>
      </trkpt>
      <trkpt lat="62.317375" lon="12.457203">
        <ele>746.968</ele>
        <time>2011-07-03T19:29:07Z</time>
      </trkpt>
      <trkpt lat="62.317331" lon="12.456934">
        <ele>746.404</ele>
        <time>2011-07-03T19:29:12Z</time>
      </trkpt>
      <trkpt lat="62.317315" lon="12.456818">
        <ele>746.167</ele>
        <time>2011-07-03T19:29:14Z</time>
      </trkpt>
      <trkpt lat="62.317293" lon="12.456555">
        <ele>746.169</ele>
        <time>2011-07-03T19:29:20Z</time>
      </trkpt>
      <trkpt lat="62.317257" lon="12.456328">
        <ele>746.269</ele>
        <time>2011-07-03T19:29:26Z</time>
      </trkpt>
      <trkpt lat="62.317226" lon="12.456184">
        <ele>746.265</ele>
        <time>2011-07-03T19:29:31Z</time>
      </trkpt>
      <trkpt lat="62.317201" lon="12.456105">
        <ele>746.242</ele>
        <time>2011-07-03T19:29:34Z</time>
      </trkpt>
      <trkpt lat="62.317123" lon="12.45586">
        <ele>746.106</ele>
        <time>2011-07-03T19:29:42Z</time>
      </trkpt>
      <trkpt lat="62.317058" lon="12.455718">
        <ele>745.856</ele>
        <time>2011-07-03T19:29:46Z</time>
      </trkpt>
      <trkpt lat="62.316942" lon="12.455437">
        <ele>745.886</ele>
        <time>2011-07-03T19:29:55Z</time>
      </trkpt>
      <trkpt lat="62.316863" lon="12.455174">
        <ele>745.77</ele>
        <time>2011-07-03T19:30:05Z</time>
      </trkpt>
      <trkpt lat="62.316835" lon="12.454972">
        <ele>745.76</ele>
        <time>2011-07-03T19:30:12Z</time>
      </trkpt>
      <trkpt lat="62.316818" lon="12.454774">
        <ele>745.887</ele>
        <time>2011-07-03T19:30:19Z</time>
      </trkpt>
      <trkpt lat="62.31681" lon="12.454567">
        <ele>746.129</ele>
        <time>2011-07-03T19:30:26Z</time>
      </trkpt>
      <trkpt lat="62.316794" lon="12.454385">
        <ele>746.079</ele>
        <time>2011-07-03T19:30:33Z</time>
      </trkpt>
      <trkpt lat="62.316735" lon="12.454105">
        <ele>745.79</ele>
        <time>2011-07-03T19:30:43Z</time>
      </trkpt>
      <trkpt lat="62.316712" lon="12.453941">
        <ele>745.789</ele>
        <time>2011-07-03T19:30:50Z</time>
      </trkpt>
      <trkpt lat="62.316705" lon="12.453879">
        <ele>745.744</ele>
        <time>2011-07-03T19:30:54Z</time>
      </trkpt>
      <trkpt lat="62.316669" lon="12.453935">
        <ele>746.108</ele>
        <time>2011-07-03T19:31:29Z</time>
      </trkpt>
      <trkpt lat="62.316649" lon="12.453831">
        <ele>746.45</ele>
        <time>2011-07-03T19:31:35Z</time>
      </trkpt>
      <trkpt lat="62.316617" lon="12.45369">
        <ele>746.694</ele>
        <time>2011-07-03T19:31:42Z</time>
      </trkpt>
      <trkpt lat="62.316613" lon="12.453667">
        <ele>746.72</ele>
        <time>2011-07-03T19:31:43Z</time>
      </trkpt>
      <trkpt lat="62.316565" lon="12.453532">
        <ele>746.83</ele>
        <time>2011-07-03T19:31:51Z</time>
      </trkpt>
      <trkpt lat="62.316522" lon="12.453425">
        <ele>746.941</ele>
        <time>2011-07-03T19:31:57Z</time>
      </trkpt>
      <trkpt lat="62.316451" lon="12.453253">
        <ele>747.216</ele>
        <time>2011-07-03T19:32:06Z</time>
      </trkpt>
      <trkpt lat="62.316429" lon="12.453258">
        <ele>747.271</ele>
        <time>2011-07-03T19:32:08Z</time>
      </trkpt>
      <trkpt lat="62.316271" lon="12.453006">
        <ele>746.902</ele>
        <time>2011-07-03T19:32:26Z</time>
      </trkpt>
      <trkpt lat="62.316217" lon="12.452783">
        <ele>746.814</ele>
        <time>2011-07-03T19:32:34Z</time>
      </trkpt>
      <trkpt lat="62.316168" lon="12.452617">
        <ele>747.185</ele>
        <time>2011-07-03T19:32:42Z</time>
      </trkpt>
      <trkpt lat="62.316113" lon="12.45249">
        <ele>747.48</ele>
        <time>2011-07-03T19:32:48Z</time>
      </trkpt>
      <trkpt lat="62.316084" lon="12.452397">
        <ele>747.194</ele>
        <time>2011-07-03T19:32:52Z</time>
      </trkpt>
      <trkpt lat="62.316051" lon="12.452239">
        <ele>747.226</ele>
        <time>2011-07-03T19:33:00Z</time>
      </trkpt>
      <trkpt lat="62.315997" lon="12.452121">
        <ele>747.29</ele>
        <time>2011-07-03T19:33:07Z</time>
      </trkpt>
      <trkpt lat="62.315983" lon="12.452095">
        <ele>747.291</ele>
        <time>2011-07-03T19:33:08Z</time>
      </trkpt>
      <trkpt lat="62.315912" lon="12.451915">
        <ele>747.153</ele>
        <time>2011-07-03T19:33:15Z</time>
      </trkpt>
      <trkpt lat="62.315903" lon="12.451891">
        <ele>747.067</ele>
        <time>2011-07-03T19:33:16Z</time>
      </trkpt>
      <trkpt lat="62.315888" lon="12.451838">
        <ele>746.973</ele>
        <time>2011-07-03T19:33:18Z</time>
      </trkpt>
      <trkpt lat="62.315826" lon="12.451761">
        <ele>746.804</ele>
        <time>2011-07-03T19:33:23Z</time>
      </trkpt>
      <trkpt lat="62.31576" lon="12.451627">
        <ele>747.171</ele>
        <time>2011-07-03T19:33:31Z</time>
      </trkpt>
      <trkpt lat="62.315755" lon="12.451602">
        <ele>747.183</ele>
        <time>2011-07-03T19:33:32Z</time>
      </trkpt>
      <trkpt lat="62.315718" lon="12.451481">
        <ele>747.457</ele>
        <time>2011-07-03T19:33:37Z</time>
      </trkpt>
      <trkpt lat="62.315632" lon="12.451404">
        <ele>747.32</ele>
        <time>2011-07-03T19:33:43Z</time>
      </trkpt>
      <trkpt lat="62.31555" lon="12.451236">
        <ele>747.598</ele>
        <time>2011-07-03T19:33:51Z</time>
      </trkpt>
      <trkpt lat="62.315504" lon="12.451109">
        <ele>747.66</ele>
        <time>2011-07-03T19:33:56Z</time>
      </trkpt>
      <trkpt lat="62.315474" lon="12.450977">
        <ele>747.516</ele>
        <time>2011-07-03T19:34:01Z</time>
      </trkpt>
      <trkpt lat="62.315454" lon="12.450826">
        <ele>747.747</ele>
        <time>2011-07-03T19:34:08Z</time>
      </trkpt>
      <trkpt lat="62.315443" lon="12.450717">
        <ele>747.401</ele>
        <time>2011-07-03T19:34:13Z</time>
      </trkpt>
      <trkpt lat="62.315407" lon="12.450606">
        <ele>748.63</ele>
        <time>2011-07-03T19:34:18Z</time>
      </trkpt>
      <trkpt lat="62.315361" lon="12.450468">
        <ele>747.807</ele>
        <time>2011-07-03T19:34:24Z</time>
      </trkpt>
      <trkpt lat="62.315318" lon="12.45024">
        <ele>748.008</ele>
        <time>2011-07-03T19:34:32Z</time>
      </trkpt>
      <trkpt lat="62.315309" lon="12.450097">
        <ele>747.783</ele>
        <time>2011-07-03T19:34:37Z</time>
      </trkpt>
      <trkpt lat="62.315319" lon="12.449917">
        <ele>748.299</ele>
        <time>2011-07-03T19:34:44Z</time>
      </trkpt>
      <trkpt lat="62.315334" lon="12.449741">
        <ele>748.287</ele>
        <time>2011-07-03T19:34:51Z</time>
      </trkpt>
      <trkpt lat="62.31534" lon="12.449562">
        <ele>748.232</ele>
        <time>2011-07-03T19:34:57Z</time>
      </trkpt>
      <trkpt lat="62.315348" lon="12.449357">
        <ele>748.347</ele>
        <time>2011-07-03T19:35:04Z</time>
      </trkpt>
      <trkpt lat="62.315343" lon="12.449192">
        <ele>748.382</ele>
        <time>2011-07-03T19:35:10Z</time>
      </trkpt>
      <trkpt lat="62.315332" lon="12.449017">
        <ele>747.967</ele>
        <time>2011-07-03T19:35:16Z</time>
      </trkpt>
      <trkpt lat="62.315316" lon="12.448859">
        <ele>748.021</ele>
        <time>2011-07-03T19:35:22Z</time>
      </trkpt>
      <trkpt lat="62.315315" lon="12.448803">
        <ele>748.075</ele>
        <time>2011-07-03T19:35:24Z</time>
      </trkpt>
      <trkpt lat="62.315318" lon="12.448758">
        <ele>748.018</ele>
        <time>2011-07-03T19:35:26Z</time>
      </trkpt>
      <trkpt lat="62.315404" lon="12.448814">
        <ele>748.113</ele>
        <time>2011-07-03T19:35:34Z</time>
      </trkpt>
      <trkpt lat="62.315475" lon="12.44891">
        <ele>748.63</ele>
        <time>2011-07-03T19:35:41Z</time>
      </trkpt>
      <trkpt lat="62.315519" lon="12.449013">
        <ele>749.315</ele>
        <time>2011-07-03T19:35:47Z</time>
      </trkpt>
      <trkpt lat="62.315623" lon="12.44911">
        <ele>749.328</ele>
        <time>2011-07-03T19:35:55Z</time>
      </trkpt>
      <trkpt lat="62.315688" lon="12.449257">
        <ele>749.202</ele>
        <time>2011-07-03T19:36:02Z</time>
      </trkpt>
      <trkpt lat="62.31578" lon="12.449357">
        <ele>750.144</ele>
        <time>2011-07-03T19:36:10Z</time>
      </trkpt>
      <trkpt lat="62.315857" lon="12.449356">
        <ele>749.537</ele>
        <time>2011-07-03T19:36:16Z</time>
      </trkpt>
      <trkpt lat="62.315935" lon="12.449406">
        <ele>749.238</ele>
        <time>2011-07-03T19:36:22Z</time>
      </trkpt>
      <trkpt lat="62.315987" lon="12.449534">
        <ele>749.589</ele>
        <time>2011-07-03T19:36:28Z</time>
      </trkpt>
      <trkpt lat="62.316006" lon="12.44956">
        <ele>749.752</ele>
        <time>2011-07-03T19:36:30Z</time>
      </trkpt>
      <trkpt lat="62.316078" lon="12.449592">
        <ele>751.714</ele>
        <time>2011-07-03T19:36:38Z</time>
      </trkpt>
      <trkpt lat="62.316113" lon="12.449635">
        <ele>752.732</ele>
        <time>2011-07-03T19:36:43Z</time>
      </trkpt>
      <trkpt lat="62.316146" lon="12.4497">
        <ele>753.203</ele>
        <time>2011-07-03T19:36:47Z</time>
      </trkpt>
      <trkpt lat="62.316234" lon="12.449757">
        <ele>754.329</ele>
        <time>2011-07-03T19:36:56Z</time>
      </trkpt>
      <trkpt lat="62.316299" lon="12.449888">
        <ele>754.783</ele>
        <time>2011-07-03T19:37:03Z</time>
      </trkpt>
      <trkpt lat="62.316326" lon="12.449953">
        <ele>754.834</ele>
        <time>2011-07-03T19:37:06Z</time>
      </trkpt>
      <trkpt lat="62.316417" lon="12.450073">
        <ele>754.911</ele>
        <time>2011-07-03T19:37:14Z</time>
      </trkpt>
      <trkpt lat="62.316537" lon="12.450161">
        <ele>755.131</ele>
        <time>2011-07-03T19:37:22Z</time>
      </trkpt>
    </trkseg>
  </trk>
</gpx>